<?xml version="1.0" encoding="UTF-8" standalone="no" ?>
<gpx xmlns="http://www.topografix.com/GPX/1/1" xmlns:xsi="http://www.w3.org/2001/XMLSchema-instance" xsi:schemaLocation="http://www.topografix.com/GPX/1/1 http://www.topografix.com/GPX/1/1/gpx.xsd" version="1.1" creator="VisuGPX - https://www.visugpx.com">
  <metadata>
    <name>Le trail des forts à Besançon-47 Km</name>
    <desc><![CDATA[Le trail des forts à Besançon-47 Km]]></desc>
  </metadata>
  <trk>
    <name><![CDATA[Move]]></name>
    <trkseg>
      <trkpt lat="47.23021" lon="6.03899">
        <ele>254</ele>
        <time>2015-05-10T06:46:44.550Z</time>
      </trkpt>
      <trkpt lat="47.23024" lon="6.03908">
        <ele>254</ele>
        <time>2015-05-10T06:46:48.590Z</time>
      </trkpt>
      <trkpt lat="47.23031" lon="6.03919">
        <ele>253</ele>
        <time>2015-05-10T06:46:55.590Z</time>
      </trkpt>
      <trkpt lat="47.23037" lon="6.03931">
        <ele>252</ele>
        <time>2015-05-10T06:47:06.590Z</time>
      </trkpt>
      <trkpt lat="47.23043" lon="6.03945">
        <ele>251</ele>
        <time>2015-05-10T06:47:11.590Z</time>
      </trkpt>
      <trkpt lat="47.23049" lon="6.03959">
        <ele>251</ele>
        <time>2015-05-10T06:47:15.590Z</time>
      </trkpt>
      <trkpt lat="47.23055" lon="6.03974">
        <ele>250</ele>
        <time>2015-05-10T06:47:20.590Z</time>
      </trkpt>
      <trkpt lat="47.2306" lon="6.03989">
        <ele>249</ele>
        <time>2015-05-10T06:47:24.590Z</time>
      </trkpt>
      <trkpt lat="47.23062" lon="6.04001">
        <ele>249.8</ele>
        <time>2015-05-10T06:47:27.590Z</time>
      </trkpt>
      <trkpt lat="47.23064" lon="6.04015">
        <ele>251.8</ele>
        <time>2015-05-10T06:47:32.590Z</time>
      </trkpt>
      <trkpt lat="47.23058" lon="6.04027">
        <ele>252</ele>
        <time>2015-05-10T06:47:37.600Z</time>
      </trkpt>
      <trkpt lat="47.23049" lon="6.04037">
        <ele>253</ele>
        <time>2015-05-10T06:47:40.590Z</time>
      </trkpt>
      <trkpt lat="47.23039" lon="6.04049">
        <ele>254</ele>
        <time>2015-05-10T06:47:43.590Z</time>
      </trkpt>
      <trkpt lat="47.2303" lon="6.0406">
        <ele>254</ele>
        <time>2015-05-10T06:47:46.590Z</time>
      </trkpt>
      <trkpt lat="47.23019" lon="6.04071">
        <ele>255</ele>
        <time>2015-05-10T06:47:49.590Z</time>
      </trkpt>
      <trkpt lat="47.23009" lon="6.04083">
        <ele>255.8</ele>
        <time>2015-05-10T06:47:52.590Z</time>
      </trkpt>
      <trkpt lat="47.23" lon="6.04094">
        <ele>256</ele>
        <time>2015-05-10T06:47:55.590Z</time>
      </trkpt>
      <trkpt lat="47.22991" lon="6.04103">
        <ele>256.8</ele>
        <time>2015-05-10T06:47:58.590Z</time>
      </trkpt>
      <trkpt lat="47.22983" lon="6.04111">
        <ele>258</ele>
        <time>2015-05-10T06:48:01.590Z</time>
      </trkpt>
      <trkpt lat="47.22974" lon="6.04119">
        <ele>259</ele>
        <time>2015-05-10T06:48:04.590Z</time>
      </trkpt>
      <trkpt lat="47.22964" lon="6.04125">
        <ele>261</ele>
        <time>2015-05-10T06:48:07.590Z</time>
      </trkpt>
      <trkpt lat="47.22953" lon="6.04134">
        <ele>262</ele>
        <time>2015-05-10T06:48:11.590Z</time>
      </trkpt>
      <trkpt lat="47.22945" lon="6.04144">
        <ele>263.89898376086</ele>
        <time>2015-05-10T06:48:14.690Z</time>
      </trkpt>
      <trkpt lat="47.22936" lon="6.04154">
        <ele>265</ele>
        <time>2015-05-10T06:48:17.690Z</time>
      </trkpt>
      <trkpt lat="47.22927" lon="6.04165">
        <ele>265</ele>
        <time>2015-05-10T06:48:20.690Z</time>
      </trkpt>
      <trkpt lat="47.22919" lon="6.04173">
        <ele>265</ele>
        <time>2015-05-10T06:48:23.690Z</time>
      </trkpt>
      <trkpt lat="47.22908" lon="6.04178">
        <ele>265.1000064</ele>
        <time>2015-05-10T06:48:26.690Z</time>
      </trkpt>
      <trkpt lat="47.22895" lon="6.04173">
        <ele>263.1000064</ele>
        <time>2015-05-10T06:48:29.690Z</time>
      </trkpt>
      <trkpt lat="47.22885" lon="6.04161">
        <ele>262</ele>
        <time>2015-05-10T06:48:32.700Z</time>
      </trkpt>
      <trkpt lat="47.22878" lon="6.0415">
        <ele>260</ele>
        <time>2015-05-10T06:48:35.690Z</time>
      </trkpt>
      <trkpt lat="47.22874" lon="6.04143">
        <ele>259</ele>
        <time>2015-05-10T06:48:37.690Z</time>
      </trkpt>
      <trkpt lat="47.22869" lon="6.04129">
        <ele>258</ele>
        <time>2015-05-10T06:48:40.690Z</time>
      </trkpt>
      <trkpt lat="47.22862" lon="6.04116">
        <ele>256.1000064</ele>
        <time>2015-05-10T06:48:43.690Z</time>
      </trkpt>
      <trkpt lat="47.22856" lon="6.04102">
        <ele>255.8999936</ele>
        <time>2015-05-10T06:48:46.690Z</time>
      </trkpt>
      <trkpt lat="47.2285" lon="6.04089">
        <ele>255.1000064</ele>
        <time>2015-05-10T06:48:49.690Z</time>
      </trkpt>
      <trkpt lat="47.22843" lon="6.04077">
        <ele>256</ele>
        <time>2015-05-10T06:48:54.690Z</time>
      </trkpt>
      <trkpt lat="47.22834" lon="6.04066">
        <ele>256</ele>
        <time>2015-05-10T06:48:59.690Z</time>
      </trkpt>
      <trkpt lat="47.22825" lon="6.04054">
        <ele>256</ele>
        <time>2015-05-10T06:49:04.690Z</time>
      </trkpt>
      <trkpt lat="47.22818" lon="6.04041">
        <ele>256</ele>
        <time>2015-05-10T06:49:08.690Z</time>
      </trkpt>
      <trkpt lat="47.22808" lon="6.04035">
        <ele>254.1000064</ele>
        <time>2015-05-10T06:49:13.690Z</time>
      </trkpt>
      <trkpt lat="47.22802" lon="6.04047">
        <ele>253</ele>
        <time>2015-05-10T06:49:19.690Z</time>
      </trkpt>
      <trkpt lat="47.22796" lon="6.04058">
        <ele>254</ele>
        <time>2015-05-10T06:49:23.690Z</time>
      </trkpt>
      <trkpt lat="47.22789" lon="6.0407">
        <ele>254</ele>
        <time>2015-05-10T06:49:28.490Z</time>
      </trkpt>
      <trkpt lat="47.2278" lon="6.04084">
        <ele>254</ele>
        <time>2015-05-10T06:49:34.490Z</time>
      </trkpt>
      <trkpt lat="47.22772" lon="6.04095">
        <ele>254</ele>
        <time>2015-05-10T06:49:39.490Z</time>
      </trkpt>
      <trkpt lat="47.22765" lon="6.04107">
        <ele>255</ele>
        <time>2015-05-10T06:49:44.690Z</time>
      </trkpt>
      <trkpt lat="47.22758" lon="6.0412">
        <ele>256</ele>
        <time>2015-05-10T06:49:48.490Z</time>
      </trkpt>
      <trkpt lat="47.22752" lon="6.04132">
        <ele>256</ele>
        <time>2015-05-10T06:49:52.690Z</time>
      </trkpt>
      <trkpt lat="47.22746" lon="6.04146">
        <ele>256</ele>
        <time>2015-05-10T06:49:56.690Z</time>
      </trkpt>
      <trkpt lat="47.22741" lon="6.0416">
        <ele>256</ele>
        <time>2015-05-10T06:50:00.490Z</time>
      </trkpt>
      <trkpt lat="47.22736" lon="6.04174">
        <ele>257</ele>
        <time>2015-05-10T06:50:04.490Z</time>
      </trkpt>
      <trkpt lat="47.22731" lon="6.04189">
        <ele>257.3000064</ele>
        <time>2015-05-10T06:50:09.490Z</time>
      </trkpt>
      <trkpt lat="47.22727" lon="6.04203">
        <ele>257</ele>
        <time>2015-05-10T06:50:13.690Z</time>
      </trkpt>
      <trkpt lat="47.22725" lon="6.0422">
        <ele>257</ele>
        <time>2015-05-10T06:50:18.690Z</time>
      </trkpt>
      <trkpt lat="47.22722" lon="6.04236">
        <ele>258</ele>
        <time>2015-05-10T06:50:23.490Z</time>
      </trkpt>
      <trkpt lat="47.22716" lon="6.04251">
        <ele>257</ele>
        <time>2015-05-10T06:50:28.590Z</time>
      </trkpt>
      <trkpt lat="47.22712" lon="6.04265">
        <ele>257</ele>
        <time>2015-05-10T06:50:32.590Z</time>
      </trkpt>
      <trkpt lat="47.22708" lon="6.0428">
        <ele>257.24</ele>
        <time>2015-05-10T06:50:36.590Z</time>
      </trkpt>
      <trkpt lat="47.22705" lon="6.04295">
        <ele>257.23076923077</ele>
        <time>2015-05-10T06:50:41.590Z</time>
      </trkpt>
      <trkpt lat="47.22703" lon="6.04311">
        <ele>257</ele>
        <time>2015-05-10T06:50:47.590Z</time>
      </trkpt>
      <trkpt lat="47.22699" lon="6.04325">
        <ele>253.20833333333</ele>
        <time>2015-05-10T06:50:52.590Z</time>
      </trkpt>
      <trkpt lat="47.22696" lon="6.04337">
        <ele>252</ele>
        <time>2015-05-10T06:50:55.590Z</time>
      </trkpt>
      <trkpt lat="47.22695" lon="6.04353">
        <ele>251.76</ele>
        <time>2015-05-10T06:50:59.590Z</time>
      </trkpt>
      <trkpt lat="47.2269" lon="6.04371">
        <ele>250.22115692308</ele>
        <time>2015-05-10T06:51:03.600Z</time>
      </trkpt>
      <trkpt lat="47.22686" lon="6.04384">
        <ele>250</ele>
        <time>2015-05-10T06:51:07.590Z</time>
      </trkpt>
      <trkpt lat="47.22683" lon="6.04399">
        <ele>250</ele>
        <time>2015-05-10T06:51:11.590Z</time>
      </trkpt>
      <trkpt lat="47.22679" lon="6.04415">
        <ele>249</ele>
        <time>2015-05-10T06:51:15.590Z</time>
      </trkpt>
      <trkpt lat="47.22677" lon="6.04431">
        <ele>249</ele>
        <time>2015-05-10T06:51:19.590Z</time>
      </trkpt>
      <trkpt lat="47.22675" lon="6.04446">
        <ele>249</ele>
        <time>2015-05-10T06:51:24.590Z</time>
      </trkpt>
      <trkpt lat="47.22673" lon="6.0446">
        <ele>249</ele>
        <time>2015-05-10T06:51:29.590Z</time>
      </trkpt>
      <trkpt lat="47.22674" lon="6.04475">
        <ele>248</ele>
        <time>2015-05-10T06:51:34.590Z</time>
      </trkpt>
      <trkpt lat="47.22674" lon="6.04491">
        <ele>248</ele>
        <time>2015-05-10T06:51:47.590Z</time>
      </trkpt>
      <trkpt lat="47.22676" lon="6.04505">
        <ele>246.76</ele>
        <time>2015-05-10T06:52:00.590Z</time>
      </trkpt>
      <trkpt lat="47.22676" lon="6.0452">
        <ele>246</ele>
        <time>2015-05-10T06:52:06.590Z</time>
      </trkpt>
      <trkpt lat="47.22677" lon="6.04537">
        <ele>246</ele>
        <time>2015-05-10T06:52:10.590Z</time>
      </trkpt>
      <trkpt lat="47.22676" lon="6.04552">
        <ele>247.76</ele>
        <time>2015-05-10T06:52:14.590Z</time>
      </trkpt>
      <trkpt lat="47.22679" lon="6.04566">
        <ele>248</ele>
        <time>2015-05-10T06:52:20.590Z</time>
      </trkpt>
      <trkpt lat="47.22684" lon="6.04579">
        <ele>249.76</ele>
        <time>2015-05-10T06:52:24.590Z</time>
      </trkpt>
      <trkpt lat="47.22687" lon="6.04597">
        <ele>250</ele>
        <time>2015-05-10T06:52:28.590Z</time>
      </trkpt>
      <trkpt lat="47.22689" lon="6.04614">
        <ele>250.80208</ele>
        <time>2015-05-10T06:52:32.600Z</time>
      </trkpt>
      <trkpt lat="47.2269" lon="6.04626">
        <ele>251.76</ele>
        <time>2015-05-10T06:52:35.590Z</time>
      </trkpt>
      <trkpt lat="47.2269" lon="6.04641">
        <ele>252</ele>
        <time>2015-05-10T06:52:39.590Z</time>
      </trkpt>
      <trkpt lat="47.22691" lon="6.04659">
        <ele>251.4</ele>
        <time>2015-05-10T06:52:43.590Z</time>
      </trkpt>
      <trkpt lat="47.22691" lon="6.04674">
        <ele>250</ele>
        <time>2015-05-10T06:52:46.590Z</time>
      </trkpt>
      <trkpt lat="47.22691" lon="6.04686">
        <ele>249.1000064</ele>
        <time>2015-05-10T06:52:49.690Z</time>
      </trkpt>
      <trkpt lat="47.22691" lon="6.04698">
        <ele>249</ele>
        <time>2015-05-10T06:52:52.590Z</time>
      </trkpt>
      <trkpt lat="47.22692" lon="6.04709">
        <ele>248</ele>
        <time>2015-05-10T06:52:55.590Z</time>
      </trkpt>
      <trkpt lat="47.22692" lon="6.04723">
        <ele>248</ele>
        <time>2015-05-10T06:52:59.590Z</time>
      </trkpt>
      <trkpt lat="47.22696" lon="6.04741">
        <ele>249</ele>
        <time>2015-05-10T06:53:04.590Z</time>
      </trkpt>
      <trkpt lat="47.22696" lon="6.04756">
        <ele>249</ele>
        <time>2015-05-10T06:53:09.590Z</time>
      </trkpt>
      <trkpt lat="47.22696" lon="6.04772">
        <ele>248.24</ele>
        <time>2015-05-10T06:53:14.590Z</time>
      </trkpt>
      <trkpt lat="47.22699" lon="6.04788">
        <ele>247.24</ele>
        <time>2015-05-10T06:53:19.590Z</time>
      </trkpt>
      <trkpt lat="47.22701" lon="6.04805">
        <ele>246.24</ele>
        <time>2015-05-10T06:53:24.590Z</time>
      </trkpt>
      <trkpt lat="47.22702" lon="6.04819">
        <ele>247</ele>
        <time>2015-05-10T06:53:28.590Z</time>
      </trkpt>
      <trkpt lat="47.22705" lon="6.04836">
        <ele>248</ele>
        <time>2015-05-10T06:53:36.590Z</time>
      </trkpt>
      <trkpt lat="47.22708" lon="6.0485">
        <ele>247</ele>
        <time>2015-05-10T06:53:40.590Z</time>
      </trkpt>
      <trkpt lat="47.22712" lon="6.04867">
        <ele>246</ele>
        <time>2015-05-10T06:53:45.590Z</time>
      </trkpt>
      <trkpt lat="47.22715" lon="6.04885">
        <ele>246</ele>
        <time>2015-05-10T06:53:49.590Z</time>
      </trkpt>
      <trkpt lat="47.22719" lon="6.04903">
        <ele>246.76923076923</ele>
        <time>2015-05-10T06:53:53.590Z</time>
      </trkpt>
      <trkpt lat="47.22722" lon="6.04918">
        <ele>247</ele>
        <time>2015-05-10T06:53:57.590Z</time>
      </trkpt>
      <trkpt lat="47.22725" lon="6.04935">
        <ele>247</ele>
        <time>2015-05-10T06:54:01.590Z</time>
      </trkpt>
      <trkpt lat="47.22728" lon="6.04952">
        <ele>247.76</ele>
        <time>2015-05-10T06:54:05.590Z</time>
      </trkpt>
      <trkpt lat="47.22731" lon="6.04969">
        <ele>247.24</ele>
        <time>2015-05-10T06:54:09.590Z</time>
      </trkpt>
      <trkpt lat="47.22735" lon="6.04987">
        <ele>247</ele>
        <time>2015-05-10T06:54:13.590Z</time>
      </trkpt>
      <trkpt lat="47.22739" lon="6.05002">
        <ele>246.76923076923</ele>
        <time>2015-05-10T06:54:17.590Z</time>
      </trkpt>
      <trkpt lat="47.22744" lon="6.05016">
        <ele>246</ele>
        <time>2015-05-10T06:54:21.590Z</time>
      </trkpt>
      <trkpt lat="47.22747" lon="6.05031">
        <ele>247</ele>
        <time>2015-05-10T06:54:25.590Z</time>
      </trkpt>
      <trkpt lat="47.2275" lon="6.05047">
        <ele>246</ele>
        <time>2015-05-10T06:54:30.590Z</time>
      </trkpt>
      <trkpt lat="47.22755" lon="6.05062">
        <ele>246</ele>
        <time>2015-05-10T06:54:36.590Z</time>
      </trkpt>
      <trkpt lat="47.22759" lon="6.05075">
        <ele>246</ele>
        <time>2015-05-10T06:54:40.590Z</time>
      </trkpt>
      <trkpt lat="47.22765" lon="6.05088">
        <ele>245</ele>
        <time>2015-05-10T06:54:43.590Z</time>
      </trkpt>
      <trkpt lat="47.2277" lon="6.05103">
        <ele>245</ele>
        <time>2015-05-10T06:54:47.590Z</time>
      </trkpt>
      <trkpt lat="47.22776" lon="6.0512">
        <ele>244.2</ele>
        <time>2015-05-10T06:54:52.590Z</time>
      </trkpt>
      <trkpt lat="47.22779" lon="6.05136">
        <ele>244</ele>
        <time>2015-05-10T06:54:56.590Z</time>
      </trkpt>
      <trkpt lat="47.22783" lon="6.0515">
        <ele>244</ele>
        <time>2015-05-10T06:55:00.590Z</time>
      </trkpt>
      <trkpt lat="47.22786" lon="6.05165">
        <ele>245</ele>
        <time>2015-05-10T06:55:04.590Z</time>
      </trkpt>
      <trkpt lat="47.2279" lon="6.0518">
        <ele>245</ele>
        <time>2015-05-10T06:55:08.590Z</time>
      </trkpt>
      <trkpt lat="47.22793" lon="6.05195">
        <ele>246</ele>
        <time>2015-05-10T06:55:12.590Z</time>
      </trkpt>
      <trkpt lat="47.22797" lon="6.05211">
        <ele>245.8</ele>
        <time>2015-05-10T06:55:17.590Z</time>
      </trkpt>
      <trkpt lat="47.22803" lon="6.05226">
        <ele>246</ele>
        <time>2015-05-10T06:55:23.590Z</time>
      </trkpt>
      <trkpt lat="47.22807" lon="6.05239">
        <ele>246</ele>
        <time>2015-05-10T06:55:27.590Z</time>
      </trkpt>
      <trkpt lat="47.22812" lon="6.05252">
        <ele>246</ele>
        <time>2015-05-10T06:55:31.600Z</time>
      </trkpt>
      <trkpt lat="47.22816" lon="6.05264">
        <ele>245</ele>
        <time>2015-05-10T06:55:34.590Z</time>
      </trkpt>
      <trkpt lat="47.2282" lon="6.05275">
        <ele>245</ele>
        <time>2015-05-10T06:55:37.590Z</time>
      </trkpt>
      <trkpt lat="47.22826" lon="6.05288">
        <ele>245</ele>
        <time>2015-05-10T06:55:41.590Z</time>
      </trkpt>
      <trkpt lat="47.22834" lon="6.053">
        <ele>245</ele>
        <time>2015-05-10T06:55:45.590Z</time>
      </trkpt>
      <trkpt lat="47.22841" lon="6.05314">
        <ele>244.8</ele>
        <time>2015-05-10T06:55:49.590Z</time>
      </trkpt>
      <trkpt lat="47.22848" lon="6.05326">
        <ele>245</ele>
        <time>2015-05-10T06:55:53.590Z</time>
      </trkpt>
      <trkpt lat="47.22853" lon="6.05337">
        <ele>243.4</ele>
        <time>2015-05-10T06:55:56.590Z</time>
      </trkpt>
      <trkpt lat="47.22856" lon="6.05348">
        <ele>244</ele>
        <time>2015-05-10T06:55:59.590Z</time>
      </trkpt>
      <trkpt lat="47.2286" lon="6.05356">
        <ele>245</ele>
        <time>2015-05-10T06:56:02.590Z</time>
      </trkpt>
      <trkpt lat="47.22869" lon="6.05359">
        <ele>246</ele>
        <time>2015-05-10T06:56:08.590Z</time>
      </trkpt>
      <trkpt lat="47.22877" lon="6.05367">
        <ele>246</ele>
        <time>2015-05-10T06:56:13.590Z</time>
      </trkpt>
      <trkpt lat="47.22883" lon="6.05377">
        <ele>245.2</ele>
        <time>2015-05-10T06:56:16.590Z</time>
      </trkpt>
      <trkpt lat="47.22889" lon="6.05389">
        <ele>246</ele>
        <time>2015-05-10T06:56:19.590Z</time>
      </trkpt>
      <trkpt lat="47.22896" lon="6.054">
        <ele>246</ele>
        <time>2015-05-10T06:56:23.590Z</time>
      </trkpt>
      <trkpt lat="47.22907" lon="6.05405">
        <ele>247</ele>
        <time>2015-05-10T06:56:28.590Z</time>
      </trkpt>
      <trkpt lat="47.22916" lon="6.05411">
        <ele>247</ele>
        <time>2015-05-10T06:56:32.590Z</time>
      </trkpt>
      <trkpt lat="47.22927" lon="6.05421">
        <ele>248</ele>
        <time>2015-05-10T06:56:36.590Z</time>
      </trkpt>
      <trkpt lat="47.22935" lon="6.05429">
        <ele>247.8</ele>
        <time>2015-05-10T06:56:39.590Z</time>
      </trkpt>
      <trkpt lat="47.22944" lon="6.05439">
        <ele>248</ele>
        <time>2015-05-10T06:56:42.590Z</time>
      </trkpt>
      <trkpt lat="47.22952" lon="6.0545">
        <ele>249</ele>
        <time>2015-05-10T06:56:45.590Z</time>
      </trkpt>
      <trkpt lat="47.2296" lon="6.05461">
        <ele>249</ele>
        <time>2015-05-10T06:56:48.590Z</time>
      </trkpt>
      <trkpt lat="47.22968" lon="6.05474">
        <ele>249</ele>
        <time>2015-05-10T06:56:52.590Z</time>
      </trkpt>
      <trkpt lat="47.22976" lon="6.05484">
        <ele>249</ele>
        <time>2015-05-10T06:56:55.590Z</time>
      </trkpt>
      <trkpt lat="47.22983" lon="6.05494">
        <ele>250</ele>
        <time>2015-05-10T06:56:59.310Z</time>
      </trkpt>
      <trkpt lat="47.22989" lon="6.05506">
        <ele>251</ele>
        <time>2015-05-10T06:57:03.590Z</time>
      </trkpt>
      <trkpt lat="47.22997" lon="6.05518">
        <ele>250</ele>
        <time>2015-05-10T06:57:07.590Z</time>
      </trkpt>
      <trkpt lat="47.23006" lon="6.0553">
        <ele>251</ele>
        <time>2015-05-10T06:57:11.590Z</time>
      </trkpt>
      <trkpt lat="47.23012" lon="6.05543">
        <ele>251</ele>
        <time>2015-05-10T06:57:14.590Z</time>
      </trkpt>
      <trkpt lat="47.2302" lon="6.05554">
        <ele>251</ele>
        <time>2015-05-10T06:57:17.600Z</time>
      </trkpt>
      <trkpt lat="47.23028" lon="6.05564">
        <ele>251</ele>
        <time>2015-05-10T06:57:20.590Z</time>
      </trkpt>
      <trkpt lat="47.23037" lon="6.05576">
        <ele>251</ele>
        <time>2015-05-10T06:57:23.590Z</time>
      </trkpt>
      <trkpt lat="47.23046" lon="6.05588">
        <ele>249</ele>
        <time>2015-05-10T06:57:26.590Z</time>
      </trkpt>
      <trkpt lat="47.23057" lon="6.05591">
        <ele>249</ele>
        <time>2015-05-10T06:57:29.590Z</time>
      </trkpt>
      <trkpt lat="47.23068" lon="6.05591">
        <ele>249.20201954903</ele>
        <time>2015-05-10T06:57:32.590Z</time>
      </trkpt>
      <trkpt lat="47.23079" lon="6.05591">
        <ele>249</ele>
        <time>2015-05-10T06:57:35.590Z</time>
      </trkpt>
      <trkpt lat="47.23086" lon="6.0559">
        <ele>249.8</ele>
        <time>2015-05-10T06:57:37.590Z</time>
      </trkpt>
      <trkpt lat="47.23093" lon="6.05589">
        <ele>250</ele>
        <time>2015-05-10T06:57:39.590Z</time>
      </trkpt>
      <trkpt lat="47.23101" lon="6.05585">
        <ele>250</ele>
        <time>2015-05-10T06:57:42.590Z</time>
      </trkpt>
      <trkpt lat="47.23109" lon="6.05587">
        <ele>250</ele>
        <time>2015-05-10T06:57:45.590Z</time>
      </trkpt>
      <trkpt lat="47.23117" lon="6.05591">
        <ele>251</ele>
        <time>2015-05-10T06:57:48.590Z</time>
      </trkpt>
      <trkpt lat="47.23124" lon="6.05596">
        <ele>251</ele>
        <time>2015-05-10T06:57:51.590Z</time>
      </trkpt>
      <trkpt lat="47.23133" lon="6.05602">
        <ele>252</ele>
        <time>2015-05-10T06:57:55.590Z</time>
      </trkpt>
      <trkpt lat="47.23142" lon="6.05611">
        <ele>251</ele>
        <time>2015-05-10T06:57:58.590Z</time>
      </trkpt>
      <trkpt lat="47.23149" lon="6.05617">
        <ele>251</ele>
        <time>2015-05-10T06:58:00.590Z</time>
      </trkpt>
      <trkpt lat="47.23155" lon="6.05624">
        <ele>251</ele>
        <time>2015-05-10T06:58:02.590Z</time>
      </trkpt>
      <trkpt lat="47.23164" lon="6.05632">
        <ele>251</ele>
        <time>2015-05-10T06:58:05.590Z</time>
      </trkpt>
      <trkpt lat="47.23173" lon="6.05642">
        <ele>251</ele>
        <time>2015-05-10T06:58:08.590Z</time>
      </trkpt>
      <trkpt lat="47.23183" lon="6.05652">
        <ele>250.375</ele>
        <time>2015-05-10T06:58:11.590Z</time>
      </trkpt>
      <trkpt lat="47.23191" lon="6.05665">
        <ele>250</ele>
        <time>2015-05-10T06:58:14.490Z</time>
      </trkpt>
      <trkpt lat="47.23199" lon="6.05679">
        <ele>249</ele>
        <time>2015-05-10T06:58:17.590Z</time>
      </trkpt>
      <trkpt lat="47.23204" lon="6.05694">
        <ele>249</ele>
        <time>2015-05-10T06:58:20.590Z</time>
      </trkpt>
      <trkpt lat="47.23208" lon="6.0571">
        <ele>249</ele>
        <time>2015-05-10T06:58:23.590Z</time>
      </trkpt>
      <trkpt lat="47.2321" lon="6.05728">
        <ele>249</ele>
        <time>2015-05-10T06:58:26.590Z</time>
      </trkpt>
      <trkpt lat="47.23214" lon="6.05743">
        <ele>249</ele>
        <time>2015-05-10T06:58:29.590Z</time>
      </trkpt>
      <trkpt lat="47.23218" lon="6.05757">
        <ele>249</ele>
        <time>2015-05-10T06:58:32.590Z</time>
      </trkpt>
      <trkpt lat="47.23223" lon="6.0577">
        <ele>248.2300032</ele>
        <time>2015-05-10T06:58:35.600Z</time>
      </trkpt>
      <trkpt lat="47.23231" lon="6.05781">
        <ele>248</ele>
        <time>2015-05-10T06:58:38.590Z</time>
      </trkpt>
      <trkpt lat="47.23239" lon="6.05793">
        <ele>248</ele>
        <time>2015-05-10T06:58:41.590Z</time>
      </trkpt>
      <trkpt lat="47.23246" lon="6.05804">
        <ele>248</ele>
        <time>2015-05-10T06:58:44.590Z</time>
      </trkpt>
      <trkpt lat="47.23254" lon="6.05813">
        <ele>248</ele>
        <time>2015-05-10T06:58:47.590Z</time>
      </trkpt>
      <trkpt lat="47.23263" lon="6.05822">
        <ele>247</ele>
        <time>2015-05-10T06:58:50.590Z</time>
      </trkpt>
      <trkpt lat="47.23272" lon="6.05832">
        <ele>247</ele>
        <time>2015-05-10T06:58:53.590Z</time>
      </trkpt>
      <trkpt lat="47.2328" lon="6.05842">
        <ele>247</ele>
        <time>2015-05-10T06:58:56.590Z</time>
      </trkpt>
      <trkpt lat="47.23288" lon="6.0585">
        <ele>247</ele>
        <time>2015-05-10T06:58:59.590Z</time>
      </trkpt>
      <trkpt lat="47.23296" lon="6.05859">
        <ele>247</ele>
        <time>2015-05-10T06:59:02.590Z</time>
      </trkpt>
      <trkpt lat="47.23305" lon="6.05868">
        <ele>247</ele>
        <time>2015-05-10T06:59:05.590Z</time>
      </trkpt>
      <trkpt lat="47.23314" lon="6.05874">
        <ele>247</ele>
        <time>2015-05-10T06:59:08.590Z</time>
      </trkpt>
      <trkpt lat="47.23322" lon="6.05881">
        <ele>247</ele>
        <time>2015-05-10T06:59:11.590Z</time>
      </trkpt>
      <trkpt lat="47.23331" lon="6.05887">
        <ele>247</ele>
        <time>2015-05-10T06:59:14.590Z</time>
      </trkpt>
      <trkpt lat="47.23341" lon="6.05894">
        <ele>247</ele>
        <time>2015-05-10T06:59:17.590Z</time>
      </trkpt>
      <trkpt lat="47.2335" lon="6.05901">
        <ele>247</ele>
        <time>2015-05-10T06:59:20.590Z</time>
      </trkpt>
      <trkpt lat="47.23357" lon="6.05905">
        <ele>247</ele>
        <time>2015-05-10T06:59:22.590Z</time>
      </trkpt>
      <trkpt lat="47.23367" lon="6.05911">
        <ele>247.8</ele>
        <time>2015-05-10T06:59:25.590Z</time>
      </trkpt>
      <trkpt lat="47.23375" lon="6.05917">
        <ele>247</ele>
        <time>2015-05-10T06:59:28.590Z</time>
      </trkpt>
      <trkpt lat="47.23384" lon="6.05923">
        <ele>248</ele>
        <time>2015-05-10T06:59:31.590Z</time>
      </trkpt>
      <trkpt lat="47.23394" lon="6.05927">
        <ele>248</ele>
        <time>2015-05-10T06:59:34.590Z</time>
      </trkpt>
      <trkpt lat="47.23403" lon="6.0593">
        <ele>248</ele>
        <time>2015-05-10T06:59:37.590Z</time>
      </trkpt>
      <trkpt lat="47.23415" lon="6.05935">
        <ele>248</ele>
        <time>2015-05-10T06:59:41.590Z</time>
      </trkpt>
      <trkpt lat="47.23425" lon="6.05937">
        <ele>248</ele>
        <time>2015-05-10T06:59:44.590Z</time>
      </trkpt>
      <trkpt lat="47.23434" lon="6.05939">
        <ele>249</ele>
        <time>2015-05-10T06:59:47.590Z</time>
      </trkpt>
      <trkpt lat="47.2344" lon="6.0594">
        <ele>249</ele>
        <time>2015-05-10T06:59:49.590Z</time>
      </trkpt>
      <trkpt lat="47.2345" lon="6.05941">
        <ele>249</ele>
        <time>2015-05-10T06:59:52.590Z</time>
      </trkpt>
      <trkpt lat="47.23462" lon="6.05941">
        <ele>248.2</ele>
        <time>2015-05-10T06:59:55.590Z</time>
      </trkpt>
      <trkpt lat="47.23472" lon="6.05942">
        <ele>249</ele>
        <time>2015-05-10T06:59:58.590Z</time>
      </trkpt>
      <trkpt lat="47.23482" lon="6.05942">
        <ele>249</ele>
        <time>2015-05-10T07:00:01.490Z</time>
      </trkpt>
      <trkpt lat="47.23494" lon="6.05945">
        <ele>249</ele>
        <time>2015-05-10T07:00:05.490Z</time>
      </trkpt>
      <trkpt lat="47.23507" lon="6.05948">
        <ele>250</ele>
        <time>2015-05-10T07:00:09.490Z</time>
      </trkpt>
      <trkpt lat="47.23517" lon="6.0595">
        <ele>250</ele>
        <time>2015-05-10T07:00:12.490Z</time>
      </trkpt>
      <trkpt lat="47.23527" lon="6.05951">
        <ele>249</ele>
        <time>2015-05-10T07:00:15.490Z</time>
      </trkpt>
      <trkpt lat="47.23537" lon="6.05954">
        <ele>249</ele>
        <time>2015-05-10T07:00:18.490Z</time>
      </trkpt>
      <trkpt lat="47.2355" lon="6.05961">
        <ele>249</ele>
        <time>2015-05-10T07:00:22.490Z</time>
      </trkpt>
      <trkpt lat="47.23562" lon="6.05968">
        <ele>249.3000064</ele>
        <time>2015-05-10T07:00:26.490Z</time>
      </trkpt>
      <trkpt lat="47.23572" lon="6.05974">
        <ele>249</ele>
        <time>2015-05-10T07:00:29.490Z</time>
      </trkpt>
      <trkpt lat="47.23582" lon="6.05978">
        <ele>249</ele>
        <time>2015-05-10T07:00:32.490Z</time>
      </trkpt>
      <trkpt lat="47.23593" lon="6.05984">
        <ele>249</ele>
        <time>2015-05-10T07:00:35.490Z</time>
      </trkpt>
      <trkpt lat="47.23602" lon="6.0599">
        <ele>249</ele>
        <time>2015-05-10T07:00:38.490Z</time>
      </trkpt>
      <trkpt lat="47.23611" lon="6.05995">
        <ele>249</ele>
        <time>2015-05-10T07:00:41.490Z</time>
      </trkpt>
      <trkpt lat="47.23624" lon="6.06001">
        <ele>249</ele>
        <time>2015-05-10T07:00:45.490Z</time>
      </trkpt>
      <trkpt lat="47.23636" lon="6.06005">
        <ele>249</ele>
        <time>2015-05-10T07:00:49.490Z</time>
      </trkpt>
      <trkpt lat="47.23646" lon="6.06009">
        <ele>249</ele>
        <time>2015-05-10T07:00:52.490Z</time>
      </trkpt>
      <trkpt lat="47.23656" lon="6.06012">
        <ele>249</ele>
        <time>2015-05-10T07:00:55.490Z</time>
      </trkpt>
      <trkpt lat="47.23666" lon="6.06009">
        <ele>249</ele>
        <time>2015-05-10T07:00:58.490Z</time>
      </trkpt>
      <trkpt lat="47.23676" lon="6.06001">
        <ele>249</ele>
        <time>2015-05-10T07:01:01.490Z</time>
      </trkpt>
      <trkpt lat="47.23686" lon="6.0599">
        <ele>249</ele>
        <time>2015-05-10T07:01:05.490Z</time>
      </trkpt>
      <trkpt lat="47.23697" lon="6.05981">
        <ele>250</ele>
        <time>2015-05-10T07:01:09.490Z</time>
      </trkpt>
      <trkpt lat="47.23707" lon="6.05971">
        <ele>250</ele>
        <time>2015-05-10T07:01:13.590Z</time>
      </trkpt>
      <trkpt lat="47.23718" lon="6.05966">
        <ele>251</ele>
        <time>2015-05-10T07:01:17.590Z</time>
      </trkpt>
      <trkpt lat="47.23729" lon="6.05963">
        <ele>252</ele>
        <time>2015-05-10T07:01:22.590Z</time>
      </trkpt>
      <trkpt lat="47.2374" lon="6.05963">
        <ele>254</ele>
        <time>2015-05-10T07:01:29.590Z</time>
      </trkpt>
      <trkpt lat="47.23751" lon="6.05965">
        <ele>255</ele>
        <time>2015-05-10T07:01:36.600Z</time>
      </trkpt>
      <trkpt lat="47.2376" lon="6.05969">
        <ele>256</ele>
        <time>2015-05-10T07:01:43.590Z</time>
      </trkpt>
      <trkpt lat="47.2377" lon="6.05975">
        <ele>257</ele>
        <time>2015-05-10T07:01:49.590Z</time>
      </trkpt>
      <trkpt lat="47.2378" lon="6.05984">
        <ele>258</ele>
        <time>2015-05-10T07:01:55.590Z</time>
      </trkpt>
      <trkpt lat="47.23788" lon="6.05993">
        <ele>260</ele>
        <time>2015-05-10T07:02:01.590Z</time>
      </trkpt>
      <trkpt lat="47.23797" lon="6.06002">
        <ele>263.8</ele>
        <time>2015-05-10T07:02:07.590Z</time>
      </trkpt>
      <trkpt lat="47.23807" lon="6.06006">
        <ele>265</ele>
        <time>2015-05-10T07:02:11.590Z</time>
      </trkpt>
      <trkpt lat="47.23817" lon="6.06006">
        <ele>266</ele>
        <time>2015-05-10T07:02:14.590Z</time>
      </trkpt>
      <trkpt lat="47.2383" lon="6.06009">
        <ele>267</ele>
        <time>2015-05-10T07:02:18.590Z</time>
      </trkpt>
      <trkpt lat="47.23841" lon="6.06011">
        <ele>268</ele>
        <time>2015-05-10T07:02:21.590Z</time>
      </trkpt>
      <trkpt lat="47.23852" lon="6.06013">
        <ele>268.8</ele>
        <time>2015-05-10T07:02:24.590Z</time>
      </trkpt>
      <trkpt lat="47.23862" lon="6.06013">
        <ele>269</ele>
        <time>2015-05-10T07:02:27.590Z</time>
      </trkpt>
      <trkpt lat="47.23872" lon="6.06013">
        <ele>270</ele>
        <time>2015-05-10T07:02:30.590Z</time>
      </trkpt>
      <trkpt lat="47.23882" lon="6.06014">
        <ele>271</ele>
        <time>2015-05-10T07:02:33.590Z</time>
      </trkpt>
      <trkpt lat="47.23893" lon="6.06014">
        <ele>272</ele>
        <time>2015-05-10T07:02:36.590Z</time>
      </trkpt>
      <trkpt lat="47.23905" lon="6.06018">
        <ele>273.8</ele>
        <time>2015-05-10T07:02:40.590Z</time>
      </trkpt>
      <trkpt lat="47.23917" lon="6.06023">
        <ele>275</ele>
        <time>2015-05-10T07:02:44.590Z</time>
      </trkpt>
      <trkpt lat="47.23927" lon="6.06025">
        <ele>275</ele>
        <time>2015-05-10T07:02:47.590Z</time>
      </trkpt>
      <trkpt lat="47.23939" lon="6.0603">
        <ele>276</ele>
        <time>2015-05-10T07:02:51.590Z</time>
      </trkpt>
      <trkpt lat="47.23948" lon="6.06033">
        <ele>277</ele>
        <time>2015-05-10T07:02:54.590Z</time>
      </trkpt>
      <trkpt lat="47.23959" lon="6.06034">
        <ele>277.8</ele>
        <time>2015-05-10T07:02:58.590Z</time>
      </trkpt>
      <trkpt lat="47.23971" lon="6.06034">
        <ele>278</ele>
        <time>2015-05-10T07:03:02.590Z</time>
      </trkpt>
      <trkpt lat="47.23983" lon="6.06031">
        <ele>279.6999936</ele>
        <time>2015-05-10T07:03:06.490Z</time>
      </trkpt>
      <trkpt lat="47.23993" lon="6.06029">
        <ele>280</ele>
        <time>2015-05-10T07:03:10.590Z</time>
      </trkpt>
      <trkpt lat="47.24004" lon="6.06026">
        <ele>281</ele>
        <time>2015-05-10T07:03:14.590Z</time>
      </trkpt>
      <trkpt lat="47.24014" lon="6.06026">
        <ele>281</ele>
        <time>2015-05-10T07:03:18.590Z</time>
      </trkpt>
      <trkpt lat="47.24024" lon="6.06028">
        <ele>283</ele>
        <time>2015-05-10T07:03:22.220Z</time>
      </trkpt>
      <trkpt lat="47.24035" lon="6.06031">
        <ele>283.69306516615</ele>
        <time>2015-05-10T07:03:26.490Z</time>
      </trkpt>
      <trkpt lat="47.24047" lon="6.06032">
        <ele>286</ele>
        <time>2015-05-10T07:03:31.490Z</time>
      </trkpt>
      <trkpt lat="47.24059" lon="6.06033">
        <ele>287</ele>
        <time>2015-05-10T07:03:35.490Z</time>
      </trkpt>
      <trkpt lat="47.24066" lon="6.06032">
        <ele>287.6999936</ele>
        <time>2015-05-10T07:03:39.490Z</time>
      </trkpt>
      <trkpt lat="47.24075" lon="6.06031">
        <ele>289</ele>
        <time>2015-05-10T07:03:44.490Z</time>
      </trkpt>
      <trkpt lat="47.24086" lon="6.06032">
        <ele>290</ele>
        <time>2015-05-10T07:03:50.490Z</time>
      </trkpt>
      <trkpt lat="47.24098" lon="6.06034">
        <ele>292</ele>
        <time>2015-05-10T07:03:55.490Z</time>
      </trkpt>
      <trkpt lat="47.24109" lon="6.06037">
        <ele>292</ele>
        <time>2015-05-10T07:03:59.500Z</time>
      </trkpt>
      <trkpt lat="47.24121" lon="6.06042">
        <ele>292.69306516615</ele>
        <time>2015-05-10T07:04:03.490Z</time>
      </trkpt>
      <trkpt lat="47.24132" lon="6.06048">
        <ele>294</ele>
        <time>2015-05-10T07:04:07.490Z</time>
      </trkpt>
      <trkpt lat="47.24142" lon="6.06054">
        <ele>294.6999936</ele>
        <time>2015-05-10T07:04:11.490Z</time>
      </trkpt>
      <trkpt lat="47.24152" lon="6.06059">
        <ele>295.6999936</ele>
        <time>2015-05-10T07:04:15.490Z</time>
      </trkpt>
      <trkpt lat="47.24163" lon="6.06064">
        <ele>297</ele>
        <time>2015-05-10T07:04:20.490Z</time>
      </trkpt>
      <trkpt lat="47.24174" lon="6.0607">
        <ele>298</ele>
        <time>2015-05-10T07:04:24.490Z</time>
      </trkpt>
      <trkpt lat="47.24183" lon="6.06076">
        <ele>299</ele>
        <time>2015-05-10T07:04:28.490Z</time>
      </trkpt>
      <trkpt lat="47.24192" lon="6.06083">
        <ele>300</ele>
        <time>2015-05-10T07:04:32.490Z</time>
      </trkpt>
      <trkpt lat="47.24203" lon="6.0609">
        <ele>302</ele>
        <time>2015-05-10T07:04:37.490Z</time>
      </trkpt>
      <trkpt lat="47.24212" lon="6.06096">
        <ele>304</ele>
        <time>2015-05-10T07:04:41.490Z</time>
      </trkpt>
      <trkpt lat="47.24224" lon="6.061">
        <ele>305</ele>
        <time>2015-05-10T07:04:46.490Z</time>
      </trkpt>
      <trkpt lat="47.24235" lon="6.06107">
        <ele>306</ele>
        <time>2015-05-10T07:04:50.490Z</time>
      </trkpt>
      <trkpt lat="47.24246" lon="6.06113">
        <ele>307</ele>
        <time>2015-05-10T07:04:54.490Z</time>
      </trkpt>
      <trkpt lat="47.24256" lon="6.06121">
        <ele>307.3000064</ele>
        <time>2015-05-10T07:04:58.490Z</time>
      </trkpt>
      <trkpt lat="47.24266" lon="6.0613">
        <ele>308</ele>
        <time>2015-05-10T07:05:02.490Z</time>
      </trkpt>
      <trkpt lat="47.24277" lon="6.0614">
        <ele>308</ele>
        <time>2015-05-10T07:05:06.490Z</time>
      </trkpt>
      <trkpt lat="47.24287" lon="6.06148">
        <ele>308</ele>
        <time>2015-05-10T07:05:10.500Z</time>
      </trkpt>
      <trkpt lat="47.24296" lon="6.06156">
        <ele>309</ele>
        <time>2015-05-10T07:05:14.490Z</time>
      </trkpt>
      <trkpt lat="47.24307" lon="6.06163">
        <ele>309</ele>
        <time>2015-05-10T07:05:18.490Z</time>
      </trkpt>
      <trkpt lat="47.24317" lon="6.0617">
        <ele>310</ele>
        <time>2015-05-10T07:05:22.490Z</time>
      </trkpt>
      <trkpt lat="47.24328" lon="6.06175">
        <ele>311</ele>
        <time>2015-05-10T07:05:26.490Z</time>
      </trkpt>
      <trkpt lat="47.24339" lon="6.06177">
        <ele>312</ele>
        <time>2015-05-10T07:05:30.490Z</time>
      </trkpt>
      <trkpt lat="47.2435" lon="6.06178">
        <ele>313</ele>
        <time>2015-05-10T07:05:35.490Z</time>
      </trkpt>
      <trkpt lat="47.24359" lon="6.06179">
        <ele>314</ele>
        <time>2015-05-10T07:05:40.590Z</time>
      </trkpt>
      <trkpt lat="47.24369" lon="6.06181">
        <ele>315.76</ele>
        <time>2015-05-10T07:05:45.590Z</time>
      </trkpt>
      <trkpt lat="47.24377" lon="6.06183">
        <ele>317</ele>
        <time>2015-05-10T07:05:50.590Z</time>
      </trkpt>
      <trkpt lat="47.24387" lon="6.06188">
        <ele>318.76</ele>
        <time>2015-05-10T07:05:54.590Z</time>
      </trkpt>
      <trkpt lat="47.24397" lon="6.0619">
        <ele>320</ele>
        <time>2015-05-10T07:05:58.590Z</time>
      </trkpt>
      <trkpt lat="47.24405" lon="6.06191">
        <ele>321.76923076923</ele>
        <time>2015-05-10T07:06:03.590Z</time>
      </trkpt>
      <trkpt lat="47.24416" lon="6.0619">
        <ele>324</ele>
        <time>2015-05-10T07:06:09.590Z</time>
      </trkpt>
      <trkpt lat="47.24425" lon="6.06187">
        <ele>325</ele>
        <time>2015-05-10T07:06:14.590Z</time>
      </trkpt>
      <trkpt lat="47.24434" lon="6.06186">
        <ele>326.76923076923</ele>
        <time>2015-05-10T07:06:18.590Z</time>
      </trkpt>
      <trkpt lat="47.24442" lon="6.06184">
        <ele>327</ele>
        <time>2015-05-10T07:06:22.590Z</time>
      </trkpt>
      <trkpt lat="47.24451" lon="6.0618">
        <ele>328</ele>
        <time>2015-05-10T07:06:27.590Z</time>
      </trkpt>
      <trkpt lat="47.24459" lon="6.06174">
        <ele>329</ele>
        <time>2015-05-10T07:06:31.590Z</time>
      </trkpt>
      <trkpt lat="47.24465" lon="6.06165">
        <ele>330</ele>
        <time>2015-05-10T07:06:35.590Z</time>
      </trkpt>
      <trkpt lat="47.24468" lon="6.06157">
        <ele>331</ele>
        <time>2015-05-10T07:06:39.590Z</time>
      </trkpt>
      <trkpt lat="47.24471" lon="6.06149">
        <ele>332.76</ele>
        <time>2015-05-10T07:06:44.590Z</time>
      </trkpt>
      <trkpt lat="47.24475" lon="6.06141">
        <ele>335</ele>
        <time>2015-05-10T07:06:49.590Z</time>
      </trkpt>
      <trkpt lat="47.24479" lon="6.06135">
        <ele>336</ele>
        <time>2015-05-10T07:06:54.590Z</time>
      </trkpt>
      <trkpt lat="47.24484" lon="6.06128">
        <ele>337</ele>
        <time>2015-05-10T07:07:01.590Z</time>
      </trkpt>
      <trkpt lat="47.24488" lon="6.06117">
        <ele>340</ele>
        <time>2015-05-10T07:07:12.590Z</time>
      </trkpt>
      <trkpt lat="47.24494" lon="6.06106">
        <ele>345.76923076923</ele>
        <time>2015-05-10T07:07:23.590Z</time>
      </trkpt>
      <trkpt lat="47.24499" lon="6.06094">
        <ele>348</ele>
        <time>2015-05-10T07:07:37.590Z</time>
      </trkpt>
      <trkpt lat="47.24503" lon="6.06092">
        <ele>348</ele>
        <time>2015-05-10T07:07:44.990Z</time>
      </trkpt>
      <trkpt lat="47.24505" lon="6.0609">
        <ele>349</ele>
        <time>2015-05-10T07:07:50.270Z</time>
      </trkpt>
      <trkpt lat="47.24509" lon="6.06088">
        <ele>350</ele>
        <time>2015-05-10T07:07:53.590Z</time>
      </trkpt>
      <trkpt lat="47.2452" lon="6.06092">
        <ele>351</ele>
        <time>2015-05-10T07:08:02.490Z</time>
      </trkpt>
      <trkpt lat="47.24531" lon="6.06094">
        <ele>353.6999936</ele>
        <time>2015-05-10T07:08:10.490Z</time>
      </trkpt>
      <trkpt lat="47.2454" lon="6.06099">
        <ele>355</ele>
        <time>2015-05-10T07:08:16.490Z</time>
      </trkpt>
      <trkpt lat="47.24549" lon="6.06107">
        <ele>357</ele>
        <time>2015-05-10T07:08:22.490Z</time>
      </trkpt>
      <trkpt lat="47.24558" lon="6.06117">
        <ele>357.6999936</ele>
        <time>2015-05-10T07:08:27.490Z</time>
      </trkpt>
      <trkpt lat="47.24567" lon="6.06122">
        <ele>359</ele>
        <time>2015-05-10T07:08:31.490Z</time>
      </trkpt>
      <trkpt lat="47.24577" lon="6.0613">
        <ele>360</ele>
        <time>2015-05-10T07:08:36.490Z</time>
      </trkpt>
      <trkpt lat="47.24587" lon="6.06136">
        <ele>361</ele>
        <time>2015-05-10T07:08:40.490Z</time>
      </trkpt>
      <trkpt lat="47.24598" lon="6.06142">
        <ele>363</ele>
        <time>2015-05-10T07:08:45.490Z</time>
      </trkpt>
      <trkpt lat="47.24608" lon="6.06149">
        <ele>365</ele>
        <time>2015-05-10T07:08:50.490Z</time>
      </trkpt>
      <trkpt lat="47.24618" lon="6.06153">
        <ele>367</ele>
        <time>2015-05-10T07:08:55.490Z</time>
      </trkpt>
      <trkpt lat="47.24629" lon="6.06157">
        <ele>368.6999936</ele>
        <time>2015-05-10T07:09:01.490Z</time>
      </trkpt>
      <trkpt lat="47.24639" lon="6.06163">
        <ele>370</ele>
        <time>2015-05-10T07:09:06.490Z</time>
      </trkpt>
      <trkpt lat="47.24649" lon="6.06167">
        <ele>372</ele>
        <time>2015-05-10T07:09:12.490Z</time>
      </trkpt>
      <trkpt lat="47.24659" lon="6.06168">
        <ele>373</ele>
        <time>2015-05-10T07:09:18.490Z</time>
      </trkpt>
      <trkpt lat="47.2467" lon="6.06171">
        <ele>374</ele>
        <time>2015-05-10T07:09:23.490Z</time>
      </trkpt>
      <trkpt lat="47.24679" lon="6.06176">
        <ele>373</ele>
        <time>2015-05-10T07:09:27.490Z</time>
      </trkpt>
      <trkpt lat="47.24691" lon="6.06182">
        <ele>374</ele>
        <time>2015-05-10T07:09:31.490Z</time>
      </trkpt>
      <trkpt lat="47.24703" lon="6.06186">
        <ele>374</ele>
        <time>2015-05-10T07:09:35.490Z</time>
      </trkpt>
      <trkpt lat="47.24713" lon="6.06191">
        <ele>374.6999936</ele>
        <time>2015-05-10T07:09:38.490Z</time>
      </trkpt>
      <trkpt lat="47.24723" lon="6.06196">
        <ele>376</ele>
        <time>2015-05-10T07:09:42.490Z</time>
      </trkpt>
      <trkpt lat="47.24714" lon="6.06186">
        <ele>378</ele>
        <time>2015-05-10T07:10:00.490Z</time>
      </trkpt>
      <trkpt lat="47.24705" lon="6.06177">
        <ele>379</ele>
        <time>2015-05-10T07:10:06.490Z</time>
      </trkpt>
      <trkpt lat="47.24704" lon="6.0616">
        <ele>381</ele>
        <time>2015-05-10T07:10:14.590Z</time>
      </trkpt>
      <trkpt lat="47.24703" lon="6.06145">
        <ele>381</ele>
        <time>2015-05-10T07:10:19.590Z</time>
      </trkpt>
      <trkpt lat="47.24697" lon="6.06132">
        <ele>382</ele>
        <time>2015-05-10T07:10:24.590Z</time>
      </trkpt>
      <trkpt lat="47.24691" lon="6.06118">
        <ele>382</ele>
        <time>2015-05-10T07:10:29.590Z</time>
      </trkpt>
      <trkpt lat="47.24684" lon="6.06105">
        <ele>382</ele>
        <time>2015-05-10T07:10:33.590Z</time>
      </trkpt>
      <trkpt lat="47.24678" lon="6.06093">
        <ele>381</ele>
        <time>2015-05-10T07:10:37.490Z</time>
      </trkpt>
      <trkpt lat="47.24669" lon="6.06083">
        <ele>381</ele>
        <time>2015-05-10T07:10:41.490Z</time>
      </trkpt>
      <trkpt lat="47.2466" lon="6.06074">
        <ele>381</ele>
        <time>2015-05-10T07:10:46.490Z</time>
      </trkpt>
      <trkpt lat="47.24651" lon="6.06066">
        <ele>381</ele>
        <time>2015-05-10T07:10:50.490Z</time>
      </trkpt>
      <trkpt lat="47.24641" lon="6.06057">
        <ele>381.6999936</ele>
        <time>2015-05-10T07:10:55.490Z</time>
      </trkpt>
      <trkpt lat="47.24631" lon="6.06051">
        <ele>383</ele>
        <time>2015-05-10T07:11:00.490Z</time>
      </trkpt>
      <trkpt lat="47.2462" lon="6.06045">
        <ele>383</ele>
        <time>2015-05-10T07:11:06.490Z</time>
      </trkpt>
      <trkpt lat="47.2461" lon="6.06039">
        <ele>385</ele>
        <time>2015-05-10T07:11:11.490Z</time>
      </trkpt>
      <trkpt lat="47.246" lon="6.0603">
        <ele>385</ele>
        <time>2015-05-10T07:11:16.490Z</time>
      </trkpt>
      <trkpt lat="47.2459" lon="6.06021">
        <ele>386</ele>
        <time>2015-05-10T07:11:21.490Z</time>
      </trkpt>
      <trkpt lat="47.24583" lon="6.06009">
        <ele>386</ele>
        <time>2015-05-10T07:11:25.490Z</time>
      </trkpt>
      <trkpt lat="47.24576" lon="6.05998">
        <ele>386</ele>
        <time>2015-05-10T07:11:29.490Z</time>
      </trkpt>
      <trkpt lat="47.24567" lon="6.05988">
        <ele>386</ele>
        <time>2015-05-10T07:11:33.490Z</time>
      </trkpt>
      <trkpt lat="47.24557" lon="6.0598">
        <ele>386.6999936</ele>
        <time>2015-05-10T07:11:38.490Z</time>
      </trkpt>
      <trkpt lat="47.24549" lon="6.05972">
        <ele>387</ele>
        <time>2015-05-10T07:11:42.490Z</time>
      </trkpt>
      <trkpt lat="47.24539" lon="6.05963">
        <ele>388</ele>
        <time>2015-05-10T07:11:47.490Z</time>
      </trkpt>
      <trkpt lat="47.2453" lon="6.05954">
        <ele>388</ele>
        <time>2015-05-10T07:11:51.490Z</time>
      </trkpt>
      <trkpt lat="47.24521" lon="6.05943">
        <ele>389</ele>
        <time>2015-05-10T07:11:55.490Z</time>
      </trkpt>
      <trkpt lat="47.24513" lon="6.05931">
        <ele>389</ele>
        <time>2015-05-10T07:12:00.490Z</time>
      </trkpt>
      <trkpt lat="47.24507" lon="6.05918">
        <ele>389</ele>
        <time>2015-05-10T07:12:04.490Z</time>
      </trkpt>
      <trkpt lat="47.24498" lon="6.05906">
        <ele>388.3000064</ele>
        <time>2015-05-10T07:12:08.490Z</time>
      </trkpt>
      <trkpt lat="47.24489" lon="6.05896">
        <ele>389</ele>
        <time>2015-05-10T07:12:11.490Z</time>
      </trkpt>
      <trkpt lat="47.24479" lon="6.05886">
        <ele>389.6999936</ele>
        <time>2015-05-10T07:12:15.490Z</time>
      </trkpt>
      <trkpt lat="47.2447" lon="6.05881">
        <ele>391</ele>
        <time>2015-05-10T07:12:19.490Z</time>
      </trkpt>
      <trkpt lat="47.2446" lon="6.05881">
        <ele>391.8</ele>
        <time>2015-05-10T07:12:24.590Z</time>
      </trkpt>
      <trkpt lat="47.24449" lon="6.0588">
        <ele>391</ele>
        <time>2015-05-10T07:12:29.590Z</time>
      </trkpt>
      <trkpt lat="47.24437" lon="6.05875">
        <ele>392</ele>
        <time>2015-05-10T07:12:34.590Z</time>
      </trkpt>
      <trkpt lat="47.24426" lon="6.05869">
        <ele>393.8</ele>
        <time>2015-05-10T07:12:39.590Z</time>
      </trkpt>
      <trkpt lat="47.24416" lon="6.05863">
        <ele>395.8</ele>
        <time>2015-05-10T07:12:44.590Z</time>
      </trkpt>
      <trkpt lat="47.24406" lon="6.05854">
        <ele>396</ele>
        <time>2015-05-10T07:12:48.590Z</time>
      </trkpt>
      <trkpt lat="47.24395" lon="6.05846">
        <ele>397</ele>
        <time>2015-05-10T07:12:52.590Z</time>
      </trkpt>
      <trkpt lat="47.24387" lon="6.05835">
        <ele>398</ele>
        <time>2015-05-10T07:12:56.590Z</time>
      </trkpt>
      <trkpt lat="47.24378" lon="6.05827">
        <ele>399</ele>
        <time>2015-05-10T07:13:00.590Z</time>
      </trkpt>
      <trkpt lat="47.24368" lon="6.05821">
        <ele>400.79798045097</ele>
        <time>2015-05-10T07:13:05.590Z</time>
      </trkpt>
      <trkpt lat="47.24356" lon="6.05819">
        <ele>402</ele>
        <time>2015-05-10T07:13:10.590Z</time>
      </trkpt>
      <trkpt lat="47.24346" lon="6.05814">
        <ele>401</ele>
        <time>2015-05-10T07:13:13.590Z</time>
      </trkpt>
      <trkpt lat="47.24335" lon="6.05805">
        <ele>402</ele>
        <time>2015-05-10T07:13:17.590Z</time>
      </trkpt>
      <trkpt lat="47.24324" lon="6.05798">
        <ele>404</ele>
        <time>2015-05-10T07:13:21.590Z</time>
      </trkpt>
      <trkpt lat="47.24313" lon="6.0579">
        <ele>405</ele>
        <time>2015-05-10T07:13:25.590Z</time>
      </trkpt>
      <trkpt lat="47.24302" lon="6.05781">
        <ele>406.8</ele>
        <time>2015-05-10T07:13:29.590Z</time>
      </trkpt>
      <trkpt lat="47.24294" lon="6.05774">
        <ele>406</ele>
        <time>2015-05-10T07:13:32.590Z</time>
      </trkpt>
      <trkpt lat="47.24283" lon="6.05767">
        <ele>407.8</ele>
        <time>2015-05-10T07:13:36.590Z</time>
      </trkpt>
      <trkpt lat="47.24273" lon="6.05761">
        <ele>409</ele>
        <time>2015-05-10T07:13:40.590Z</time>
      </trkpt>
      <trkpt lat="47.24263" lon="6.05753">
        <ele>410</ele>
        <time>2015-05-10T07:13:44.590Z</time>
      </trkpt>
      <trkpt lat="47.24252" lon="6.05744">
        <ele>410</ele>
        <time>2015-05-10T07:13:48.590Z</time>
      </trkpt>
      <trkpt lat="47.24243" lon="6.05738">
        <ele>410.8</ele>
        <time>2015-05-10T07:13:51.590Z</time>
      </trkpt>
      <trkpt lat="47.24234" lon="6.05729">
        <ele>411.8</ele>
        <time>2015-05-10T07:13:54.590Z</time>
      </trkpt>
      <trkpt lat="47.24226" lon="6.05715">
        <ele>413</ele>
        <time>2015-05-10T07:13:58.590Z</time>
      </trkpt>
      <trkpt lat="47.24216" lon="6.05705">
        <ele>414</ele>
        <time>2015-05-10T07:14:02.590Z</time>
      </trkpt>
      <trkpt lat="47.24205" lon="6.05706">
        <ele>415.8</ele>
        <time>2015-05-10T07:14:07.590Z</time>
      </trkpt>
      <trkpt lat="47.24194" lon="6.05706">
        <ele>416</ele>
        <time>2015-05-10T07:14:11.590Z</time>
      </trkpt>
      <trkpt lat="47.24182" lon="6.05702">
        <ele>417</ele>
        <time>2015-05-10T07:14:16.590Z</time>
      </trkpt>
      <trkpt lat="47.24171" lon="6.05694">
        <ele>417</ele>
        <time>2015-05-10T07:14:21.590Z</time>
      </trkpt>
      <trkpt lat="47.24164" lon="6.05682">
        <ele>418.8</ele>
        <time>2015-05-10T07:14:25.590Z</time>
      </trkpt>
      <trkpt lat="47.24154" lon="6.05674">
        <ele>419</ele>
        <time>2015-05-10T07:14:29.590Z</time>
      </trkpt>
      <trkpt lat="47.24146" lon="6.05665">
        <ele>420</ele>
        <time>2015-05-10T07:14:33.590Z</time>
      </trkpt>
      <trkpt lat="47.24137" lon="6.05654">
        <ele>421</ele>
        <time>2015-05-10T07:14:37.590Z</time>
      </trkpt>
      <trkpt lat="47.24127" lon="6.05642">
        <ele>422.6999936</ele>
        <time>2015-05-10T07:14:41.490Z</time>
      </trkpt>
      <trkpt lat="47.24116" lon="6.05633">
        <ele>423</ele>
        <time>2015-05-10T07:14:45.490Z</time>
      </trkpt>
      <trkpt lat="47.24107" lon="6.05624">
        <ele>424</ele>
        <time>2015-05-10T07:14:49.490Z</time>
      </trkpt>
      <trkpt lat="47.24096" lon="6.05617">
        <ele>425.6999936</ele>
        <time>2015-05-10T07:14:53.490Z</time>
      </trkpt>
      <trkpt lat="47.24085" lon="6.05611">
        <ele>426</ele>
        <time>2015-05-10T07:14:57.490Z</time>
      </trkpt>
      <trkpt lat="47.24073" lon="6.0561">
        <ele>426</ele>
        <time>2015-05-10T07:15:01.490Z</time>
      </trkpt>
      <trkpt lat="47.24062" lon="6.05608">
        <ele>427</ele>
        <time>2015-05-10T07:15:05.490Z</time>
      </trkpt>
      <trkpt lat="47.24051" lon="6.05603">
        <ele>427</ele>
        <time>2015-05-10T07:15:09.490Z</time>
      </trkpt>
      <trkpt lat="47.2404" lon="6.05597">
        <ele>428</ele>
        <time>2015-05-10T07:15:13.490Z</time>
      </trkpt>
      <trkpt lat="47.2403" lon="6.05591">
        <ele>429</ele>
        <time>2015-05-10T07:15:17.490Z</time>
      </trkpt>
      <trkpt lat="47.24021" lon="6.05582">
        <ele>429</ele>
        <time>2015-05-10T07:15:21.490Z</time>
      </trkpt>
      <trkpt lat="47.24012" lon="6.05571">
        <ele>429</ele>
        <time>2015-05-10T07:15:26.490Z</time>
      </trkpt>
      <trkpt lat="47.24004" lon="6.05558">
        <ele>430</ele>
        <time>2015-05-10T07:15:31.490Z</time>
      </trkpt>
      <trkpt lat="47.23997" lon="6.05546">
        <ele>430</ele>
        <time>2015-05-10T07:15:35.490Z</time>
      </trkpt>
      <trkpt lat="47.23989" lon="6.05534">
        <ele>431</ele>
        <time>2015-05-10T07:15:39.490Z</time>
      </trkpt>
      <trkpt lat="47.23981" lon="6.0552">
        <ele>432</ele>
        <time>2015-05-10T07:15:43.490Z</time>
      </trkpt>
      <trkpt lat="47.23977" lon="6.05506">
        <ele>433</ele>
        <time>2015-05-10T07:15:47.490Z</time>
      </trkpt>
      <trkpt lat="47.23971" lon="6.0549">
        <ele>433.6999936</ele>
        <time>2015-05-10T07:15:51.490Z</time>
      </trkpt>
      <trkpt lat="47.23964" lon="6.05474">
        <ele>434</ele>
        <time>2015-05-10T07:15:55.490Z</time>
      </trkpt>
      <trkpt lat="47.2396" lon="6.0546">
        <ele>434</ele>
        <time>2015-05-10T07:15:58.490Z</time>
      </trkpt>
      <trkpt lat="47.23955" lon="6.05447">
        <ele>435</ele>
        <time>2015-05-10T07:16:01.490Z</time>
      </trkpt>
      <trkpt lat="47.23948" lon="6.05432">
        <ele>436</ele>
        <time>2015-05-10T07:16:05.490Z</time>
      </trkpt>
      <trkpt lat="47.23941" lon="6.05422">
        <ele>436</ele>
        <time>2015-05-10T07:16:08.500Z</time>
      </trkpt>
      <trkpt lat="47.23934" lon="6.0541">
        <ele>436</ele>
        <time>2015-05-10T07:16:11.590Z</time>
      </trkpt>
      <trkpt lat="47.23925" lon="6.05395">
        <ele>437</ele>
        <time>2015-05-10T07:16:15.590Z</time>
      </trkpt>
      <trkpt lat="47.23917" lon="6.0538">
        <ele>437.21649226059</ele>
        <time>2015-05-10T07:16:19.590Z</time>
      </trkpt>
      <trkpt lat="47.23911" lon="6.05367">
        <ele>438</ele>
        <time>2015-05-10T07:16:22.590Z</time>
      </trkpt>
      <trkpt lat="47.23905" lon="6.05354">
        <ele>439</ele>
        <time>2015-05-10T07:16:25.590Z</time>
      </trkpt>
      <trkpt lat="47.23897" lon="6.05342">
        <ele>439</ele>
        <time>2015-05-10T07:16:29.590Z</time>
      </trkpt>
      <trkpt lat="47.23889" lon="6.05329">
        <ele>440</ele>
        <time>2015-05-10T07:16:33.590Z</time>
      </trkpt>
      <trkpt lat="47.23882" lon="6.05318">
        <ele>440</ele>
        <time>2015-05-10T07:16:37.590Z</time>
      </trkpt>
      <trkpt lat="47.23875" lon="6.05307">
        <ele>440</ele>
        <time>2015-05-10T07:16:41.590Z</time>
      </trkpt>
      <trkpt lat="47.23865" lon="6.05296">
        <ele>440</ele>
        <time>2015-05-10T07:16:45.600Z</time>
      </trkpt>
      <trkpt lat="47.23858" lon="6.05284">
        <ele>440</ele>
        <time>2015-05-10T07:16:49.590Z</time>
      </trkpt>
      <trkpt lat="47.23849" lon="6.05271">
        <ele>440</ele>
        <time>2015-05-10T07:16:53.590Z</time>
      </trkpt>
      <trkpt lat="47.23843" lon="6.05259">
        <ele>440</ele>
        <time>2015-05-10T07:16:57.590Z</time>
      </trkpt>
      <trkpt lat="47.23835" lon="6.05249">
        <ele>440.8</ele>
        <time>2015-05-10T07:17:01.590Z</time>
      </trkpt>
      <trkpt lat="47.23827" lon="6.05237">
        <ele>441</ele>
        <time>2015-05-10T07:17:05.590Z</time>
      </trkpt>
      <trkpt lat="47.23817" lon="6.05226">
        <ele>440</ele>
        <time>2015-05-10T07:17:09.590Z</time>
      </trkpt>
      <trkpt lat="47.23808" lon="6.05219">
        <ele>440</ele>
        <time>2015-05-10T07:17:13.590Z</time>
      </trkpt>
      <trkpt lat="47.23796" lon="6.05213">
        <ele>440</ele>
        <time>2015-05-10T07:17:17.590Z</time>
      </trkpt>
      <trkpt lat="47.23787" lon="6.05208">
        <ele>440</ele>
        <time>2015-05-10T07:17:20.590Z</time>
      </trkpt>
      <trkpt lat="47.23777" lon="6.052">
        <ele>441</ele>
        <time>2015-05-10T07:17:24.590Z</time>
      </trkpt>
      <trkpt lat="47.23766" lon="6.05191">
        <ele>441</ele>
        <time>2015-05-10T07:17:28.590Z</time>
      </trkpt>
      <trkpt lat="47.23755" lon="6.05182">
        <ele>441</ele>
        <time>2015-05-10T07:17:32.590Z</time>
      </trkpt>
      <trkpt lat="47.2375" lon="6.0517">
        <ele>442</ele>
        <time>2015-05-10T07:17:35.590Z</time>
      </trkpt>
      <trkpt lat="47.23743" lon="6.0516">
        <ele>441</ele>
        <time>2015-05-10T07:17:38.590Z</time>
      </trkpt>
      <trkpt lat="47.23733" lon="6.05148">
        <ele>442</ele>
        <time>2015-05-10T07:17:42.590Z</time>
      </trkpt>
      <trkpt lat="47.23724" lon="6.05138">
        <ele>442</ele>
        <time>2015-05-10T07:17:46.590Z</time>
      </trkpt>
      <trkpt lat="47.23717" lon="6.05128">
        <ele>442</ele>
        <time>2015-05-10T07:17:50.590Z</time>
      </trkpt>
      <trkpt lat="47.23709" lon="6.05114">
        <ele>442</ele>
        <time>2015-05-10T07:17:54.590Z</time>
      </trkpt>
      <trkpt lat="47.23704" lon="6.05102">
        <ele>442</ele>
        <time>2015-05-10T07:17:57.590Z</time>
      </trkpt>
      <trkpt lat="47.237" lon="6.05085">
        <ele>443</ele>
        <time>2015-05-10T07:18:00.590Z</time>
      </trkpt>
      <trkpt lat="47.23699" lon="6.05066">
        <ele>444</ele>
        <time>2015-05-10T07:18:03.590Z</time>
      </trkpt>
      <trkpt lat="47.23697" lon="6.05051">
        <ele>445</ele>
        <time>2015-05-10T07:18:06.590Z</time>
      </trkpt>
      <trkpt lat="47.23696" lon="6.05036">
        <ele>445</ele>
        <time>2015-05-10T07:18:09.590Z</time>
      </trkpt>
      <trkpt lat="47.23695" lon="6.0502">
        <ele>445.8</ele>
        <time>2015-05-10T07:18:13.590Z</time>
      </trkpt>
      <trkpt lat="47.23692" lon="6.05003">
        <ele>446</ele>
        <time>2015-05-10T07:18:18.590Z</time>
      </trkpt>
      <trkpt lat="47.23688" lon="6.04988">
        <ele>445</ele>
        <time>2015-05-10T07:18:22.590Z</time>
      </trkpt>
      <trkpt lat="47.23686" lon="6.04974">
        <ele>445</ele>
        <time>2015-05-10T07:18:26.590Z</time>
      </trkpt>
      <trkpt lat="47.23684" lon="6.04956">
        <ele>446</ele>
        <time>2015-05-10T07:18:30.590Z</time>
      </trkpt>
      <trkpt lat="47.23681" lon="6.0494">
        <ele>446</ele>
        <time>2015-05-10T07:18:34.590Z</time>
      </trkpt>
      <trkpt lat="47.23681" lon="6.04924">
        <ele>446</ele>
        <time>2015-05-10T07:18:37.590Z</time>
      </trkpt>
      <trkpt lat="47.23687" lon="6.04907">
        <ele>446</ele>
        <time>2015-05-10T07:18:41.590Z</time>
      </trkpt>
      <trkpt lat="47.2369" lon="6.04893">
        <ele>446</ele>
        <time>2015-05-10T07:18:45.590Z</time>
      </trkpt>
      <trkpt lat="47.23687" lon="6.04878">
        <ele>446</ele>
        <time>2015-05-10T07:18:50.590Z</time>
      </trkpt>
      <trkpt lat="47.2368" lon="6.04865">
        <ele>445</ele>
        <time>2015-05-10T07:18:54.590Z</time>
      </trkpt>
      <trkpt lat="47.23671" lon="6.04852">
        <ele>445</ele>
        <time>2015-05-10T07:18:58.590Z</time>
      </trkpt>
      <trkpt lat="47.23662" lon="6.0484">
        <ele>444</ele>
        <time>2015-05-10T07:19:02.590Z</time>
      </trkpt>
      <trkpt lat="47.23657" lon="6.04827">
        <ele>442.2</ele>
        <time>2015-05-10T07:19:05.590Z</time>
      </trkpt>
      <trkpt lat="47.23656" lon="6.04816">
        <ele>441.2</ele>
        <time>2015-05-10T07:19:07.590Z</time>
      </trkpt>
      <trkpt lat="47.23654" lon="6.04804">
        <ele>441</ele>
        <time>2015-05-10T07:19:09.590Z</time>
      </trkpt>
      <trkpt lat="47.23651" lon="6.04793">
        <ele>440.2</ele>
        <time>2015-05-10T07:19:11.590Z</time>
      </trkpt>
      <trkpt lat="47.23648" lon="6.04784">
        <ele>440</ele>
        <time>2015-05-10T07:19:13.590Z</time>
      </trkpt>
      <trkpt lat="47.23643" lon="6.04775">
        <ele>439.2</ele>
        <time>2015-05-10T07:19:16.590Z</time>
      </trkpt>
      <trkpt lat="47.23637" lon="6.04765">
        <ele>439</ele>
        <time>2015-05-10T07:19:19.590Z</time>
      </trkpt>
      <trkpt lat="47.23631" lon="6.04752">
        <ele>439</ele>
        <time>2015-05-10T07:19:22.590Z</time>
      </trkpt>
      <trkpt lat="47.23628" lon="6.04743">
        <ele>439</ele>
        <time>2015-05-10T07:19:24.590Z</time>
      </trkpt>
      <trkpt lat="47.23626" lon="6.04734">
        <ele>439</ele>
        <time>2015-05-10T07:19:26.590Z</time>
      </trkpt>
      <trkpt lat="47.23624" lon="6.0472">
        <ele>439</ele>
        <time>2015-05-10T07:19:29.590Z</time>
      </trkpt>
      <trkpt lat="47.23627" lon="6.04707">
        <ele>438</ele>
        <time>2015-05-10T07:19:32.590Z</time>
      </trkpt>
      <trkpt lat="47.2363" lon="6.04697">
        <ele>438</ele>
        <time>2015-05-10T07:19:34.590Z</time>
      </trkpt>
      <trkpt lat="47.23633" lon="6.04687">
        <ele>438</ele>
        <time>2015-05-10T07:19:36.590Z</time>
      </trkpt>
      <trkpt lat="47.23635" lon="6.04676">
        <ele>438</ele>
        <time>2015-05-10T07:19:38.590Z</time>
      </trkpt>
      <trkpt lat="47.23637" lon="6.04666">
        <ele>438</ele>
        <time>2015-05-10T07:19:40.590Z</time>
      </trkpt>
      <trkpt lat="47.23638" lon="6.04655">
        <ele>438</ele>
        <time>2015-05-10T07:19:42.590Z</time>
      </trkpt>
      <trkpt lat="47.23641" lon="6.04643">
        <ele>438</ele>
        <time>2015-05-10T07:19:44.590Z</time>
      </trkpt>
      <trkpt lat="47.23643" lon="6.04631">
        <ele>438</ele>
        <time>2015-05-10T07:19:46.600Z</time>
      </trkpt>
      <trkpt lat="47.23646" lon="6.04618">
        <ele>437.2</ele>
        <time>2015-05-10T07:19:48.590Z</time>
      </trkpt>
      <trkpt lat="47.23649" lon="6.04605">
        <ele>437</ele>
        <time>2015-05-10T07:19:50.590Z</time>
      </trkpt>
      <trkpt lat="47.23653" lon="6.04593">
        <ele>437</ele>
        <time>2015-05-10T07:19:52.590Z</time>
      </trkpt>
      <trkpt lat="47.23656" lon="6.04582">
        <ele>437</ele>
        <time>2015-05-10T07:19:54.590Z</time>
      </trkpt>
      <trkpt lat="47.23658" lon="6.04565">
        <ele>437</ele>
        <time>2015-05-10T07:19:58.590Z</time>
      </trkpt>
      <trkpt lat="47.23661" lon="6.0455">
        <ele>437.8</ele>
        <time>2015-05-10T07:20:03.590Z</time>
      </trkpt>
      <trkpt lat="47.23668" lon="6.0454">
        <ele>438</ele>
        <time>2015-05-10T07:20:08.590Z</time>
      </trkpt>
      <trkpt lat="47.23661" lon="6.04528">
        <ele>439</ele>
        <time>2015-05-10T07:20:14.590Z</time>
      </trkpt>
      <trkpt lat="47.23651" lon="6.04519">
        <ele>439</ele>
        <time>2015-05-10T07:20:18.590Z</time>
      </trkpt>
      <trkpt lat="47.23643" lon="6.04513">
        <ele>439</ele>
        <time>2015-05-10T07:20:21.590Z</time>
      </trkpt>
      <trkpt lat="47.23638" lon="6.045">
        <ele>440.8</ele>
        <time>2015-05-10T07:20:26.590Z</time>
      </trkpt>
      <trkpt lat="47.23631" lon="6.04485">
        <ele>440</ele>
        <time>2015-05-10T07:20:31.590Z</time>
      </trkpt>
      <trkpt lat="47.23622" lon="6.04474">
        <ele>439</ele>
        <time>2015-05-10T07:20:34.590Z</time>
      </trkpt>
      <trkpt lat="47.23615" lon="6.04462">
        <ele>439</ele>
        <time>2015-05-10T07:20:37.590Z</time>
      </trkpt>
      <trkpt lat="47.2361" lon="6.04449">
        <ele>439</ele>
        <time>2015-05-10T07:20:40.590Z</time>
      </trkpt>
      <trkpt lat="47.23604" lon="6.04436">
        <ele>439</ele>
        <time>2015-05-10T07:20:43.590Z</time>
      </trkpt>
      <trkpt lat="47.23598" lon="6.04425">
        <ele>439</ele>
        <time>2015-05-10T07:20:46.590Z</time>
      </trkpt>
      <trkpt lat="47.23593" lon="6.04413">
        <ele>439</ele>
        <time>2015-05-10T07:20:49.590Z</time>
      </trkpt>
      <trkpt lat="47.23589" lon="6.04398">
        <ele>439</ele>
        <time>2015-05-10T07:20:53.590Z</time>
      </trkpt>
      <trkpt lat="47.23583" lon="6.04384">
        <ele>438</ele>
        <time>2015-05-10T07:20:57.590Z</time>
      </trkpt>
      <trkpt lat="47.23582" lon="6.04368">
        <ele>438</ele>
        <time>2015-05-10T07:21:00.590Z</time>
      </trkpt>
      <trkpt lat="47.23583" lon="6.0435">
        <ele>438</ele>
        <time>2015-05-10T07:21:04.490Z</time>
      </trkpt>
      <trkpt lat="47.23585" lon="6.04335">
        <ele>438</ele>
        <time>2015-05-10T07:21:08.490Z</time>
      </trkpt>
      <trkpt lat="47.2359" lon="6.04321">
        <ele>438.69696421183</ele>
        <time>2015-05-10T07:21:12.490Z</time>
      </trkpt>
      <trkpt lat="47.23595" lon="6.04305">
        <ele>439</ele>
        <time>2015-05-10T07:21:16.490Z</time>
      </trkpt>
      <trkpt lat="47.23599" lon="6.04288">
        <ele>438.3000064</ele>
        <time>2015-05-10T07:21:20.490Z</time>
      </trkpt>
      <trkpt lat="47.23602" lon="6.04274">
        <ele>438</ele>
        <time>2015-05-10T07:21:23.490Z</time>
      </trkpt>
      <trkpt lat="47.23607" lon="6.04257">
        <ele>437.3000064</ele>
        <time>2015-05-10T07:21:26.490Z</time>
      </trkpt>
      <trkpt lat="47.23611" lon="6.04242">
        <ele>437</ele>
        <time>2015-05-10T07:21:29.490Z</time>
      </trkpt>
      <trkpt lat="47.23613" lon="6.04224">
        <ele>436</ele>
        <time>2015-05-10T07:21:32.490Z</time>
      </trkpt>
      <trkpt lat="47.23616" lon="6.04209">
        <ele>436</ele>
        <time>2015-05-10T07:21:35.490Z</time>
      </trkpt>
      <trkpt lat="47.23618" lon="6.04192">
        <ele>435</ele>
        <time>2015-05-10T07:21:38.490Z</time>
      </trkpt>
      <trkpt lat="47.23615" lon="6.04178">
        <ele>434</ele>
        <time>2015-05-10T07:21:43.490Z</time>
      </trkpt>
      <trkpt lat="47.23605" lon="6.04181">
        <ele>435.6999936</ele>
        <time>2015-05-10T07:21:48.490Z</time>
      </trkpt>
      <trkpt lat="47.23597" lon="6.0419">
        <ele>436</ele>
        <time>2015-05-10T07:21:52.490Z</time>
      </trkpt>
      <trkpt lat="47.23588" lon="6.04198">
        <ele>435</ele>
        <time>2015-05-10T07:21:56.490Z</time>
      </trkpt>
      <trkpt lat="47.2358" lon="6.04206">
        <ele>435</ele>
        <time>2015-05-10T07:22:00.490Z</time>
      </trkpt>
      <trkpt lat="47.23577" lon="6.04219">
        <ele>434.3000064</ele>
        <time>2015-05-10T07:22:09.490Z</time>
      </trkpt>
      <trkpt lat="47.2358" lon="6.04236">
        <ele>434</ele>
        <time>2015-05-10T07:22:13.490Z</time>
      </trkpt>
      <trkpt lat="47.23581" lon="6.04254">
        <ele>434</ele>
        <time>2015-05-10T07:22:17.490Z</time>
      </trkpt>
      <trkpt lat="47.23582" lon="6.04272">
        <ele>434.6999936</ele>
        <time>2015-05-10T07:22:21.490Z</time>
      </trkpt>
      <trkpt lat="47.23582" lon="6.04287">
        <ele>435</ele>
        <time>2015-05-10T07:22:24.490Z</time>
      </trkpt>
      <trkpt lat="47.23581" lon="6.04303">
        <ele>435</ele>
        <time>2015-05-10T07:22:27.490Z</time>
      </trkpt>
      <trkpt lat="47.23584" lon="6.04319">
        <ele>434.3000064</ele>
        <time>2015-05-10T07:22:30.490Z</time>
      </trkpt>
      <trkpt lat="47.23585" lon="6.04338">
        <ele>435</ele>
        <time>2015-05-10T07:22:34.490Z</time>
      </trkpt>
      <trkpt lat="47.23587" lon="6.04355">
        <ele>435</ele>
        <time>2015-05-10T07:22:38.490Z</time>
      </trkpt>
      <trkpt lat="47.23588" lon="6.0437">
        <ele>435</ele>
        <time>2015-05-10T07:22:42.490Z</time>
      </trkpt>
      <trkpt lat="47.2359" lon="6.04389">
        <ele>436</ele>
        <time>2015-05-10T07:22:46.490Z</time>
      </trkpt>
      <trkpt lat="47.23594" lon="6.04405">
        <ele>437</ele>
        <time>2015-05-10T07:22:50.490Z</time>
      </trkpt>
      <trkpt lat="47.23599" lon="6.0442">
        <ele>437.6999936</ele>
        <time>2015-05-10T07:22:54.490Z</time>
      </trkpt>
      <trkpt lat="47.23607" lon="6.04434">
        <ele>438.6999936</ele>
        <time>2015-05-10T07:22:58.490Z</time>
      </trkpt>
      <trkpt lat="47.23614" lon="6.04448">
        <ele>439</ele>
        <time>2015-05-10T07:23:02.490Z</time>
      </trkpt>
      <trkpt lat="47.23621" lon="6.04463">
        <ele>439</ele>
        <time>2015-05-10T07:23:06.490Z</time>
      </trkpt>
      <trkpt lat="47.23628" lon="6.04477">
        <ele>439.6999936</ele>
        <time>2015-05-10T07:23:10.490Z</time>
      </trkpt>
      <trkpt lat="47.23617" lon="6.04487">
        <ele>437.48</ele>
        <time>2015-05-10T07:23:15.590Z</time>
      </trkpt>
      <trkpt lat="47.23607" lon="6.0449">
        <ele>437</ele>
        <time>2015-05-10T07:23:17.590Z</time>
      </trkpt>
      <trkpt lat="47.23595" lon="6.04494">
        <ele>436.24</ele>
        <time>2015-05-10T07:23:20.590Z</time>
      </trkpt>
      <trkpt lat="47.23585" lon="6.04497">
        <ele>436.76923076923</ele>
        <time>2015-05-10T07:23:23.590Z</time>
      </trkpt>
      <trkpt lat="47.23574" lon="6.04499">
        <ele>437</ele>
        <time>2015-05-10T07:23:26.590Z</time>
      </trkpt>
      <trkpt lat="47.23564" lon="6.04499">
        <ele>438.76699101517</ele>
        <time>2015-05-10T07:23:29.590Z</time>
      </trkpt>
      <trkpt lat="47.23554" lon="6.045">
        <ele>439.75510364014</ele>
        <time>2015-05-10T07:23:32.590Z</time>
      </trkpt>
      <trkpt lat="47.23544" lon="6.04505">
        <ele>440</ele>
        <time>2015-05-10T07:23:36.590Z</time>
      </trkpt>
      <trkpt lat="47.23534" lon="6.04509">
        <ele>440</ele>
        <time>2015-05-10T07:23:40.590Z</time>
      </trkpt>
      <trkpt lat="47.23523" lon="6.04513">
        <ele>440</ele>
        <time>2015-05-10T07:23:44.590Z</time>
      </trkpt>
      <trkpt lat="47.23512" lon="6.04521">
        <ele>441.76923076923</ele>
        <time>2015-05-10T07:23:48.590Z</time>
      </trkpt>
      <trkpt lat="47.23503" lon="6.04533">
        <ele>442</ele>
        <time>2015-05-10T07:23:51.590Z</time>
      </trkpt>
      <trkpt lat="47.23495" lon="6.04543">
        <ele>443</ele>
        <time>2015-05-10T07:23:54.590Z</time>
      </trkpt>
      <trkpt lat="47.23488" lon="6.04555">
        <ele>442</ele>
        <time>2015-05-10T07:23:58.590Z</time>
      </trkpt>
      <trkpt lat="47.2348" lon="6.04565">
        <ele>443</ele>
        <time>2015-05-10T07:24:02.590Z</time>
      </trkpt>
      <trkpt lat="47.23471" lon="6.04573">
        <ele>443</ele>
        <time>2015-05-10T07:24:05.590Z</time>
      </trkpt>
      <trkpt lat="47.23462" lon="6.04567">
        <ele>442.2300032</ele>
        <time>2015-05-10T07:24:09.600Z</time>
      </trkpt>
      <trkpt lat="47.23459" lon="6.04552">
        <ele>442</ele>
        <time>2015-05-10T07:24:12.590Z</time>
      </trkpt>
      <trkpt lat="47.23456" lon="6.04537">
        <ele>442</ele>
        <time>2015-05-10T07:24:15.590Z</time>
      </trkpt>
      <trkpt lat="47.23453" lon="6.0452">
        <ele>442</ele>
        <time>2015-05-10T07:24:19.590Z</time>
      </trkpt>
      <trkpt lat="47.2345" lon="6.04505">
        <ele>442</ele>
        <time>2015-05-10T07:24:23.590Z</time>
      </trkpt>
      <trkpt lat="47.23447" lon="6.04488">
        <ele>441.79166666667</ele>
        <time>2015-05-10T07:24:27.590Z</time>
      </trkpt>
      <trkpt lat="47.23442" lon="6.04474">
        <ele>443</ele>
        <time>2015-05-10T07:24:31.590Z</time>
      </trkpt>
      <trkpt lat="47.23436" lon="6.04463">
        <ele>443</ele>
        <time>2015-05-10T07:24:34.590Z</time>
      </trkpt>
      <trkpt lat="47.23429" lon="6.04456">
        <ele>441.24</ele>
        <time>2015-05-10T07:24:36.590Z</time>
      </trkpt>
      <trkpt lat="47.23421" lon="6.04445">
        <ele>440</ele>
        <time>2015-05-10T07:24:40.590Z</time>
      </trkpt>
      <trkpt lat="47.23417" lon="6.04428">
        <ele>440</ele>
        <time>2015-05-10T07:24:44.590Z</time>
      </trkpt>
      <trkpt lat="47.2342" lon="6.04413">
        <ele>440</ele>
        <time>2015-05-10T07:24:47.590Z</time>
      </trkpt>
      <trkpt lat="47.23423" lon="6.04398">
        <ele>440</ele>
        <time>2015-05-10T07:24:50.590Z</time>
      </trkpt>
      <trkpt lat="47.23426" lon="6.04383">
        <ele>440</ele>
        <time>2015-05-10T07:24:53.590Z</time>
      </trkpt>
      <trkpt lat="47.2343" lon="6.04369">
        <ele>440</ele>
        <time>2015-05-10T07:24:56.590Z</time>
      </trkpt>
      <trkpt lat="47.23433" lon="6.04354">
        <ele>440</ele>
        <time>2015-05-10T07:24:59.590Z</time>
      </trkpt>
      <trkpt lat="47.23436" lon="6.04339">
        <ele>440.76</ele>
        <time>2015-05-10T07:25:02.590Z</time>
      </trkpt>
      <trkpt lat="47.23438" lon="6.04324">
        <ele>440</ele>
        <time>2015-05-10T07:25:05.590Z</time>
      </trkpt>
      <trkpt lat="47.23437" lon="6.04308">
        <ele>440</ele>
        <time>2015-05-10T07:25:08.590Z</time>
      </trkpt>
      <trkpt lat="47.23436" lon="6.04291">
        <ele>439.24</ele>
        <time>2015-05-10T07:25:11.590Z</time>
      </trkpt>
      <trkpt lat="47.23435" lon="6.04275">
        <ele>438.24</ele>
        <time>2015-05-10T07:25:14.590Z</time>
      </trkpt>
      <trkpt lat="47.23435" lon="6.04257">
        <ele>437</ele>
        <time>2015-05-10T07:25:18.590Z</time>
      </trkpt>
      <trkpt lat="47.23439" lon="6.04242">
        <ele>436</ele>
        <time>2015-05-10T07:25:22.310Z</time>
      </trkpt>
      <trkpt lat="47.23448" lon="6.04233">
        <ele>436</ele>
        <time>2015-05-10T07:25:25.590Z</time>
      </trkpt>
      <trkpt lat="47.23457" lon="6.04223">
        <ele>436</ele>
        <time>2015-05-10T07:25:28.590Z</time>
      </trkpt>
      <trkpt lat="47.23465" lon="6.04213">
        <ele>435.2</ele>
        <time>2015-05-10T07:25:31.590Z</time>
      </trkpt>
      <trkpt lat="47.23473" lon="6.04202">
        <ele>435</ele>
        <time>2015-05-10T07:25:34.590Z</time>
      </trkpt>
      <trkpt lat="47.23483" lon="6.04192">
        <ele>435</ele>
        <time>2015-05-10T07:25:37.590Z</time>
      </trkpt>
      <trkpt lat="47.23491" lon="6.04182">
        <ele>434</ele>
        <time>2015-05-10T07:25:40.590Z</time>
      </trkpt>
      <trkpt lat="47.23496" lon="6.04169">
        <ele>433</ele>
        <time>2015-05-10T07:25:43.590Z</time>
      </trkpt>
      <trkpt lat="47.23502" lon="6.04158">
        <ele>432.2</ele>
        <time>2015-05-10T07:25:46.590Z</time>
      </trkpt>
      <trkpt lat="47.23509" lon="6.04149">
        <ele>431</ele>
        <time>2015-05-10T07:25:49.590Z</time>
      </trkpt>
      <trkpt lat="47.23515" lon="6.04137">
        <ele>430</ele>
        <time>2015-05-10T07:25:52.590Z</time>
      </trkpt>
      <trkpt lat="47.23522" lon="6.04126">
        <ele>430</ele>
        <time>2015-05-10T07:25:55.490Z</time>
      </trkpt>
      <trkpt lat="47.23531" lon="6.04115">
        <ele>429</ele>
        <time>2015-05-10T07:25:59.590Z</time>
      </trkpt>
      <trkpt lat="47.2354" lon="6.04105">
        <ele>428</ele>
        <time>2015-05-10T07:26:03.590Z</time>
      </trkpt>
      <trkpt lat="47.23549" lon="6.04091">
        <ele>427</ele>
        <time>2015-05-10T07:26:07.590Z</time>
      </trkpt>
      <trkpt lat="47.23556" lon="6.04079">
        <ele>426</ele>
        <time>2015-05-10T07:26:10.590Z</time>
      </trkpt>
      <trkpt lat="47.23563" lon="6.04068">
        <ele>425</ele>
        <time>2015-05-10T07:26:13.590Z</time>
      </trkpt>
      <trkpt lat="47.23573" lon="6.04057">
        <ele>424</ele>
        <time>2015-05-10T07:26:16.590Z</time>
      </trkpt>
      <trkpt lat="47.23581" lon="6.04046">
        <ele>423.2</ele>
        <time>2015-05-10T07:26:19.590Z</time>
      </trkpt>
      <trkpt lat="47.2359" lon="6.04039">
        <ele>422</ele>
        <time>2015-05-10T07:26:22.590Z</time>
      </trkpt>
      <trkpt lat="47.23598" lon="6.04032">
        <ele>420.2</ele>
        <time>2015-05-10T07:26:25.590Z</time>
      </trkpt>
      <trkpt lat="47.23606" lon="6.0402">
        <ele>419</ele>
        <time>2015-05-10T07:26:28.590Z</time>
      </trkpt>
      <trkpt lat="47.23617" lon="6.04011">
        <ele>417.2</ele>
        <time>2015-05-10T07:26:31.590Z</time>
      </trkpt>
      <trkpt lat="47.23627" lon="6.04009">
        <ele>415.2</ele>
        <time>2015-05-10T07:26:34.590Z</time>
      </trkpt>
      <trkpt lat="47.23637" lon="6.04012">
        <ele>413.2</ele>
        <time>2015-05-10T07:26:38.590Z</time>
      </trkpt>
      <trkpt lat="47.23646" lon="6.04024">
        <ele>410.2</ele>
        <time>2015-05-10T07:26:42.590Z</time>
      </trkpt>
      <trkpt lat="47.23654" lon="6.04038">
        <ele>408.2</ele>
        <time>2015-05-10T07:26:45.590Z</time>
      </trkpt>
      <trkpt lat="47.2366" lon="6.04052">
        <ele>408</ele>
        <time>2015-05-10T07:26:48.590Z</time>
      </trkpt>
      <trkpt lat="47.23667" lon="6.04064">
        <ele>406.2</ele>
        <time>2015-05-10T07:26:51.590Z</time>
      </trkpt>
      <trkpt lat="47.23676" lon="6.04075">
        <ele>404.2</ele>
        <time>2015-05-10T07:26:54.590Z</time>
      </trkpt>
      <trkpt lat="47.23685" lon="6.04083">
        <ele>404</ele>
        <time>2015-05-10T07:26:57.590Z</time>
      </trkpt>
      <trkpt lat="47.23693" lon="6.04096">
        <ele>403</ele>
        <time>2015-05-10T07:27:00.590Z</time>
      </trkpt>
      <trkpt lat="47.237" lon="6.04107">
        <ele>403</ele>
        <time>2015-05-10T07:27:03.590Z</time>
      </trkpt>
      <trkpt lat="47.23708" lon="6.04117">
        <ele>402</ele>
        <time>2015-05-10T07:27:06.590Z</time>
      </trkpt>
      <trkpt lat="47.23717" lon="6.04129">
        <ele>402</ele>
        <time>2015-05-10T07:27:09.590Z</time>
      </trkpt>
      <trkpt lat="47.23726" lon="6.04141">
        <ele>401</ele>
        <time>2015-05-10T07:27:12.590Z</time>
      </trkpt>
      <trkpt lat="47.23733" lon="6.04153">
        <ele>401</ele>
        <time>2015-05-10T07:27:15.590Z</time>
      </trkpt>
      <trkpt lat="47.2374" lon="6.04163">
        <ele>399.2</ele>
        <time>2015-05-10T07:27:18.590Z</time>
      </trkpt>
      <trkpt lat="47.23748" lon="6.04173">
        <ele>398</ele>
        <time>2015-05-10T07:27:21.590Z</time>
      </trkpt>
      <trkpt lat="47.23757" lon="6.04184">
        <ele>397</ele>
        <time>2015-05-10T07:27:24.590Z</time>
      </trkpt>
      <trkpt lat="47.23767" lon="6.04193">
        <ele>396</ele>
        <time>2015-05-10T07:27:27.490Z</time>
      </trkpt>
      <trkpt lat="47.23776" lon="6.04203">
        <ele>395.3000064</ele>
        <time>2015-05-10T07:27:30.490Z</time>
      </trkpt>
      <trkpt lat="47.23786" lon="6.04209">
        <ele>395</ele>
        <time>2015-05-10T07:27:33.490Z</time>
      </trkpt>
      <trkpt lat="47.23797" lon="6.04219">
        <ele>394.3000064</ele>
        <time>2015-05-10T07:27:36.490Z</time>
      </trkpt>
      <trkpt lat="47.23808" lon="6.04228">
        <ele>393</ele>
        <time>2015-05-10T07:27:39.490Z</time>
      </trkpt>
      <trkpt lat="47.23819" lon="6.04236">
        <ele>393</ele>
        <time>2015-05-10T07:27:42.490Z</time>
      </trkpt>
      <trkpt lat="47.23829" lon="6.04244">
        <ele>392</ele>
        <time>2015-05-10T07:27:45.490Z</time>
      </trkpt>
      <trkpt lat="47.2384" lon="6.0425">
        <ele>391</ele>
        <time>2015-05-10T07:27:48.490Z</time>
      </trkpt>
      <trkpt lat="47.23852" lon="6.04257">
        <ele>391</ele>
        <time>2015-05-10T07:27:51.490Z</time>
      </trkpt>
      <trkpt lat="47.23864" lon="6.04266">
        <ele>390</ele>
        <time>2015-05-10T07:27:54.490Z</time>
      </trkpt>
      <trkpt lat="47.23876" lon="6.04275">
        <ele>389</ele>
        <time>2015-05-10T07:27:57.490Z</time>
      </trkpt>
      <trkpt lat="47.23885" lon="6.04281">
        <ele>388.3000064</ele>
        <time>2015-05-10T07:27:59.490Z</time>
      </trkpt>
      <trkpt lat="47.23895" lon="6.04288">
        <ele>388</ele>
        <time>2015-05-10T07:28:01.490Z</time>
      </trkpt>
      <trkpt lat="47.23904" lon="6.04295">
        <ele>388</ele>
        <time>2015-05-10T07:28:03.490Z</time>
      </trkpt>
      <trkpt lat="47.23913" lon="6.043">
        <ele>387</ele>
        <time>2015-05-10T07:28:05.490Z</time>
      </trkpt>
      <trkpt lat="47.23924" lon="6.04305">
        <ele>387</ele>
        <time>2015-05-10T07:28:07.490Z</time>
      </trkpt>
      <trkpt lat="47.23936" lon="6.04311">
        <ele>386</ele>
        <time>2015-05-10T07:28:09.490Z</time>
      </trkpt>
      <trkpt lat="47.23949" lon="6.04321">
        <ele>384.3000064</ele>
        <time>2015-05-10T07:28:12.490Z</time>
      </trkpt>
      <trkpt lat="47.23962" lon="6.04329">
        <ele>383</ele>
        <time>2015-05-10T07:28:15.490Z</time>
      </trkpt>
      <trkpt lat="47.2397" lon="6.04337">
        <ele>382</ele>
        <time>2015-05-10T07:28:17.490Z</time>
      </trkpt>
      <trkpt lat="47.23983" lon="6.04345">
        <ele>380.3000064</ele>
        <time>2015-05-10T07:28:20.490Z</time>
      </trkpt>
      <trkpt lat="47.23997" lon="6.04344">
        <ele>379</ele>
        <time>2015-05-10T07:28:23.490Z</time>
      </trkpt>
      <trkpt lat="47.24009" lon="6.04334">
        <ele>376.3000064</ele>
        <time>2015-05-10T07:28:26.490Z</time>
      </trkpt>
      <trkpt lat="47.24022" lon="6.04326">
        <ele>374.3000064</ele>
        <time>2015-05-10T07:28:29.490Z</time>
      </trkpt>
      <trkpt lat="47.24032" lon="6.04321">
        <ele>373</ele>
        <time>2015-05-10T07:28:31.490Z</time>
      </trkpt>
      <trkpt lat="47.24046" lon="6.0432">
        <ele>371</ele>
        <time>2015-05-10T07:28:34.490Z</time>
      </trkpt>
      <trkpt lat="47.24059" lon="6.04326">
        <ele>368.3000064</ele>
        <time>2015-05-10T07:28:37.490Z</time>
      </trkpt>
      <trkpt lat="47.24071" lon="6.04332">
        <ele>366.3000064</ele>
        <time>2015-05-10T07:28:40.490Z</time>
      </trkpt>
      <trkpt lat="47.24083" lon="6.04335">
        <ele>365</ele>
        <time>2015-05-10T07:28:43.490Z</time>
      </trkpt>
      <trkpt lat="47.24095" lon="6.04338">
        <ele>363</ele>
        <time>2015-05-10T07:28:46.490Z</time>
      </trkpt>
      <trkpt lat="47.24104" lon="6.04338">
        <ele>362</ele>
        <time>2015-05-10T07:28:48.490Z</time>
      </trkpt>
      <trkpt lat="47.24117" lon="6.04333">
        <ele>360.30693483385</ele>
        <time>2015-05-10T07:28:51.490Z</time>
      </trkpt>
      <trkpt lat="47.24124" lon="6.04325">
        <ele>358.6000128</ele>
        <time>2015-05-10T07:28:53.490Z</time>
      </trkpt>
      <trkpt lat="47.24125" lon="6.04305">
        <ele>356</ele>
        <time>2015-05-10T07:28:56.690Z</time>
      </trkpt>
      <trkpt lat="47.24118" lon="6.04293">
        <ele>355</ele>
        <time>2015-05-10T07:28:58.490Z</time>
      </trkpt>
      <trkpt lat="47.24112" lon="6.0428">
        <ele>354</ele>
        <time>2015-05-10T07:29:00.690Z</time>
      </trkpt>
      <trkpt lat="47.24108" lon="6.04266">
        <ele>352.3000064</ele>
        <time>2015-05-10T07:29:02.490Z</time>
      </trkpt>
      <trkpt lat="47.24106" lon="6.04251">
        <ele>350.3000064</ele>
        <time>2015-05-10T07:29:04.490Z</time>
      </trkpt>
      <trkpt lat="47.24106" lon="6.04237">
        <ele>349</ele>
        <time>2015-05-10T07:29:06.490Z</time>
      </trkpt>
      <trkpt lat="47.24107" lon="6.04223">
        <ele>348</ele>
        <time>2015-05-10T07:29:08.490Z</time>
      </trkpt>
      <trkpt lat="47.24109" lon="6.0421">
        <ele>347.3000064</ele>
        <time>2015-05-10T07:29:10.490Z</time>
      </trkpt>
      <trkpt lat="47.24112" lon="6.0419">
        <ele>346.3000064</ele>
        <time>2015-05-10T07:29:13.490Z</time>
      </trkpt>
      <trkpt lat="47.24112" lon="6.04175">
        <ele>346</ele>
        <time>2015-05-10T07:29:15.490Z</time>
      </trkpt>
      <trkpt lat="47.24113" lon="6.04161">
        <ele>346</ele>
        <time>2015-05-10T07:29:17.490Z</time>
      </trkpt>
      <trkpt lat="47.24113" lon="6.04147">
        <ele>345</ele>
        <time>2015-05-10T07:29:19.490Z</time>
      </trkpt>
      <trkpt lat="47.24113" lon="6.04134">
        <ele>343.3000064</ele>
        <time>2015-05-10T07:29:21.490Z</time>
      </trkpt>
      <trkpt lat="47.24112" lon="6.04121">
        <ele>343</ele>
        <time>2015-05-10T07:29:23.490Z</time>
      </trkpt>
      <trkpt lat="47.24111" lon="6.04107">
        <ele>342.3000064</ele>
        <time>2015-05-10T07:29:25.490Z</time>
      </trkpt>
      <trkpt lat="47.24111" lon="6.04093">
        <ele>341.3000064</ele>
        <time>2015-05-10T07:29:27.490Z</time>
      </trkpt>
      <trkpt lat="47.24111" lon="6.04078">
        <ele>341</ele>
        <time>2015-05-10T07:29:29.490Z</time>
      </trkpt>
      <trkpt lat="47.24111" lon="6.04063">
        <ele>340</ele>
        <time>2015-05-10T07:29:31.310Z</time>
      </trkpt>
      <trkpt lat="47.24111" lon="6.04048">
        <ele>339.2</ele>
        <time>2015-05-10T07:29:33.590Z</time>
      </trkpt>
      <trkpt lat="47.2411" lon="6.04034">
        <ele>338.36584870906</ele>
        <time>2015-05-10T07:29:35.590Z</time>
      </trkpt>
      <trkpt lat="47.24108" lon="6.04015">
        <ele>336.2</ele>
        <time>2015-05-10T07:29:38.590Z</time>
      </trkpt>
      <trkpt lat="47.24107" lon="6.04002">
        <ele>335.2</ele>
        <time>2015-05-10T07:29:40.590Z</time>
      </trkpt>
      <trkpt lat="47.24106" lon="6.03988">
        <ele>335</ele>
        <time>2015-05-10T07:29:42.590Z</time>
      </trkpt>
      <trkpt lat="47.24105" lon="6.03975">
        <ele>334</ele>
        <time>2015-05-10T07:29:44.590Z</time>
      </trkpt>
      <trkpt lat="47.24104" lon="6.03962">
        <ele>333</ele>
        <time>2015-05-10T07:29:46.590Z</time>
      </trkpt>
      <trkpt lat="47.24103" lon="6.03946">
        <ele>331.2</ele>
        <time>2015-05-10T07:29:49.590Z</time>
      </trkpt>
      <trkpt lat="47.24102" lon="6.03929">
        <ele>330.2</ele>
        <time>2015-05-10T07:29:52.590Z</time>
      </trkpt>
      <trkpt lat="47.24098" lon="6.03914">
        <ele>328.2</ele>
        <time>2015-05-10T07:29:55.590Z</time>
      </trkpt>
      <trkpt lat="47.24091" lon="6.03897">
        <ele>327</ele>
        <time>2015-05-10T07:29:58.590Z</time>
      </trkpt>
      <trkpt lat="47.24088" lon="6.03886">
        <ele>326</ele>
        <time>2015-05-10T07:30:00.590Z</time>
      </trkpt>
      <trkpt lat="47.24085" lon="6.03875">
        <ele>325</ele>
        <time>2015-05-10T07:30:02.590Z</time>
      </trkpt>
      <trkpt lat="47.24082" lon="6.03863">
        <ele>324</ele>
        <time>2015-05-10T07:30:04.590Z</time>
      </trkpt>
      <trkpt lat="47.24079" lon="6.03847">
        <ele>323</ele>
        <time>2015-05-10T07:30:07.590Z</time>
      </trkpt>
      <trkpt lat="47.24073" lon="6.03832">
        <ele>322.79798045097</ele>
        <time>2015-05-10T07:30:10.590Z</time>
      </trkpt>
      <trkpt lat="47.2407" lon="6.03823">
        <ele>322</ele>
        <time>2015-05-10T07:30:12.590Z</time>
      </trkpt>
      <trkpt lat="47.24066" lon="6.0381">
        <ele>322</ele>
        <time>2015-05-10T07:30:15.590Z</time>
      </trkpt>
      <trkpt lat="47.2406" lon="6.03798">
        <ele>322</ele>
        <time>2015-05-10T07:30:18.590Z</time>
      </trkpt>
      <trkpt lat="47.24053" lon="6.03785">
        <ele>322</ele>
        <time>2015-05-10T07:30:21.590Z</time>
      </trkpt>
      <trkpt lat="47.24051" lon="6.03767">
        <ele>322</ele>
        <time>2015-05-10T07:30:24.590Z</time>
      </trkpt>
      <trkpt lat="47.24052" lon="6.03746">
        <ele>323</ele>
        <time>2015-05-10T07:30:27.590Z</time>
      </trkpt>
      <trkpt lat="47.24054" lon="6.03728">
        <ele>323</ele>
        <time>2015-05-10T07:30:30.590Z</time>
      </trkpt>
      <trkpt lat="47.24054" lon="6.03711">
        <ele>323</ele>
        <time>2015-05-10T07:30:33.590Z</time>
      </trkpt>
      <trkpt lat="47.24051" lon="6.03692">
        <ele>322</ele>
        <time>2015-05-10T07:30:36.590Z</time>
      </trkpt>
      <trkpt lat="47.24048" lon="6.03677">
        <ele>321.2</ele>
        <time>2015-05-10T07:30:39.590Z</time>
      </trkpt>
      <trkpt lat="47.24046" lon="6.03661">
        <ele>321</ele>
        <time>2015-05-10T07:30:42.590Z</time>
      </trkpt>
      <trkpt lat="47.24043" lon="6.03647">
        <ele>321</ele>
        <time>2015-05-10T07:30:45.590Z</time>
      </trkpt>
      <trkpt lat="47.24044" lon="6.03634">
        <ele>320.2</ele>
        <time>2015-05-10T07:30:48.590Z</time>
      </trkpt>
      <trkpt lat="47.2405" lon="6.03627">
        <ele>320.2</ele>
        <time>2015-05-10T07:30:51.590Z</time>
      </trkpt>
      <trkpt lat="47.24056" lon="6.03622">
        <ele>320</ele>
        <time>2015-05-10T07:30:53.590Z</time>
      </trkpt>
      <trkpt lat="47.24064" lon="6.03616">
        <ele>320</ele>
        <time>2015-05-10T07:30:56.590Z</time>
      </trkpt>
      <trkpt lat="47.24055" lon="6.03608">
        <ele>317.2</ele>
        <time>2015-05-10T07:31:06.590Z</time>
      </trkpt>
      <trkpt lat="47.24044" lon="6.03616">
        <ele>317</ele>
        <time>2015-05-10T07:31:11.590Z</time>
      </trkpt>
      <trkpt lat="47.24034" lon="6.0362">
        <ele>316</ele>
        <time>2015-05-10T07:31:15.590Z</time>
      </trkpt>
      <trkpt lat="47.24024" lon="6.03621">
        <ele>314</ele>
        <time>2015-05-10T07:31:22.590Z</time>
      </trkpt>
      <trkpt lat="47.24021" lon="6.03605">
        <ele>313</ele>
        <time>2015-05-10T07:31:27.590Z</time>
      </trkpt>
      <trkpt lat="47.24027" lon="6.03591">
        <ele>311.2</ele>
        <time>2015-05-10T07:31:31.590Z</time>
      </trkpt>
      <trkpt lat="47.24037" lon="6.0358">
        <ele>311</ele>
        <time>2015-05-10T07:31:35.490Z</time>
      </trkpt>
      <trkpt lat="47.24045" lon="6.03571">
        <ele>309.3000064</ele>
        <time>2015-05-10T07:31:39.490Z</time>
      </trkpt>
      <trkpt lat="47.24049" lon="6.03585">
        <ele>305.30693483385</ele>
        <time>2015-05-10T07:31:46.490Z</time>
      </trkpt>
      <trkpt lat="47.24059" lon="6.03589">
        <ele>305</ele>
        <time>2015-05-10T07:31:53.490Z</time>
      </trkpt>
      <trkpt lat="47.24071" lon="6.03593">
        <ele>306</ele>
        <time>2015-05-10T07:31:58.490Z</time>
      </trkpt>
      <trkpt lat="47.2408" lon="6.03602">
        <ele>304</ele>
        <time>2015-05-10T07:32:02.490Z</time>
      </trkpt>
      <trkpt lat="47.2409" lon="6.03607">
        <ele>304.6999936</ele>
        <time>2015-05-10T07:32:07.490Z</time>
      </trkpt>
      <trkpt lat="47.241" lon="6.03613">
        <ele>304</ele>
        <time>2015-05-10T07:32:13.490Z</time>
      </trkpt>
      <trkpt lat="47.24107" lon="6.03623">
        <ele>303</ele>
        <time>2015-05-10T07:32:18.490Z</time>
      </trkpt>
      <trkpt lat="47.24114" lon="6.03637">
        <ele>302.3000064</ele>
        <time>2015-05-10T07:32:23.490Z</time>
      </trkpt>
      <trkpt lat="47.24121" lon="6.03652">
        <ele>302</ele>
        <time>2015-05-10T07:32:27.490Z</time>
      </trkpt>
      <trkpt lat="47.24129" lon="6.03663">
        <ele>302</ele>
        <time>2015-05-10T07:32:30.490Z</time>
      </trkpt>
      <trkpt lat="47.24139" lon="6.03667">
        <ele>303</ele>
        <time>2015-05-10T07:32:34.490Z</time>
      </trkpt>
      <trkpt lat="47.24149" lon="6.03663">
        <ele>303</ele>
        <time>2015-05-10T07:32:37.490Z</time>
      </trkpt>
      <trkpt lat="47.2416" lon="6.03658">
        <ele>302.3000064</ele>
        <time>2015-05-10T07:32:41.490Z</time>
      </trkpt>
      <trkpt lat="47.24166" lon="6.03644">
        <ele>301</ele>
        <time>2015-05-10T07:32:45.490Z</time>
      </trkpt>
      <trkpt lat="47.24168" lon="6.0363">
        <ele>300</ele>
        <time>2015-05-10T07:32:48.490Z</time>
      </trkpt>
      <trkpt lat="47.2417" lon="6.03615">
        <ele>298.2900096</ele>
        <time>2015-05-10T07:32:52.500Z</time>
      </trkpt>
      <trkpt lat="47.24173" lon="6.036">
        <ele>297</ele>
        <time>2015-05-10T07:32:56.490Z</time>
      </trkpt>
      <trkpt lat="47.24174" lon="6.03584">
        <ele>296</ele>
        <time>2015-05-10T07:33:00.490Z</time>
      </trkpt>
      <trkpt lat="47.24175" lon="6.0357">
        <ele>294.3000064</ele>
        <time>2015-05-10T07:33:03.490Z</time>
      </trkpt>
      <trkpt lat="47.24178" lon="6.03554">
        <ele>293.3000064</ele>
        <time>2015-05-10T07:33:07.490Z</time>
      </trkpt>
      <trkpt lat="47.24171" lon="6.03541">
        <ele>288.61386966771</ele>
        <time>2015-05-10T07:33:11.490Z</time>
      </trkpt>
      <trkpt lat="47.24167" lon="6.03525">
        <ele>287</ele>
        <time>2015-05-10T07:33:14.490Z</time>
      </trkpt>
      <trkpt lat="47.24163" lon="6.03505">
        <ele>285.3000064</ele>
        <time>2015-05-10T07:33:17.490Z</time>
      </trkpt>
      <trkpt lat="47.24164" lon="6.03491">
        <ele>284</ele>
        <time>2015-05-10T07:33:19.490Z</time>
      </trkpt>
      <trkpt lat="47.24166" lon="6.03476">
        <ele>283.3000064</ele>
        <time>2015-05-10T07:33:21.490Z</time>
      </trkpt>
      <trkpt lat="47.2417" lon="6.03458">
        <ele>282</ele>
        <time>2015-05-10T07:33:24.490Z</time>
      </trkpt>
      <trkpt lat="47.24177" lon="6.03442">
        <ele>281</ele>
        <time>2015-05-10T07:33:27.490Z</time>
      </trkpt>
      <trkpt lat="47.2418" lon="6.03425">
        <ele>279.3000064</ele>
        <time>2015-05-10T07:33:30.490Z</time>
      </trkpt>
      <trkpt lat="47.24179" lon="6.03406">
        <ele>276.3000064</ele>
        <time>2015-05-10T07:33:33.490Z</time>
      </trkpt>
      <trkpt lat="47.24171" lon="6.03396">
        <ele>271.6000128</ele>
        <time>2015-05-10T07:33:35.490Z</time>
      </trkpt>
      <trkpt lat="47.24156" lon="6.03396">
        <ele>268.3000064</ele>
        <time>2015-05-10T07:33:38.490Z</time>
      </trkpt>
      <trkpt lat="47.24144" lon="6.03402">
        <ele>266</ele>
        <time>2015-05-10T07:33:41.490Z</time>
      </trkpt>
      <trkpt lat="47.24133" lon="6.03408">
        <ele>264.3000064</ele>
        <time>2015-05-10T07:33:44.490Z</time>
      </trkpt>
      <trkpt lat="47.24121" lon="6.03414">
        <ele>263</ele>
        <time>2015-05-10T07:33:47.590Z</time>
      </trkpt>
      <trkpt lat="47.2411" lon="6.03419">
        <ele>263</ele>
        <time>2015-05-10T07:33:50.590Z</time>
      </trkpt>
      <trkpt lat="47.24103" lon="6.03421">
        <ele>262</ele>
        <time>2015-05-10T07:33:52.590Z</time>
      </trkpt>
      <trkpt lat="47.24092" lon="6.03424">
        <ele>261</ele>
        <time>2015-05-10T07:33:55.590Z</time>
      </trkpt>
      <trkpt lat="47.24083" lon="6.03427">
        <ele>260.2</ele>
        <time>2015-05-10T07:33:58.590Z</time>
      </trkpt>
      <trkpt lat="47.24076" lon="6.03429">
        <ele>260</ele>
        <time>2015-05-10T07:34:00.590Z</time>
      </trkpt>
      <trkpt lat="47.24069" lon="6.03432">
        <ele>260</ele>
        <time>2015-05-10T07:34:02.590Z</time>
      </trkpt>
      <trkpt lat="47.24063" lon="6.03436">
        <ele>260</ele>
        <time>2015-05-10T07:34:04.590Z</time>
      </trkpt>
      <trkpt lat="47.24053" lon="6.0344">
        <ele>260</ele>
        <time>2015-05-10T07:34:07.590Z</time>
      </trkpt>
      <trkpt lat="47.24044" lon="6.03444">
        <ele>260</ele>
        <time>2015-05-10T07:34:10.590Z</time>
      </trkpt>
      <trkpt lat="47.24038" lon="6.03447">
        <ele>259.4838720333</ele>
        <time>2015-05-10T07:34:12.590Z</time>
      </trkpt>
      <trkpt lat="47.2403" lon="6.03453">
        <ele>260</ele>
        <time>2015-05-10T07:34:15.490Z</time>
      </trkpt>
      <trkpt lat="47.24022" lon="6.03461">
        <ele>259</ele>
        <time>2015-05-10T07:34:18.590Z</time>
      </trkpt>
      <trkpt lat="47.24012" lon="6.03469">
        <ele>259</ele>
        <time>2015-05-10T07:34:21.590Z</time>
      </trkpt>
      <trkpt lat="47.24003" lon="6.03476">
        <ele>258.24</ele>
        <time>2015-05-10T07:34:24.590Z</time>
      </trkpt>
      <trkpt lat="47.23994" lon="6.03483">
        <ele>258</ele>
        <time>2015-05-10T07:34:27.590Z</time>
      </trkpt>
      <trkpt lat="47.23985" lon="6.03492">
        <ele>258</ele>
        <time>2015-05-10T07:34:30.590Z</time>
      </trkpt>
      <trkpt lat="47.23976" lon="6.035">
        <ele>258</ele>
        <time>2015-05-10T07:34:33.590Z</time>
      </trkpt>
      <trkpt lat="47.23966" lon="6.03507">
        <ele>258</ele>
        <time>2015-05-10T07:34:36.590Z</time>
      </trkpt>
      <trkpt lat="47.23957" lon="6.03514">
        <ele>258</ele>
        <time>2015-05-10T07:34:39.590Z</time>
      </trkpt>
      <trkpt lat="47.23947" lon="6.03524">
        <ele>258</ele>
        <time>2015-05-10T07:34:42.590Z</time>
      </trkpt>
      <trkpt lat="47.23938" lon="6.03534">
        <ele>258</ele>
        <time>2015-05-10T07:34:45.590Z</time>
      </trkpt>
      <trkpt lat="47.23932" lon="6.03541">
        <ele>258</ele>
        <time>2015-05-10T07:34:47.590Z</time>
      </trkpt>
      <trkpt lat="47.23926" lon="6.03548">
        <ele>258</ele>
        <time>2015-05-10T07:34:49.590Z</time>
      </trkpt>
      <trkpt lat="47.23916" lon="6.0356">
        <ele>259</ele>
        <time>2015-05-10T07:34:52.590Z</time>
      </trkpt>
      <trkpt lat="47.23907" lon="6.03571">
        <ele>259</ele>
        <time>2015-05-10T07:34:55.590Z</time>
      </trkpt>
      <trkpt lat="47.23897" lon="6.03581">
        <ele>260</ele>
        <time>2015-05-10T07:34:58.590Z</time>
      </trkpt>
      <trkpt lat="47.23888" lon="6.03586">
        <ele>260</ele>
        <time>2015-05-10T07:35:01.590Z</time>
      </trkpt>
      <trkpt lat="47.23883" lon="6.03565">
        <ele>260</ele>
        <time>2015-05-10T07:35:03.590Z</time>
      </trkpt>
      <trkpt lat="47.23881" lon="6.03548">
        <ele>260</ele>
        <time>2015-05-10T07:35:05.590Z</time>
      </trkpt>
      <trkpt lat="47.23877" lon="6.0353">
        <ele>259.23076923077</ele>
        <time>2015-05-10T07:35:08.590Z</time>
      </trkpt>
      <trkpt lat="47.23872" lon="6.03513">
        <ele>258.23076923077</ele>
        <time>2015-05-10T07:35:11.590Z</time>
      </trkpt>
      <trkpt lat="47.23867" lon="6.03498">
        <ele>257.23076923077</ele>
        <time>2015-05-10T07:35:14.590Z</time>
      </trkpt>
      <trkpt lat="47.23863" lon="6.03481">
        <ele>256</ele>
        <time>2015-05-10T07:35:17.590Z</time>
      </trkpt>
      <trkpt lat="47.23864" lon="6.03464">
        <ele>255</ele>
        <time>2015-05-10T07:35:20.590Z</time>
      </trkpt>
      <trkpt lat="47.23868" lon="6.03453">
        <ele>254</ele>
        <time>2015-05-10T07:35:22.590Z</time>
      </trkpt>
      <trkpt lat="47.23876" lon="6.03444">
        <ele>254</ele>
        <time>2015-05-10T07:35:24.590Z</time>
      </trkpt>
      <trkpt lat="47.23879" lon="6.0344">
        <ele>254</ele>
        <time>2015-05-10T07:35:25.590Z</time>
      </trkpt>
      <trkpt lat="47.23884" lon="6.03438">
        <ele>254</ele>
        <time>2015-05-10T07:35:26.590Z</time>
      </trkpt>
      <trkpt lat="47.23895" lon="6.03431">
        <ele>254</ele>
        <time>2015-05-10T07:35:29.590Z</time>
      </trkpt>
      <trkpt lat="47.239" lon="6.03428">
        <ele>254</ele>
        <time>2015-05-10T07:35:30.590Z</time>
      </trkpt>
      <trkpt lat="47.23903" lon="6.03425">
        <ele>254</ele>
        <time>2015-05-10T07:35:31.590Z</time>
      </trkpt>
      <trkpt lat="47.23907" lon="6.03422">
        <ele>254</ele>
        <time>2015-05-10T07:35:32.590Z</time>
      </trkpt>
      <trkpt lat="47.2391" lon="6.0342">
        <ele>254</ele>
        <time>2015-05-10T07:35:33.590Z</time>
      </trkpt>
      <trkpt lat="47.23914" lon="6.03417">
        <ele>254</ele>
        <time>2015-05-10T07:35:34.590Z</time>
      </trkpt>
      <trkpt lat="47.23921" lon="6.03409">
        <ele>255</ele>
        <time>2015-05-10T07:35:36.590Z</time>
      </trkpt>
      <trkpt lat="47.23924" lon="6.03405">
        <ele>255</ele>
        <time>2015-05-10T07:35:37.590Z</time>
      </trkpt>
      <trkpt lat="47.23927" lon="6.03401">
        <ele>255</ele>
        <time>2015-05-10T07:35:38.590Z</time>
      </trkpt>
      <trkpt lat="47.23933" lon="6.03393">
        <ele>255</ele>
        <time>2015-05-10T07:35:40.590Z</time>
      </trkpt>
      <trkpt lat="47.23939" lon="6.03384">
        <ele>255</ele>
        <time>2015-05-10T07:35:42.590Z</time>
      </trkpt>
      <trkpt lat="47.23947" lon="6.03369">
        <ele>255</ele>
        <time>2015-05-10T07:35:45.590Z</time>
      </trkpt>
      <trkpt lat="47.23954" lon="6.03354">
        <ele>256</ele>
        <time>2015-05-10T07:35:48.490Z</time>
      </trkpt>
      <trkpt lat="47.23961" lon="6.03342">
        <ele>255.3000064</ele>
        <time>2015-05-10T07:35:51.490Z</time>
      </trkpt>
      <trkpt lat="47.23968" lon="6.0333">
        <ele>255</ele>
        <time>2015-05-10T07:35:54.490Z</time>
      </trkpt>
      <trkpt lat="47.23976" lon="6.03321">
        <ele>255</ele>
        <time>2015-05-10T07:35:57.490Z</time>
      </trkpt>
      <trkpt lat="47.23987" lon="6.03313">
        <ele>254</ele>
        <time>2015-05-10T07:36:01.490Z</time>
      </trkpt>
      <trkpt lat="47.23998" lon="6.03308">
        <ele>254</ele>
        <time>2015-05-10T07:36:04.490Z</time>
      </trkpt>
      <trkpt lat="47.24008" lon="6.03302">
        <ele>254</ele>
        <time>2015-05-10T07:36:07.490Z</time>
      </trkpt>
      <trkpt lat="47.2402" lon="6.03293">
        <ele>254</ele>
        <time>2015-05-10T07:36:11.490Z</time>
      </trkpt>
      <trkpt lat="47.24031" lon="6.03284">
        <ele>254</ele>
        <time>2015-05-10T07:36:14.490Z</time>
      </trkpt>
      <trkpt lat="47.24041" lon="6.03274">
        <ele>254</ele>
        <time>2015-05-10T07:36:17.490Z</time>
      </trkpt>
      <trkpt lat="47.24047" lon="6.03261">
        <ele>254</ele>
        <time>2015-05-10T07:36:20.490Z</time>
      </trkpt>
      <trkpt lat="47.24052" lon="6.03249">
        <ele>254</ele>
        <time>2015-05-10T07:36:23.490Z</time>
      </trkpt>
      <trkpt lat="47.24058" lon="6.03235">
        <ele>254.6999936</ele>
        <time>2015-05-10T07:36:26.490Z</time>
      </trkpt>
      <trkpt lat="47.24063" lon="6.03222">
        <ele>255</ele>
        <time>2015-05-10T07:36:29.490Z</time>
      </trkpt>
      <trkpt lat="47.24069" lon="6.03209">
        <ele>255</ele>
        <time>2015-05-10T07:36:32.490Z</time>
      </trkpt>
      <trkpt lat="47.24076" lon="6.03198">
        <ele>255</ele>
        <time>2015-05-10T07:36:35.490Z</time>
      </trkpt>
      <trkpt lat="47.24085" lon="6.03187">
        <ele>255</ele>
        <time>2015-05-10T07:36:39.490Z</time>
      </trkpt>
      <trkpt lat="47.24093" lon="6.03177">
        <ele>255</ele>
        <time>2015-05-10T07:36:42.490Z</time>
      </trkpt>
      <trkpt lat="47.24102" lon="6.03167">
        <ele>255</ele>
        <time>2015-05-10T07:36:45.490Z</time>
      </trkpt>
      <trkpt lat="47.24111" lon="6.03155">
        <ele>255</ele>
        <time>2015-05-10T07:36:48.490Z</time>
      </trkpt>
      <trkpt lat="47.24119" lon="6.03142">
        <ele>255</ele>
        <time>2015-05-10T07:36:51.490Z</time>
      </trkpt>
      <trkpt lat="47.24126" lon="6.03128">
        <ele>255</ele>
        <time>2015-05-10T07:36:54.490Z</time>
      </trkpt>
      <trkpt lat="47.24132" lon="6.03114">
        <ele>254.3000064</ele>
        <time>2015-05-10T07:36:57.490Z</time>
      </trkpt>
      <trkpt lat="47.24137" lon="6.03098">
        <ele>254.3000064</ele>
        <time>2015-05-10T07:37:00.490Z</time>
      </trkpt>
      <trkpt lat="47.24142" lon="6.03081">
        <ele>253.3000064</ele>
        <time>2015-05-10T07:37:03.490Z</time>
      </trkpt>
      <trkpt lat="47.24148" lon="6.03066">
        <ele>253</ele>
        <time>2015-05-10T07:37:06.490Z</time>
      </trkpt>
      <trkpt lat="47.24155" lon="6.03052">
        <ele>252</ele>
        <time>2015-05-10T07:37:09.490Z</time>
      </trkpt>
      <trkpt lat="47.24161" lon="6.03038">
        <ele>252</ele>
        <time>2015-05-10T07:37:12.490Z</time>
      </trkpt>
      <trkpt lat="47.24166" lon="6.03029">
        <ele>252</ele>
        <time>2015-05-10T07:37:14.490Z</time>
      </trkpt>
      <trkpt lat="47.2417" lon="6.0302">
        <ele>252</ele>
        <time>2015-05-10T07:37:16.490Z</time>
      </trkpt>
      <trkpt lat="47.24176" lon="6.03007">
        <ele>252</ele>
        <time>2015-05-10T07:37:19.490Z</time>
      </trkpt>
      <trkpt lat="47.24183" lon="6.02995">
        <ele>251.3000064</ele>
        <time>2015-05-10T07:37:22.490Z</time>
      </trkpt>
      <trkpt lat="47.24189" lon="6.02984">
        <ele>251</ele>
        <time>2015-05-10T07:37:25.490Z</time>
      </trkpt>
      <trkpt lat="47.24194" lon="6.02972">
        <ele>251</ele>
        <time>2015-05-10T07:37:28.490Z</time>
      </trkpt>
      <trkpt lat="47.24196" lon="6.02957">
        <ele>250.3000064</ele>
        <time>2015-05-10T07:37:31.490Z</time>
      </trkpt>
      <trkpt lat="47.24198" lon="6.0294">
        <ele>251</ele>
        <time>2015-05-10T07:37:34.490Z</time>
      </trkpt>
      <trkpt lat="47.24199" lon="6.02929">
        <ele>251</ele>
        <time>2015-05-10T07:37:36.490Z</time>
      </trkpt>
      <trkpt lat="47.24202" lon="6.02915">
        <ele>251</ele>
        <time>2015-05-10T07:37:39.490Z</time>
      </trkpt>
      <trkpt lat="47.24206" lon="6.02901">
        <ele>251</ele>
        <time>2015-05-10T07:37:42.490Z</time>
      </trkpt>
      <trkpt lat="47.24212" lon="6.02887">
        <ele>252</ele>
        <time>2015-05-10T07:37:45.490Z</time>
      </trkpt>
      <trkpt lat="47.24218" lon="6.02872">
        <ele>253</ele>
        <time>2015-05-10T07:37:48.490Z</time>
      </trkpt>
      <trkpt lat="47.24221" lon="6.02856">
        <ele>254</ele>
        <time>2015-05-10T07:37:51.490Z</time>
      </trkpt>
      <trkpt lat="47.24224" lon="6.0284">
        <ele>254</ele>
        <time>2015-05-10T07:37:54.310Z</time>
      </trkpt>
      <trkpt lat="47.24224" lon="6.02823">
        <ele>254</ele>
        <time>2015-05-10T07:37:57.590Z</time>
      </trkpt>
      <trkpt lat="47.24224" lon="6.02813">
        <ele>253</ele>
        <time>2015-05-10T07:37:59.590Z</time>
      </trkpt>
      <trkpt lat="47.24224" lon="6.02795">
        <ele>253</ele>
        <time>2015-05-10T07:38:02.590Z</time>
      </trkpt>
      <trkpt lat="47.24225" lon="6.02784">
        <ele>253</ele>
        <time>2015-05-10T07:38:04.590Z</time>
      </trkpt>
      <trkpt lat="47.24227" lon="6.02774">
        <ele>253</ele>
        <time>2015-05-10T07:38:06.590Z</time>
      </trkpt>
      <trkpt lat="47.24229" lon="6.02765">
        <ele>252</ele>
        <time>2015-05-10T07:38:08.590Z</time>
      </trkpt>
      <trkpt lat="47.2423" lon="6.02754">
        <ele>252</ele>
        <time>2015-05-10T07:38:10.490Z</time>
      </trkpt>
      <trkpt lat="47.24232" lon="6.02744">
        <ele>252</ele>
        <time>2015-05-10T07:38:12.490Z</time>
      </trkpt>
      <trkpt lat="47.24234" lon="6.02734">
        <ele>252</ele>
        <time>2015-05-10T07:38:14.590Z</time>
      </trkpt>
      <trkpt lat="47.24236" lon="6.02723">
        <ele>252</ele>
        <time>2015-05-10T07:38:16.490Z</time>
      </trkpt>
      <trkpt lat="47.24237" lon="6.02714">
        <ele>251.3000064</ele>
        <time>2015-05-10T07:38:18.490Z</time>
      </trkpt>
      <trkpt lat="47.24238" lon="6.02704">
        <ele>251</ele>
        <time>2015-05-10T07:38:20.490Z</time>
      </trkpt>
      <trkpt lat="47.24241" lon="6.0269">
        <ele>250.3000064</ele>
        <time>2015-05-10T07:38:23.490Z</time>
      </trkpt>
      <trkpt lat="47.24244" lon="6.02673">
        <ele>249</ele>
        <time>2015-05-10T07:38:27.490Z</time>
      </trkpt>
      <trkpt lat="47.24249" lon="6.02659">
        <ele>248</ele>
        <time>2015-05-10T07:38:31.490Z</time>
      </trkpt>
      <trkpt lat="47.24255" lon="6.02645">
        <ele>248</ele>
        <time>2015-05-10T07:38:35.490Z</time>
      </trkpt>
      <trkpt lat="47.24261" lon="6.02634">
        <ele>248</ele>
        <time>2015-05-10T07:38:38.490Z</time>
      </trkpt>
      <trkpt lat="47.24266" lon="6.02623">
        <ele>249</ele>
        <time>2015-05-10T07:38:41.490Z</time>
      </trkpt>
      <trkpt lat="47.24268" lon="6.02606">
        <ele>249</ele>
        <time>2015-05-10T07:38:45.490Z</time>
      </trkpt>
      <trkpt lat="47.24264" lon="6.02588">
        <ele>249</ele>
        <time>2015-05-10T07:38:49.490Z</time>
      </trkpt>
      <trkpt lat="47.24253" lon="6.02582">
        <ele>248</ele>
        <time>2015-05-10T07:38:53.490Z</time>
      </trkpt>
      <trkpt lat="47.24242" lon="6.02582">
        <ele>249</ele>
        <time>2015-05-10T07:38:56.490Z</time>
      </trkpt>
      <trkpt lat="47.24231" lon="6.0258">
        <ele>250</ele>
        <time>2015-05-10T07:38:59.490Z</time>
      </trkpt>
      <trkpt lat="47.2422" lon="6.02579">
        <ele>250.6999936</ele>
        <time>2015-05-10T07:39:02.490Z</time>
      </trkpt>
      <trkpt lat="47.2421" lon="6.02576">
        <ele>251</ele>
        <time>2015-05-10T07:39:05.490Z</time>
      </trkpt>
      <trkpt lat="47.242" lon="6.02574">
        <ele>251</ele>
        <time>2015-05-10T07:39:08.490Z</time>
      </trkpt>
      <trkpt lat="47.24189" lon="6.02572">
        <ele>251</ele>
        <time>2015-05-10T07:39:11.490Z</time>
      </trkpt>
      <trkpt lat="47.24178" lon="6.0257">
        <ele>251</ele>
        <time>2015-05-10T07:39:14.490Z</time>
      </trkpt>
      <trkpt lat="47.24169" lon="6.02568">
        <ele>251</ele>
        <time>2015-05-10T07:39:17.490Z</time>
      </trkpt>
      <trkpt lat="47.24159" lon="6.02568">
        <ele>251</ele>
        <time>2015-05-10T07:39:20.490Z</time>
      </trkpt>
      <trkpt lat="47.24169" lon="6.0257">
        <ele>250</ele>
        <time>2015-05-10T07:39:35.490Z</time>
      </trkpt>
      <trkpt lat="47.24177" lon="6.02561">
        <ele>251</ele>
        <time>2015-05-10T07:39:38.490Z</time>
      </trkpt>
      <trkpt lat="47.24181" lon="6.02547">
        <ele>251</ele>
        <time>2015-05-10T07:39:40.490Z</time>
      </trkpt>
      <trkpt lat="47.24183" lon="6.02526">
        <ele>251</ele>
        <time>2015-05-10T07:39:43.490Z</time>
      </trkpt>
      <trkpt lat="47.24183" lon="6.02506">
        <ele>250</ele>
        <time>2015-05-10T07:39:46.490Z</time>
      </trkpt>
      <trkpt lat="47.24184" lon="6.02487">
        <ele>249.3000064</ele>
        <time>2015-05-10T07:39:49.490Z</time>
      </trkpt>
      <trkpt lat="47.24185" lon="6.0247">
        <ele>249</ele>
        <time>2015-05-10T07:39:52.490Z</time>
      </trkpt>
      <trkpt lat="47.24185" lon="6.02455">
        <ele>249</ele>
        <time>2015-05-10T07:39:55.490Z</time>
      </trkpt>
      <trkpt lat="47.24184" lon="6.0244">
        <ele>248</ele>
        <time>2015-05-10T07:39:58.310Z</time>
      </trkpt>
      <trkpt lat="47.24183" lon="6.02425">
        <ele>248</ele>
        <time>2015-05-10T07:40:01.590Z</time>
      </trkpt>
      <trkpt lat="47.24181" lon="6.0241">
        <ele>247</ele>
        <time>2015-05-10T07:40:04.590Z</time>
      </trkpt>
      <trkpt lat="47.24178" lon="6.02395">
        <ele>247</ele>
        <time>2015-05-10T07:40:07.590Z</time>
      </trkpt>
      <trkpt lat="47.24174" lon="6.0238">
        <ele>246.2</ele>
        <time>2015-05-10T07:40:10.590Z</time>
      </trkpt>
      <trkpt lat="47.24168" lon="6.02367">
        <ele>246</ele>
        <time>2015-05-10T07:40:13.590Z</time>
      </trkpt>
      <trkpt lat="47.24162" lon="6.02354">
        <ele>245.2</ele>
        <time>2015-05-10T07:40:16.590Z</time>
      </trkpt>
      <trkpt lat="47.24156" lon="6.0234">
        <ele>245</ele>
        <time>2015-05-10T07:40:19.590Z</time>
      </trkpt>
      <trkpt lat="47.24151" lon="6.02326">
        <ele>245</ele>
        <time>2015-05-10T07:40:22.590Z</time>
      </trkpt>
      <trkpt lat="47.24146" lon="6.02314">
        <ele>245</ele>
        <time>2015-05-10T07:40:25.590Z</time>
      </trkpt>
      <trkpt lat="47.2414" lon="6.02303">
        <ele>245</ele>
        <time>2015-05-10T07:40:28.590Z</time>
      </trkpt>
      <trkpt lat="47.24132" lon="6.02294">
        <ele>245</ele>
        <time>2015-05-10T07:40:31.590Z</time>
      </trkpt>
      <trkpt lat="47.24124" lon="6.02286">
        <ele>245</ele>
        <time>2015-05-10T07:40:34.590Z</time>
      </trkpt>
      <trkpt lat="47.24114" lon="6.02279">
        <ele>244</ele>
        <time>2015-05-10T07:40:37.590Z</time>
      </trkpt>
      <trkpt lat="47.24108" lon="6.02275">
        <ele>244</ele>
        <time>2015-05-10T07:40:39.590Z</time>
      </trkpt>
      <trkpt lat="47.24105" lon="6.02273">
        <ele>244</ele>
        <time>2015-05-10T07:40:40.590Z</time>
      </trkpt>
      <trkpt lat="47.24102" lon="6.0227">
        <ele>244</ele>
        <time>2015-05-10T07:40:41.590Z</time>
      </trkpt>
      <trkpt lat="47.24099" lon="6.02267">
        <ele>244</ele>
        <time>2015-05-10T07:40:42.590Z</time>
      </trkpt>
      <trkpt lat="47.24092" lon="6.02261">
        <ele>244</ele>
        <time>2015-05-10T07:40:44.590Z</time>
      </trkpt>
      <trkpt lat="47.24085" lon="6.02254">
        <ele>244</ele>
        <time>2015-05-10T07:40:46.590Z</time>
      </trkpt>
      <trkpt lat="47.24079" lon="6.02247">
        <ele>244</ele>
        <time>2015-05-10T07:40:48.590Z</time>
      </trkpt>
      <trkpt lat="47.24076" lon="6.02244">
        <ele>244</ele>
        <time>2015-05-10T07:40:49.590Z</time>
      </trkpt>
      <trkpt lat="47.24073" lon="6.0224">
        <ele>244</ele>
        <time>2015-05-10T07:40:50.590Z</time>
      </trkpt>
      <trkpt lat="47.24067" lon="6.02233">
        <ele>244</ele>
        <time>2015-05-10T07:40:52.590Z</time>
      </trkpt>
      <trkpt lat="47.24061" lon="6.02226">
        <ele>244.8</ele>
        <time>2015-05-10T07:40:54.590Z</time>
      </trkpt>
      <trkpt lat="47.24058" lon="6.02223">
        <ele>245</ele>
        <time>2015-05-10T07:40:55.590Z</time>
      </trkpt>
      <trkpt lat="47.24056" lon="6.0222">
        <ele>245</ele>
        <time>2015-05-10T07:40:56.590Z</time>
      </trkpt>
      <trkpt lat="47.24048" lon="6.02211">
        <ele>244.2</ele>
        <time>2015-05-10T07:40:59.590Z</time>
      </trkpt>
      <trkpt lat="47.24042" lon="6.02204">
        <ele>244</ele>
        <time>2015-05-10T07:41:01.590Z</time>
      </trkpt>
      <trkpt lat="47.24039" lon="6.02201">
        <ele>244</ele>
        <time>2015-05-10T07:41:02.590Z</time>
      </trkpt>
      <trkpt lat="47.24033" lon="6.02194">
        <ele>244</ele>
        <time>2015-05-10T07:41:04.590Z</time>
      </trkpt>
      <trkpt lat="47.24025" lon="6.02183">
        <ele>243.2</ele>
        <time>2015-05-10T07:41:07.590Z</time>
      </trkpt>
      <trkpt lat="47.24019" lon="6.02174">
        <ele>244</ele>
        <time>2015-05-10T07:41:10.590Z</time>
      </trkpt>
      <trkpt lat="47.24012" lon="6.02163">
        <ele>244</ele>
        <time>2015-05-10T07:41:13.590Z</time>
      </trkpt>
      <trkpt lat="47.24007" lon="6.02155">
        <ele>244</ele>
        <time>2015-05-10T07:41:15.590Z</time>
      </trkpt>
      <trkpt lat="47.23999" lon="6.02144">
        <ele>244</ele>
        <time>2015-05-10T07:41:18.590Z</time>
      </trkpt>
      <trkpt lat="47.23992" lon="6.02132">
        <ele>244</ele>
        <time>2015-05-10T07:41:21.590Z</time>
      </trkpt>
      <trkpt lat="47.23984" lon="6.02121">
        <ele>244</ele>
        <time>2015-05-10T07:41:24.590Z</time>
      </trkpt>
      <trkpt lat="47.23977" lon="6.02111">
        <ele>244.8</ele>
        <time>2015-05-10T07:41:27.590Z</time>
      </trkpt>
      <trkpt lat="47.23971" lon="6.02103">
        <ele>245</ele>
        <time>2015-05-10T07:41:29.590Z</time>
      </trkpt>
      <trkpt lat="47.23963" lon="6.02094">
        <ele>245</ele>
        <time>2015-05-10T07:41:32.590Z</time>
      </trkpt>
      <trkpt lat="47.23953" lon="6.02082">
        <ele>246</ele>
        <time>2015-05-10T07:41:36.590Z</time>
      </trkpt>
      <trkpt lat="47.23948" lon="6.02068">
        <ele>246</ele>
        <time>2015-05-10T07:41:39.590Z</time>
      </trkpt>
      <trkpt lat="47.23942" lon="6.02062">
        <ele>246</ele>
        <time>2015-05-10T07:41:41.590Z</time>
      </trkpt>
      <trkpt lat="47.23936" lon="6.02056">
        <ele>246</ele>
        <time>2015-05-10T07:41:43.600Z</time>
      </trkpt>
      <trkpt lat="47.2393" lon="6.0205">
        <ele>246</ele>
        <time>2015-05-10T07:41:45.590Z</time>
      </trkpt>
      <trkpt lat="47.23925" lon="6.02043">
        <ele>245.2</ele>
        <time>2015-05-10T07:41:47.590Z</time>
      </trkpt>
      <trkpt lat="47.23917" lon="6.02034">
        <ele>245</ele>
        <time>2015-05-10T07:41:50.590Z</time>
      </trkpt>
      <trkpt lat="47.23912" lon="6.02027">
        <ele>246</ele>
        <time>2015-05-10T07:41:52.590Z</time>
      </trkpt>
      <trkpt lat="47.23904" lon="6.02017">
        <ele>246</ele>
        <time>2015-05-10T07:41:55.590Z</time>
      </trkpt>
      <trkpt lat="47.23901" lon="6.02014">
        <ele>246</ele>
        <time>2015-05-10T07:41:56.590Z</time>
      </trkpt>
      <trkpt lat="47.23895" lon="6.02006">
        <ele>245.2</ele>
        <time>2015-05-10T07:41:58.590Z</time>
      </trkpt>
      <trkpt lat="47.23889" lon="6.01998">
        <ele>245</ele>
        <time>2015-05-10T07:42:00.590Z</time>
      </trkpt>
      <trkpt lat="47.23883" lon="6.0199">
        <ele>245</ele>
        <time>2015-05-10T07:42:02.490Z</time>
      </trkpt>
      <trkpt lat="47.23881" lon="6.01986">
        <ele>245.6999936</ele>
        <time>2015-05-10T07:42:03.490Z</time>
      </trkpt>
      <trkpt lat="47.23875" lon="6.01978">
        <ele>246</ele>
        <time>2015-05-10T07:42:05.490Z</time>
      </trkpt>
      <trkpt lat="47.23868" lon="6.01968">
        <ele>246.6999936</ele>
        <time>2015-05-10T07:42:08.490Z</time>
      </trkpt>
      <trkpt lat="47.2386" lon="6.01956">
        <ele>247</ele>
        <time>2015-05-10T07:42:11.490Z</time>
      </trkpt>
      <trkpt lat="47.23854" lon="6.01948">
        <ele>248</ele>
        <time>2015-05-10T07:42:13.490Z</time>
      </trkpt>
      <trkpt lat="47.23845" lon="6.01937">
        <ele>249</ele>
        <time>2015-05-10T07:42:16.490Z</time>
      </trkpt>
      <trkpt lat="47.23839" lon="6.01929">
        <ele>250</ele>
        <time>2015-05-10T07:42:18.490Z</time>
      </trkpt>
      <trkpt lat="47.23832" lon="6.01924">
        <ele>249.3000064</ele>
        <time>2015-05-10T07:42:20.490Z</time>
      </trkpt>
      <trkpt lat="47.23826" lon="6.0192">
        <ele>248.3000064</ele>
        <time>2015-05-10T07:42:22.490Z</time>
      </trkpt>
      <trkpt lat="47.23818" lon="6.01913">
        <ele>247</ele>
        <time>2015-05-10T07:42:25.490Z</time>
      </trkpt>
      <trkpt lat="47.23809" lon="6.01904">
        <ele>246</ele>
        <time>2015-05-10T07:42:28.490Z</time>
      </trkpt>
      <trkpt lat="47.23801" lon="6.01894">
        <ele>247</ele>
        <time>2015-05-10T07:42:31.490Z</time>
      </trkpt>
      <trkpt lat="47.23793" lon="6.01885">
        <ele>247</ele>
        <time>2015-05-10T07:42:34.490Z</time>
      </trkpt>
      <trkpt lat="47.23785" lon="6.01875">
        <ele>247</ele>
        <time>2015-05-10T07:42:37.500Z</time>
      </trkpt>
      <trkpt lat="47.2378" lon="6.01868">
        <ele>247</ele>
        <time>2015-05-10T07:42:39.590Z</time>
      </trkpt>
      <trkpt lat="47.23775" lon="6.0186">
        <ele>247</ele>
        <time>2015-05-10T07:42:41.590Z</time>
      </trkpt>
      <trkpt lat="47.23769" lon="6.01852">
        <ele>247</ele>
        <time>2015-05-10T07:42:43.690Z</time>
      </trkpt>
      <trkpt lat="47.23763" lon="6.01842">
        <ele>248</ele>
        <time>2015-05-10T07:42:46.490Z</time>
      </trkpt>
      <trkpt lat="47.23758" lon="6.01835">
        <ele>248</ele>
        <time>2015-05-10T07:42:48.490Z</time>
      </trkpt>
      <trkpt lat="47.2375" lon="6.01826">
        <ele>248</ele>
        <time>2015-05-10T07:42:51.490Z</time>
      </trkpt>
      <trkpt lat="47.23741" lon="6.01819">
        <ele>247</ele>
        <time>2015-05-10T07:42:54.490Z</time>
      </trkpt>
      <trkpt lat="47.23731" lon="6.01812">
        <ele>246</ele>
        <time>2015-05-10T07:42:57.490Z</time>
      </trkpt>
      <trkpt lat="47.23721" lon="6.01805">
        <ele>245</ele>
        <time>2015-05-10T07:43:00.490Z</time>
      </trkpt>
      <trkpt lat="47.23711" lon="6.01797">
        <ele>245</ele>
        <time>2015-05-10T07:43:03.490Z</time>
      </trkpt>
      <trkpt lat="47.23701" lon="6.01789">
        <ele>245.6999936</ele>
        <time>2015-05-10T07:43:06.490Z</time>
      </trkpt>
      <trkpt lat="47.23691" lon="6.0178">
        <ele>245.3000064</ele>
        <time>2015-05-10T07:43:09.490Z</time>
      </trkpt>
      <trkpt lat="47.23682" lon="6.01772">
        <ele>246</ele>
        <time>2015-05-10T07:43:12.490Z</time>
      </trkpt>
      <trkpt lat="47.23671" lon="6.01761">
        <ele>246.6999936</ele>
        <time>2015-05-10T07:43:16.490Z</time>
      </trkpt>
      <trkpt lat="47.23659" lon="6.01753">
        <ele>247</ele>
        <time>2015-05-10T07:43:20.490Z</time>
      </trkpt>
      <trkpt lat="47.23648" lon="6.0175">
        <ele>247</ele>
        <time>2015-05-10T07:43:23.490Z</time>
      </trkpt>
      <trkpt lat="47.23637" lon="6.01745">
        <ele>247</ele>
        <time>2015-05-10T07:43:26.490Z</time>
      </trkpt>
      <trkpt lat="47.23627" lon="6.01744">
        <ele>247</ele>
        <time>2015-05-10T07:43:29.490Z</time>
      </trkpt>
      <trkpt lat="47.23616" lon="6.01742">
        <ele>246</ele>
        <time>2015-05-10T07:43:32.490Z</time>
      </trkpt>
      <trkpt lat="47.23606" lon="6.01739">
        <ele>246</ele>
        <time>2015-05-10T07:43:35.490Z</time>
      </trkpt>
      <trkpt lat="47.23598" lon="6.01736">
        <ele>245</ele>
        <time>2015-05-10T07:43:38.490Z</time>
      </trkpt>
      <trkpt lat="47.23588" lon="6.01731">
        <ele>245</ele>
        <time>2015-05-10T07:43:42.490Z</time>
      </trkpt>
      <trkpt lat="47.23578" lon="6.01726">
        <ele>245</ele>
        <time>2015-05-10T07:43:45.490Z</time>
      </trkpt>
      <trkpt lat="47.23568" lon="6.01722">
        <ele>244</ele>
        <time>2015-05-10T07:43:48.490Z</time>
      </trkpt>
      <trkpt lat="47.23558" lon="6.01719">
        <ele>244</ele>
        <time>2015-05-10T07:43:51.490Z</time>
      </trkpt>
      <trkpt lat="47.23547" lon="6.01718">
        <ele>244.6999936</ele>
        <time>2015-05-10T07:43:54.490Z</time>
      </trkpt>
      <trkpt lat="47.23536" lon="6.01715">
        <ele>245</ele>
        <time>2015-05-10T07:43:57.490Z</time>
      </trkpt>
      <trkpt lat="47.23526" lon="6.01715">
        <ele>246</ele>
        <time>2015-05-10T07:44:00.490Z</time>
      </trkpt>
      <trkpt lat="47.23517" lon="6.01714">
        <ele>246</ele>
        <time>2015-05-10T07:44:03.490Z</time>
      </trkpt>
      <trkpt lat="47.23507" lon="6.01713">
        <ele>245</ele>
        <time>2015-05-10T07:44:06.590Z</time>
      </trkpt>
      <trkpt lat="47.23495" lon="6.01711">
        <ele>245</ele>
        <time>2015-05-10T07:44:09.590Z</time>
      </trkpt>
      <trkpt lat="47.23484" lon="6.01705">
        <ele>245</ele>
        <time>2015-05-10T07:44:12.590Z</time>
      </trkpt>
      <trkpt lat="47.23474" lon="6.01697">
        <ele>246</ele>
        <time>2015-05-10T07:44:15.590Z</time>
      </trkpt>
      <trkpt lat="47.23465" lon="6.01688">
        <ele>246</ele>
        <time>2015-05-10T07:44:18.590Z</time>
      </trkpt>
      <trkpt lat="47.2346" lon="6.01683">
        <ele>246</ele>
        <time>2015-05-10T07:44:20.590Z</time>
      </trkpt>
      <trkpt lat="47.23451" lon="6.01674">
        <ele>245</ele>
        <time>2015-05-10T07:44:24.590Z</time>
      </trkpt>
      <trkpt lat="47.2344" lon="6.01675">
        <ele>245</ele>
        <time>2015-05-10T07:44:27.590Z</time>
      </trkpt>
      <trkpt lat="47.23429" lon="6.01679">
        <ele>245.8</ele>
        <time>2015-05-10T07:44:30.590Z</time>
      </trkpt>
      <trkpt lat="47.23419" lon="6.01684">
        <ele>247</ele>
        <time>2015-05-10T07:44:34.590Z</time>
      </trkpt>
      <trkpt lat="47.23407" lon="6.01686">
        <ele>247.8</ele>
        <time>2015-05-10T07:44:38.590Z</time>
      </trkpt>
      <trkpt lat="47.23396" lon="6.01685">
        <ele>247.8</ele>
        <time>2015-05-10T07:44:41.590Z</time>
      </trkpt>
      <trkpt lat="47.23386" lon="6.01682">
        <ele>248</ele>
        <time>2015-05-10T07:44:44.590Z</time>
      </trkpt>
      <trkpt lat="47.23376" lon="6.01679">
        <ele>248</ele>
        <time>2015-05-10T07:44:47.590Z</time>
      </trkpt>
      <trkpt lat="47.23366" lon="6.01678">
        <ele>248</ele>
        <time>2015-05-10T07:44:50.590Z</time>
      </trkpt>
      <trkpt lat="47.23356" lon="6.01679">
        <ele>248</ele>
        <time>2015-05-10T07:44:53.590Z</time>
      </trkpt>
      <trkpt lat="47.23346" lon="6.01679">
        <ele>248</ele>
        <time>2015-05-10T07:44:56.590Z</time>
      </trkpt>
      <trkpt lat="47.23336" lon="6.01682">
        <ele>248</ele>
        <time>2015-05-10T07:44:59.590Z</time>
      </trkpt>
      <trkpt lat="47.23326" lon="6.01683">
        <ele>249</ele>
        <time>2015-05-10T07:45:02.590Z</time>
      </trkpt>
      <trkpt lat="47.23316" lon="6.01685">
        <ele>249.8</ele>
        <time>2015-05-10T07:45:05.590Z</time>
      </trkpt>
      <trkpt lat="47.23307" lon="6.01689">
        <ele>250</ele>
        <time>2015-05-10T07:45:08.590Z</time>
      </trkpt>
      <trkpt lat="47.23297" lon="6.01693">
        <ele>250</ele>
        <time>2015-05-10T07:45:11.590Z</time>
      </trkpt>
      <trkpt lat="47.23288" lon="6.01698">
        <ele>250</ele>
        <time>2015-05-10T07:45:14.590Z</time>
      </trkpt>
      <trkpt lat="47.23278" lon="6.01702">
        <ele>250</ele>
        <time>2015-05-10T07:45:17.590Z</time>
      </trkpt>
      <trkpt lat="47.23268" lon="6.01707">
        <ele>250</ele>
        <time>2015-05-10T07:45:20.590Z</time>
      </trkpt>
      <trkpt lat="47.23258" lon="6.0171">
        <ele>250</ele>
        <time>2015-05-10T07:45:23.590Z</time>
      </trkpt>
      <trkpt lat="47.23249" lon="6.01715">
        <ele>249</ele>
        <time>2015-05-10T07:45:25.590Z</time>
      </trkpt>
      <trkpt lat="47.23238" lon="6.01718">
        <ele>249.8</ele>
        <time>2015-05-10T07:45:28.590Z</time>
      </trkpt>
      <trkpt lat="47.23226" lon="6.01724">
        <ele>250</ele>
        <time>2015-05-10T07:45:32.590Z</time>
      </trkpt>
      <trkpt lat="47.23213" lon="6.01728">
        <ele>250</ele>
        <time>2015-05-10T07:45:36.590Z</time>
      </trkpt>
      <trkpt lat="47.23201" lon="6.01732">
        <ele>250</ele>
        <time>2015-05-10T07:45:40.590Z</time>
      </trkpt>
      <trkpt lat="47.23191" lon="6.01735">
        <ele>249.2</ele>
        <time>2015-05-10T07:45:43.590Z</time>
      </trkpt>
      <trkpt lat="47.23181" lon="6.01739">
        <ele>249</ele>
        <time>2015-05-10T07:45:46.590Z</time>
      </trkpt>
      <trkpt lat="47.23171" lon="6.01744">
        <ele>249</ele>
        <time>2015-05-10T07:45:49.590Z</time>
      </trkpt>
      <trkpt lat="47.23161" lon="6.01749">
        <ele>248</ele>
        <time>2015-05-10T07:45:52.590Z</time>
      </trkpt>
      <trkpt lat="47.23152" lon="6.01755">
        <ele>248</ele>
        <time>2015-05-10T07:45:55.590Z</time>
      </trkpt>
      <trkpt lat="47.23146" lon="6.01759">
        <ele>248</ele>
        <time>2015-05-10T07:45:57.590Z</time>
      </trkpt>
      <trkpt lat="47.23141" lon="6.01764">
        <ele>248</ele>
        <time>2015-05-10T07:45:59.590Z</time>
      </trkpt>
      <trkpt lat="47.23136" lon="6.01769">
        <ele>247</ele>
        <time>2015-05-10T07:46:01.590Z</time>
      </trkpt>
      <trkpt lat="47.23126" lon="6.01778">
        <ele>248</ele>
        <time>2015-05-10T07:46:05.590Z</time>
      </trkpt>
      <trkpt lat="47.23118" lon="6.01786">
        <ele>247</ele>
        <time>2015-05-10T07:46:08.590Z</time>
      </trkpt>
      <trkpt lat="47.23111" lon="6.01797">
        <ele>247</ele>
        <time>2015-05-10T07:46:11.590Z</time>
      </trkpt>
      <trkpt lat="47.23104" lon="6.01809">
        <ele>247</ele>
        <time>2015-05-10T07:46:14.590Z</time>
      </trkpt>
      <trkpt lat="47.23096" lon="6.01824">
        <ele>247</ele>
        <time>2015-05-10T07:46:18.490Z</time>
      </trkpt>
      <trkpt lat="47.23094" lon="6.01837">
        <ele>247</ele>
        <time>2015-05-10T07:46:21.490Z</time>
      </trkpt>
      <trkpt lat="47.23097" lon="6.01852">
        <ele>247.8999936</ele>
        <time>2015-05-10T07:46:25.690Z</time>
      </trkpt>
      <trkpt lat="47.23104" lon="6.01861">
        <ele>248</ele>
        <time>2015-05-10T07:46:28.490Z</time>
      </trkpt>
      <trkpt lat="47.23112" lon="6.01872">
        <ele>248.8999936</ele>
        <time>2015-05-10T07:46:32.690Z</time>
      </trkpt>
      <trkpt lat="47.23122" lon="6.01878">
        <ele>249</ele>
        <time>2015-05-10T07:46:36.500Z</time>
      </trkpt>
      <trkpt lat="47.23133" lon="6.01874">
        <ele>250</ele>
        <time>2015-05-10T07:46:41.690Z</time>
      </trkpt>
      <trkpt lat="47.23141" lon="6.01864">
        <ele>250</ele>
        <time>2015-05-10T07:46:45.690Z</time>
      </trkpt>
      <trkpt lat="47.23144" lon="6.0185">
        <ele>249</ele>
        <time>2015-05-10T07:46:49.690Z</time>
      </trkpt>
      <trkpt lat="47.23137" lon="6.01833">
        <ele>247.10101623914</ele>
        <time>2015-05-10T07:46:53.690Z</time>
      </trkpt>
      <trkpt lat="47.2313" lon="6.0182">
        <ele>247</ele>
        <time>2015-05-10T07:46:56.490Z</time>
      </trkpt>
      <trkpt lat="47.23123" lon="6.01807">
        <ele>247</ele>
        <time>2015-05-10T07:46:59.490Z</time>
      </trkpt>
      <trkpt lat="47.23118" lon="6.01798">
        <ele>247</ele>
        <time>2015-05-10T07:47:01.690Z</time>
      </trkpt>
      <trkpt lat="47.23114" lon="6.01789">
        <ele>247</ele>
        <time>2015-05-10T07:47:03.490Z</time>
      </trkpt>
      <trkpt lat="47.23111" lon="6.0178">
        <ele>247.55117467421</ele>
        <time>2015-05-10T07:47:05.490Z</time>
      </trkpt>
      <trkpt lat="47.23106" lon="6.01772">
        <ele>248</ele>
        <time>2015-05-10T07:47:07.590Z</time>
      </trkpt>
      <trkpt lat="47.23102" lon="6.01763">
        <ele>248</ele>
        <time>2015-05-10T07:47:09.590Z</time>
      </trkpt>
      <trkpt lat="47.23097" lon="6.01755">
        <ele>248</ele>
        <time>2015-05-10T07:47:11.490Z</time>
      </trkpt>
      <trkpt lat="47.23093" lon="6.01747">
        <ele>249</ele>
        <time>2015-05-10T07:47:13.690Z</time>
      </trkpt>
      <trkpt lat="47.2309" lon="6.01738">
        <ele>249</ele>
        <time>2015-05-10T07:47:15.690Z</time>
      </trkpt>
      <trkpt lat="47.23085" lon="6.01726">
        <ele>249</ele>
        <time>2015-05-10T07:47:18.490Z</time>
      </trkpt>
      <trkpt lat="47.2308" lon="6.01714">
        <ele>249.6999936</ele>
        <time>2015-05-10T07:47:21.490Z</time>
      </trkpt>
      <trkpt lat="47.23074" lon="6.01702">
        <ele>250</ele>
        <time>2015-05-10T07:47:24.490Z</time>
      </trkpt>
      <trkpt lat="47.23067" lon="6.0169">
        <ele>250.6999936</ele>
        <time>2015-05-10T07:47:27.490Z</time>
      </trkpt>
      <trkpt lat="47.23062" lon="6.0168">
        <ele>251</ele>
        <time>2015-05-10T07:47:30.690Z</time>
      </trkpt>
      <trkpt lat="47.23055" lon="6.01668">
        <ele>252</ele>
        <time>2015-05-10T07:47:33.690Z</time>
      </trkpt>
      <trkpt lat="47.23048" lon="6.01655">
        <ele>252</ele>
        <time>2015-05-10T07:47:36.490Z</time>
      </trkpt>
      <trkpt lat="47.23042" lon="6.01643">
        <ele>252</ele>
        <time>2015-05-10T07:47:39.690Z</time>
      </trkpt>
      <trkpt lat="47.23034" lon="6.0166">
        <ele>250</ele>
        <time>2015-05-10T07:47:46.490Z</time>
      </trkpt>
      <trkpt lat="47.23035" lon="6.01676">
        <ele>250</ele>
        <time>2015-05-10T07:47:48.490Z</time>
      </trkpt>
      <trkpt lat="47.23036" lon="6.01691">
        <ele>250.6999936</ele>
        <time>2015-05-10T07:47:50.490Z</time>
      </trkpt>
      <trkpt lat="47.23034" lon="6.01709">
        <ele>251</ele>
        <time>2015-05-10T07:47:53.490Z</time>
      </trkpt>
      <trkpt lat="47.23029" lon="6.01725">
        <ele>251</ele>
        <time>2015-05-10T07:47:56.490Z</time>
      </trkpt>
      <trkpt lat="47.23023" lon="6.01738">
        <ele>251</ele>
        <time>2015-05-10T07:47:59.490Z</time>
      </trkpt>
      <trkpt lat="47.23016" lon="6.01753">
        <ele>251</ele>
        <time>2015-05-10T07:48:03.490Z</time>
      </trkpt>
      <trkpt lat="47.23009" lon="6.01767">
        <ele>251</ele>
        <time>2015-05-10T07:48:07.490Z</time>
      </trkpt>
      <trkpt lat="47.23003" lon="6.01782">
        <ele>251</ele>
        <time>2015-05-10T07:48:11.490Z</time>
      </trkpt>
      <trkpt lat="47.22997" lon="6.01797">
        <ele>251</ele>
        <time>2015-05-10T07:48:15.490Z</time>
      </trkpt>
      <trkpt lat="47.22993" lon="6.01815">
        <ele>252</ele>
        <time>2015-05-10T07:48:19.490Z</time>
      </trkpt>
      <trkpt lat="47.22992" lon="6.01833">
        <ele>253</ele>
        <time>2015-05-10T07:48:23.490Z</time>
      </trkpt>
      <trkpt lat="47.22993" lon="6.01852">
        <ele>254</ele>
        <time>2015-05-10T07:48:27.500Z</time>
      </trkpt>
      <trkpt lat="47.22993" lon="6.01867">
        <ele>254</ele>
        <time>2015-05-10T07:48:30.500Z</time>
      </trkpt>
      <trkpt lat="47.22994" lon="6.01884">
        <ele>253</ele>
        <time>2015-05-10T07:48:33.500Z</time>
      </trkpt>
      <trkpt lat="47.22994" lon="6.01901">
        <ele>253</ele>
        <time>2015-05-10T07:48:36.500Z</time>
      </trkpt>
      <trkpt lat="47.22993" lon="6.01916">
        <ele>252.3000064</ele>
        <time>2015-05-10T07:48:39.490Z</time>
      </trkpt>
      <trkpt lat="47.22995" lon="6.01932">
        <ele>252</ele>
        <time>2015-05-10T07:48:42.490Z</time>
      </trkpt>
      <trkpt lat="47.22997" lon="6.01947">
        <ele>252</ele>
        <time>2015-05-10T07:48:45.690Z</time>
      </trkpt>
      <trkpt lat="47.22999" lon="6.01966">
        <ele>251.1000064</ele>
        <time>2015-05-10T07:48:49.690Z</time>
      </trkpt>
      <trkpt lat="47.23" lon="6.01981">
        <ele>251</ele>
        <time>2015-05-10T07:48:52.490Z</time>
      </trkpt>
      <trkpt lat="47.23001" lon="6.01996">
        <ele>251</ele>
        <time>2015-05-10T07:48:55.490Z</time>
      </trkpt>
      <trkpt lat="47.23001" lon="6.02012">
        <ele>252</ele>
        <time>2015-05-10T07:48:58.490Z</time>
      </trkpt>
      <trkpt lat="47.23002" lon="6.02028">
        <ele>251.30693483385</ele>
        <time>2015-05-10T07:49:01.490Z</time>
      </trkpt>
      <trkpt lat="47.23002" lon="6.02047">
        <ele>251</ele>
        <time>2015-05-10T07:49:05.690Z</time>
      </trkpt>
      <trkpt lat="47.23002" lon="6.02064">
        <ele>250.3000064</ele>
        <time>2015-05-10T07:49:08.490Z</time>
      </trkpt>
      <trkpt lat="47.23003" lon="6.0208">
        <ele>250</ele>
        <time>2015-05-10T07:49:11.490Z</time>
      </trkpt>
      <trkpt lat="47.23003" lon="6.02095">
        <ele>250</ele>
        <time>2015-05-10T07:49:14.490Z</time>
      </trkpt>
      <trkpt lat="47.23004" lon="6.0211">
        <ele>250</ele>
        <time>2015-05-10T07:49:17.690Z</time>
      </trkpt>
      <trkpt lat="47.23003" lon="6.02125">
        <ele>250</ele>
        <time>2015-05-10T07:49:20.690Z</time>
      </trkpt>
      <trkpt lat="47.23004" lon="6.02145">
        <ele>250</ele>
        <time>2015-05-10T07:49:24.490Z</time>
      </trkpt>
      <trkpt lat="47.23005" lon="6.02163">
        <ele>251</ele>
        <time>2015-05-10T07:49:28.490Z</time>
      </trkpt>
      <trkpt lat="47.23005" lon="6.02181">
        <ele>251</ele>
        <time>2015-05-10T07:49:32.690Z</time>
      </trkpt>
      <trkpt lat="47.23006" lon="6.02198">
        <ele>251</ele>
        <time>2015-05-10T07:49:35.490Z</time>
      </trkpt>
      <trkpt lat="47.23007" lon="6.02214">
        <ele>252</ele>
        <time>2015-05-10T07:49:38.490Z</time>
      </trkpt>
      <trkpt lat="47.23005" lon="6.02229">
        <ele>252.8999936</ele>
        <time>2015-05-10T07:49:42.690Z</time>
      </trkpt>
      <trkpt lat="47.22996" lon="6.0223">
        <ele>254</ele>
        <time>2015-05-10T07:49:53.700Z</time>
      </trkpt>
      <trkpt lat="47.22987" lon="6.02238">
        <ele>259</ele>
        <time>2015-05-10T07:50:08.690Z</time>
      </trkpt>
      <trkpt lat="47.22984" lon="6.02253">
        <ele>261</ele>
        <time>2015-05-10T07:50:15.690Z</time>
      </trkpt>
      <trkpt lat="47.22982" lon="6.02268">
        <ele>264.8999936</ele>
        <time>2015-05-10T07:50:22.690Z</time>
      </trkpt>
      <trkpt lat="47.2298" lon="6.02285">
        <ele>265</ele>
        <time>2015-05-10T07:50:27.690Z</time>
      </trkpt>
      <trkpt lat="47.22977" lon="6.02299">
        <ele>267.76</ele>
        <time>2015-05-10T07:50:35.590Z</time>
      </trkpt>
      <trkpt lat="47.22975" lon="6.02314">
        <ele>271.76923076923</ele>
        <time>2015-05-10T07:50:42.590Z</time>
      </trkpt>
      <trkpt lat="47.22974" lon="6.0233">
        <ele>273</ele>
        <time>2015-05-10T07:50:51.590Z</time>
      </trkpt>
      <trkpt lat="47.22969" lon="6.02344">
        <ele>275</ele>
        <time>2015-05-10T07:50:57.590Z</time>
      </trkpt>
      <trkpt lat="47.22964" lon="6.02359">
        <ele>276</ele>
        <time>2015-05-10T07:51:03.590Z</time>
      </trkpt>
      <trkpt lat="47.22958" lon="6.02373">
        <ele>279.76</ele>
        <time>2015-05-10T07:51:10.590Z</time>
      </trkpt>
      <trkpt lat="47.22954" lon="6.02387">
        <ele>282</ele>
        <time>2015-05-10T07:51:17.590Z</time>
      </trkpt>
      <trkpt lat="47.22946" lon="6.02377">
        <ele>284</ele>
        <time>2015-05-10T07:51:35.590Z</time>
      </trkpt>
      <trkpt lat="47.22944" lon="6.02363">
        <ele>284.24</ele>
        <time>2015-05-10T07:51:41.590Z</time>
      </trkpt>
      <trkpt lat="47.2294" lon="6.02349">
        <ele>285</ele>
        <time>2015-05-10T07:51:47.590Z</time>
      </trkpt>
      <trkpt lat="47.22938" lon="6.02332">
        <ele>285</ele>
        <time>2015-05-10T07:51:53.590Z</time>
      </trkpt>
      <trkpt lat="47.22932" lon="6.02318">
        <ele>286</ele>
        <time>2015-05-10T07:51:59.590Z</time>
      </trkpt>
      <trkpt lat="47.22927" lon="6.02305">
        <ele>287</ele>
        <time>2015-05-10T07:52:04.590Z</time>
      </trkpt>
      <trkpt lat="47.22922" lon="6.02289">
        <ele>289</ele>
        <time>2015-05-10T07:52:10.600Z</time>
      </trkpt>
      <trkpt lat="47.22918" lon="6.02273">
        <ele>290</ele>
        <time>2015-05-10T07:52:15.590Z</time>
      </trkpt>
      <trkpt lat="47.22914" lon="6.02259">
        <ele>291</ele>
        <time>2015-05-10T07:52:20.590Z</time>
      </trkpt>
      <trkpt lat="47.2291" lon="6.02246">
        <ele>292</ele>
        <time>2015-05-10T07:52:25.590Z</time>
      </trkpt>
      <trkpt lat="47.22907" lon="6.0223">
        <ele>293</ele>
        <time>2015-05-10T07:52:32.590Z</time>
      </trkpt>
      <trkpt lat="47.22904" lon="6.02214">
        <ele>295</ele>
        <time>2015-05-10T07:52:38.590Z</time>
      </trkpt>
      <trkpt lat="47.22897" lon="6.02199">
        <ele>296</ele>
        <time>2015-05-10T07:52:43.590Z</time>
      </trkpt>
      <trkpt lat="47.22891" lon="6.02182">
        <ele>298</ele>
        <time>2015-05-10T07:52:48.590Z</time>
      </trkpt>
      <trkpt lat="47.22886" lon="6.02168">
        <ele>299</ele>
        <time>2015-05-10T07:52:52.590Z</time>
      </trkpt>
      <trkpt lat="47.22882" lon="6.02153">
        <ele>300</ele>
        <time>2015-05-10T07:52:56.590Z</time>
      </trkpt>
      <trkpt lat="47.22879" lon="6.02136">
        <ele>301</ele>
        <time>2015-05-10T07:53:01.590Z</time>
      </trkpt>
      <trkpt lat="47.22877" lon="6.0212">
        <ele>303</ele>
        <time>2015-05-10T07:53:07.590Z</time>
      </trkpt>
      <trkpt lat="47.2287" lon="6.0213">
        <ele>311.8</ele>
        <time>2015-05-10T07:53:30.590Z</time>
      </trkpt>
      <trkpt lat="47.22867" lon="6.02145">
        <ele>322</ele>
        <time>2015-05-10T07:53:43.590Z</time>
      </trkpt>
      <trkpt lat="47.2286" lon="6.02156">
        <ele>328</ele>
        <time>2015-05-10T07:53:53.590Z</time>
      </trkpt>
      <trkpt lat="47.22851" lon="6.02164">
        <ele>330.8</ele>
        <time>2015-05-10T07:54:03.590Z</time>
      </trkpt>
      <trkpt lat="47.22844" lon="6.02174">
        <ele>335</ele>
        <time>2015-05-10T07:54:16.590Z</time>
      </trkpt>
      <trkpt lat="47.22841" lon="6.02188">
        <ele>339</ele>
        <time>2015-05-10T07:54:27.690Z</time>
      </trkpt>
      <trkpt lat="47.22836" lon="6.02201">
        <ele>341.8999936</ele>
        <time>2015-05-10T07:54:35.690Z</time>
      </trkpt>
      <trkpt lat="47.22836" lon="6.02217">
        <ele>347.8999936</ele>
        <time>2015-05-10T07:54:47.690Z</time>
      </trkpt>
      <trkpt lat="47.22837" lon="6.02232">
        <ele>351.8999936</ele>
        <time>2015-05-10T07:54:53.690Z</time>
      </trkpt>
      <trkpt lat="47.22839" lon="6.02246">
        <ele>356</ele>
        <time>2015-05-10T07:55:00.690Z</time>
      </trkpt>
      <trkpt lat="47.22836" lon="6.0226">
        <ele>357.8</ele>
        <time>2015-05-10T07:55:07.590Z</time>
      </trkpt>
      <trkpt lat="47.22832" lon="6.02274">
        <ele>359</ele>
        <time>2015-05-10T07:55:13.590Z</time>
      </trkpt>
      <trkpt lat="47.22829" lon="6.0229">
        <ele>362.8</ele>
        <time>2015-05-10T07:55:22.590Z</time>
      </trkpt>
      <trkpt lat="47.22828" lon="6.02305">
        <ele>366</ele>
        <time>2015-05-10T07:55:29.590Z</time>
      </trkpt>
      <trkpt lat="47.22827" lon="6.02321">
        <ele>368.8</ele>
        <time>2015-05-10T07:55:36.590Z</time>
      </trkpt>
      <trkpt lat="47.22827" lon="6.02338">
        <ele>371</ele>
        <time>2015-05-10T07:55:42.590Z</time>
      </trkpt>
      <trkpt lat="47.22829" lon="6.02355">
        <ele>372</ele>
        <time>2015-05-10T07:55:47.590Z</time>
      </trkpt>
      <trkpt lat="47.22821" lon="6.02362">
        <ele>372</ele>
        <time>2015-05-10T07:55:57.590Z</time>
      </trkpt>
      <trkpt lat="47.22813" lon="6.02352">
        <ele>373</ele>
        <time>2015-05-10T07:56:07.590Z</time>
      </trkpt>
      <trkpt lat="47.22806" lon="6.02341">
        <ele>373</ele>
        <time>2015-05-10T07:56:14.590Z</time>
      </trkpt>
      <trkpt lat="47.22802" lon="6.02331">
        <ele>372</ele>
        <time>2015-05-10T07:56:19.590Z</time>
      </trkpt>
      <trkpt lat="47.22797" lon="6.02322">
        <ele>373.8</ele>
        <time>2015-05-10T07:56:24.590Z</time>
      </trkpt>
      <trkpt lat="47.22791" lon="6.02312">
        <ele>376.8</ele>
        <time>2015-05-10T07:56:31.590Z</time>
      </trkpt>
      <trkpt lat="47.22786" lon="6.02302">
        <ele>378</ele>
        <time>2015-05-10T07:56:37.590Z</time>
      </trkpt>
      <trkpt lat="47.22784" lon="6.02289">
        <ele>381</ele>
        <time>2015-05-10T07:56:45.590Z</time>
      </trkpt>
      <trkpt lat="47.22778" lon="6.02279">
        <ele>383</ele>
        <time>2015-05-10T07:56:54.590Z</time>
      </trkpt>
      <trkpt lat="47.22773" lon="6.02292">
        <ele>395.79208171749</ele>
        <time>2015-05-10T07:57:22.590Z</time>
      </trkpt>
      <trkpt lat="47.22771" lon="6.02308">
        <ele>402</ele>
        <time>2015-05-10T07:57:33.590Z</time>
      </trkpt>
      <trkpt lat="47.22769" lon="6.02321">
        <ele>405</ele>
        <time>2015-05-10T07:57:43.590Z</time>
      </trkpt>
      <trkpt lat="47.22764" lon="6.02336">
        <ele>408</ele>
        <time>2015-05-10T07:57:51.590Z</time>
      </trkpt>
      <trkpt lat="47.2276" lon="6.02352">
        <ele>409</ele>
        <time>2015-05-10T07:57:55.590Z</time>
      </trkpt>
      <trkpt lat="47.22761" lon="6.02372">
        <ele>409</ele>
        <time>2015-05-10T07:57:59.590Z</time>
      </trkpt>
      <trkpt lat="47.22762" lon="6.02388">
        <ele>409</ele>
        <time>2015-05-10T07:58:02.590Z</time>
      </trkpt>
      <trkpt lat="47.22765" lon="6.02405">
        <ele>409</ele>
        <time>2015-05-10T07:58:05.590Z</time>
      </trkpt>
      <trkpt lat="47.22768" lon="6.02421">
        <ele>409</ele>
        <time>2015-05-10T07:58:08.590Z</time>
      </trkpt>
      <trkpt lat="47.22769" lon="6.02439">
        <ele>408</ele>
        <time>2015-05-10T07:58:11.590Z</time>
      </trkpt>
      <trkpt lat="47.22768" lon="6.02456">
        <ele>408</ele>
        <time>2015-05-10T07:58:14.590Z</time>
      </trkpt>
      <trkpt lat="47.22759" lon="6.02464">
        <ele>409</ele>
        <time>2015-05-10T07:58:19.590Z</time>
      </trkpt>
      <trkpt lat="47.22748" lon="6.02462">
        <ele>408</ele>
        <time>2015-05-10T07:58:23.590Z</time>
      </trkpt>
      <trkpt lat="47.22738" lon="6.02463">
        <ele>409</ele>
        <time>2015-05-10T07:58:28.590Z</time>
      </trkpt>
      <trkpt lat="47.2273" lon="6.02463">
        <ele>410</ele>
        <time>2015-05-10T07:58:33.590Z</time>
      </trkpt>
      <trkpt lat="47.22722" lon="6.02461">
        <ele>410</ele>
        <time>2015-05-10T07:58:36.590Z</time>
      </trkpt>
      <trkpt lat="47.22713" lon="6.02457">
        <ele>410.2</ele>
        <time>2015-05-10T07:58:39.590Z</time>
      </trkpt>
      <trkpt lat="47.22703" lon="6.02452">
        <ele>411</ele>
        <time>2015-05-10T07:58:42.590Z</time>
      </trkpt>
      <trkpt lat="47.22694" lon="6.02446">
        <ele>412</ele>
        <time>2015-05-10T07:58:45.590Z</time>
      </trkpt>
      <trkpt lat="47.22687" lon="6.0244">
        <ele>413.8</ele>
        <time>2015-05-10T07:58:48.590Z</time>
      </trkpt>
      <trkpt lat="47.2268" lon="6.02435">
        <ele>414</ele>
        <time>2015-05-10T07:58:51.590Z</time>
      </trkpt>
      <trkpt lat="47.2267" lon="6.02432">
        <ele>414</ele>
        <time>2015-05-10T07:58:54.590Z</time>
      </trkpt>
      <trkpt lat="47.2266" lon="6.02431">
        <ele>413.2</ele>
        <time>2015-05-10T07:58:56.590Z</time>
      </trkpt>
      <trkpt lat="47.22648" lon="6.02433">
        <ele>413</ele>
        <time>2015-05-10T07:58:59.590Z</time>
      </trkpt>
      <trkpt lat="47.22638" lon="6.02443">
        <ele>412</ele>
        <time>2015-05-10T07:59:03.590Z</time>
      </trkpt>
      <trkpt lat="47.22629" lon="6.02443">
        <ele>412</ele>
        <time>2015-05-10T07:59:08.590Z</time>
      </trkpt>
      <trkpt lat="47.22629" lon="6.02429">
        <ele>412</ele>
        <time>2015-05-10T07:59:14.590Z</time>
      </trkpt>
      <trkpt lat="47.22632" lon="6.02419">
        <ele>412</ele>
        <time>2015-05-10T07:59:17.590Z</time>
      </trkpt>
      <trkpt lat="47.22633" lon="6.02406">
        <ele>411.8</ele>
        <time>2015-05-10T07:59:20.590Z</time>
      </trkpt>
      <trkpt lat="47.22634" lon="6.02394">
        <ele>412</ele>
        <time>2015-05-10T07:59:23.590Z</time>
      </trkpt>
      <trkpt lat="47.22638" lon="6.02381">
        <ele>412</ele>
        <time>2015-05-10T07:59:27.590Z</time>
      </trkpt>
      <trkpt lat="47.22638" lon="6.0237">
        <ele>412</ele>
        <time>2015-05-10T07:59:30.590Z</time>
      </trkpt>
      <trkpt lat="47.22636" lon="6.02357">
        <ele>412</ele>
        <time>2015-05-10T07:59:33.590Z</time>
      </trkpt>
      <trkpt lat="47.22633" lon="6.02343">
        <ele>412</ele>
        <time>2015-05-10T07:59:36.590Z</time>
      </trkpt>
      <trkpt lat="47.2263" lon="6.02328">
        <ele>412</ele>
        <time>2015-05-10T07:59:39.690Z</time>
      </trkpt>
      <trkpt lat="47.22628" lon="6.02314">
        <ele>412</ele>
        <time>2015-05-10T07:59:42.690Z</time>
      </trkpt>
      <trkpt lat="47.22626" lon="6.02299">
        <ele>412.8999936</ele>
        <time>2015-05-10T07:59:45.690Z</time>
      </trkpt>
      <trkpt lat="47.22624" lon="6.02281">
        <ele>413</ele>
        <time>2015-05-10T07:59:49.690Z</time>
      </trkpt>
      <trkpt lat="47.22627" lon="6.02267">
        <ele>412</ele>
        <time>2015-05-10T07:59:52.690Z</time>
      </trkpt>
      <trkpt lat="47.22635" lon="6.02257">
        <ele>412</ele>
        <time>2015-05-10T07:59:55.690Z</time>
      </trkpt>
      <trkpt lat="47.22645" lon="6.02254">
        <ele>412</ele>
        <time>2015-05-10T07:59:58.690Z</time>
      </trkpt>
      <trkpt lat="47.22656" lon="6.02247">
        <ele>412</ele>
        <time>2015-05-10T08:00:02.590Z</time>
      </trkpt>
      <trkpt lat="47.22667" lon="6.0224">
        <ele>412</ele>
        <time>2015-05-10T08:00:06.590Z</time>
      </trkpt>
      <trkpt lat="47.22676" lon="6.02234">
        <ele>413</ele>
        <time>2015-05-10T08:00:09.590Z</time>
      </trkpt>
      <trkpt lat="47.22683" lon="6.02226">
        <ele>413</ele>
        <time>2015-05-10T08:00:12.590Z</time>
      </trkpt>
      <trkpt lat="47.22692" lon="6.02218">
        <ele>414</ele>
        <time>2015-05-10T08:00:15.590Z</time>
      </trkpt>
      <trkpt lat="47.22699" lon="6.0221">
        <ele>414</ele>
        <time>2015-05-10T08:00:18.590Z</time>
      </trkpt>
      <trkpt lat="47.22707" lon="6.02204">
        <ele>414</ele>
        <time>2015-05-10T08:00:21.590Z</time>
      </trkpt>
      <trkpt lat="47.22715" lon="6.02198">
        <ele>415</ele>
        <time>2015-05-10T08:00:24.590Z</time>
      </trkpt>
      <trkpt lat="47.22723" lon="6.02191">
        <ele>415</ele>
        <time>2015-05-10T08:00:27.590Z</time>
      </trkpt>
      <trkpt lat="47.2273" lon="6.02182">
        <ele>416</ele>
        <time>2015-05-10T08:00:30.590Z</time>
      </trkpt>
      <trkpt lat="47.22738" lon="6.02172">
        <ele>416</ele>
        <time>2015-05-10T08:00:33.590Z</time>
      </trkpt>
      <trkpt lat="47.22739" lon="6.02154">
        <ele>416</ele>
        <time>2015-05-10T08:00:37.590Z</time>
      </trkpt>
      <trkpt lat="47.22729" lon="6.0214">
        <ele>413.2</ele>
        <time>2015-05-10T08:00:40.590Z</time>
      </trkpt>
      <trkpt lat="47.22718" lon="6.02132">
        <ele>413</ele>
        <time>2015-05-10T08:00:43.590Z</time>
      </trkpt>
      <trkpt lat="47.22707" lon="6.02129">
        <ele>412</ele>
        <time>2015-05-10T08:00:46.590Z</time>
      </trkpt>
      <trkpt lat="47.22699" lon="6.02128">
        <ele>411.2</ele>
        <time>2015-05-10T08:00:48.590Z</time>
      </trkpt>
      <trkpt lat="47.22691" lon="6.02125">
        <ele>411</ele>
        <time>2015-05-10T08:00:50.590Z</time>
      </trkpt>
      <trkpt lat="47.22684" lon="6.02123">
        <ele>410.2</ele>
        <time>2015-05-10T08:00:52.590Z</time>
      </trkpt>
      <trkpt lat="47.22676" lon="6.0212">
        <ele>409.2</ele>
        <time>2015-05-10T08:00:54.590Z</time>
      </trkpt>
      <trkpt lat="47.22668" lon="6.02117">
        <ele>409</ele>
        <time>2015-05-10T08:00:56.590Z</time>
      </trkpt>
      <trkpt lat="47.2266" lon="6.02113">
        <ele>408</ele>
        <time>2015-05-10T08:00:58.590Z</time>
      </trkpt>
      <trkpt lat="47.22647" lon="6.02106">
        <ele>406.2</ele>
        <time>2015-05-10T08:01:01.590Z</time>
      </trkpt>
      <trkpt lat="47.22634" lon="6.02098">
        <ele>405</ele>
        <time>2015-05-10T08:01:04.590Z</time>
      </trkpt>
      <trkpt lat="47.22621" lon="6.02089">
        <ele>404</ele>
        <time>2015-05-10T08:01:07.590Z</time>
      </trkpt>
      <trkpt lat="47.22613" lon="6.02085">
        <ele>403</ele>
        <time>2015-05-10T08:01:09.590Z</time>
      </trkpt>
      <trkpt lat="47.22604" lon="6.02081">
        <ele>402</ele>
        <time>2015-05-10T08:01:11.590Z</time>
      </trkpt>
      <trkpt lat="47.22595" lon="6.02077">
        <ele>401.13889777778</ele>
        <time>2015-05-10T08:01:13.690Z</time>
      </trkpt>
      <trkpt lat="47.22586" lon="6.02074">
        <ele>400.10101623914</ele>
        <time>2015-05-10T08:01:15.690Z</time>
      </trkpt>
      <trkpt lat="47.22576" lon="6.02071">
        <ele>399.35442894408</ele>
        <time>2015-05-10T08:01:17.590Z</time>
      </trkpt>
      <trkpt lat="47.22566" lon="6.02068">
        <ele>397.10101623914</ele>
        <time>2015-05-10T08:01:19.690Z</time>
      </trkpt>
      <trkpt lat="47.22556" lon="6.02064">
        <ele>396</ele>
        <time>2015-05-10T08:01:21.690Z</time>
      </trkpt>
      <trkpt lat="47.22548" lon="6.02061">
        <ele>394.1000064</ele>
        <time>2015-05-10T08:01:23.690Z</time>
      </trkpt>
      <trkpt lat="47.22539" lon="6.02055">
        <ele>393.10101623914</ele>
        <time>2015-05-10T08:01:25.690Z</time>
      </trkpt>
      <trkpt lat="47.22529" lon="6.02049">
        <ele>392.10891440448</ele>
        <time>2015-05-10T08:01:27.690Z</time>
      </trkpt>
      <trkpt lat="47.22516" lon="6.02044">
        <ele>391</ele>
        <time>2015-05-10T08:01:30.690Z</time>
      </trkpt>
      <trkpt lat="47.22504" lon="6.02037">
        <ele>390</ele>
        <time>2015-05-10T08:01:33.690Z</time>
      </trkpt>
      <trkpt lat="47.22495" lon="6.02024">
        <ele>388</ele>
        <time>2015-05-10T08:01:36.690Z</time>
      </trkpt>
      <trkpt lat="47.22494" lon="6.02004">
        <ele>386</ele>
        <time>2015-05-10T08:01:39.690Z</time>
      </trkpt>
      <trkpt lat="47.22491" lon="6.01984">
        <ele>384.1000064</ele>
        <time>2015-05-10T08:01:42.690Z</time>
      </trkpt>
      <trkpt lat="47.22488" lon="6.01973">
        <ele>383.1000064</ele>
        <time>2015-05-10T08:01:44.690Z</time>
      </trkpt>
      <trkpt lat="47.22485" lon="6.01961">
        <ele>383</ele>
        <time>2015-05-10T08:01:46.690Z</time>
      </trkpt>
      <trkpt lat="47.22479" lon="6.01946">
        <ele>382</ele>
        <time>2015-05-10T08:01:49.690Z</time>
      </trkpt>
      <trkpt lat="47.22474" lon="6.01937">
        <ele>381</ele>
        <time>2015-05-10T08:01:51.690Z</time>
      </trkpt>
      <trkpt lat="47.22467" lon="6.01922">
        <ele>379.1000064</ele>
        <time>2015-05-10T08:01:54.690Z</time>
      </trkpt>
      <trkpt lat="47.22463" lon="6.01906">
        <ele>377.1000064</ele>
        <time>2015-05-10T08:01:57.690Z</time>
      </trkpt>
      <trkpt lat="47.22464" lon="6.01889">
        <ele>376</ele>
        <time>2015-05-10T08:02:00.690Z</time>
      </trkpt>
      <trkpt lat="47.22469" lon="6.01877">
        <ele>375</ele>
        <time>2015-05-10T08:02:02.690Z</time>
      </trkpt>
      <trkpt lat="47.22476" lon="6.01866">
        <ele>375</ele>
        <time>2015-05-10T08:02:04.690Z</time>
      </trkpt>
      <trkpt lat="47.22483" lon="6.01856">
        <ele>374.1000064</ele>
        <time>2015-05-10T08:02:06.690Z</time>
      </trkpt>
      <trkpt lat="47.22489" lon="6.01847">
        <ele>374</ele>
        <time>2015-05-10T08:02:08.700Z</time>
      </trkpt>
      <trkpt lat="47.22496" lon="6.01838">
        <ele>374</ele>
        <time>2015-05-10T08:02:10.690Z</time>
      </trkpt>
      <trkpt lat="47.22502" lon="6.01829">
        <ele>373</ele>
        <time>2015-05-10T08:02:12.690Z</time>
      </trkpt>
      <trkpt lat="47.22509" lon="6.01821">
        <ele>372.0899968</ele>
        <time>2015-05-10T08:02:14.700Z</time>
      </trkpt>
      <trkpt lat="47.22515" lon="6.01812">
        <ele>372</ele>
        <time>2015-05-10T08:02:16.690Z</time>
      </trkpt>
      <trkpt lat="47.22521" lon="6.01805">
        <ele>371</ele>
        <time>2015-05-10T08:02:18.690Z</time>
      </trkpt>
      <trkpt lat="47.22527" lon="6.01797">
        <ele>370</ele>
        <time>2015-05-10T08:02:20.700Z</time>
      </trkpt>
      <trkpt lat="47.22534" lon="6.0179">
        <ele>369.1000064</ele>
        <time>2015-05-10T08:02:22.690Z</time>
      </trkpt>
      <trkpt lat="47.2254" lon="6.01782">
        <ele>369</ele>
        <time>2015-05-10T08:02:24.690Z</time>
      </trkpt>
      <trkpt lat="47.22547" lon="6.01767">
        <ele>368</ele>
        <time>2015-05-10T08:02:27.690Z</time>
      </trkpt>
      <trkpt lat="47.22549" lon="6.01751">
        <ele>367.1000064</ele>
        <time>2015-05-10T08:02:30.690Z</time>
      </trkpt>
      <trkpt lat="47.22544" lon="6.01733">
        <ele>365.1000064</ele>
        <time>2015-05-10T08:02:33.690Z</time>
      </trkpt>
      <trkpt lat="47.22541" lon="6.01716">
        <ele>363.1000064</ele>
        <time>2015-05-10T08:02:36.690Z</time>
      </trkpt>
      <trkpt lat="47.22538" lon="6.01705">
        <ele>361.1000064</ele>
        <time>2015-05-10T08:02:38.690Z</time>
      </trkpt>
      <trkpt lat="47.22536" lon="6.01693">
        <ele>360.1000064</ele>
        <time>2015-05-10T08:02:40.690Z</time>
      </trkpt>
      <trkpt lat="47.22533" lon="6.01682">
        <ele>358.1000064</ele>
        <time>2015-05-10T08:02:42.690Z</time>
      </trkpt>
      <trkpt lat="47.2253" lon="6.01672">
        <ele>357</ele>
        <time>2015-05-10T08:02:44.690Z</time>
      </trkpt>
      <trkpt lat="47.22527" lon="6.01663">
        <ele>356</ele>
        <time>2015-05-10T08:02:46.690Z</time>
      </trkpt>
      <trkpt lat="47.22523" lon="6.01654">
        <ele>355.1000064</ele>
        <time>2015-05-10T08:02:48.690Z</time>
      </trkpt>
      <trkpt lat="47.22519" lon="6.01645">
        <ele>355</ele>
        <time>2015-05-10T08:02:50.690Z</time>
      </trkpt>
      <trkpt lat="47.22512" lon="6.01634">
        <ele>354</ele>
        <time>2015-05-10T08:02:53.690Z</time>
      </trkpt>
      <trkpt lat="47.22505" lon="6.01621">
        <ele>353</ele>
        <time>2015-05-10T08:02:56.690Z</time>
      </trkpt>
      <trkpt lat="47.22502" lon="6.0161">
        <ele>352</ele>
        <time>2015-05-10T08:02:58.690Z</time>
      </trkpt>
      <trkpt lat="47.225" lon="6.01599">
        <ele>352</ele>
        <time>2015-05-10T08:03:00.690Z</time>
      </trkpt>
      <trkpt lat="47.22497" lon="6.01589">
        <ele>352</ele>
        <time>2015-05-10T08:03:02.690Z</time>
      </trkpt>
      <trkpt lat="47.22494" lon="6.01579">
        <ele>352</ele>
        <time>2015-05-10T08:03:04.690Z</time>
      </trkpt>
      <trkpt lat="47.22491" lon="6.01569">
        <ele>351</ele>
        <time>2015-05-10T08:03:06.690Z</time>
      </trkpt>
      <trkpt lat="47.2249" lon="6.01558">
        <ele>351</ele>
        <time>2015-05-10T08:03:08.690Z</time>
      </trkpt>
      <trkpt lat="47.2249" lon="6.01542">
        <ele>350.1000064</ele>
        <time>2015-05-10T08:03:11.690Z</time>
      </trkpt>
      <trkpt lat="47.22497" lon="6.01531">
        <ele>351</ele>
        <time>2015-05-10T08:03:15.690Z</time>
      </trkpt>
      <trkpt lat="47.22504" lon="6.01521">
        <ele>351</ele>
        <time>2015-05-10T08:03:19.690Z</time>
      </trkpt>
      <trkpt lat="47.22509" lon="6.01509">
        <ele>351</ele>
        <time>2015-05-10T08:03:23.690Z</time>
      </trkpt>
      <trkpt lat="47.22513" lon="6.01497">
        <ele>351</ele>
        <time>2015-05-10T08:03:26.690Z</time>
      </trkpt>
      <trkpt lat="47.22516" lon="6.01486">
        <ele>351</ele>
        <time>2015-05-10T08:03:29.690Z</time>
      </trkpt>
      <trkpt lat="47.22522" lon="6.0147">
        <ele>351</ele>
        <time>2015-05-10T08:03:33.690Z</time>
      </trkpt>
      <trkpt lat="47.2253" lon="6.01461">
        <ele>351</ele>
        <time>2015-05-10T08:03:37.690Z</time>
      </trkpt>
      <trkpt lat="47.22539" lon="6.01469">
        <ele>351</ele>
        <time>2015-05-10T08:03:42.690Z</time>
      </trkpt>
      <trkpt lat="47.22547" lon="6.01483">
        <ele>352</ele>
        <time>2015-05-10T08:03:48.590Z</time>
      </trkpt>
      <trkpt lat="47.22552" lon="6.01495">
        <ele>353</ele>
        <time>2015-05-10T08:03:56.590Z</time>
      </trkpt>
      <trkpt lat="47.22563" lon="6.01489">
        <ele>354</ele>
        <time>2015-05-10T08:04:04.590Z</time>
      </trkpt>
      <trkpt lat="47.2257" lon="6.01481">
        <ele>355.8</ele>
        <time>2015-05-10T08:04:08.590Z</time>
      </trkpt>
      <trkpt lat="47.22577" lon="6.01474">
        <ele>357</ele>
        <time>2015-05-10T08:04:12.590Z</time>
      </trkpt>
      <trkpt lat="47.22586" lon="6.01467">
        <ele>358</ele>
        <time>2015-05-10T08:04:17.590Z</time>
      </trkpt>
      <trkpt lat="47.22595" lon="6.01468">
        <ele>360</ele>
        <time>2015-05-10T08:04:23.590Z</time>
      </trkpt>
      <trkpt lat="47.22602" lon="6.0147">
        <ele>361</ele>
        <time>2015-05-10T08:04:27.590Z</time>
      </trkpt>
      <trkpt lat="47.22611" lon="6.01478">
        <ele>363</ele>
        <time>2015-05-10T08:04:32.590Z</time>
      </trkpt>
      <trkpt lat="47.22621" lon="6.01484">
        <ele>364</ele>
        <time>2015-05-10T08:04:38.590Z</time>
      </trkpt>
      <trkpt lat="47.2263" lon="6.01485">
        <ele>364</ele>
        <time>2015-05-10T08:04:42.590Z</time>
      </trkpt>
      <trkpt lat="47.22639" lon="6.01483">
        <ele>364</ele>
        <time>2015-05-10T08:04:45.590Z</time>
      </trkpt>
      <trkpt lat="47.22649" lon="6.0148">
        <ele>364.8</ele>
        <time>2015-05-10T08:04:49.590Z</time>
      </trkpt>
      <trkpt lat="47.22655" lon="6.01466">
        <ele>365</ele>
        <time>2015-05-10T08:04:59.590Z</time>
      </trkpt>
      <trkpt lat="47.22658" lon="6.01452">
        <ele>365</ele>
        <time>2015-05-10T08:05:03.590Z</time>
      </trkpt>
      <trkpt lat="47.22653" lon="6.01436">
        <ele>364.2</ele>
        <time>2015-05-10T08:05:10.590Z</time>
      </trkpt>
      <trkpt lat="47.22644" lon="6.01423">
        <ele>363.2</ele>
        <time>2015-05-10T08:05:13.590Z</time>
      </trkpt>
      <trkpt lat="47.22636" lon="6.01407">
        <ele>362</ele>
        <time>2015-05-10T08:05:16.590Z</time>
      </trkpt>
      <trkpt lat="47.22629" lon="6.01394">
        <ele>361</ele>
        <time>2015-05-10T08:05:19.590Z</time>
      </trkpt>
      <trkpt lat="47.22621" lon="6.01383">
        <ele>359.2</ele>
        <time>2015-05-10T08:05:22.590Z</time>
      </trkpt>
      <trkpt lat="47.22611" lon="6.01379">
        <ele>357.1900032</ele>
        <time>2015-05-10T08:05:26.600Z</time>
      </trkpt>
      <trkpt lat="47.22602" lon="6.01369">
        <ele>356.1900032</ele>
        <time>2015-05-10T08:05:32.600Z</time>
      </trkpt>
      <trkpt lat="47.22593" lon="6.01362">
        <ele>353.2</ele>
        <time>2015-05-10T08:05:36.590Z</time>
      </trkpt>
      <trkpt lat="47.22585" lon="6.01352">
        <ele>349</ele>
        <time>2015-05-10T08:05:40.590Z</time>
      </trkpt>
      <trkpt lat="47.22577" lon="6.01342">
        <ele>346.2</ele>
        <time>2015-05-10T08:05:44.590Z</time>
      </trkpt>
      <trkpt lat="47.22573" lon="6.0133">
        <ele>343.2</ele>
        <time>2015-05-10T08:05:47.590Z</time>
      </trkpt>
      <trkpt lat="47.2257" lon="6.01316">
        <ele>340.2</ele>
        <time>2015-05-10T08:05:51.590Z</time>
      </trkpt>
      <trkpt lat="47.22568" lon="6.01298">
        <ele>336</ele>
        <time>2015-05-10T08:05:56.590Z</time>
      </trkpt>
      <trkpt lat="47.22559" lon="6.01286">
        <ele>328.54544608259</ele>
        <time>2015-05-10T08:06:01.590Z</time>
      </trkpt>
      <trkpt lat="47.22552" lon="6.01274">
        <ele>324.74016065471</ele>
        <time>2015-05-10T08:06:05.590Z</time>
      </trkpt>
      <trkpt lat="47.22544" lon="6.01263">
        <ele>321.20791828251</ele>
        <time>2015-05-10T08:06:09.590Z</time>
      </trkpt>
      <trkpt lat="47.22536" lon="6.01252">
        <ele>319.2</ele>
        <time>2015-05-10T08:06:13.590Z</time>
      </trkpt>
      <trkpt lat="47.22526" lon="6.01242">
        <ele>316.2</ele>
        <time>2015-05-10T08:06:17.590Z</time>
      </trkpt>
      <trkpt lat="47.22525" lon="6.01222">
        <ele>314</ele>
        <time>2015-05-10T08:06:21.590Z</time>
      </trkpt>
      <trkpt lat="47.22532" lon="6.01209">
        <ele>313</ele>
        <time>2015-05-10T08:06:24.590Z</time>
      </trkpt>
      <trkpt lat="47.22533" lon="6.01193">
        <ele>312</ele>
        <time>2015-05-10T08:06:31.590Z</time>
      </trkpt>
      <trkpt lat="47.22536" lon="6.01179">
        <ele>311</ele>
        <time>2015-05-10T08:06:36.590Z</time>
      </trkpt>
      <trkpt lat="47.22546" lon="6.01166">
        <ele>311</ele>
        <time>2015-05-10T08:06:40.590Z</time>
      </trkpt>
      <trkpt lat="47.22558" lon="6.01156">
        <ele>310</ele>
        <time>2015-05-10T08:06:43.590Z</time>
      </trkpt>
      <trkpt lat="47.22567" lon="6.01146">
        <ele>309</ele>
        <time>2015-05-10T08:06:46.590Z</time>
      </trkpt>
      <trkpt lat="47.22576" lon="6.01136">
        <ele>309</ele>
        <time>2015-05-10T08:06:49.590Z</time>
      </trkpt>
      <trkpt lat="47.22573" lon="6.01117">
        <ele>308</ele>
        <time>2015-05-10T08:06:54.590Z</time>
      </trkpt>
      <trkpt lat="47.22566" lon="6.01105">
        <ele>308</ele>
        <time>2015-05-10T08:06:56.590Z</time>
      </trkpt>
      <trkpt lat="47.2256" lon="6.01094">
        <ele>308</ele>
        <time>2015-05-10T08:06:58.590Z</time>
      </trkpt>
      <trkpt lat="47.22556" lon="6.01081">
        <ele>307.2</ele>
        <time>2015-05-10T08:07:00.590Z</time>
      </trkpt>
      <trkpt lat="47.22553" lon="6.01069">
        <ele>306.2</ele>
        <time>2015-05-10T08:07:02.590Z</time>
      </trkpt>
      <trkpt lat="47.22551" lon="6.01057">
        <ele>306</ele>
        <time>2015-05-10T08:07:04.590Z</time>
      </trkpt>
      <trkpt lat="47.22547" lon="6.01042">
        <ele>305</ele>
        <time>2015-05-10T08:07:07.590Z</time>
      </trkpt>
      <trkpt lat="47.22542" lon="6.01026">
        <ele>305</ele>
        <time>2015-05-10T08:07:10.590Z</time>
      </trkpt>
      <trkpt lat="47.2254" lon="6.01007">
        <ele>303</ele>
        <time>2015-05-10T08:07:13.590Z</time>
      </trkpt>
      <trkpt lat="47.2254" lon="6.0099">
        <ele>302</ele>
        <time>2015-05-10T08:07:16.590Z</time>
      </trkpt>
      <trkpt lat="47.22538" lon="6.00977">
        <ele>301</ele>
        <time>2015-05-10T08:07:19.590Z</time>
      </trkpt>
      <trkpt lat="47.22532" lon="6.00966">
        <ele>301</ele>
        <time>2015-05-10T08:07:22.590Z</time>
      </trkpt>
      <trkpt lat="47.22525" lon="6.00956">
        <ele>300</ele>
        <time>2015-05-10T08:07:25.590Z</time>
      </trkpt>
      <trkpt lat="47.22518" lon="6.00947">
        <ele>300</ele>
        <time>2015-05-10T08:07:28.590Z</time>
      </trkpt>
      <trkpt lat="47.22509" lon="6.00936">
        <ele>300</ele>
        <time>2015-05-10T08:07:31.590Z</time>
      </trkpt>
      <trkpt lat="47.22501" lon="6.00925">
        <ele>300</ele>
        <time>2015-05-10T08:07:34.590Z</time>
      </trkpt>
      <trkpt lat="47.22493" lon="6.00914">
        <ele>300</ele>
        <time>2015-05-10T08:07:37.590Z</time>
      </trkpt>
      <trkpt lat="47.22486" lon="6.00902">
        <ele>299.2</ele>
        <time>2015-05-10T08:07:40.590Z</time>
      </trkpt>
      <trkpt lat="47.22481" lon="6.00888">
        <ele>299</ele>
        <time>2015-05-10T08:07:43.590Z</time>
      </trkpt>
      <trkpt lat="47.22475" lon="6.00875">
        <ele>299</ele>
        <time>2015-05-10T08:07:46.590Z</time>
      </trkpt>
      <trkpt lat="47.22469" lon="6.00862">
        <ele>299</ele>
        <time>2015-05-10T08:07:49.590Z</time>
      </trkpt>
      <trkpt lat="47.22465" lon="6.00851">
        <ele>299</ele>
        <time>2015-05-10T08:07:51.590Z</time>
      </trkpt>
      <trkpt lat="47.22461" lon="6.00841">
        <ele>299</ele>
        <time>2015-05-10T08:07:53.590Z</time>
      </trkpt>
      <trkpt lat="47.22458" lon="6.00832">
        <ele>299</ele>
        <time>2015-05-10T08:07:55.590Z</time>
      </trkpt>
      <trkpt lat="47.22455" lon="6.00822">
        <ele>299</ele>
        <time>2015-05-10T08:07:57.590Z</time>
      </trkpt>
      <trkpt lat="47.22451" lon="6.00812">
        <ele>299</ele>
        <time>2015-05-10T08:07:59.590Z</time>
      </trkpt>
      <trkpt lat="47.22447" lon="6.00802">
        <ele>299</ele>
        <time>2015-05-10T08:08:01.590Z</time>
      </trkpt>
      <trkpt lat="47.22443" lon="6.00792">
        <ele>298.2</ele>
        <time>2015-05-10T08:08:03.590Z</time>
      </trkpt>
      <trkpt lat="47.2244" lon="6.00783">
        <ele>297.1000064</ele>
        <time>2015-05-10T08:08:05.690Z</time>
      </trkpt>
      <trkpt lat="47.22439" lon="6.00772">
        <ele>297</ele>
        <time>2015-05-10T08:08:07.690Z</time>
      </trkpt>
      <trkpt lat="47.22438" lon="6.00761">
        <ele>296.1000064</ele>
        <time>2015-05-10T08:08:09.690Z</time>
      </trkpt>
      <trkpt lat="47.22436" lon="6.00749">
        <ele>295.1000064</ele>
        <time>2015-05-10T08:08:11.690Z</time>
      </trkpt>
      <trkpt lat="47.22433" lon="6.00738">
        <ele>295</ele>
        <time>2015-05-10T08:08:13.690Z</time>
      </trkpt>
      <trkpt lat="47.22431" lon="6.00727">
        <ele>295</ele>
        <time>2015-05-10T08:08:15.690Z</time>
      </trkpt>
      <trkpt lat="47.22429" lon="6.00717">
        <ele>295</ele>
        <time>2015-05-10T08:08:17.690Z</time>
      </trkpt>
      <trkpt lat="47.22426" lon="6.00706">
        <ele>295</ele>
        <time>2015-05-10T08:08:20.690Z</time>
      </trkpt>
      <trkpt lat="47.22414" lon="6.00709">
        <ele>294.1000064</ele>
        <time>2015-05-10T08:08:25.690Z</time>
      </trkpt>
      <trkpt lat="47.22403" lon="6.00713">
        <ele>295</ele>
        <time>2015-05-10T08:08:28.690Z</time>
      </trkpt>
      <trkpt lat="47.22392" lon="6.00719">
        <ele>295</ele>
        <time>2015-05-10T08:08:31.690Z</time>
      </trkpt>
      <trkpt lat="47.22381" lon="6.00725">
        <ele>295.8999936</ele>
        <time>2015-05-10T08:08:34.690Z</time>
      </trkpt>
      <trkpt lat="47.22371" lon="6.00732">
        <ele>295</ele>
        <time>2015-05-10T08:08:37.690Z</time>
      </trkpt>
      <trkpt lat="47.22361" lon="6.00742">
        <ele>295</ele>
        <time>2015-05-10T08:08:40.690Z</time>
      </trkpt>
      <trkpt lat="47.22354" lon="6.00749">
        <ele>295</ele>
        <time>2015-05-10T08:08:42.700Z</time>
      </trkpt>
      <trkpt lat="47.22348" lon="6.00755">
        <ele>295</ele>
        <time>2015-05-10T08:08:44.690Z</time>
      </trkpt>
      <trkpt lat="47.22341" lon="6.00762">
        <ele>295</ele>
        <time>2015-05-10T08:08:46.690Z</time>
      </trkpt>
      <trkpt lat="47.22334" lon="6.0077">
        <ele>294</ele>
        <time>2015-05-10T08:08:48.690Z</time>
      </trkpt>
      <trkpt lat="47.22327" lon="6.00777">
        <ele>294</ele>
        <time>2015-05-10T08:08:50.690Z</time>
      </trkpt>
      <trkpt lat="47.22319" lon="6.00784">
        <ele>293</ele>
        <time>2015-05-10T08:08:52.690Z</time>
      </trkpt>
      <trkpt lat="47.22311" lon="6.0079">
        <ele>293</ele>
        <time>2015-05-10T08:08:54.690Z</time>
      </trkpt>
      <trkpt lat="47.22304" lon="6.00796">
        <ele>292</ele>
        <time>2015-05-10T08:08:56.690Z</time>
      </trkpt>
      <trkpt lat="47.22298" lon="6.00802">
        <ele>292</ele>
        <time>2015-05-10T08:08:58.690Z</time>
      </trkpt>
      <trkpt lat="47.22289" lon="6.0081">
        <ele>292</ele>
        <time>2015-05-10T08:09:01.690Z</time>
      </trkpt>
      <trkpt lat="47.22279" lon="6.00818">
        <ele>292</ele>
        <time>2015-05-10T08:09:04.690Z</time>
      </trkpt>
      <trkpt lat="47.22271" lon="6.00827">
        <ele>293</ele>
        <time>2015-05-10T08:09:07.690Z</time>
      </trkpt>
      <trkpt lat="47.22263" lon="6.00834">
        <ele>292</ele>
        <time>2015-05-10T08:09:10.690Z</time>
      </trkpt>
      <trkpt lat="47.22254" lon="6.00842">
        <ele>292</ele>
        <time>2015-05-10T08:09:13.690Z</time>
      </trkpt>
      <trkpt lat="47.22248" lon="6.00847">
        <ele>292</ele>
        <time>2015-05-10T08:09:15.690Z</time>
      </trkpt>
      <trkpt lat="47.22243" lon="6.00853">
        <ele>292</ele>
        <time>2015-05-10T08:09:17.690Z</time>
      </trkpt>
      <trkpt lat="47.22233" lon="6.00862">
        <ele>292</ele>
        <time>2015-05-10T08:09:20.690Z</time>
      </trkpt>
      <trkpt lat="47.22225" lon="6.00871">
        <ele>291</ele>
        <time>2015-05-10T08:09:23.690Z</time>
      </trkpt>
      <trkpt lat="47.22218" lon="6.00877">
        <ele>291</ele>
        <time>2015-05-10T08:09:25.690Z</time>
      </trkpt>
      <trkpt lat="47.22212" lon="6.00884">
        <ele>291</ele>
        <time>2015-05-10T08:09:27.690Z</time>
      </trkpt>
      <trkpt lat="47.22206" lon="6.00892">
        <ele>292</ele>
        <time>2015-05-10T08:09:29.690Z</time>
      </trkpt>
      <trkpt lat="47.22195" lon="6.00904">
        <ele>291.1000064</ele>
        <time>2015-05-10T08:09:32.690Z</time>
      </trkpt>
      <trkpt lat="47.22188" lon="6.00912">
        <ele>291</ele>
        <time>2015-05-10T08:09:34.690Z</time>
      </trkpt>
      <trkpt lat="47.22177" lon="6.00923">
        <ele>289.1000064</ele>
        <time>2015-05-10T08:09:37.690Z</time>
      </trkpt>
      <trkpt lat="47.2217" lon="6.00931">
        <ele>289</ele>
        <time>2015-05-10T08:09:39.690Z</time>
      </trkpt>
      <trkpt lat="47.22161" lon="6.00942">
        <ele>290</ele>
        <time>2015-05-10T08:09:42.690Z</time>
      </trkpt>
      <trkpt lat="47.22152" lon="6.00952">
        <ele>289.1000064</ele>
        <time>2015-05-10T08:09:45.690Z</time>
      </trkpt>
      <trkpt lat="47.22142" lon="6.00962">
        <ele>289</ele>
        <time>2015-05-10T08:09:48.690Z</time>
      </trkpt>
      <trkpt lat="47.22135" lon="6.0097">
        <ele>288.1000064</ele>
        <time>2015-05-10T08:09:50.690Z</time>
      </trkpt>
      <trkpt lat="47.22121" lon="6.00977">
        <ele>287.1000064</ele>
        <time>2015-05-10T08:09:53.690Z</time>
      </trkpt>
      <trkpt lat="47.2211" lon="6.00973">
        <ele>287</ele>
        <time>2015-05-10T08:09:56.690Z</time>
      </trkpt>
      <trkpt lat="47.22103" lon="6.00958">
        <ele>285.1000064</ele>
        <time>2015-05-10T08:09:59.690Z</time>
      </trkpt>
      <trkpt lat="47.22096" lon="6.00943">
        <ele>285</ele>
        <time>2015-05-10T08:10:02.690Z</time>
      </trkpt>
      <trkpt lat="47.22088" lon="6.00931">
        <ele>284.1000064</ele>
        <time>2015-05-10T08:10:05.690Z</time>
      </trkpt>
      <trkpt lat="47.22077" lon="6.00923">
        <ele>285</ele>
        <time>2015-05-10T08:10:09.690Z</time>
      </trkpt>
      <trkpt lat="47.22066" lon="6.0092">
        <ele>285</ele>
        <time>2015-05-10T08:10:13.690Z</time>
      </trkpt>
      <trkpt lat="47.22055" lon="6.00917">
        <ele>283</ele>
        <time>2015-05-10T08:10:16.590Z</time>
      </trkpt>
      <trkpt lat="47.22045" lon="6.00907">
        <ele>281.2</ele>
        <time>2015-05-10T08:10:19.590Z</time>
      </trkpt>
      <trkpt lat="47.22039" lon="6.00893">
        <ele>279</ele>
        <time>2015-05-10T08:10:23.590Z</time>
      </trkpt>
      <trkpt lat="47.22042" lon="6.00879">
        <ele>279</ele>
        <time>2015-05-10T08:10:29.590Z</time>
      </trkpt>
      <trkpt lat="47.2205" lon="6.00867">
        <ele>280</ele>
        <time>2015-05-10T08:10:34.590Z</time>
      </trkpt>
      <trkpt lat="47.22058" lon="6.00855">
        <ele>280</ele>
        <time>2015-05-10T08:10:40.590Z</time>
      </trkpt>
      <trkpt lat="47.22065" lon="6.00843">
        <ele>280</ele>
        <time>2015-05-10T08:10:45.590Z</time>
      </trkpt>
      <trkpt lat="47.22072" lon="6.00827">
        <ele>281</ele>
        <time>2015-05-10T08:10:49.590Z</time>
      </trkpt>
      <trkpt lat="47.22079" lon="6.00818">
        <ele>282</ele>
        <time>2015-05-10T08:10:55.590Z</time>
      </trkpt>
      <trkpt lat="47.22083" lon="6.00806">
        <ele>286.8</ele>
        <time>2015-05-10T08:11:05.590Z</time>
      </trkpt>
      <trkpt lat="47.22086" lon="6.00797">
        <ele>288</ele>
        <time>2015-05-10T08:11:12.590Z</time>
      </trkpt>
      <trkpt lat="47.22089" lon="6.00788">
        <ele>292.8</ele>
        <time>2015-05-10T08:11:20.590Z</time>
      </trkpt>
      <trkpt lat="47.2209" lon="6.00778">
        <ele>296.8</ele>
        <time>2015-05-10T08:11:29.590Z</time>
      </trkpt>
      <trkpt lat="47.22092" lon="6.00767">
        <ele>299</ele>
        <time>2015-05-10T08:11:37.590Z</time>
      </trkpt>
      <trkpt lat="47.22096" lon="6.00757">
        <ele>301</ele>
        <time>2015-05-10T08:11:43.590Z</time>
      </trkpt>
      <trkpt lat="47.22098" lon="6.00748">
        <ele>302</ele>
        <time>2015-05-10T08:11:48.590Z</time>
      </trkpt>
      <trkpt lat="47.22099" lon="6.00739">
        <ele>304</ele>
        <time>2015-05-10T08:11:53.590Z</time>
      </trkpt>
      <trkpt lat="47.221" lon="6.00731">
        <ele>306</ele>
        <time>2015-05-10T08:11:59.590Z</time>
      </trkpt>
      <trkpt lat="47.22105" lon="6.00719">
        <ele>308</ele>
        <time>2015-05-10T08:12:08.590Z</time>
      </trkpt>
      <trkpt lat="47.22108" lon="6.00706">
        <ele>309.8</ele>
        <time>2015-05-10T08:12:16.590Z</time>
      </trkpt>
      <trkpt lat="47.2211" lon="6.00692">
        <ele>313.8999936</ele>
        <time>2015-05-10T08:12:26.690Z</time>
      </trkpt>
      <trkpt lat="47.22113" lon="6.00678">
        <ele>316</ele>
        <time>2015-05-10T08:12:33.690Z</time>
      </trkpt>
      <trkpt lat="47.22116" lon="6.00661">
        <ele>317</ele>
        <time>2015-05-10T08:12:38.690Z</time>
      </trkpt>
      <trkpt lat="47.22121" lon="6.00644">
        <ele>318</ele>
        <time>2015-05-10T08:12:42.690Z</time>
      </trkpt>
      <trkpt lat="47.22126" lon="6.00631">
        <ele>319</ele>
        <time>2015-05-10T08:12:45.690Z</time>
      </trkpt>
      <trkpt lat="47.22132" lon="6.00619">
        <ele>320</ele>
        <time>2015-05-10T08:12:48.690Z</time>
      </trkpt>
      <trkpt lat="47.22137" lon="6.00606">
        <ele>320</ele>
        <time>2015-05-10T08:12:51.690Z</time>
      </trkpt>
      <trkpt lat="47.22135" lon="6.00591">
        <ele>319</ele>
        <time>2015-05-10T08:12:55.690Z</time>
      </trkpt>
      <trkpt lat="47.22133" lon="6.00575">
        <ele>320</ele>
        <time>2015-05-10T08:13:00.690Z</time>
      </trkpt>
      <trkpt lat="47.2213" lon="6.00561">
        <ele>323</ele>
        <time>2015-05-10T08:13:06.700Z</time>
      </trkpt>
      <trkpt lat="47.22127" lon="6.00549">
        <ele>324.8999936</ele>
        <time>2015-05-10T08:13:11.690Z</time>
      </trkpt>
      <trkpt lat="47.22124" lon="6.0054">
        <ele>325</ele>
        <time>2015-05-10T08:13:15.700Z</time>
      </trkpt>
      <trkpt lat="47.22122" lon="6.00531">
        <ele>326</ele>
        <time>2015-05-10T08:13:19.690Z</time>
      </trkpt>
      <trkpt lat="47.22119" lon="6.00521">
        <ele>327</ele>
        <time>2015-05-10T08:13:23.690Z</time>
      </trkpt>
      <trkpt lat="47.22116" lon="6.00512">
        <ele>328</ele>
        <time>2015-05-10T08:13:27.690Z</time>
      </trkpt>
      <trkpt lat="47.22114" lon="6.00505">
        <ele>329</ele>
        <time>2015-05-10T08:13:30.690Z</time>
      </trkpt>
      <trkpt lat="47.22113" lon="6.00501">
        <ele>330</ele>
        <time>2015-05-10T08:13:32.690Z</time>
      </trkpt>
      <trkpt lat="47.22108" lon="6.00488">
        <ele>332.8999936</ele>
        <time>2015-05-10T08:13:38.690Z</time>
      </trkpt>
      <trkpt lat="47.22105" lon="6.00478">
        <ele>333.8999936</ele>
        <time>2015-05-10T08:13:42.690Z</time>
      </trkpt>
      <trkpt lat="47.22101" lon="6.00469">
        <ele>335</ele>
        <time>2015-05-10T08:13:46.690Z</time>
      </trkpt>
      <trkpt lat="47.22098" lon="6.00462">
        <ele>336</ele>
        <time>2015-05-10T08:13:50.690Z</time>
      </trkpt>
      <trkpt lat="47.22094" lon="6.00452">
        <ele>337</ele>
        <time>2015-05-10T08:13:55.690Z</time>
      </trkpt>
      <trkpt lat="47.22088" lon="6.00442">
        <ele>340</ele>
        <time>2015-05-10T08:14:02.690Z</time>
      </trkpt>
      <trkpt lat="47.22081" lon="6.0043">
        <ele>342.8999936</ele>
        <time>2015-05-10T08:14:11.690Z</time>
      </trkpt>
      <trkpt lat="47.22076" lon="6.00416">
        <ele>345.8999936</ele>
        <time>2015-05-10T08:14:18.690Z</time>
      </trkpt>
      <trkpt lat="47.22071" lon="6.00404">
        <ele>348</ele>
        <time>2015-05-10T08:14:24.690Z</time>
      </trkpt>
      <trkpt lat="47.22066" lon="6.00392">
        <ele>350</ele>
        <time>2015-05-10T08:14:30.690Z</time>
      </trkpt>
      <trkpt lat="47.2206" lon="6.0038">
        <ele>352</ele>
        <time>2015-05-10T08:14:37.690Z</time>
      </trkpt>
      <trkpt lat="47.22054" lon="6.00368">
        <ele>355</ele>
        <time>2015-05-10T08:14:44.590Z</time>
      </trkpt>
      <trkpt lat="47.22049" lon="6.00356">
        <ele>357</ele>
        <time>2015-05-10T08:14:51.590Z</time>
      </trkpt>
      <trkpt lat="47.22042" lon="6.00343">
        <ele>358.8</ele>
        <time>2015-05-10T08:14:59.590Z</time>
      </trkpt>
      <trkpt lat="47.22037" lon="6.00328">
        <ele>362</ele>
        <time>2015-05-10T08:15:06.590Z</time>
      </trkpt>
      <trkpt lat="47.22034" lon="6.00313">
        <ele>365.79208171749</ele>
        <time>2015-05-10T08:15:13.590Z</time>
      </trkpt>
      <trkpt lat="47.22034" lon="6.00298">
        <ele>366</ele>
        <time>2015-05-10T08:15:17.590Z</time>
      </trkpt>
      <trkpt lat="47.22032" lon="6.00283">
        <ele>367</ele>
        <time>2015-05-10T08:15:21.590Z</time>
      </trkpt>
      <trkpt lat="47.22028" lon="6.0027">
        <ele>368.8</ele>
        <time>2015-05-10T08:15:25.590Z</time>
      </trkpt>
      <trkpt lat="47.22022" lon="6.00255">
        <ele>370</ele>
        <time>2015-05-10T08:15:30.590Z</time>
      </trkpt>
      <trkpt lat="47.22016" lon="6.00241">
        <ele>371</ele>
        <time>2015-05-10T08:15:35.590Z</time>
      </trkpt>
      <trkpt lat="47.22011" lon="6.00228">
        <ele>372</ele>
        <time>2015-05-10T08:15:40.590Z</time>
      </trkpt>
      <trkpt lat="47.22006" lon="6.00212">
        <ele>374</ele>
        <time>2015-05-10T08:15:47.590Z</time>
      </trkpt>
      <trkpt lat="47.22004" lon="6.00198">
        <ele>376.8</ele>
        <time>2015-05-10T08:15:53.590Z</time>
      </trkpt>
      <trkpt lat="47.22005" lon="6.00181">
        <ele>378</ele>
        <time>2015-05-10T08:16:00.590Z</time>
      </trkpt>
      <trkpt lat="47.22003" lon="6.00167">
        <ele>380</ele>
        <time>2015-05-10T08:16:06.590Z</time>
      </trkpt>
      <trkpt lat="47.22002" lon="6.00151">
        <ele>381</ele>
        <time>2015-05-10T08:16:11.590Z</time>
      </trkpt>
      <trkpt lat="47.22002" lon="6.00133">
        <ele>381</ele>
        <time>2015-05-10T08:16:16.590Z</time>
      </trkpt>
      <trkpt lat="47.22003" lon="6.00117">
        <ele>382</ele>
        <time>2015-05-10T08:16:21.590Z</time>
      </trkpt>
      <trkpt lat="47.22011" lon="6.00107">
        <ele>382</ele>
        <time>2015-05-10T08:16:27.590Z</time>
      </trkpt>
      <trkpt lat="47.22021" lon="6.001">
        <ele>383</ele>
        <time>2015-05-10T08:16:30.590Z</time>
      </trkpt>
      <trkpt lat="47.22028" lon="6.00094">
        <ele>384</ele>
        <time>2015-05-10T08:16:33.590Z</time>
      </trkpt>
      <trkpt lat="47.22035" lon="6.00091">
        <ele>385.8</ele>
        <time>2015-05-10T08:16:37.590Z</time>
      </trkpt>
      <trkpt lat="47.22041" lon="6.00087">
        <ele>388.8</ele>
        <time>2015-05-10T08:16:42.590Z</time>
      </trkpt>
      <trkpt lat="47.22048" lon="6.00087">
        <ele>390.8</ele>
        <time>2015-05-10T08:16:47.590Z</time>
      </trkpt>
      <trkpt lat="47.22054" lon="6.00086">
        <ele>393</ele>
        <time>2015-05-10T08:16:53.590Z</time>
      </trkpt>
      <trkpt lat="47.22064" lon="6.00086">
        <ele>396</ele>
        <time>2015-05-10T08:17:07.590Z</time>
      </trkpt>
      <trkpt lat="47.22071" lon="6.00095">
        <ele>398</ele>
        <time>2015-05-10T08:17:19.590Z</time>
      </trkpt>
      <trkpt lat="47.22076" lon="6.00108">
        <ele>401</ele>
        <time>2015-05-10T08:17:31.590Z</time>
      </trkpt>
      <trkpt lat="47.22086" lon="6.00113">
        <ele>406.76</ele>
        <time>2015-05-10T08:17:44.590Z</time>
      </trkpt>
      <trkpt lat="47.22093" lon="6.00106">
        <ele>413</ele>
        <time>2015-05-10T08:17:58.590Z</time>
      </trkpt>
      <trkpt lat="47.22103" lon="6.00105">
        <ele>415.24</ele>
        <time>2015-05-10T08:18:10.590Z</time>
      </trkpt>
      <trkpt lat="47.22109" lon="6.0009">
        <ele>418</ele>
        <time>2015-05-10T08:18:23.590Z</time>
      </trkpt>
      <trkpt lat="47.22107" lon="6.00074">
        <ele>419</ele>
        <time>2015-05-10T08:18:27.590Z</time>
      </trkpt>
      <trkpt lat="47.22106" lon="6.00055">
        <ele>421.76</ele>
        <time>2015-05-10T08:18:31.590Z</time>
      </trkpt>
      <trkpt lat="47.22109" lon="6.00038">
        <ele>422</ele>
        <time>2015-05-10T08:18:35.590Z</time>
      </trkpt>
      <trkpt lat="47.22114" lon="6.00025">
        <ele>423</ele>
        <time>2015-05-10T08:18:39.590Z</time>
      </trkpt>
      <trkpt lat="47.22117" lon="6.00042">
        <ele>425</ele>
        <time>2015-05-10T08:18:46.590Z</time>
      </trkpt>
      <trkpt lat="47.22117" lon="6.00058">
        <ele>426</ele>
        <time>2015-05-10T08:18:50.590Z</time>
      </trkpt>
      <trkpt lat="47.22117" lon="6.00074">
        <ele>426</ele>
        <time>2015-05-10T08:18:54.590Z</time>
      </trkpt>
      <trkpt lat="47.22121" lon="6.0009">
        <ele>427</ele>
        <time>2015-05-10T08:18:59.590Z</time>
      </trkpt>
      <trkpt lat="47.2213" lon="6.001">
        <ele>428</ele>
        <time>2015-05-10T08:19:04.590Z</time>
      </trkpt>
      <trkpt lat="47.2214" lon="6.00109">
        <ele>429</ele>
        <time>2015-05-10T08:19:10.590Z</time>
      </trkpt>
      <trkpt lat="47.22151" lon="6.00111">
        <ele>430</ele>
        <time>2015-05-10T08:19:15.590Z</time>
      </trkpt>
      <trkpt lat="47.22163" lon="6.00116">
        <ele>431</ele>
        <time>2015-05-10T08:19:20.590Z</time>
      </trkpt>
      <trkpt lat="47.22173" lon="6.0012">
        <ele>431</ele>
        <time>2015-05-10T08:19:24.590Z</time>
      </trkpt>
      <trkpt lat="47.22182" lon="6.00124">
        <ele>432</ele>
        <time>2015-05-10T08:19:28.590Z</time>
      </trkpt>
      <trkpt lat="47.22192" lon="6.00128">
        <ele>432</ele>
        <time>2015-05-10T08:19:32.590Z</time>
      </trkpt>
      <trkpt lat="47.22202" lon="6.00133">
        <ele>433</ele>
        <time>2015-05-10T08:19:36.690Z</time>
      </trkpt>
      <trkpt lat="47.22214" lon="6.00137">
        <ele>434</ele>
        <time>2015-05-10T08:19:40.690Z</time>
      </trkpt>
      <trkpt lat="47.22226" lon="6.00137">
        <ele>435.8999936</ele>
        <time>2015-05-10T08:19:44.690Z</time>
      </trkpt>
      <trkpt lat="47.22237" lon="6.00137">
        <ele>436.8999936</ele>
        <time>2015-05-10T08:19:48.690Z</time>
      </trkpt>
      <trkpt lat="47.22248" lon="6.00137">
        <ele>437.8999936</ele>
        <time>2015-05-10T08:19:52.690Z</time>
      </trkpt>
      <trkpt lat="47.22259" lon="6.00135">
        <ele>439</ele>
        <time>2015-05-10T08:19:56.690Z</time>
      </trkpt>
      <trkpt lat="47.22271" lon="6.00129">
        <ele>441</ele>
        <time>2015-05-10T08:20:01.690Z</time>
      </trkpt>
      <trkpt lat="47.22274" lon="6.00114">
        <ele>443</ele>
        <time>2015-05-10T08:20:08.690Z</time>
      </trkpt>
      <trkpt lat="47.22268" lon="6.001">
        <ele>444.89108559552</ele>
        <time>2015-05-10T08:20:15.690Z</time>
      </trkpt>
      <trkpt lat="47.22259" lon="6.00089">
        <ele>446</ele>
        <time>2015-05-10T08:20:21.690Z</time>
      </trkpt>
      <trkpt lat="47.22251" lon="6.0008">
        <ele>448.8999936</ele>
        <time>2015-05-10T08:20:26.690Z</time>
      </trkpt>
      <trkpt lat="47.22244" lon="6.00067">
        <ele>451</ele>
        <time>2015-05-10T08:20:32.690Z</time>
      </trkpt>
      <trkpt lat="47.22235" lon="6.00058">
        <ele>454.8999936</ele>
        <time>2015-05-10T08:20:39.690Z</time>
      </trkpt>
      <trkpt lat="47.22228" lon="6.00049">
        <ele>456.8999936</ele>
        <time>2015-05-10T08:20:44.690Z</time>
      </trkpt>
      <trkpt lat="47.2222" lon="6.00043">
        <ele>458.8999936</ele>
        <time>2015-05-10T08:20:54.690Z</time>
      </trkpt>
      <trkpt lat="47.22209" lon="6.00039">
        <ele>460</ele>
        <time>2015-05-10T08:21:01.690Z</time>
      </trkpt>
      <trkpt lat="47.22199" lon="6.00043">
        <ele>461.8999936</ele>
        <time>2015-05-10T08:21:07.690Z</time>
      </trkpt>
      <trkpt lat="47.22188" lon="6.00044">
        <ele>462.8999936</ele>
        <time>2015-05-10T08:21:12.690Z</time>
      </trkpt>
      <trkpt lat="47.22178" lon="6.00038">
        <ele>464</ele>
        <time>2015-05-10T08:21:16.690Z</time>
      </trkpt>
      <trkpt lat="47.22175" lon="6.00023">
        <ele>464</ele>
        <time>2015-05-10T08:21:19.690Z</time>
      </trkpt>
      <trkpt lat="47.22172" lon="6.00008">
        <ele>464</ele>
        <time>2015-05-10T08:21:22.690Z</time>
      </trkpt>
      <trkpt lat="47.22172" lon="5.99994">
        <ele>464</ele>
        <time>2015-05-10T08:21:25.690Z</time>
      </trkpt>
      <trkpt lat="47.22174" lon="5.99979">
        <ele>463.76</ele>
        <time>2015-05-10T08:21:30.590Z</time>
      </trkpt>
      <trkpt lat="47.22166" lon="5.9997">
        <ele>463</ele>
        <time>2015-05-10T08:21:38.590Z</time>
      </trkpt>
      <trkpt lat="47.22161" lon="5.99955">
        <ele>461</ele>
        <time>2015-05-10T08:21:44.590Z</time>
      </trkpt>
      <trkpt lat="47.22165" lon="5.9994">
        <ele>459</ele>
        <time>2015-05-10T08:21:48.590Z</time>
      </trkpt>
      <trkpt lat="47.22177" lon="5.99942">
        <ele>460</ele>
        <time>2015-05-10T08:21:54.590Z</time>
      </trkpt>
      <trkpt lat="47.22186" lon="5.99948">
        <ele>459</ele>
        <time>2015-05-10T08:21:58.590Z</time>
      </trkpt>
      <trkpt lat="47.22196" lon="5.99955">
        <ele>459</ele>
        <time>2015-05-10T08:22:02.590Z</time>
      </trkpt>
      <trkpt lat="47.22207" lon="5.99963">
        <ele>459</ele>
        <time>2015-05-10T08:22:06.590Z</time>
      </trkpt>
      <trkpt lat="47.22216" lon="5.99972">
        <ele>458.24242345883</ele>
        <time>2015-05-10T08:22:09.590Z</time>
      </trkpt>
      <trkpt lat="47.22224" lon="5.99983">
        <ele>458</ele>
        <time>2015-05-10T08:22:12.590Z</time>
      </trkpt>
      <trkpt lat="47.22233" lon="5.99995">
        <ele>458</ele>
        <time>2015-05-10T08:22:15.590Z</time>
      </trkpt>
      <trkpt lat="47.22241" lon="6.00009">
        <ele>458</ele>
        <time>2015-05-10T08:22:18.590Z</time>
      </trkpt>
      <trkpt lat="47.2225" lon="6.00025">
        <ele>458</ele>
        <time>2015-05-10T08:22:21.590Z</time>
      </trkpt>
      <trkpt lat="47.22255" lon="6.00039">
        <ele>458</ele>
        <time>2015-05-10T08:22:24.590Z</time>
      </trkpt>
      <trkpt lat="47.22262" lon="6.00053">
        <ele>458</ele>
        <time>2015-05-10T08:22:27.590Z</time>
      </trkpt>
      <trkpt lat="47.2227" lon="6.00063">
        <ele>458</ele>
        <time>2015-05-10T08:22:31.590Z</time>
      </trkpt>
      <trkpt lat="47.22279" lon="6.0007">
        <ele>458</ele>
        <time>2015-05-10T08:22:36.590Z</time>
      </trkpt>
      <trkpt lat="47.22287" lon="6.0008">
        <ele>458</ele>
        <time>2015-05-10T08:22:40.590Z</time>
      </trkpt>
      <trkpt lat="47.22295" lon="6.00094">
        <ele>457</ele>
        <time>2015-05-10T08:22:44.590Z</time>
      </trkpt>
      <trkpt lat="47.223" lon="6.00109">
        <ele>455.24</ele>
        <time>2015-05-10T08:22:48.590Z</time>
      </trkpt>
      <trkpt lat="47.22306" lon="6.00126">
        <ele>453</ele>
        <time>2015-05-10T08:22:52.590Z</time>
      </trkpt>
      <trkpt lat="47.22311" lon="6.00139">
        <ele>451</ele>
        <time>2015-05-10T08:22:56.590Z</time>
      </trkpt>
      <trkpt lat="47.22319" lon="6.00152">
        <ele>449</ele>
        <time>2015-05-10T08:23:01.590Z</time>
      </trkpt>
      <trkpt lat="47.22329" lon="6.00159">
        <ele>448</ele>
        <time>2015-05-10T08:23:05.590Z</time>
      </trkpt>
      <trkpt lat="47.22339" lon="6.00166">
        <ele>447</ele>
        <time>2015-05-10T08:23:10.590Z</time>
      </trkpt>
      <trkpt lat="47.22351" lon="6.00171">
        <ele>446</ele>
        <time>2015-05-10T08:23:15.590Z</time>
      </trkpt>
      <trkpt lat="47.22361" lon="6.00178">
        <ele>444.24</ele>
        <time>2015-05-10T08:23:18.590Z</time>
      </trkpt>
      <trkpt lat="47.22371" lon="6.00187">
        <ele>443.24</ele>
        <time>2015-05-10T08:23:21.590Z</time>
      </trkpt>
      <trkpt lat="47.2238" lon="6.00198">
        <ele>443</ele>
        <time>2015-05-10T08:23:24.590Z</time>
      </trkpt>
      <trkpt lat="47.22388" lon="6.00207">
        <ele>441.20833333333</ele>
        <time>2015-05-10T08:23:27.590Z</time>
      </trkpt>
      <trkpt lat="47.22396" lon="6.00222">
        <ele>439.2300032</ele>
        <time>2015-05-10T08:23:31.600Z</time>
      </trkpt>
      <trkpt lat="47.22405" lon="6.00212">
        <ele>431.24</ele>
        <time>2015-05-10T08:23:39.590Z</time>
      </trkpt>
      <trkpt lat="47.22405" lon="6.00197">
        <ele>429</ele>
        <time>2015-05-10T08:23:42.310Z</time>
      </trkpt>
      <trkpt lat="47.22402" lon="6.00182">
        <ele>427.2</ele>
        <time>2015-05-10T08:23:45.590Z</time>
      </trkpt>
      <trkpt lat="47.22399" lon="6.00168">
        <ele>426.2</ele>
        <time>2015-05-10T08:23:48.590Z</time>
      </trkpt>
      <trkpt lat="47.22394" lon="6.0015">
        <ele>425</ele>
        <time>2015-05-10T08:23:51.590Z</time>
      </trkpt>
      <trkpt lat="47.22388" lon="6.00133">
        <ele>424</ele>
        <time>2015-05-10T08:23:54.590Z</time>
      </trkpt>
      <trkpt lat="47.22385" lon="6.00116">
        <ele>423</ele>
        <time>2015-05-10T08:23:57.590Z</time>
      </trkpt>
      <trkpt lat="47.22381" lon="6.00099">
        <ele>422</ele>
        <time>2015-05-10T08:24:00.590Z</time>
      </trkpt>
      <trkpt lat="47.22377" lon="6.00083">
        <ele>421</ele>
        <time>2015-05-10T08:24:03.590Z</time>
      </trkpt>
      <trkpt lat="47.22373" lon="6.00064">
        <ele>420</ele>
        <time>2015-05-10T08:24:06.590Z</time>
      </trkpt>
      <trkpt lat="47.22368" lon="6.00047">
        <ele>420</ele>
        <time>2015-05-10T08:24:09.590Z</time>
      </trkpt>
      <trkpt lat="47.22363" lon="6.00032">
        <ele>418.2</ele>
        <time>2015-05-10T08:24:12.590Z</time>
      </trkpt>
      <trkpt lat="47.22358" lon="6.00017">
        <ele>417.2</ele>
        <time>2015-05-10T08:24:15.590Z</time>
      </trkpt>
      <trkpt lat="47.22355" lon="6.00001">
        <ele>417</ele>
        <time>2015-05-10T08:24:18.600Z</time>
      </trkpt>
      <trkpt lat="47.22351" lon="5.99985">
        <ele>417</ele>
        <time>2015-05-10T08:24:21.590Z</time>
      </trkpt>
      <trkpt lat="47.22346" lon="5.99971">
        <ele>416</ele>
        <time>2015-05-10T08:24:24.590Z</time>
      </trkpt>
      <trkpt lat="47.22342" lon="5.99955">
        <ele>416</ele>
        <time>2015-05-10T08:24:27.590Z</time>
      </trkpt>
      <trkpt lat="47.22336" lon="5.9994">
        <ele>414.2</ele>
        <time>2015-05-10T08:24:30.590Z</time>
      </trkpt>
      <trkpt lat="47.22332" lon="5.99924">
        <ele>413.2</ele>
        <time>2015-05-10T08:24:33.590Z</time>
      </trkpt>
      <trkpt lat="47.22325" lon="5.99908">
        <ele>411.2</ele>
        <time>2015-05-10T08:24:36.590Z</time>
      </trkpt>
      <trkpt lat="47.22319" lon="5.99892">
        <ele>410</ele>
        <time>2015-05-10T08:24:39.590Z</time>
      </trkpt>
      <trkpt lat="47.22312" lon="5.99876">
        <ele>408</ele>
        <time>2015-05-10T08:24:42.590Z</time>
      </trkpt>
      <trkpt lat="47.22306" lon="5.9986">
        <ele>407</ele>
        <time>2015-05-10T08:24:45.590Z</time>
      </trkpt>
      <trkpt lat="47.22302" lon="5.99844">
        <ele>405.2</ele>
        <time>2015-05-10T08:24:48.590Z</time>
      </trkpt>
      <trkpt lat="47.22295" lon="5.99828">
        <ele>404</ele>
        <time>2015-05-10T08:24:51.590Z</time>
      </trkpt>
      <trkpt lat="47.22287" lon="5.99811">
        <ele>402.24</ele>
        <time>2015-05-10T08:24:54.590Z</time>
      </trkpt>
      <trkpt lat="47.2228" lon="5.99797">
        <ele>401</ele>
        <time>2015-05-10T08:24:57.590Z</time>
      </trkpt>
      <trkpt lat="47.22275" lon="5.99783">
        <ele>401</ele>
        <time>2015-05-10T08:25:00.590Z</time>
      </trkpt>
      <trkpt lat="47.22269" lon="5.99769">
        <ele>400</ele>
        <time>2015-05-10T08:25:03.590Z</time>
      </trkpt>
      <trkpt lat="47.22263" lon="5.99756">
        <ele>399</ele>
        <time>2015-05-10T08:25:06.590Z</time>
      </trkpt>
      <trkpt lat="47.22256" lon="5.99744">
        <ele>399</ele>
        <time>2015-05-10T08:25:09.590Z</time>
      </trkpt>
      <trkpt lat="47.22249" lon="5.99732">
        <ele>398</ele>
        <time>2015-05-10T08:25:12.590Z</time>
      </trkpt>
      <trkpt lat="47.22242" lon="5.99719">
        <ele>397</ele>
        <time>2015-05-10T08:25:15.590Z</time>
      </trkpt>
      <trkpt lat="47.22234" lon="5.99706">
        <ele>396.2</ele>
        <time>2015-05-10T08:25:18.590Z</time>
      </trkpt>
      <trkpt lat="47.22225" lon="5.99695">
        <ele>395.2</ele>
        <time>2015-05-10T08:25:21.590Z</time>
      </trkpt>
      <trkpt lat="47.22215" lon="5.99682">
        <ele>394.2</ele>
        <time>2015-05-10T08:25:24.590Z</time>
      </trkpt>
      <trkpt lat="47.22207" lon="5.9967">
        <ele>393</ele>
        <time>2015-05-10T08:25:27.590Z</time>
      </trkpt>
      <trkpt lat="47.22198" lon="5.99661">
        <ele>392.2</ele>
        <time>2015-05-10T08:25:30.590Z</time>
      </trkpt>
      <trkpt lat="47.22189" lon="5.99651">
        <ele>391</ele>
        <time>2015-05-10T08:25:33.590Z</time>
      </trkpt>
      <trkpt lat="47.22179" lon="5.99642">
        <ele>389.2</ele>
        <time>2015-05-10T08:25:36.590Z</time>
      </trkpt>
      <trkpt lat="47.22169" lon="5.99636">
        <ele>389</ele>
        <time>2015-05-10T08:25:39.590Z</time>
      </trkpt>
      <trkpt lat="47.22165" lon="5.99621">
        <ele>387</ele>
        <time>2015-05-10T08:25:43.690Z</time>
      </trkpt>
      <trkpt lat="47.22178" lon="5.99621">
        <ele>386</ele>
        <time>2015-05-10T08:25:47.690Z</time>
      </trkpt>
      <trkpt lat="47.22187" lon="5.99628">
        <ele>385</ele>
        <time>2015-05-10T08:25:49.690Z</time>
      </trkpt>
      <trkpt lat="47.22198" lon="5.99633">
        <ele>384.8999936</ele>
        <time>2015-05-10T08:25:52.690Z</time>
      </trkpt>
      <trkpt lat="47.22209" lon="5.99639">
        <ele>384</ele>
        <time>2015-05-10T08:25:55.690Z</time>
      </trkpt>
      <trkpt lat="47.22221" lon="5.99647">
        <ele>383</ele>
        <time>2015-05-10T08:25:58.690Z</time>
      </trkpt>
      <trkpt lat="47.22232" lon="5.99654">
        <ele>383</ele>
        <time>2015-05-10T08:26:01.690Z</time>
      </trkpt>
      <trkpt lat="47.22243" lon="5.99661">
        <ele>383</ele>
        <time>2015-05-10T08:26:04.690Z</time>
      </trkpt>
      <trkpt lat="47.22253" lon="5.99669">
        <ele>382</ele>
        <time>2015-05-10T08:26:07.690Z</time>
      </trkpt>
      <trkpt lat="47.22262" lon="5.99678">
        <ele>382</ele>
        <time>2015-05-10T08:26:10.690Z</time>
      </trkpt>
      <trkpt lat="47.22271" lon="5.99688">
        <ele>381</ele>
        <time>2015-05-10T08:26:13.690Z</time>
      </trkpt>
      <trkpt lat="47.2228" lon="5.99701">
        <ele>381</ele>
        <time>2015-05-10T08:26:16.690Z</time>
      </trkpt>
      <trkpt lat="47.22288" lon="5.99713">
        <ele>381</ele>
        <time>2015-05-10T08:26:19.690Z</time>
      </trkpt>
      <trkpt lat="47.22296" lon="5.99724">
        <ele>381</ele>
        <time>2015-05-10T08:26:22.690Z</time>
      </trkpt>
      <trkpt lat="47.22303" lon="5.99734">
        <ele>380.1000064</ele>
        <time>2015-05-10T08:26:24.690Z</time>
      </trkpt>
      <trkpt lat="47.22311" lon="5.99745">
        <ele>380</ele>
        <time>2015-05-10T08:26:26.690Z</time>
      </trkpt>
      <trkpt lat="47.22319" lon="5.9976">
        <ele>379</ele>
        <time>2015-05-10T08:26:29.690Z</time>
      </trkpt>
      <trkpt lat="47.22326" lon="5.99773">
        <ele>379</ele>
        <time>2015-05-10T08:26:32.690Z</time>
      </trkpt>
      <trkpt lat="47.22333" lon="5.99785">
        <ele>378</ele>
        <time>2015-05-10T08:26:35.690Z</time>
      </trkpt>
      <trkpt lat="47.22341" lon="5.99797">
        <ele>378</ele>
        <time>2015-05-10T08:26:38.690Z</time>
      </trkpt>
      <trkpt lat="47.22349" lon="5.99809">
        <ele>377</ele>
        <time>2015-05-10T08:26:41.690Z</time>
      </trkpt>
      <trkpt lat="47.22358" lon="5.99823">
        <ele>377</ele>
        <time>2015-05-10T08:26:44.690Z</time>
      </trkpt>
      <trkpt lat="47.22366" lon="5.99836">
        <ele>377</ele>
        <time>2015-05-10T08:26:47.690Z</time>
      </trkpt>
      <trkpt lat="47.22374" lon="5.99847">
        <ele>376</ele>
        <time>2015-05-10T08:26:50.690Z</time>
      </trkpt>
      <trkpt lat="47.22383" lon="5.99861">
        <ele>375</ele>
        <time>2015-05-10T08:26:53.690Z</time>
      </trkpt>
      <trkpt lat="47.2239" lon="5.99872">
        <ele>374.1000064</ele>
        <time>2015-05-10T08:26:55.690Z</time>
      </trkpt>
      <trkpt lat="47.22399" lon="5.99889">
        <ele>374</ele>
        <time>2015-05-10T08:26:58.690Z</time>
      </trkpt>
      <trkpt lat="47.22407" lon="5.99905">
        <ele>373.1000064</ele>
        <time>2015-05-10T08:27:01.690Z</time>
      </trkpt>
      <trkpt lat="47.22415" lon="5.99919">
        <ele>373</ele>
        <time>2015-05-10T08:27:04.690Z</time>
      </trkpt>
      <trkpt lat="47.22424" lon="5.99934">
        <ele>372</ele>
        <time>2015-05-10T08:27:07.690Z</time>
      </trkpt>
      <trkpt lat="47.22432" lon="5.99948">
        <ele>372</ele>
        <time>2015-05-10T08:27:10.690Z</time>
      </trkpt>
      <trkpt lat="47.22438" lon="5.99962">
        <ele>370.1000064</ele>
        <time>2015-05-10T08:27:13.690Z</time>
      </trkpt>
      <trkpt lat="47.22443" lon="5.99976">
        <ele>369</ele>
        <time>2015-05-10T08:27:16.690Z</time>
      </trkpt>
      <trkpt lat="47.22449" lon="5.9999">
        <ele>368</ele>
        <time>2015-05-10T08:27:19.690Z</time>
      </trkpt>
      <trkpt lat="47.22452" lon="6.00005">
        <ele>366.1000064</ele>
        <time>2015-05-10T08:27:24.690Z</time>
      </trkpt>
      <trkpt lat="47.22456" lon="5.99989">
        <ele>363</ele>
        <time>2015-05-10T08:27:31.690Z</time>
      </trkpt>
      <trkpt lat="47.22458" lon="5.99975">
        <ele>360</ele>
        <time>2015-05-10T08:27:38.690Z</time>
      </trkpt>
      <trkpt lat="47.22469" lon="5.99982">
        <ele>357.1000064</ele>
        <time>2015-05-10T08:27:43.690Z</time>
      </trkpt>
      <trkpt lat="47.22479" lon="5.99991">
        <ele>355</ele>
        <time>2015-05-10T08:27:47.690Z</time>
      </trkpt>
      <trkpt lat="47.22487" lon="6">
        <ele>354</ele>
        <time>2015-05-10T08:27:50.690Z</time>
      </trkpt>
      <trkpt lat="47.22499" lon="6.00006">
        <ele>352.20791828251</ele>
        <time>2015-05-10T08:27:54.590Z</time>
      </trkpt>
      <trkpt lat="47.2251" lon="6.00011">
        <ele>350.2</ele>
        <time>2015-05-10T08:27:59.590Z</time>
      </trkpt>
      <trkpt lat="47.22521" lon="6.00007">
        <ele>348</ele>
        <time>2015-05-10T08:28:03.590Z</time>
      </trkpt>
      <trkpt lat="47.22532" lon="6.00014">
        <ele>346</ele>
        <time>2015-05-10T08:28:07.590Z</time>
      </trkpt>
      <trkpt lat="47.22543" lon="6.00022">
        <ele>344.2</ele>
        <time>2015-05-10T08:28:10.590Z</time>
      </trkpt>
      <trkpt lat="47.22553" lon="6.00031">
        <ele>343.2</ele>
        <time>2015-05-10T08:28:13.590Z</time>
      </trkpt>
      <trkpt lat="47.22561" lon="6.00042">
        <ele>342</ele>
        <time>2015-05-10T08:28:16.590Z</time>
      </trkpt>
      <trkpt lat="47.22571" lon="6.0005">
        <ele>340</ele>
        <time>2015-05-10T08:28:19.590Z</time>
      </trkpt>
      <trkpt lat="47.22582" lon="6.00053">
        <ele>338</ele>
        <time>2015-05-10T08:28:23.590Z</time>
      </trkpt>
      <trkpt lat="47.22594" lon="6.00051">
        <ele>336</ele>
        <time>2015-05-10T08:28:27.590Z</time>
      </trkpt>
      <trkpt lat="47.22601" lon="6.00042">
        <ele>332.2</ele>
        <time>2015-05-10T08:28:31.590Z</time>
      </trkpt>
      <trkpt lat="47.22599" lon="6.00025">
        <ele>330</ele>
        <time>2015-05-10T08:28:35.590Z</time>
      </trkpt>
      <trkpt lat="47.22594" lon="6.00011">
        <ele>327.1900032</ele>
        <time>2015-05-10T08:28:38.600Z</time>
      </trkpt>
      <trkpt lat="47.22585" lon="5.99995">
        <ele>324.2</ele>
        <time>2015-05-10T08:28:41.590Z</time>
      </trkpt>
      <trkpt lat="47.22581" lon="5.99982">
        <ele>322.2</ele>
        <time>2015-05-10T08:28:44.590Z</time>
      </trkpt>
      <trkpt lat="47.22578" lon="5.99966">
        <ele>320.20201954903</ele>
        <time>2015-05-10T08:28:47.590Z</time>
      </trkpt>
      <trkpt lat="47.22576" lon="5.99948">
        <ele>318.40403909806</ele>
        <time>2015-05-10T08:28:50.590Z</time>
      </trkpt>
      <trkpt lat="47.22576" lon="5.99927">
        <ele>316.2</ele>
        <time>2015-05-10T08:28:53.590Z</time>
      </trkpt>
      <trkpt lat="47.22576" lon="5.99912">
        <ele>314.2</ele>
        <time>2015-05-10T08:28:55.590Z</time>
      </trkpt>
      <trkpt lat="47.22576" lon="5.99893">
        <ele>312</ele>
        <time>2015-05-10T08:28:58.590Z</time>
      </trkpt>
      <trkpt lat="47.22575" lon="5.99875">
        <ele>311</ele>
        <time>2015-05-10T08:29:01.590Z</time>
      </trkpt>
      <trkpt lat="47.22577" lon="5.9986">
        <ele>311</ele>
        <time>2015-05-10T08:29:04.690Z</time>
      </trkpt>
      <trkpt lat="47.22578" lon="5.99844">
        <ele>310</ele>
        <time>2015-05-10T08:29:07.590Z</time>
      </trkpt>
      <trkpt lat="47.22579" lon="5.99826">
        <ele>309</ele>
        <time>2015-05-10T08:29:11.590Z</time>
      </trkpt>
      <trkpt lat="47.22581" lon="5.99812">
        <ele>308</ele>
        <time>2015-05-10T08:29:14.590Z</time>
      </trkpt>
      <trkpt lat="47.22581" lon="5.99793">
        <ele>306</ele>
        <time>2015-05-10T08:29:18.590Z</time>
      </trkpt>
      <trkpt lat="47.2258" lon="5.99776">
        <ele>305</ele>
        <time>2015-05-10T08:29:21.590Z</time>
      </trkpt>
      <trkpt lat="47.22581" lon="5.99758">
        <ele>301.24</ele>
        <time>2015-05-10T08:29:24.590Z</time>
      </trkpt>
      <trkpt lat="47.22578" lon="5.99741">
        <ele>298.24</ele>
        <time>2015-05-10T08:29:27.590Z</time>
      </trkpt>
      <trkpt lat="47.2257" lon="5.99729">
        <ele>298</ele>
        <time>2015-05-10T08:29:32.590Z</time>
      </trkpt>
      <trkpt lat="47.22558" lon="5.99719">
        <ele>297</ele>
        <time>2015-05-10T08:29:36.590Z</time>
      </trkpt>
      <trkpt lat="47.22548" lon="5.99708">
        <ele>295.24</ele>
        <time>2015-05-10T08:29:39.590Z</time>
      </trkpt>
      <trkpt lat="47.22538" lon="5.99696">
        <ele>294</ele>
        <time>2015-05-10T08:29:42.590Z</time>
      </trkpt>
      <trkpt lat="47.22536" lon="5.99679">
        <ele>293</ele>
        <time>2015-05-10T08:29:45.590Z</time>
      </trkpt>
      <trkpt lat="47.22533" lon="5.9966">
        <ele>291.24</ele>
        <time>2015-05-10T08:29:48.590Z</time>
      </trkpt>
      <trkpt lat="47.2253" lon="5.99647">
        <ele>290</ele>
        <time>2015-05-10T08:29:51.590Z</time>
      </trkpt>
      <trkpt lat="47.22524" lon="5.99633">
        <ele>288.28301453896</ele>
        <time>2015-05-10T08:29:54.590Z</time>
      </trkpt>
      <trkpt lat="47.22518" lon="5.9962">
        <ele>287</ele>
        <time>2015-05-10T08:29:57.590Z</time>
      </trkpt>
      <trkpt lat="47.22511" lon="5.99609">
        <ele>286</ele>
        <time>2015-05-10T08:30:00.590Z</time>
      </trkpt>
      <trkpt lat="47.22504" lon="5.99593">
        <ele>285</ele>
        <time>2015-05-10T08:30:04.590Z</time>
      </trkpt>
      <trkpt lat="47.22498" lon="5.9958">
        <ele>284.2</ele>
        <time>2015-05-10T08:30:07.590Z</time>
      </trkpt>
      <trkpt lat="47.22491" lon="5.99567">
        <ele>284</ele>
        <time>2015-05-10T08:30:10.590Z</time>
      </trkpt>
      <trkpt lat="47.22484" lon="5.99554">
        <ele>283</ele>
        <time>2015-05-10T08:30:13.590Z</time>
      </trkpt>
      <trkpt lat="47.22478" lon="5.99541">
        <ele>283</ele>
        <time>2015-05-10T08:30:16.590Z</time>
      </trkpt>
      <trkpt lat="47.22471" lon="5.99528">
        <ele>283</ele>
        <time>2015-05-10T08:30:19.590Z</time>
      </trkpt>
      <trkpt lat="47.22464" lon="5.99515">
        <ele>283</ele>
        <time>2015-05-10T08:30:22.590Z</time>
      </trkpt>
      <trkpt lat="47.22458" lon="5.99503">
        <ele>283</ele>
        <time>2015-05-10T08:30:25.590Z</time>
      </trkpt>
      <trkpt lat="47.22451" lon="5.99489">
        <ele>282</ele>
        <time>2015-05-10T08:30:28.590Z</time>
      </trkpt>
      <trkpt lat="47.22445" lon="5.99475">
        <ele>282</ele>
        <time>2015-05-10T08:30:31.590Z</time>
      </trkpt>
      <trkpt lat="47.22439" lon="5.99461">
        <ele>281</ele>
        <time>2015-05-10T08:30:34.590Z</time>
      </trkpt>
      <trkpt lat="47.22434" lon="5.99446">
        <ele>280.00989785314</ele>
        <time>2015-05-10T08:30:37.790Z</time>
      </trkpt>
      <trkpt lat="47.22427" lon="5.99431">
        <ele>280</ele>
        <time>2015-05-10T08:30:40.590Z</time>
      </trkpt>
      <trkpt lat="47.22422" lon="5.99416">
        <ele>279</ele>
        <time>2015-05-10T08:30:43.790Z</time>
      </trkpt>
      <trkpt lat="47.22416" lon="5.99401">
        <ele>279</ele>
        <time>2015-05-10T08:30:46.590Z</time>
      </trkpt>
      <trkpt lat="47.2241" lon="5.99385">
        <ele>278</ele>
        <time>2015-05-10T08:30:49.590Z</time>
      </trkpt>
      <trkpt lat="47.22405" lon="5.99369">
        <ele>277</ele>
        <time>2015-05-10T08:30:52.590Z</time>
      </trkpt>
      <trkpt lat="47.22399" lon="5.99354">
        <ele>277</ele>
        <time>2015-05-10T08:30:55.590Z</time>
      </trkpt>
      <trkpt lat="47.22396" lon="5.99338">
        <ele>276</ele>
        <time>2015-05-10T08:30:58.590Z</time>
      </trkpt>
      <trkpt lat="47.22398" lon="5.99322">
        <ele>276</ele>
        <time>2015-05-10T08:31:01.590Z</time>
      </trkpt>
      <trkpt lat="47.22398" lon="5.99305">
        <ele>274</ele>
        <time>2015-05-10T08:31:07.590Z</time>
      </trkpt>
      <trkpt lat="47.22395" lon="5.9929">
        <ele>273</ele>
        <time>2015-05-10T08:31:10.590Z</time>
      </trkpt>
      <trkpt lat="47.22391" lon="5.99275">
        <ele>272</ele>
        <time>2015-05-10T08:31:13.590Z</time>
      </trkpt>
      <trkpt lat="47.22385" lon="5.99261">
        <ele>271</ele>
        <time>2015-05-10T08:31:16.590Z</time>
      </trkpt>
      <trkpt lat="47.22378" lon="5.99247">
        <ele>271</ele>
        <time>2015-05-10T08:31:19.590Z</time>
      </trkpt>
      <trkpt lat="47.22371" lon="5.99235">
        <ele>270.2</ele>
        <time>2015-05-10T08:31:22.590Z</time>
      </trkpt>
      <trkpt lat="47.22367" lon="5.99219">
        <ele>270</ele>
        <time>2015-05-10T08:31:25.590Z</time>
      </trkpt>
      <trkpt lat="47.22363" lon="5.99203">
        <ele>269</ele>
        <time>2015-05-10T08:31:28.590Z</time>
      </trkpt>
      <trkpt lat="47.22358" lon="5.99187">
        <ele>269</ele>
        <time>2015-05-10T08:31:31.590Z</time>
      </trkpt>
      <trkpt lat="47.22355" lon="5.99171">
        <ele>268</ele>
        <time>2015-05-10T08:31:34.590Z</time>
      </trkpt>
      <trkpt lat="47.22352" lon="5.99154">
        <ele>267.2</ele>
        <time>2015-05-10T08:31:37.590Z</time>
      </trkpt>
      <trkpt lat="47.22349" lon="5.99136">
        <ele>267</ele>
        <time>2015-05-10T08:31:40.590Z</time>
      </trkpt>
      <trkpt lat="47.22345" lon="5.99117">
        <ele>266</ele>
        <time>2015-05-10T08:31:43.790Z</time>
      </trkpt>
      <trkpt lat="47.22343" lon="5.99101">
        <ele>265</ele>
        <time>2015-05-10T08:31:46.590Z</time>
      </trkpt>
      <trkpt lat="47.22342" lon="5.99084">
        <ele>264</ele>
        <time>2015-05-10T08:31:49.590Z</time>
      </trkpt>
      <trkpt lat="47.22339" lon="5.99066">
        <ele>264</ele>
        <time>2015-05-10T08:31:52.590Z</time>
      </trkpt>
      <trkpt lat="47.22337" lon="5.99051">
        <ele>263</ele>
        <time>2015-05-10T08:31:55.590Z</time>
      </trkpt>
      <trkpt lat="47.22333" lon="5.99037">
        <ele>263</ele>
        <time>2015-05-10T08:31:58.590Z</time>
      </trkpt>
      <trkpt lat="47.22328" lon="5.99023">
        <ele>263</ele>
        <time>2015-05-10T08:32:01.590Z</time>
      </trkpt>
      <trkpt lat="47.22323" lon="5.99009">
        <ele>262</ele>
        <time>2015-05-10T08:32:04.590Z</time>
      </trkpt>
      <trkpt lat="47.22319" lon="5.98994">
        <ele>261</ele>
        <time>2015-05-10T08:32:07.790Z</time>
      </trkpt>
      <trkpt lat="47.22317" lon="5.98977">
        <ele>261</ele>
        <time>2015-05-10T08:32:11.590Z</time>
      </trkpt>
      <trkpt lat="47.22315" lon="5.98961">
        <ele>261</ele>
        <time>2015-05-10T08:32:14.590Z</time>
      </trkpt>
      <trkpt lat="47.22311" lon="5.98946">
        <ele>261</ele>
        <time>2015-05-10T08:32:17.590Z</time>
      </trkpt>
      <trkpt lat="47.22304" lon="5.9893">
        <ele>260</ele>
        <time>2015-05-10T08:32:21.590Z</time>
      </trkpt>
      <trkpt lat="47.22295" lon="5.98924">
        <ele>260</ele>
        <time>2015-05-10T08:32:27.590Z</time>
      </trkpt>
      <trkpt lat="47.22288" lon="5.98908">
        <ele>258</ele>
        <time>2015-05-10T08:32:31.590Z</time>
      </trkpt>
      <trkpt lat="47.22285" lon="5.9889">
        <ele>257</ele>
        <time>2015-05-10T08:32:34.590Z</time>
      </trkpt>
      <trkpt lat="47.22282" lon="5.98875">
        <ele>255.2</ele>
        <time>2015-05-10T08:32:37.590Z</time>
      </trkpt>
      <trkpt lat="47.2228" lon="5.9886">
        <ele>255</ele>
        <time>2015-05-10T08:32:40.590Z</time>
      </trkpt>
      <trkpt lat="47.22277" lon="5.98846">
        <ele>255</ele>
        <time>2015-05-10T08:32:43.590Z</time>
      </trkpt>
      <trkpt lat="47.22275" lon="5.98831">
        <ele>254</ele>
        <time>2015-05-10T08:32:46.590Z</time>
      </trkpt>
      <trkpt lat="47.22273" lon="5.98815">
        <ele>254</ele>
        <time>2015-05-10T08:32:49.590Z</time>
      </trkpt>
      <trkpt lat="47.2227" lon="5.988">
        <ele>254</ele>
        <time>2015-05-10T08:32:52.590Z</time>
      </trkpt>
      <trkpt lat="47.22268" lon="5.98786">
        <ele>253.2</ele>
        <time>2015-05-10T08:32:55.590Z</time>
      </trkpt>
      <trkpt lat="47.22265" lon="5.98771">
        <ele>253</ele>
        <time>2015-05-10T08:32:58.590Z</time>
      </trkpt>
      <trkpt lat="47.22259" lon="5.98754">
        <ele>253</ele>
        <time>2015-05-10T08:33:02.590Z</time>
      </trkpt>
      <trkpt lat="47.22255" lon="5.9874">
        <ele>253</ele>
        <time>2015-05-10T08:33:05.590Z</time>
      </trkpt>
      <trkpt lat="47.2225" lon="5.98725">
        <ele>252</ele>
        <time>2015-05-10T08:33:08.590Z</time>
      </trkpt>
      <trkpt lat="47.22245" lon="5.98711">
        <ele>252</ele>
        <time>2015-05-10T08:33:11.590Z</time>
      </trkpt>
      <trkpt lat="47.2224" lon="5.98697">
        <ele>252</ele>
        <time>2015-05-10T08:33:14.590Z</time>
      </trkpt>
      <trkpt lat="47.22235" lon="5.98683">
        <ele>251</ele>
        <time>2015-05-10T08:33:17.590Z</time>
      </trkpt>
      <trkpt lat="47.2223" lon="5.98668">
        <ele>251</ele>
        <time>2015-05-10T08:33:20.690Z</time>
      </trkpt>
      <trkpt lat="47.22224" lon="5.98654">
        <ele>251</ele>
        <time>2015-05-10T08:33:23.690Z</time>
      </trkpt>
      <trkpt lat="47.22219" lon="5.98641">
        <ele>251</ele>
        <time>2015-05-10T08:33:26.690Z</time>
      </trkpt>
      <trkpt lat="47.22215" lon="5.98627">
        <ele>251</ele>
        <time>2015-05-10T08:33:29.690Z</time>
      </trkpt>
      <trkpt lat="47.22212" lon="5.98612">
        <ele>250</ele>
        <time>2015-05-10T08:33:32.690Z</time>
      </trkpt>
      <trkpt lat="47.22208" lon="5.98598">
        <ele>250</ele>
        <time>2015-05-10T08:33:35.690Z</time>
      </trkpt>
      <trkpt lat="47.22205" lon="5.98583">
        <ele>249.1000064</ele>
        <time>2015-05-10T08:33:38.690Z</time>
      </trkpt>
      <trkpt lat="47.22202" lon="5.98568">
        <ele>249</ele>
        <time>2015-05-10T08:33:41.690Z</time>
      </trkpt>
      <trkpt lat="47.22198" lon="5.9855">
        <ele>249</ele>
        <time>2015-05-10T08:33:45.690Z</time>
      </trkpt>
      <trkpt lat="47.22192" lon="5.98535">
        <ele>249</ele>
        <time>2015-05-10T08:33:49.690Z</time>
      </trkpt>
      <trkpt lat="47.22185" lon="5.98523">
        <ele>249</ele>
        <time>2015-05-10T08:33:52.690Z</time>
      </trkpt>
      <trkpt lat="47.22178" lon="5.98511">
        <ele>249</ele>
        <time>2015-05-10T08:33:55.690Z</time>
      </trkpt>
      <trkpt lat="47.22172" lon="5.98499">
        <ele>249</ele>
        <time>2015-05-10T08:33:58.690Z</time>
      </trkpt>
      <trkpt lat="47.22164" lon="5.98484">
        <ele>249</ele>
        <time>2015-05-10T08:34:02.690Z</time>
      </trkpt>
      <trkpt lat="47.22156" lon="5.98475">
        <ele>249</ele>
        <time>2015-05-10T08:34:05.690Z</time>
      </trkpt>
      <trkpt lat="47.22145" lon="5.98467">
        <ele>250</ele>
        <time>2015-05-10T08:34:09.690Z</time>
      </trkpt>
      <trkpt lat="47.22136" lon="5.98462">
        <ele>251</ele>
        <time>2015-05-10T08:34:12.690Z</time>
      </trkpt>
      <trkpt lat="47.22126" lon="5.98456">
        <ele>251</ele>
        <time>2015-05-10T08:34:15.690Z</time>
      </trkpt>
      <trkpt lat="47.22115" lon="5.98451">
        <ele>251.0899968</ele>
        <time>2015-05-10T08:34:18.700Z</time>
      </trkpt>
      <trkpt lat="47.22105" lon="5.98445">
        <ele>251.9099904</ele>
        <time>2015-05-10T08:34:21.700Z</time>
      </trkpt>
      <trkpt lat="47.22095" lon="5.98439">
        <ele>252</ele>
        <time>2015-05-10T08:34:24.700Z</time>
      </trkpt>
      <trkpt lat="47.22082" lon="5.9844">
        <ele>252</ele>
        <time>2015-05-10T08:34:28.690Z</time>
      </trkpt>
      <trkpt lat="47.22071" lon="5.98444">
        <ele>252</ele>
        <time>2015-05-10T08:34:32.690Z</time>
      </trkpt>
      <trkpt lat="47.22059" lon="5.98449">
        <ele>252.9100032</ele>
        <time>2015-05-10T08:34:36.700Z</time>
      </trkpt>
      <trkpt lat="47.22047" lon="5.98456">
        <ele>253.8999936</ele>
        <time>2015-05-10T08:34:40.690Z</time>
      </trkpt>
      <trkpt lat="47.22036" lon="5.98461">
        <ele>254</ele>
        <time>2015-05-10T08:34:44.690Z</time>
      </trkpt>
      <trkpt lat="47.22025" lon="5.98468">
        <ele>254</ele>
        <time>2015-05-10T08:34:48.690Z</time>
      </trkpt>
      <trkpt lat="47.22016" lon="5.98475">
        <ele>254</ele>
        <time>2015-05-10T08:34:51.690Z</time>
      </trkpt>
      <trkpt lat="47.22007" lon="5.98483">
        <ele>254.8999936</ele>
        <time>2015-05-10T08:34:54.690Z</time>
      </trkpt>
      <trkpt lat="47.21998" lon="5.98495">
        <ele>255</ele>
        <time>2015-05-10T08:34:58.690Z</time>
      </trkpt>
      <trkpt lat="47.21988" lon="5.98508">
        <ele>254</ele>
        <time>2015-05-10T08:35:02.690Z</time>
      </trkpt>
      <trkpt lat="47.21979" lon="5.98518">
        <ele>254</ele>
        <time>2015-05-10T08:35:05.690Z</time>
      </trkpt>
      <trkpt lat="47.21972" lon="5.98528">
        <ele>254</ele>
        <time>2015-05-10T08:35:08.690Z</time>
      </trkpt>
      <trkpt lat="47.21964" lon="5.98538">
        <ele>254</ele>
        <time>2015-05-10T08:35:11.690Z</time>
      </trkpt>
      <trkpt lat="47.21959" lon="5.9855">
        <ele>253.8999936</ele>
        <time>2015-05-10T08:35:14.690Z</time>
      </trkpt>
      <trkpt lat="47.21953" lon="5.98566">
        <ele>253</ele>
        <time>2015-05-10T08:35:18.690Z</time>
      </trkpt>
      <trkpt lat="47.21946" lon="5.98582">
        <ele>252.1000064</ele>
        <time>2015-05-10T08:35:22.690Z</time>
      </trkpt>
      <trkpt lat="47.21939" lon="5.98595">
        <ele>251</ele>
        <time>2015-05-10T08:35:25.690Z</time>
      </trkpt>
      <trkpt lat="47.21935" lon="5.9861">
        <ele>251</ele>
        <time>2015-05-10T08:35:28.690Z</time>
      </trkpt>
      <trkpt lat="47.2193" lon="5.98624">
        <ele>251</ele>
        <time>2015-05-10T08:35:31.690Z</time>
      </trkpt>
      <trkpt lat="47.21925" lon="5.98642">
        <ele>250.8999936</ele>
        <time>2015-05-10T08:35:35.690Z</time>
      </trkpt>
      <trkpt lat="47.21913" lon="5.98649">
        <ele>250</ele>
        <time>2015-05-10T08:35:39.690Z</time>
      </trkpt>
      <trkpt lat="47.21902" lon="5.98645">
        <ele>250</ele>
        <time>2015-05-10T08:35:42.690Z</time>
      </trkpt>
      <trkpt lat="47.21891" lon="5.98643">
        <ele>250</ele>
        <time>2015-05-10T08:35:45.690Z</time>
      </trkpt>
      <trkpt lat="47.2188" lon="5.98642">
        <ele>250</ele>
        <time>2015-05-10T08:35:48.690Z</time>
      </trkpt>
      <trkpt lat="47.21869" lon="5.98644">
        <ele>250</ele>
        <time>2015-05-10T08:35:51.690Z</time>
      </trkpt>
      <trkpt lat="47.21857" lon="5.98646">
        <ele>250</ele>
        <time>2015-05-10T08:35:54.690Z</time>
      </trkpt>
      <trkpt lat="47.21846" lon="5.98647">
        <ele>249</ele>
        <time>2015-05-10T08:35:57.690Z</time>
      </trkpt>
      <trkpt lat="47.21836" lon="5.98649">
        <ele>248.1000064</ele>
        <time>2015-05-10T08:36:00.690Z</time>
      </trkpt>
      <trkpt lat="47.21824" lon="5.98651">
        <ele>248.8999936</ele>
        <time>2015-05-10T08:36:04.690Z</time>
      </trkpt>
      <trkpt lat="47.21811" lon="5.98654">
        <ele>249</ele>
        <time>2015-05-10T08:36:08.690Z</time>
      </trkpt>
      <trkpt lat="47.218" lon="5.98657">
        <ele>249</ele>
        <time>2015-05-10T08:36:12.590Z</time>
      </trkpt>
      <trkpt lat="47.21787" lon="5.9866">
        <ele>249</ele>
        <time>2015-05-10T08:36:16.590Z</time>
      </trkpt>
      <trkpt lat="47.21775" lon="5.98663">
        <ele>248</ele>
        <time>2015-05-10T08:36:20.590Z</time>
      </trkpt>
      <trkpt lat="47.21766" lon="5.98667">
        <ele>248</ele>
        <time>2015-05-10T08:36:23.590Z</time>
      </trkpt>
      <trkpt lat="47.21757" lon="5.98671">
        <ele>249</ele>
        <time>2015-05-10T08:36:26.590Z</time>
      </trkpt>
      <trkpt lat="47.21747" lon="5.98674">
        <ele>249</ele>
        <time>2015-05-10T08:36:29.590Z</time>
      </trkpt>
      <trkpt lat="47.21738" lon="5.98679">
        <ele>249.76</ele>
        <time>2015-05-10T08:36:32.590Z</time>
      </trkpt>
      <trkpt lat="47.21727" lon="5.98684">
        <ele>250</ele>
        <time>2015-05-10T08:36:36.590Z</time>
      </trkpt>
      <trkpt lat="47.21716" lon="5.98689">
        <ele>250</ele>
        <time>2015-05-10T08:36:40.590Z</time>
      </trkpt>
      <trkpt lat="47.21705" lon="5.98692">
        <ele>251</ele>
        <time>2015-05-10T08:36:44.590Z</time>
      </trkpt>
      <trkpt lat="47.21696" lon="5.98695">
        <ele>251</ele>
        <time>2015-05-10T08:36:47.590Z</time>
      </trkpt>
      <trkpt lat="47.21688" lon="5.98698">
        <ele>252</ele>
        <time>2015-05-10T08:36:50.590Z</time>
      </trkpt>
      <trkpt lat="47.21679" lon="5.98701">
        <ele>252.76</ele>
        <time>2015-05-10T08:36:53.590Z</time>
      </trkpt>
      <trkpt lat="47.2167" lon="5.98704">
        <ele>253</ele>
        <time>2015-05-10T08:36:56.590Z</time>
      </trkpt>
      <trkpt lat="47.21661" lon="5.98708">
        <ele>253</ele>
        <time>2015-05-10T08:36:59.590Z</time>
      </trkpt>
      <trkpt lat="47.21652" lon="5.98711">
        <ele>253</ele>
        <time>2015-05-10T08:37:02.590Z</time>
      </trkpt>
      <trkpt lat="47.21642" lon="5.98708">
        <ele>253.24</ele>
        <time>2015-05-10T08:37:06.590Z</time>
      </trkpt>
      <trkpt lat="47.21632" lon="5.98705">
        <ele>253</ele>
        <time>2015-05-10T08:37:12.590Z</time>
      </trkpt>
      <trkpt lat="47.21628" lon="5.98691">
        <ele>254.76</ele>
        <time>2015-05-10T08:37:16.590Z</time>
      </trkpt>
      <trkpt lat="47.21624" lon="5.98674">
        <ele>255</ele>
        <time>2015-05-10T08:37:21.590Z</time>
      </trkpt>
      <trkpt lat="47.21619" lon="5.98659">
        <ele>255.76</ele>
        <time>2015-05-10T08:37:25.590Z</time>
      </trkpt>
      <trkpt lat="47.21618" lon="5.98642">
        <ele>256.76</ele>
        <time>2015-05-10T08:37:29.590Z</time>
      </trkpt>
      <trkpt lat="47.21625" lon="5.9863">
        <ele>257</ele>
        <time>2015-05-10T08:37:34.590Z</time>
      </trkpt>
      <trkpt lat="47.21633" lon="5.9862">
        <ele>258</ele>
        <time>2015-05-10T08:37:43.590Z</time>
      </trkpt>
      <trkpt lat="47.2164" lon="5.98609">
        <ele>260</ele>
        <time>2015-05-10T08:37:53.590Z</time>
      </trkpt>
      <trkpt lat="47.21646" lon="5.98596">
        <ele>263</ele>
        <time>2015-05-10T08:38:04.600Z</time>
      </trkpt>
      <trkpt lat="47.21655" lon="5.98588">
        <ele>265</ele>
        <time>2015-05-10T08:38:15.590Z</time>
      </trkpt>
      <trkpt lat="47.21662" lon="5.98577">
        <ele>267</ele>
        <time>2015-05-10T08:38:27.590Z</time>
      </trkpt>
      <trkpt lat="47.21653" lon="5.98567">
        <ele>274.8</ele>
        <time>2015-05-10T08:38:42.590Z</time>
      </trkpt>
      <trkpt lat="47.21645" lon="5.98559">
        <ele>279</ele>
        <time>2015-05-10T08:38:48.590Z</time>
      </trkpt>
      <trkpt lat="47.21655" lon="5.98553">
        <ele>279</ele>
        <time>2015-05-10T08:38:54.590Z</time>
      </trkpt>
      <trkpt lat="47.21666" lon="5.98551">
        <ele>280</ele>
        <time>2015-05-10T08:38:58.690Z</time>
      </trkpt>
      <trkpt lat="47.21677" lon="5.98542">
        <ele>281.8999936</ele>
        <time>2015-05-10T08:39:02.690Z</time>
      </trkpt>
      <trkpt lat="47.21686" lon="5.9853">
        <ele>282.1000064</ele>
        <time>2015-05-10T08:39:06.690Z</time>
      </trkpt>
      <trkpt lat="47.21692" lon="5.98516">
        <ele>283</ele>
        <time>2015-05-10T08:39:10.690Z</time>
      </trkpt>
      <trkpt lat="47.21696" lon="5.985">
        <ele>284</ele>
        <time>2015-05-10T08:39:15.690Z</time>
      </trkpt>
      <trkpt lat="47.21689" lon="5.98487">
        <ele>285</ele>
        <time>2015-05-10T08:39:20.690Z</time>
      </trkpt>
      <trkpt lat="47.2168" lon="5.98482">
        <ele>287</ele>
        <time>2015-05-10T08:39:25.690Z</time>
      </trkpt>
      <trkpt lat="47.2167" lon="5.98478">
        <ele>288.8999936</ele>
        <time>2015-05-10T08:39:30.690Z</time>
      </trkpt>
      <trkpt lat="47.21661" lon="5.98471">
        <ele>290</ele>
        <time>2015-05-10T08:39:38.690Z</time>
      </trkpt>
      <trkpt lat="47.21651" lon="5.98462">
        <ele>293.8999936</ele>
        <time>2015-05-10T08:39:45.690Z</time>
      </trkpt>
      <trkpt lat="47.21642" lon="5.98452">
        <ele>296.8999936</ele>
        <time>2015-05-10T08:39:51.690Z</time>
      </trkpt>
      <trkpt lat="47.21633" lon="5.98445">
        <ele>299</ele>
        <time>2015-05-10T08:39:59.690Z</time>
      </trkpt>
      <trkpt lat="47.21623" lon="5.98439">
        <ele>301</ele>
        <time>2015-05-10T08:40:07.690Z</time>
      </trkpt>
      <trkpt lat="47.21614" lon="5.98433">
        <ele>304</ele>
        <time>2015-05-10T08:40:16.690Z</time>
      </trkpt>
      <trkpt lat="47.21604" lon="5.98428">
        <ele>308</ele>
        <time>2015-05-10T08:40:26.690Z</time>
      </trkpt>
      <trkpt lat="47.21594" lon="5.98422">
        <ele>311.8999936</ele>
        <time>2015-05-10T08:40:36.690Z</time>
      </trkpt>
      <trkpt lat="47.21583" lon="5.98418">
        <ele>314.8</ele>
        <time>2015-05-10T08:40:44.590Z</time>
      </trkpt>
      <trkpt lat="47.21572" lon="5.98413">
        <ele>319</ele>
        <time>2015-05-10T08:40:51.590Z</time>
      </trkpt>
      <trkpt lat="47.21562" lon="5.98409">
        <ele>322</ele>
        <time>2015-05-10T08:40:59.590Z</time>
      </trkpt>
      <trkpt lat="47.21552" lon="5.98404">
        <ele>324.8</ele>
        <time>2015-05-10T08:41:07.590Z</time>
      </trkpt>
      <trkpt lat="47.21543" lon="5.98396">
        <ele>327</ele>
        <time>2015-05-10T08:41:14.590Z</time>
      </trkpt>
      <trkpt lat="47.21533" lon="5.9839">
        <ele>329</ele>
        <time>2015-05-10T08:41:24.590Z</time>
      </trkpt>
      <trkpt lat="47.21524" lon="5.98385">
        <ele>331.8</ele>
        <time>2015-05-10T08:41:33.590Z</time>
      </trkpt>
      <trkpt lat="47.21513" lon="5.98379">
        <ele>334</ele>
        <time>2015-05-10T08:41:39.590Z</time>
      </trkpt>
      <trkpt lat="47.21503" lon="5.98373">
        <ele>336.8</ele>
        <time>2015-05-10T08:41:47.590Z</time>
      </trkpt>
      <trkpt lat="47.21493" lon="5.98368">
        <ele>338</ele>
        <time>2015-05-10T08:41:54.590Z</time>
      </trkpt>
      <trkpt lat="47.21483" lon="5.98363">
        <ele>340.8</ele>
        <time>2015-05-10T08:42:02.590Z</time>
      </trkpt>
      <trkpt lat="47.21472" lon="5.98357">
        <ele>343</ele>
        <time>2015-05-10T08:42:10.590Z</time>
      </trkpt>
      <trkpt lat="47.21462" lon="5.98353">
        <ele>345</ele>
        <time>2015-05-10T08:42:17.590Z</time>
      </trkpt>
      <trkpt lat="47.21452" lon="5.98349">
        <ele>346</ele>
        <time>2015-05-10T08:42:24.590Z</time>
      </trkpt>
      <trkpt lat="47.21442" lon="5.98343">
        <ele>348</ele>
        <time>2015-05-10T08:42:32.590Z</time>
      </trkpt>
      <trkpt lat="47.21433" lon="5.98336">
        <ele>350</ele>
        <time>2015-05-10T08:42:39.590Z</time>
      </trkpt>
      <trkpt lat="47.21424" lon="5.98331">
        <ele>351</ele>
        <time>2015-05-10T08:42:47.590Z</time>
      </trkpt>
      <trkpt lat="47.21413" lon="5.98323">
        <ele>353</ele>
        <time>2015-05-10T08:42:55.590Z</time>
      </trkpt>
      <trkpt lat="47.21404" lon="5.98318">
        <ele>354</ele>
        <time>2015-05-10T08:43:01.590Z</time>
      </trkpt>
      <trkpt lat="47.21395" lon="5.98312">
        <ele>357</ele>
        <time>2015-05-10T08:43:07.590Z</time>
      </trkpt>
      <trkpt lat="47.21385" lon="5.98306">
        <ele>360</ele>
        <time>2015-05-10T08:43:15.590Z</time>
      </trkpt>
      <trkpt lat="47.21376" lon="5.98299">
        <ele>362</ele>
        <time>2015-05-10T08:43:28.590Z</time>
      </trkpt>
      <trkpt lat="47.21367" lon="5.98291">
        <ele>363</ele>
        <time>2015-05-10T08:43:36.590Z</time>
      </trkpt>
      <trkpt lat="47.21357" lon="5.98284">
        <ele>366</ele>
        <time>2015-05-10T08:43:44.590Z</time>
      </trkpt>
      <trkpt lat="47.21347" lon="5.98278">
        <ele>368</ele>
        <time>2015-05-10T08:43:51.590Z</time>
      </trkpt>
      <trkpt lat="47.21337" lon="5.98272">
        <ele>370</ele>
        <time>2015-05-10T08:43:58.590Z</time>
      </trkpt>
      <trkpt lat="47.21328" lon="5.98266">
        <ele>373</ele>
        <time>2015-05-10T08:44:08.590Z</time>
      </trkpt>
      <trkpt lat="47.21319" lon="5.9826">
        <ele>373</ele>
        <time>2015-05-10T08:44:14.590Z</time>
      </trkpt>
      <trkpt lat="47.21308" lon="5.98255">
        <ele>376</ele>
        <time>2015-05-10T08:44:23.590Z</time>
      </trkpt>
      <trkpt lat="47.21299" lon="5.9825">
        <ele>376</ele>
        <time>2015-05-10T08:44:30.590Z</time>
      </trkpt>
      <trkpt lat="47.21289" lon="5.98242">
        <ele>378</ele>
        <time>2015-05-10T08:44:39.590Z</time>
      </trkpt>
      <trkpt lat="47.2128" lon="5.98235">
        <ele>380</ele>
        <time>2015-05-10T08:44:48.590Z</time>
      </trkpt>
      <trkpt lat="47.2127" lon="5.98229">
        <ele>383.8</ele>
        <time>2015-05-10T08:44:57.590Z</time>
      </trkpt>
      <trkpt lat="47.2126" lon="5.98224">
        <ele>386</ele>
        <time>2015-05-10T08:45:04.590Z</time>
      </trkpt>
      <trkpt lat="47.2125" lon="5.98219">
        <ele>387.8</ele>
        <time>2015-05-10T08:45:10.590Z</time>
      </trkpt>
      <trkpt lat="47.21239" lon="5.98214">
        <ele>389.8</ele>
        <time>2015-05-10T08:45:17.590Z</time>
      </trkpt>
      <trkpt lat="47.21229" lon="5.9821">
        <ele>390</ele>
        <time>2015-05-10T08:45:24.690Z</time>
      </trkpt>
      <trkpt lat="47.21219" lon="5.98204">
        <ele>391.8999936</ele>
        <time>2015-05-10T08:45:32.690Z</time>
      </trkpt>
      <trkpt lat="47.21208" lon="5.98198">
        <ele>393.8999936</ele>
        <time>2015-05-10T08:45:40.690Z</time>
      </trkpt>
      <trkpt lat="47.21199" lon="5.98192">
        <ele>396</ele>
        <time>2015-05-10T08:45:47.690Z</time>
      </trkpt>
      <trkpt lat="47.2119" lon="5.98185">
        <ele>399.8999936</ele>
        <time>2015-05-10T08:45:54.690Z</time>
      </trkpt>
      <trkpt lat="47.2118" lon="5.98181">
        <ele>402</ele>
        <time>2015-05-10T08:46:02.690Z</time>
      </trkpt>
      <trkpt lat="47.21169" lon="5.98179">
        <ele>405</ele>
        <time>2015-05-10T08:46:10.690Z</time>
      </trkpt>
      <trkpt lat="47.21158" lon="5.98176">
        <ele>408</ele>
        <time>2015-05-10T08:46:18.690Z</time>
      </trkpt>
      <trkpt lat="47.21147" lon="5.98174">
        <ele>410.9099904</ele>
        <time>2015-05-10T08:46:25.700Z</time>
      </trkpt>
      <trkpt lat="47.21137" lon="5.98172">
        <ele>413</ele>
        <time>2015-05-10T08:46:31.700Z</time>
      </trkpt>
      <trkpt lat="47.21126" lon="5.9817">
        <ele>417</ele>
        <time>2015-05-10T08:46:38.690Z</time>
      </trkpt>
      <trkpt lat="47.21115" lon="5.98167">
        <ele>419.8999936</ele>
        <time>2015-05-10T08:46:46.690Z</time>
      </trkpt>
      <trkpt lat="47.21104" lon="5.98163">
        <ele>421.8999936</ele>
        <time>2015-05-10T08:46:52.690Z</time>
      </trkpt>
      <trkpt lat="47.21093" lon="5.98159">
        <ele>423.8999936</ele>
        <time>2015-05-10T08:46:58.690Z</time>
      </trkpt>
      <trkpt lat="47.21082" lon="5.98157">
        <ele>424.8999936</ele>
        <time>2015-05-10T08:47:02.690Z</time>
      </trkpt>
      <trkpt lat="47.21071" lon="5.98153">
        <ele>426</ele>
        <time>2015-05-10T08:47:07.690Z</time>
      </trkpt>
      <trkpt lat="47.21061" lon="5.98149">
        <ele>427</ele>
        <time>2015-05-10T08:47:11.690Z</time>
      </trkpt>
      <trkpt lat="47.21051" lon="5.98144">
        <ele>428.8999936</ele>
        <time>2015-05-10T08:47:15.690Z</time>
      </trkpt>
      <trkpt lat="47.21038" lon="5.98139">
        <ele>429.8999936</ele>
        <time>2015-05-10T08:47:19.690Z</time>
      </trkpt>
      <trkpt lat="47.21028" lon="5.98135">
        <ele>430.8999936</ele>
        <time>2015-05-10T08:47:22.690Z</time>
      </trkpt>
      <trkpt lat="47.21016" lon="5.98133">
        <ele>432</ele>
        <time>2015-05-10T08:47:27.690Z</time>
      </trkpt>
      <trkpt lat="47.2101" lon="5.98146">
        <ele>435</ele>
        <time>2015-05-10T08:47:38.690Z</time>
      </trkpt>
      <trkpt lat="47.21011" lon="5.98163">
        <ele>436</ele>
        <time>2015-05-10T08:47:43.690Z</time>
      </trkpt>
      <trkpt lat="47.21006" lon="5.98178">
        <ele>438.8999936</ele>
        <time>2015-05-10T08:47:48.690Z</time>
      </trkpt>
      <trkpt lat="47.20998" lon="5.98187">
        <ele>440</ele>
        <time>2015-05-10T08:47:52.690Z</time>
      </trkpt>
      <trkpt lat="47.20989" lon="5.98197">
        <ele>442</ele>
        <time>2015-05-10T08:47:58.690Z</time>
      </trkpt>
      <trkpt lat="47.20983" lon="5.9821">
        <ele>443</ele>
        <time>2015-05-10T08:48:05.690Z</time>
      </trkpt>
      <trkpt lat="47.20973" lon="5.98216">
        <ele>444</ele>
        <time>2015-05-10T08:48:11.690Z</time>
      </trkpt>
      <trkpt lat="47.20962" lon="5.98223">
        <ele>444.8999936</ele>
        <time>2015-05-10T08:48:16.690Z</time>
      </trkpt>
      <trkpt lat="47.20951" lon="5.98229">
        <ele>447</ele>
        <time>2015-05-10T08:48:21.690Z</time>
      </trkpt>
      <trkpt lat="47.2094" lon="5.98228">
        <ele>447</ele>
        <time>2015-05-10T08:48:25.590Z</time>
      </trkpt>
      <trkpt lat="47.2093" lon="5.98224">
        <ele>446</ele>
        <time>2015-05-10T08:48:30.590Z</time>
      </trkpt>
      <trkpt lat="47.20919" lon="5.98221">
        <ele>448.76</ele>
        <time>2015-05-10T08:48:37.590Z</time>
      </trkpt>
      <trkpt lat="47.20907" lon="5.98224">
        <ele>450</ele>
        <time>2015-05-10T08:48:44.590Z</time>
      </trkpt>
      <trkpt lat="47.20895" lon="5.98228">
        <ele>452.78350773941</ele>
        <time>2015-05-10T08:48:50.590Z</time>
      </trkpt>
      <trkpt lat="47.20884" lon="5.98229">
        <ele>453</ele>
        <time>2015-05-10T08:48:54.590Z</time>
      </trkpt>
      <trkpt lat="47.20873" lon="5.98235">
        <ele>455.75247763161</ele>
        <time>2015-05-10T08:48:59.590Z</time>
      </trkpt>
      <trkpt lat="47.20875" lon="5.9825">
        <ele>455</ele>
        <time>2015-05-10T08:49:06.590Z</time>
      </trkpt>
      <trkpt lat="47.20881" lon="5.98264">
        <ele>456</ele>
        <time>2015-05-10T08:49:10.590Z</time>
      </trkpt>
      <trkpt lat="47.20877" lon="5.98277">
        <ele>457</ele>
        <time>2015-05-10T08:49:13.590Z</time>
      </trkpt>
      <trkpt lat="47.2087" lon="5.98285">
        <ele>457.75757654117</ele>
        <time>2015-05-10T08:49:15.590Z</time>
      </trkpt>
      <trkpt lat="47.20861" lon="5.98296">
        <ele>458</ele>
        <time>2015-05-10T08:49:18.590Z</time>
      </trkpt>
      <trkpt lat="47.20854" lon="5.98308">
        <ele>459</ele>
        <time>2015-05-10T08:49:21.590Z</time>
      </trkpt>
      <trkpt lat="47.20855" lon="5.98322">
        <ele>458</ele>
        <time>2015-05-10T08:49:26.590Z</time>
      </trkpt>
      <trkpt lat="47.20861" lon="5.98338">
        <ele>458</ele>
        <time>2015-05-10T08:49:31.590Z</time>
      </trkpt>
      <trkpt lat="47.20866" lon="5.98351">
        <ele>458</ele>
        <time>2015-05-10T08:49:35.590Z</time>
      </trkpt>
      <trkpt lat="47.20867" lon="5.98366">
        <ele>458</ele>
        <time>2015-05-10T08:49:39.590Z</time>
      </trkpt>
      <trkpt lat="47.20859" lon="5.98376">
        <ele>458</ele>
        <time>2015-05-10T08:49:42.590Z</time>
      </trkpt>
      <trkpt lat="47.20848" lon="5.98385">
        <ele>458</ele>
        <time>2015-05-10T08:49:45.590Z</time>
      </trkpt>
      <trkpt lat="47.20839" lon="5.98392">
        <ele>458</ele>
        <time>2015-05-10T08:49:48.590Z</time>
      </trkpt>
      <trkpt lat="47.20831" lon="5.98401">
        <ele>458</ele>
        <time>2015-05-10T08:49:51.590Z</time>
      </trkpt>
      <trkpt lat="47.20821" lon="5.98406">
        <ele>458.5</ele>
        <time>2015-05-10T08:49:55.310Z</time>
      </trkpt>
      <trkpt lat="47.20812" lon="5.98396">
        <ele>458</ele>
        <time>2015-05-10T08:50:02.590Z</time>
      </trkpt>
      <trkpt lat="47.20802" lon="5.98391">
        <ele>458</ele>
        <time>2015-05-10T08:50:10.590Z</time>
      </trkpt>
      <trkpt lat="47.20795" lon="5.98404">
        <ele>458</ele>
        <time>2015-05-10T08:50:20.590Z</time>
      </trkpt>
      <trkpt lat="47.20791" lon="5.98419">
        <ele>456</ele>
        <time>2015-05-10T08:50:27.590Z</time>
      </trkpt>
      <trkpt lat="47.20782" lon="5.98431">
        <ele>454.2</ele>
        <time>2015-05-10T08:50:33.590Z</time>
      </trkpt>
      <trkpt lat="47.20772" lon="5.98439">
        <ele>452</ele>
        <time>2015-05-10T08:50:37.590Z</time>
      </trkpt>
      <trkpt lat="47.20761" lon="5.98434">
        <ele>451</ele>
        <time>2015-05-10T08:50:42.590Z</time>
      </trkpt>
      <trkpt lat="47.20751" lon="5.98422">
        <ele>451</ele>
        <time>2015-05-10T08:50:47.590Z</time>
      </trkpt>
      <trkpt lat="47.20742" lon="5.9841">
        <ele>451</ele>
        <time>2015-05-10T08:50:51.590Z</time>
      </trkpt>
      <trkpt lat="47.20734" lon="5.984">
        <ele>450</ele>
        <time>2015-05-10T08:50:55.590Z</time>
      </trkpt>
      <trkpt lat="47.20727" lon="5.98386">
        <ele>450</ele>
        <time>2015-05-10T08:50:59.590Z</time>
      </trkpt>
      <trkpt lat="47.20719" lon="5.98374">
        <ele>449</ele>
        <time>2015-05-10T08:51:03.590Z</time>
      </trkpt>
      <trkpt lat="47.20711" lon="5.98364">
        <ele>449.8</ele>
        <time>2015-05-10T08:51:07.590Z</time>
      </trkpt>
      <trkpt lat="47.20703" lon="5.98351">
        <ele>450</ele>
        <time>2015-05-10T08:51:12.590Z</time>
      </trkpt>
      <trkpt lat="47.20696" lon="5.98341">
        <ele>450</ele>
        <time>2015-05-10T08:51:16.590Z</time>
      </trkpt>
      <trkpt lat="47.20699" lon="5.98358">
        <ele>449</ele>
        <time>2015-05-10T08:51:34.590Z</time>
      </trkpt>
      <trkpt lat="47.20703" lon="5.98371">
        <ele>448</ele>
        <time>2015-05-10T08:51:37.590Z</time>
      </trkpt>
      <trkpt lat="47.20709" lon="5.98387">
        <ele>447</ele>
        <time>2015-05-10T08:51:41.590Z</time>
      </trkpt>
      <trkpt lat="47.20714" lon="5.98405">
        <ele>447</ele>
        <time>2015-05-10T08:51:45.590Z</time>
      </trkpt>
      <trkpt lat="47.20718" lon="5.98419">
        <ele>446</ele>
        <time>2015-05-10T08:51:48.590Z</time>
      </trkpt>
      <trkpt lat="47.20722" lon="5.98434">
        <ele>446</ele>
        <time>2015-05-10T08:51:51.590Z</time>
      </trkpt>
      <trkpt lat="47.20726" lon="5.98451">
        <ele>445</ele>
        <time>2015-05-10T08:51:55.590Z</time>
      </trkpt>
      <trkpt lat="47.20729" lon="5.98466">
        <ele>444</ele>
        <time>2015-05-10T08:51:59.590Z</time>
      </trkpt>
      <trkpt lat="47.20734" lon="5.98482">
        <ele>443</ele>
        <time>2015-05-10T08:52:03.590Z</time>
      </trkpt>
      <trkpt lat="47.20736" lon="5.98498">
        <ele>442.2</ele>
        <time>2015-05-10T08:52:07.590Z</time>
      </trkpt>
      <trkpt lat="47.20739" lon="5.98515">
        <ele>440</ele>
        <time>2015-05-10T08:52:12.690Z</time>
      </trkpt>
      <trkpt lat="47.20744" lon="5.98533">
        <ele>439</ele>
        <time>2015-05-10T08:52:16.700Z</time>
      </trkpt>
      <trkpt lat="47.20747" lon="5.98551">
        <ele>437.1000064</ele>
        <time>2015-05-10T08:52:20.690Z</time>
      </trkpt>
      <trkpt lat="47.2075" lon="5.98565">
        <ele>436</ele>
        <time>2015-05-10T08:52:23.690Z</time>
      </trkpt>
      <trkpt lat="47.20753" lon="5.98582">
        <ele>434</ele>
        <time>2015-05-10T08:52:27.690Z</time>
      </trkpt>
      <trkpt lat="47.20756" lon="5.98598">
        <ele>431.1000064</ele>
        <time>2015-05-10T08:52:31.690Z</time>
      </trkpt>
      <trkpt lat="47.20751" lon="5.98613">
        <ele>425.2000128</ele>
        <time>2015-05-10T08:52:35.690Z</time>
      </trkpt>
      <trkpt lat="47.20738" lon="5.98614">
        <ele>420.1000064</ele>
        <time>2015-05-10T08:52:39.690Z</time>
      </trkpt>
      <trkpt lat="47.20726" lon="5.98607">
        <ele>416.1000064</ele>
        <time>2015-05-10T08:52:43.690Z</time>
      </trkpt>
      <trkpt lat="47.20715" lon="5.98602">
        <ele>414.1000064</ele>
        <time>2015-05-10T08:52:46.690Z</time>
      </trkpt>
      <trkpt lat="47.20703" lon="5.98594">
        <ele>413.1000064</ele>
        <time>2015-05-10T08:52:49.690Z</time>
      </trkpt>
      <trkpt lat="47.20693" lon="5.98587">
        <ele>411.1000064</ele>
        <time>2015-05-10T08:52:52.690Z</time>
      </trkpt>
      <trkpt lat="47.20684" lon="5.98579">
        <ele>409.1000064</ele>
        <time>2015-05-10T08:52:55.690Z</time>
      </trkpt>
      <trkpt lat="47.20675" lon="5.98571">
        <ele>407.1000064</ele>
        <time>2015-05-10T08:52:58.690Z</time>
      </trkpt>
      <trkpt lat="47.20664" lon="5.98562">
        <ele>405.1000064</ele>
        <time>2015-05-10T08:53:02.690Z</time>
      </trkpt>
      <trkpt lat="47.20654" lon="5.98552">
        <ele>403.1000064</ele>
        <time>2015-05-10T08:53:06.690Z</time>
      </trkpt>
      <trkpt lat="47.20645" lon="5.9854">
        <ele>402</ele>
        <time>2015-05-10T08:53:10.690Z</time>
      </trkpt>
      <trkpt lat="47.20653" lon="5.98552">
        <ele>398</ele>
        <time>2015-05-10T08:53:18.690Z</time>
      </trkpt>
      <trkpt lat="47.20662" lon="5.98566">
        <ele>396.1000064</ele>
        <time>2015-05-10T08:53:21.690Z</time>
      </trkpt>
      <trkpt lat="47.20672" lon="5.9858">
        <ele>394</ele>
        <time>2015-05-10T08:53:24.690Z</time>
      </trkpt>
      <trkpt lat="47.20682" lon="5.98592">
        <ele>393</ele>
        <time>2015-05-10T08:53:27.690Z</time>
      </trkpt>
      <trkpt lat="47.20693" lon="5.98604">
        <ele>391.1000064</ele>
        <time>2015-05-10T08:53:30.690Z</time>
      </trkpt>
      <trkpt lat="47.207" lon="5.98618">
        <ele>390.8999936</ele>
        <time>2015-05-10T08:53:33.690Z</time>
      </trkpt>
      <trkpt lat="47.20706" lon="5.9863">
        <ele>390</ele>
        <time>2015-05-10T08:53:36.690Z</time>
      </trkpt>
      <trkpt lat="47.20713" lon="5.98644">
        <ele>388.1000064</ele>
        <time>2015-05-10T08:53:39.690Z</time>
      </trkpt>
      <trkpt lat="47.20719" lon="5.98658">
        <ele>387</ele>
        <time>2015-05-10T08:53:42.690Z</time>
      </trkpt>
      <trkpt lat="47.20726" lon="5.98671">
        <ele>386</ele>
        <time>2015-05-10T08:53:45.690Z</time>
      </trkpt>
      <trkpt lat="47.20734" lon="5.98684">
        <ele>385</ele>
        <time>2015-05-10T08:53:48.690Z</time>
      </trkpt>
      <trkpt lat="47.20742" lon="5.98699">
        <ele>383</ele>
        <time>2015-05-10T08:53:52.690Z</time>
      </trkpt>
      <trkpt lat="47.20749" lon="5.98711">
        <ele>382</ele>
        <time>2015-05-10T08:53:55.690Z</time>
      </trkpt>
      <trkpt lat="47.20757" lon="5.98724">
        <ele>381</ele>
        <time>2015-05-10T08:53:58.690Z</time>
      </trkpt>
      <trkpt lat="47.20765" lon="5.98735">
        <ele>379.20791828251</ele>
        <time>2015-05-10T08:54:01.590Z</time>
      </trkpt>
      <trkpt lat="47.20774" lon="5.98748">
        <ele>378</ele>
        <time>2015-05-10T08:54:04.690Z</time>
      </trkpt>
      <trkpt lat="47.20781" lon="5.98762">
        <ele>377</ele>
        <time>2015-05-10T08:54:07.690Z</time>
      </trkpt>
      <trkpt lat="47.20784" lon="5.98777">
        <ele>376</ele>
        <time>2015-05-10T08:54:11.690Z</time>
      </trkpt>
      <trkpt lat="47.20772" lon="5.98782">
        <ele>374.1000064</ele>
        <time>2015-05-10T08:54:14.690Z</time>
      </trkpt>
      <trkpt lat="47.20761" lon="5.98783">
        <ele>372.1000064</ele>
        <time>2015-05-10T08:54:17.690Z</time>
      </trkpt>
      <trkpt lat="47.2075" lon="5.9878">
        <ele>364.1000064</ele>
        <time>2015-05-10T08:54:28.690Z</time>
      </trkpt>
      <trkpt lat="47.20755" lon="5.98795">
        <ele>360</ele>
        <time>2015-05-10T08:54:37.690Z</time>
      </trkpt>
      <trkpt lat="47.20759" lon="5.9881">
        <ele>359</ele>
        <time>2015-05-10T08:54:43.690Z</time>
      </trkpt>
      <trkpt lat="47.2076" lon="5.98825">
        <ele>355.1000064</ele>
        <time>2015-05-10T08:54:48.690Z</time>
      </trkpt>
      <trkpt lat="47.2075" lon="5.9883">
        <ele>353.1000064</ele>
        <time>2015-05-10T08:54:52.690Z</time>
      </trkpt>
      <trkpt lat="47.20739" lon="5.98831">
        <ele>350.1000064</ele>
        <time>2015-05-10T08:54:56.690Z</time>
      </trkpt>
      <trkpt lat="47.20735" lon="5.98844">
        <ele>345.1000064</ele>
        <time>2015-05-10T08:55:06.690Z</time>
      </trkpt>
      <trkpt lat="47.20725" lon="5.9884">
        <ele>342.1000064</ele>
        <time>2015-05-10T08:55:11.690Z</time>
      </trkpt>
      <trkpt lat="47.20723" lon="5.98854">
        <ele>335.1000064</ele>
        <time>2015-05-10T08:55:26.690Z</time>
      </trkpt>
      <trkpt lat="47.20715" lon="5.98864">
        <ele>332.1000064</ele>
        <time>2015-05-10T08:55:32.690Z</time>
      </trkpt>
      <trkpt lat="47.20705" lon="5.98868">
        <ele>323.1000064</ele>
        <time>2015-05-10T08:55:45.690Z</time>
      </trkpt>
      <trkpt lat="47.207" lon="5.98881">
        <ele>316.1000064</ele>
        <time>2015-05-10T08:55:58.690Z</time>
      </trkpt>
      <trkpt lat="47.20695" lon="5.98894">
        <ele>312</ele>
        <time>2015-05-10T08:56:07.690Z</time>
      </trkpt>
      <trkpt lat="47.20683" lon="5.98892">
        <ele>311</ele>
        <time>2015-05-10T08:56:11.690Z</time>
      </trkpt>
      <trkpt lat="47.20672" lon="5.98888">
        <ele>309.1000064</ele>
        <time>2015-05-10T08:56:15.690Z</time>
      </trkpt>
      <trkpt lat="47.2066" lon="5.98885">
        <ele>307</ele>
        <time>2015-05-10T08:56:20.690Z</time>
      </trkpt>
      <trkpt lat="47.20649" lon="5.98883">
        <ele>302.3000192</ele>
        <time>2015-05-10T08:56:25.690Z</time>
      </trkpt>
      <trkpt lat="47.20639" lon="5.98894">
        <ele>297.2000128</ele>
        <time>2015-05-10T08:56:29.690Z</time>
      </trkpt>
      <trkpt lat="47.20631" lon="5.98905">
        <ele>292.24</ele>
        <time>2015-05-10T08:56:33.590Z</time>
      </trkpt>
      <trkpt lat="47.20622" lon="5.98915">
        <ele>287.24</ele>
        <time>2015-05-10T08:56:37.590Z</time>
      </trkpt>
      <trkpt lat="47.20614" lon="5.98924">
        <ele>284.24</ele>
        <time>2015-05-10T08:56:40.590Z</time>
      </trkpt>
      <trkpt lat="47.20606" lon="5.98935">
        <ele>282.24</ele>
        <time>2015-05-10T08:56:43.590Z</time>
      </trkpt>
      <trkpt lat="47.20599" lon="5.98945">
        <ele>278.24</ele>
        <time>2015-05-10T08:56:46.590Z</time>
      </trkpt>
      <trkpt lat="47.20592" lon="5.98955">
        <ele>274.24</ele>
        <time>2015-05-10T08:56:49.590Z</time>
      </trkpt>
      <trkpt lat="47.20583" lon="5.98966">
        <ele>271.24</ele>
        <time>2015-05-10T08:56:53.590Z</time>
      </trkpt>
      <trkpt lat="47.20573" lon="5.98969">
        <ele>266.20833333333</ele>
        <time>2015-05-10T08:56:57.590Z</time>
      </trkpt>
      <trkpt lat="47.20564" lon="5.98957">
        <ele>264</ele>
        <time>2015-05-10T08:57:01.590Z</time>
      </trkpt>
      <trkpt lat="47.20552" lon="5.98952">
        <ele>261.20833333333</ele>
        <time>2015-05-10T08:57:06.590Z</time>
      </trkpt>
      <trkpt lat="47.20543" lon="5.98964">
        <ele>258</ele>
        <time>2015-05-10T08:57:11.590Z</time>
      </trkpt>
      <trkpt lat="47.20537" lon="5.98976">
        <ele>255.24</ele>
        <time>2015-05-10T08:57:14.590Z</time>
      </trkpt>
      <trkpt lat="47.20531" lon="5.98987">
        <ele>253.24</ele>
        <time>2015-05-10T08:57:17.590Z</time>
      </trkpt>
      <trkpt lat="47.20523" lon="5.98999">
        <ele>252</ele>
        <time>2015-05-10T08:57:21.590Z</time>
      </trkpt>
      <trkpt lat="47.20515" lon="5.99012">
        <ele>250</ele>
        <time>2015-05-10T08:57:25.590Z</time>
      </trkpt>
      <trkpt lat="47.20507" lon="5.99026">
        <ele>248.24</ele>
        <time>2015-05-10T08:57:29.590Z</time>
      </trkpt>
      <trkpt lat="47.205" lon="5.99039">
        <ele>247</ele>
        <time>2015-05-10T08:57:32.590Z</time>
      </trkpt>
      <trkpt lat="47.20493" lon="5.9905">
        <ele>246.24</ele>
        <time>2015-05-10T08:57:35.590Z</time>
      </trkpt>
      <trkpt lat="47.20485" lon="5.9906">
        <ele>246</ele>
        <time>2015-05-10T08:57:38.590Z</time>
      </trkpt>
      <trkpt lat="47.20473" lon="5.9906">
        <ele>246</ele>
        <time>2015-05-10T08:57:41.590Z</time>
      </trkpt>
      <trkpt lat="47.20463" lon="5.99051">
        <ele>245</ele>
        <time>2015-05-10T08:57:44.590Z</time>
      </trkpt>
      <trkpt lat="47.20454" lon="5.99042">
        <ele>245</ele>
        <time>2015-05-10T08:57:47.590Z</time>
      </trkpt>
      <trkpt lat="47.20446" lon="5.99032">
        <ele>244</ele>
        <time>2015-05-10T08:57:50.590Z</time>
      </trkpt>
      <trkpt lat="47.20438" lon="5.99024">
        <ele>244</ele>
        <time>2015-05-10T08:57:53.590Z</time>
      </trkpt>
      <trkpt lat="47.20427" lon="5.99013">
        <ele>243.21649226059</ele>
        <time>2015-05-10T08:57:57.590Z</time>
      </trkpt>
      <trkpt lat="47.20418" lon="5.99005">
        <ele>243</ele>
        <time>2015-05-10T08:58:00.590Z</time>
      </trkpt>
      <trkpt lat="47.2041" lon="5.98996">
        <ele>243</ele>
        <time>2015-05-10T08:58:03.590Z</time>
      </trkpt>
      <trkpt lat="47.20404" lon="5.9899">
        <ele>243</ele>
        <time>2015-05-10T08:58:05.590Z</time>
      </trkpt>
      <trkpt lat="47.20398" lon="5.98985">
        <ele>243</ele>
        <time>2015-05-10T08:58:07.790Z</time>
      </trkpt>
      <trkpt lat="47.20389" lon="5.98978">
        <ele>242</ele>
        <time>2015-05-10T08:58:10.590Z</time>
      </trkpt>
      <trkpt lat="47.2038" lon="5.9897">
        <ele>242.23300898483</ele>
        <time>2015-05-10T08:58:13.590Z</time>
      </trkpt>
      <trkpt lat="47.20371" lon="5.98957">
        <ele>242</ele>
        <time>2015-05-10T08:58:17.590Z</time>
      </trkpt>
      <trkpt lat="47.20366" lon="5.9895">
        <ele>242</ele>
        <time>2015-05-10T08:58:19.590Z</time>
      </trkpt>
      <trkpt lat="47.2036" lon="5.98941">
        <ele>241</ele>
        <time>2015-05-10T08:58:22.590Z</time>
      </trkpt>
      <trkpt lat="47.20353" lon="5.98931">
        <ele>241</ele>
        <time>2015-05-10T08:58:25.590Z</time>
      </trkpt>
      <trkpt lat="47.20344" lon="5.98919">
        <ele>240.24</ele>
        <time>2015-05-10T08:58:29.590Z</time>
      </trkpt>
      <trkpt lat="47.20334" lon="5.98906">
        <ele>241</ele>
        <time>2015-05-10T08:58:33.590Z</time>
      </trkpt>
      <trkpt lat="47.20325" lon="5.98893">
        <ele>241</ele>
        <time>2015-05-10T08:58:37.590Z</time>
      </trkpt>
      <trkpt lat="47.20317" lon="5.98882">
        <ele>241</ele>
        <time>2015-05-10T08:58:40.590Z</time>
      </trkpt>
      <trkpt lat="47.20308" lon="5.98869">
        <ele>242</ele>
        <time>2015-05-10T08:58:44.590Z</time>
      </trkpt>
      <trkpt lat="47.20301" lon="5.98857">
        <ele>241.1000064</ele>
        <time>2015-05-10T08:58:47.690Z</time>
      </trkpt>
      <trkpt lat="47.20294" lon="5.98847">
        <ele>242</ele>
        <time>2015-05-10T08:58:50.690Z</time>
      </trkpt>
      <trkpt lat="47.20286" lon="5.98838">
        <ele>242</ele>
        <time>2015-05-10T08:58:53.690Z</time>
      </trkpt>
      <trkpt lat="47.20278" lon="5.98828">
        <ele>242</ele>
        <time>2015-05-10T08:58:56.690Z</time>
      </trkpt>
      <trkpt lat="47.2027" lon="5.98821">
        <ele>242</ele>
        <time>2015-05-10T08:58:59.690Z</time>
      </trkpt>
      <trkpt lat="47.20262" lon="5.98812">
        <ele>242</ele>
        <time>2015-05-10T08:59:02.690Z</time>
      </trkpt>
      <trkpt lat="47.20252" lon="5.98802">
        <ele>241.1000064</ele>
        <time>2015-05-10T08:59:06.690Z</time>
      </trkpt>
      <trkpt lat="47.20243" lon="5.98791">
        <ele>241</ele>
        <time>2015-05-10T08:59:09.690Z</time>
      </trkpt>
      <trkpt lat="47.20236" lon="5.98781">
        <ele>241</ele>
        <time>2015-05-10T08:59:12.690Z</time>
      </trkpt>
      <trkpt lat="47.20228" lon="5.98771">
        <ele>241</ele>
        <time>2015-05-10T08:59:15.690Z</time>
      </trkpt>
      <trkpt lat="47.2022" lon="5.98762">
        <ele>241</ele>
        <time>2015-05-10T08:59:18.690Z</time>
      </trkpt>
      <trkpt lat="47.20212" lon="5.98759">
        <ele>240.8999936</ele>
        <time>2015-05-10T08:59:22.690Z</time>
      </trkpt>
      <trkpt lat="47.20204" lon="5.98753">
        <ele>240</ele>
        <time>2015-05-10T08:59:25.690Z</time>
      </trkpt>
      <trkpt lat="47.20196" lon="5.98744">
        <ele>240.1000064</ele>
        <time>2015-05-10T08:59:28.690Z</time>
      </trkpt>
      <trkpt lat="47.20191" lon="5.98738">
        <ele>241</ele>
        <time>2015-05-10T08:59:30.690Z</time>
      </trkpt>
      <trkpt lat="47.20184" lon="5.98729">
        <ele>241</ele>
        <time>2015-05-10T08:59:33.690Z</time>
      </trkpt>
      <trkpt lat="47.20178" lon="5.98722">
        <ele>241</ele>
        <time>2015-05-10T08:59:35.690Z</time>
      </trkpt>
      <trkpt lat="47.20173" lon="5.98716">
        <ele>241</ele>
        <time>2015-05-10T08:59:37.690Z</time>
      </trkpt>
      <trkpt lat="47.20168" lon="5.98709">
        <ele>240.1000064</ele>
        <time>2015-05-10T08:59:39.690Z</time>
      </trkpt>
      <trkpt lat="47.20163" lon="5.98702">
        <ele>241</ele>
        <time>2015-05-10T08:59:41.690Z</time>
      </trkpt>
      <trkpt lat="47.20159" lon="5.98694">
        <ele>241</ele>
        <time>2015-05-10T08:59:43.690Z</time>
      </trkpt>
      <trkpt lat="47.20155" lon="5.98687">
        <ele>241</ele>
        <time>2015-05-10T08:59:45.690Z</time>
      </trkpt>
      <trkpt lat="47.20151" lon="5.98679">
        <ele>241</ele>
        <time>2015-05-10T08:59:47.690Z</time>
      </trkpt>
      <trkpt lat="47.20147" lon="5.98671">
        <ele>241</ele>
        <time>2015-05-10T08:59:49.690Z</time>
      </trkpt>
      <trkpt lat="47.20144" lon="5.98663">
        <ele>241</ele>
        <time>2015-05-10T08:59:51.590Z</time>
      </trkpt>
      <trkpt lat="47.20142" lon="5.98654">
        <ele>241</ele>
        <time>2015-05-10T08:59:53.690Z</time>
      </trkpt>
      <trkpt lat="47.20139" lon="5.98644">
        <ele>241</ele>
        <time>2015-05-10T08:59:55.690Z</time>
      </trkpt>
      <trkpt lat="47.20136" lon="5.98635">
        <ele>241</ele>
        <time>2015-05-10T08:59:57.690Z</time>
      </trkpt>
      <trkpt lat="47.20133" lon="5.98627">
        <ele>241</ele>
        <time>2015-05-10T08:59:59.690Z</time>
      </trkpt>
      <trkpt lat="47.2013" lon="5.98618">
        <ele>240</ele>
        <time>2015-05-10T09:00:01.590Z</time>
      </trkpt>
      <trkpt lat="47.20127" lon="5.98608">
        <ele>240</ele>
        <time>2015-05-10T09:00:03.590Z</time>
      </trkpt>
      <trkpt lat="47.20124" lon="5.98599">
        <ele>240</ele>
        <time>2015-05-10T09:00:05.590Z</time>
      </trkpt>
      <trkpt lat="47.20122" lon="5.98589">
        <ele>240</ele>
        <time>2015-05-10T09:00:07.590Z</time>
      </trkpt>
      <trkpt lat="47.20118" lon="5.98575">
        <ele>240</ele>
        <time>2015-05-10T09:00:10.590Z</time>
      </trkpt>
      <trkpt lat="47.20115" lon="5.98561">
        <ele>240</ele>
        <time>2015-05-10T09:00:13.590Z</time>
      </trkpt>
      <trkpt lat="47.20111" lon="5.9855">
        <ele>240</ele>
        <time>2015-05-10T09:00:16.590Z</time>
      </trkpt>
      <trkpt lat="47.20107" lon="5.98536">
        <ele>239.2</ele>
        <time>2015-05-10T09:00:19.590Z</time>
      </trkpt>
      <trkpt lat="47.20103" lon="5.98523">
        <ele>239.2</ele>
        <time>2015-05-10T09:00:22.590Z</time>
      </trkpt>
      <trkpt lat="47.20099" lon="5.98509">
        <ele>240</ele>
        <time>2015-05-10T09:00:25.590Z</time>
      </trkpt>
      <trkpt lat="47.20095" lon="5.98496">
        <ele>240</ele>
        <time>2015-05-10T09:00:28.590Z</time>
      </trkpt>
      <trkpt lat="47.20091" lon="5.98482">
        <ele>240</ele>
        <time>2015-05-10T09:00:31.590Z</time>
      </trkpt>
      <trkpt lat="47.20086" lon="5.9847">
        <ele>239</ele>
        <time>2015-05-10T09:00:34.590Z</time>
      </trkpt>
      <trkpt lat="47.2008" lon="5.98458">
        <ele>239</ele>
        <time>2015-05-10T09:00:37.590Z</time>
      </trkpt>
      <trkpt lat="47.20075" lon="5.98446">
        <ele>239</ele>
        <time>2015-05-10T09:00:40.590Z</time>
      </trkpt>
      <trkpt lat="47.20068" lon="5.98435">
        <ele>239</ele>
        <time>2015-05-10T09:00:43.590Z</time>
      </trkpt>
      <trkpt lat="47.20063" lon="5.98423">
        <ele>239</ele>
        <time>2015-05-10T09:00:46.590Z</time>
      </trkpt>
      <trkpt lat="47.20057" lon="5.98412">
        <ele>239.8999936</ele>
        <time>2015-05-10T09:00:49.690Z</time>
      </trkpt>
      <trkpt lat="47.20052" lon="5.984">
        <ele>240</ele>
        <time>2015-05-10T09:00:52.690Z</time>
      </trkpt>
      <trkpt lat="47.20047" lon="5.98388">
        <ele>240</ele>
        <time>2015-05-10T09:00:55.690Z</time>
      </trkpt>
      <trkpt lat="47.20042" lon="5.98375">
        <ele>241</ele>
        <time>2015-05-10T09:00:58.690Z</time>
      </trkpt>
      <trkpt lat="47.20037" lon="5.98362">
        <ele>241</ele>
        <time>2015-05-10T09:01:01.690Z</time>
      </trkpt>
      <trkpt lat="47.2003" lon="5.98346">
        <ele>241</ele>
        <time>2015-05-10T09:01:05.690Z</time>
      </trkpt>
      <trkpt lat="47.20024" lon="5.98333">
        <ele>241</ele>
        <time>2015-05-10T09:01:08.690Z</time>
      </trkpt>
      <trkpt lat="47.20017" lon="5.98321">
        <ele>240</ele>
        <time>2015-05-10T09:01:11.690Z</time>
      </trkpt>
      <trkpt lat="47.20011" lon="5.98311">
        <ele>241</ele>
        <time>2015-05-10T09:01:14.690Z</time>
      </trkpt>
      <trkpt lat="47.20005" lon="5.98297">
        <ele>241</ele>
        <time>2015-05-10T09:01:18.690Z</time>
      </trkpt>
      <trkpt lat="47.19999" lon="5.98284">
        <ele>241</ele>
        <time>2015-05-10T09:01:21.690Z</time>
      </trkpt>
      <trkpt lat="47.19993" lon="5.9827">
        <ele>242</ele>
        <time>2015-05-10T09:01:24.690Z</time>
      </trkpt>
      <trkpt lat="47.19989" lon="5.98256">
        <ele>242</ele>
        <time>2015-05-10T09:01:27.690Z</time>
      </trkpt>
      <trkpt lat="47.19984" lon="5.98241">
        <ele>242</ele>
        <time>2015-05-10T09:01:30.690Z</time>
      </trkpt>
      <trkpt lat="47.1998" lon="5.98227">
        <ele>243</ele>
        <time>2015-05-10T09:01:33.690Z</time>
      </trkpt>
      <trkpt lat="47.19977" lon="5.98209">
        <ele>243</ele>
        <time>2015-05-10T09:01:37.690Z</time>
      </trkpt>
      <trkpt lat="47.19977" lon="5.98194">
        <ele>243</ele>
        <time>2015-05-10T09:01:40.690Z</time>
      </trkpt>
      <trkpt lat="47.19976" lon="5.98178">
        <ele>243</ele>
        <time>2015-05-10T09:01:43.690Z</time>
      </trkpt>
      <trkpt lat="47.19976" lon="5.98163">
        <ele>244</ele>
        <time>2015-05-10T09:01:46.690Z</time>
      </trkpt>
      <trkpt lat="47.19976" lon="5.98147">
        <ele>244</ele>
        <time>2015-05-10T09:01:50.690Z</time>
      </trkpt>
      <trkpt lat="47.19975" lon="5.98129">
        <ele>243.8999936</ele>
        <time>2015-05-10T09:01:54.690Z</time>
      </trkpt>
      <trkpt lat="47.19975" lon="5.98109">
        <ele>244</ele>
        <time>2015-05-10T09:01:58.700Z</time>
      </trkpt>
      <trkpt lat="47.19977" lon="5.98095">
        <ele>243</ele>
        <time>2015-05-10T09:02:01.700Z</time>
      </trkpt>
      <trkpt lat="47.1998" lon="5.98076">
        <ele>243</ele>
        <time>2015-05-10T09:02:05.690Z</time>
      </trkpt>
      <trkpt lat="47.19981" lon="5.98058">
        <ele>243</ele>
        <time>2015-05-10T09:02:09.690Z</time>
      </trkpt>
      <trkpt lat="47.19983" lon="5.98043">
        <ele>242</ele>
        <time>2015-05-10T09:02:12.690Z</time>
      </trkpt>
      <trkpt lat="47.19985" lon="5.98024">
        <ele>242</ele>
        <time>2015-05-10T09:02:16.690Z</time>
      </trkpt>
      <trkpt lat="47.19988" lon="5.98007">
        <ele>243</ele>
        <time>2015-05-10T09:02:20.690Z</time>
      </trkpt>
      <trkpt lat="47.19996" lon="5.97997">
        <ele>244</ele>
        <time>2015-05-10T09:02:24.690Z</time>
      </trkpt>
      <trkpt lat="47.20006" lon="5.97996">
        <ele>244</ele>
        <time>2015-05-10T09:02:27.690Z</time>
      </trkpt>
      <trkpt lat="47.20017" lon="5.97996">
        <ele>244</ele>
        <time>2015-05-10T09:02:31.690Z</time>
      </trkpt>
      <trkpt lat="47.20028" lon="5.98001">
        <ele>244</ele>
        <time>2015-05-10T09:02:35.690Z</time>
      </trkpt>
      <trkpt lat="47.20036" lon="5.9801">
        <ele>244</ele>
        <time>2015-05-10T09:02:39.690Z</time>
      </trkpt>
      <trkpt lat="47.20046" lon="5.98012">
        <ele>246</ele>
        <time>2015-05-10T09:02:51.690Z</time>
      </trkpt>
      <trkpt lat="47.20056" lon="5.98011">
        <ele>251</ele>
        <time>2015-05-10T09:03:07.690Z</time>
      </trkpt>
      <trkpt lat="47.20058" lon="5.98027">
        <ele>252</ele>
        <time>2015-05-10T09:03:15.690Z</time>
      </trkpt>
      <trkpt lat="47.20057" lon="5.98043">
        <ele>253</ele>
        <time>2015-05-10T09:03:20.690Z</time>
      </trkpt>
      <trkpt lat="47.20059" lon="5.98059">
        <ele>254</ele>
        <time>2015-05-10T09:03:28.690Z</time>
      </trkpt>
      <trkpt lat="47.20059" lon="5.98074">
        <ele>255.8999936</ele>
        <time>2015-05-10T09:03:36.690Z</time>
      </trkpt>
      <trkpt lat="47.20061" lon="5.9809">
        <ele>256</ele>
        <time>2015-05-10T09:03:43.690Z</time>
      </trkpt>
      <trkpt lat="47.20066" lon="5.981">
        <ele>255.8999936</ele>
        <time>2015-05-10T09:03:48.690Z</time>
      </trkpt>
      <trkpt lat="47.20071" lon="5.98114">
        <ele>256</ele>
        <time>2015-05-10T09:03:55.690Z</time>
      </trkpt>
      <trkpt lat="47.20078" lon="5.98126">
        <ele>258</ele>
        <time>2015-05-10T09:04:06.690Z</time>
      </trkpt>
      <trkpt lat="47.20088" lon="5.9813">
        <ele>259</ele>
        <time>2015-05-10T09:04:16.690Z</time>
      </trkpt>
      <trkpt lat="47.20098" lon="5.98132">
        <ele>261</ele>
        <time>2015-05-10T09:04:31.690Z</time>
      </trkpt>
      <trkpt lat="47.20108" lon="5.98137">
        <ele>263</ele>
        <time>2015-05-10T09:04:42.690Z</time>
      </trkpt>
      <trkpt lat="47.20115" lon="5.98146">
        <ele>265</ele>
        <time>2015-05-10T09:04:48.690Z</time>
      </trkpt>
      <trkpt lat="47.20125" lon="5.98141">
        <ele>269</ele>
        <time>2015-05-10T09:04:58.690Z</time>
      </trkpt>
      <trkpt lat="47.20133" lon="5.98134">
        <ele>273.8999936</ele>
        <time>2015-05-10T09:05:10.690Z</time>
      </trkpt>
      <trkpt lat="47.20135" lon="5.98122">
        <ele>277.76923076923</ele>
        <time>2015-05-10T09:05:20.590Z</time>
      </trkpt>
      <trkpt lat="47.20138" lon="5.98109">
        <ele>281</ele>
        <time>2015-05-10T09:05:30.590Z</time>
      </trkpt>
      <trkpt lat="47.20138" lon="5.98094">
        <ele>284.76923076923</ele>
        <time>2015-05-10T09:05:38.590Z</time>
      </trkpt>
      <trkpt lat="47.20137" lon="5.9808">
        <ele>287.76</ele>
        <time>2015-05-10T09:05:48.590Z</time>
      </trkpt>
      <trkpt lat="47.20136" lon="5.98065">
        <ele>290.76</ele>
        <time>2015-05-10T09:05:58.590Z</time>
      </trkpt>
      <trkpt lat="47.20137" lon="5.98048">
        <ele>295</ele>
        <time>2015-05-10T09:06:09.590Z</time>
      </trkpt>
      <trkpt lat="47.20138" lon="5.98033">
        <ele>297</ele>
        <time>2015-05-10T09:06:17.590Z</time>
      </trkpt>
      <trkpt lat="47.20134" lon="5.98018">
        <ele>299</ele>
        <time>2015-05-10T09:06:25.590Z</time>
      </trkpt>
      <trkpt lat="47.20133" lon="5.98002">
        <ele>300.76</ele>
        <time>2015-05-10T09:06:32.590Z</time>
      </trkpt>
      <trkpt lat="47.20134" lon="5.97987">
        <ele>304</ele>
        <time>2015-05-10T09:06:43.590Z</time>
      </trkpt>
      <trkpt lat="47.20142" lon="5.97979">
        <ele>309</ele>
        <time>2015-05-10T09:07:00.590Z</time>
      </trkpt>
      <trkpt lat="47.2015" lon="5.97973">
        <ele>312.76</ele>
        <time>2015-05-10T09:07:16.590Z</time>
      </trkpt>
      <trkpt lat="47.20159" lon="5.9797">
        <ele>318</ele>
        <time>2015-05-10T09:07:32.590Z</time>
      </trkpt>
      <trkpt lat="47.2016" lon="5.97969">
        <ele>319</ele>
        <time>2015-05-10T09:07:37.990Z</time>
      </trkpt>
      <trkpt lat="47.2017" lon="5.97965">
        <ele>325</ele>
        <time>2015-05-10T09:07:59.270Z</time>
      </trkpt>
      <trkpt lat="47.20172" lon="5.97965">
        <ele>326</ele>
        <time>2015-05-10T09:08:03.990Z</time>
      </trkpt>
      <trkpt lat="47.20176" lon="5.97965">
        <ele>328</ele>
        <time>2015-05-10T09:08:11.260Z</time>
      </trkpt>
      <trkpt lat="47.20179" lon="5.97964">
        <ele>330</ele>
        <time>2015-05-10T09:08:17.990Z</time>
      </trkpt>
      <trkpt lat="47.20187" lon="5.97959">
        <ele>336</ele>
        <time>2015-05-10T09:08:36.470Z</time>
      </trkpt>
      <trkpt lat="47.20191" lon="5.97958">
        <ele>338</ele>
        <time>2015-05-10T09:08:44.590Z</time>
      </trkpt>
      <trkpt lat="47.20198" lon="5.97954">
        <ele>342</ele>
        <time>2015-05-10T09:08:55.790Z</time>
      </trkpt>
      <trkpt lat="47.202" lon="5.97953">
        <ele>343</ele>
        <time>2015-05-10T09:08:59.990Z</time>
      </trkpt>
      <trkpt lat="47.20249" lon="5.97929">
        <ele>374</ele>
        <time>2015-05-10T09:10:56.070Z</time>
      </trkpt>
      <trkpt lat="47.20251" lon="5.97928">
        <ele>375</ele>
        <time>2015-05-10T09:10:59.790Z</time>
      </trkpt>
      <trkpt lat="47.20261" lon="5.97928">
        <ele>380.99010214686</ele>
        <time>2015-05-10T09:11:17.790Z</time>
      </trkpt>
      <trkpt lat="47.20267" lon="5.97942">
        <ele>383.78125</ele>
        <time>2015-05-10T09:11:26.790Z</time>
      </trkpt>
      <trkpt lat="47.20275" lon="5.97946">
        <ele>387</ele>
        <time>2015-05-10T09:11:35.690Z</time>
      </trkpt>
      <trkpt lat="47.20285" lon="5.97951">
        <ele>389.8999936</ele>
        <time>2015-05-10T09:11:46.690Z</time>
      </trkpt>
      <trkpt lat="47.20294" lon="5.97957">
        <ele>390</ele>
        <time>2015-05-10T09:11:55.690Z</time>
      </trkpt>
      <trkpt lat="47.20303" lon="5.9796">
        <ele>393.9900032</ele>
        <time>2015-05-10T09:12:04.790Z</time>
      </trkpt>
      <trkpt lat="47.20313" lon="5.97963">
        <ele>396</ele>
        <time>2015-05-10T09:12:16.790Z</time>
      </trkpt>
      <trkpt lat="47.20322" lon="5.97963">
        <ele>398</ele>
        <time>2015-05-10T09:12:29.790Z</time>
      </trkpt>
      <trkpt lat="47.20328" lon="5.97952">
        <ele>399.0099968</ele>
        <time>2015-05-10T09:12:39.790Z</time>
      </trkpt>
      <trkpt lat="47.20324" lon="5.97941">
        <ele>402</ele>
        <time>2015-05-10T09:12:48.790Z</time>
      </trkpt>
      <trkpt lat="47.20317" lon="5.9793">
        <ele>403.9900032</ele>
        <time>2015-05-10T09:12:55.790Z</time>
      </trkpt>
      <trkpt lat="47.2031" lon="5.97918">
        <ele>405</ele>
        <time>2015-05-10T09:13:00.790Z</time>
      </trkpt>
      <trkpt lat="47.2031" lon="5.97903">
        <ele>407.9900032</ele>
        <time>2015-05-10T09:13:07.790Z</time>
      </trkpt>
      <trkpt lat="47.20316" lon="5.97899">
        <ele>411</ele>
        <time>2015-05-10T09:13:19.990Z</time>
      </trkpt>
      <trkpt lat="47.20325" lon="5.97894">
        <ele>414</ele>
        <time>2015-05-10T09:13:31.270Z</time>
      </trkpt>
      <trkpt lat="47.20327" lon="5.97894">
        <ele>414</ele>
        <time>2015-05-10T09:13:31.790Z</time>
      </trkpt>
      <trkpt lat="47.20336" lon="5.9789">
        <ele>418</ele>
        <time>2015-05-10T09:13:43.790Z</time>
      </trkpt>
      <trkpt lat="47.20345" lon="5.97884">
        <ele>423.9900032</ele>
        <time>2015-05-10T09:13:55.790Z</time>
      </trkpt>
      <trkpt lat="47.20354" lon="5.9788">
        <ele>428</ele>
        <time>2015-05-10T09:14:06.790Z</time>
      </trkpt>
      <trkpt lat="47.20362" lon="5.97877">
        <ele>432</ele>
        <time>2015-05-10T09:14:20.410Z</time>
      </trkpt>
      <trkpt lat="47.20371" lon="5.97873">
        <ele>435</ele>
        <time>2015-05-10T09:14:30.690Z</time>
      </trkpt>
      <trkpt lat="47.20381" lon="5.97869">
        <ele>439</ele>
        <time>2015-05-10T09:14:44.690Z</time>
      </trkpt>
      <trkpt lat="47.2039" lon="5.97865">
        <ele>443</ele>
        <time>2015-05-10T09:14:56.690Z</time>
      </trkpt>
      <trkpt lat="47.20399" lon="5.9786">
        <ele>446</ele>
        <time>2015-05-10T09:15:08.690Z</time>
      </trkpt>
      <trkpt lat="47.20408" lon="5.97857">
        <ele>451</ele>
        <time>2015-05-10T09:15:18.690Z</time>
      </trkpt>
      <trkpt lat="47.20417" lon="5.97853">
        <ele>453.8999936</ele>
        <time>2015-05-10T09:15:30.690Z</time>
      </trkpt>
      <trkpt lat="47.20427" lon="5.97851">
        <ele>459</ele>
        <time>2015-05-10T09:15:42.690Z</time>
      </trkpt>
      <trkpt lat="47.20436" lon="5.97845">
        <ele>462</ele>
        <time>2015-05-10T09:15:52.700Z</time>
      </trkpt>
      <trkpt lat="47.20445" lon="5.9784">
        <ele>464</ele>
        <time>2015-05-10T09:16:04.690Z</time>
      </trkpt>
      <trkpt lat="47.20456" lon="5.97837">
        <ele>466</ele>
        <time>2015-05-10T09:16:17.690Z</time>
      </trkpt>
      <trkpt lat="47.20463" lon="5.97838">
        <ele>472</ele>
        <time>2015-05-10T09:16:28.700Z</time>
      </trkpt>
      <trkpt lat="47.20463" lon="5.97838">
        <ele>472</ele>
        <time>2015-05-10T09:16:29.990Z</time>
      </trkpt>
      <trkpt lat="47.20463" lon="5.97833">
        <ele>474</ele>
        <time>2015-05-10T09:16:35.270Z</time>
      </trkpt>
      <trkpt lat="47.2046" lon="5.97827">
        <ele>475.9900032</ele>
        <time>2015-05-10T09:16:37.790Z</time>
      </trkpt>
      <trkpt lat="47.20456" lon="5.97815">
        <ele>478</ele>
        <time>2015-05-10T09:16:44.690Z</time>
      </trkpt>
      <trkpt lat="47.20452" lon="5.97803">
        <ele>479</ele>
        <time>2015-05-10T09:16:49.690Z</time>
      </trkpt>
      <trkpt lat="47.2045" lon="5.9779">
        <ele>480</ele>
        <time>2015-05-10T09:16:53.690Z</time>
      </trkpt>
      <trkpt lat="47.20454" lon="5.97775">
        <ele>481</ele>
        <time>2015-05-10T09:16:57.690Z</time>
      </trkpt>
      <trkpt lat="47.20461" lon="5.97762">
        <ele>482</ele>
        <time>2015-05-10T09:17:00.690Z</time>
      </trkpt>
      <trkpt lat="47.20468" lon="5.97754">
        <ele>483.8999936</ele>
        <time>2015-05-10T09:17:03.690Z</time>
      </trkpt>
      <trkpt lat="47.20475" lon="5.97759">
        <ele>484</ele>
        <time>2015-05-10T09:17:06.690Z</time>
      </trkpt>
      <trkpt lat="47.20484" lon="5.97766">
        <ele>484.8999936</ele>
        <time>2015-05-10T09:17:09.690Z</time>
      </trkpt>
      <trkpt lat="47.20493" lon="5.97769">
        <ele>485</ele>
        <time>2015-05-10T09:17:12.690Z</time>
      </trkpt>
      <trkpt lat="47.20503" lon="5.97773">
        <ele>485</ele>
        <time>2015-05-10T09:17:16.690Z</time>
      </trkpt>
      <trkpt lat="47.20513" lon="5.97767">
        <ele>485</ele>
        <time>2015-05-10T09:17:21.690Z</time>
      </trkpt>
      <trkpt lat="47.20516" lon="5.97751">
        <ele>486</ele>
        <time>2015-05-10T09:17:31.700Z</time>
      </trkpt>
      <trkpt lat="47.20524" lon="5.97741">
        <ele>485</ele>
        <time>2015-05-10T09:17:40.690Z</time>
      </trkpt>
      <trkpt lat="47.20536" lon="5.97748">
        <ele>484</ele>
        <time>2015-05-10T09:17:44.690Z</time>
      </trkpt>
      <trkpt lat="47.20531" lon="5.97733">
        <ele>482</ele>
        <time>2015-05-10T09:18:00.690Z</time>
      </trkpt>
      <trkpt lat="47.20526" lon="5.9772">
        <ele>483</ele>
        <time>2015-05-10T09:18:04.690Z</time>
      </trkpt>
      <trkpt lat="47.2052" lon="5.97706">
        <ele>484</ele>
        <time>2015-05-10T09:18:08.690Z</time>
      </trkpt>
      <trkpt lat="47.20514" lon="5.97693">
        <ele>484</ele>
        <time>2015-05-10T09:18:12.690Z</time>
      </trkpt>
      <trkpt lat="47.20511" lon="5.97679">
        <ele>484</ele>
        <time>2015-05-10T09:18:16.690Z</time>
      </trkpt>
      <trkpt lat="47.20503" lon="5.97668">
        <ele>485</ele>
        <time>2015-05-10T09:18:22.690Z</time>
      </trkpt>
      <trkpt lat="47.20494" lon="5.97663">
        <ele>484</ele>
        <time>2015-05-10T09:18:30.690Z</time>
      </trkpt>
      <trkpt lat="47.20489" lon="5.9765">
        <ele>484</ele>
        <time>2015-05-10T09:18:35.690Z</time>
      </trkpt>
      <trkpt lat="47.20481" lon="5.9764">
        <ele>483</ele>
        <time>2015-05-10T09:18:40.690Z</time>
      </trkpt>
      <trkpt lat="47.20474" lon="5.97625">
        <ele>482</ele>
        <time>2015-05-10T09:18:45.690Z</time>
      </trkpt>
      <trkpt lat="47.20471" lon="5.97612">
        <ele>481</ele>
        <time>2015-05-10T09:18:49.690Z</time>
      </trkpt>
      <trkpt lat="47.20469" lon="5.97595">
        <ele>479</ele>
        <time>2015-05-10T09:18:53.690Z</time>
      </trkpt>
      <trkpt lat="47.20465" lon="5.97579">
        <ele>479</ele>
        <time>2015-05-10T09:18:57.790Z</time>
      </trkpt>
      <trkpt lat="47.2046" lon="5.97562">
        <ele>478</ele>
        <time>2015-05-10T09:19:02.790Z</time>
      </trkpt>
      <trkpt lat="47.20456" lon="5.97547">
        <ele>477</ele>
        <time>2015-05-10T09:19:05.790Z</time>
      </trkpt>
      <trkpt lat="47.20453" lon="5.9753">
        <ele>477</ele>
        <time>2015-05-10T09:19:09.790Z</time>
      </trkpt>
      <trkpt lat="47.20449" lon="5.97513">
        <ele>476</ele>
        <time>2015-05-10T09:19:13.790Z</time>
      </trkpt>
      <trkpt lat="47.20447" lon="5.97497">
        <ele>474</ele>
        <time>2015-05-10T09:19:17.790Z</time>
      </trkpt>
      <trkpt lat="47.20444" lon="5.97481">
        <ele>473</ele>
        <time>2015-05-10T09:19:22.790Z</time>
      </trkpt>
      <trkpt lat="47.20441" lon="5.97464">
        <ele>471.0099968</ele>
        <time>2015-05-10T09:19:26.790Z</time>
      </trkpt>
      <trkpt lat="47.20438" lon="5.97448">
        <ele>471</ele>
        <time>2015-05-10T09:19:30.790Z</time>
      </trkpt>
      <trkpt lat="47.20434" lon="5.97434">
        <ele>469.0099968</ele>
        <time>2015-05-10T09:19:34.790Z</time>
      </trkpt>
      <trkpt lat="47.20428" lon="5.97419">
        <ele>468.0099968</ele>
        <time>2015-05-10T09:19:38.790Z</time>
      </trkpt>
      <trkpt lat="47.20424" lon="5.97403">
        <ele>467</ele>
        <time>2015-05-10T09:19:42.790Z</time>
      </trkpt>
      <trkpt lat="47.2042" lon="5.97386">
        <ele>465</ele>
        <time>2015-05-10T09:19:46.790Z</time>
      </trkpt>
      <trkpt lat="47.20415" lon="5.97373">
        <ele>464</ele>
        <time>2015-05-10T09:19:49.790Z</time>
      </trkpt>
      <trkpt lat="47.2041" lon="5.97356">
        <ele>463</ele>
        <time>2015-05-10T09:19:53.790Z</time>
      </trkpt>
      <trkpt lat="47.20404" lon="5.97339">
        <ele>461</ele>
        <time>2015-05-10T09:19:57.790Z</time>
      </trkpt>
      <trkpt lat="47.20399" lon="5.97324">
        <ele>459.0099968</ele>
        <time>2015-05-10T09:20:01.790Z</time>
      </trkpt>
      <trkpt lat="47.20395" lon="5.9731">
        <ele>457</ele>
        <time>2015-05-10T09:20:05.790Z</time>
      </trkpt>
      <trkpt lat="47.2039" lon="5.97296">
        <ele>455.0099968</ele>
        <time>2015-05-10T09:20:09.790Z</time>
      </trkpt>
      <trkpt lat="47.20386" lon="5.97282">
        <ele>453</ele>
        <time>2015-05-10T09:20:13.790Z</time>
      </trkpt>
      <trkpt lat="47.20381" lon="5.97272">
        <ele>450.0099968</ele>
        <time>2015-05-10T09:20:18.790Z</time>
      </trkpt>
      <trkpt lat="47.20375" lon="5.9726">
        <ele>448</ele>
        <time>2015-05-10T09:20:22.790Z</time>
      </trkpt>
      <trkpt lat="47.20369" lon="5.97249">
        <ele>445.0099968</ele>
        <time>2015-05-10T09:20:26.790Z</time>
      </trkpt>
      <trkpt lat="47.20363" lon="5.97239">
        <ele>443</ele>
        <time>2015-05-10T09:20:30.790Z</time>
      </trkpt>
      <trkpt lat="47.20357" lon="5.97229">
        <ele>440.0099968</ele>
        <time>2015-05-10T09:20:34.790Z</time>
      </trkpt>
      <trkpt lat="47.20351" lon="5.97216">
        <ele>438.0099968</ele>
        <time>2015-05-10T09:20:38.790Z</time>
      </trkpt>
      <trkpt lat="47.20346" lon="5.97202">
        <ele>434.0099968</ele>
        <time>2015-05-10T09:20:43.790Z</time>
      </trkpt>
      <trkpt lat="47.20341" lon="5.9719">
        <ele>430</ele>
        <time>2015-05-10T09:20:48.790Z</time>
      </trkpt>
      <trkpt lat="47.20336" lon="5.97178">
        <ele>427</ele>
        <time>2015-05-10T09:20:53.790Z</time>
      </trkpt>
      <trkpt lat="47.20329" lon="5.97165">
        <ele>423</ele>
        <time>2015-05-10T09:20:59.790Z</time>
      </trkpt>
      <trkpt lat="47.20325" lon="5.97151">
        <ele>420.0099968</ele>
        <time>2015-05-10T09:21:04.790Z</time>
      </trkpt>
      <trkpt lat="47.20321" lon="5.97135">
        <ele>416.0099968</ele>
        <time>2015-05-10T09:21:10.790Z</time>
      </trkpt>
      <trkpt lat="47.20316" lon="5.97122">
        <ele>414</ele>
        <time>2015-05-10T09:21:15.790Z</time>
      </trkpt>
      <trkpt lat="47.2031" lon="5.97108">
        <ele>409.2970243074</ele>
        <time>2015-05-10T09:21:21.790Z</time>
      </trkpt>
      <trkpt lat="47.20305" lon="5.97089">
        <ele>404.00989785314</ele>
        <time>2015-05-10T09:21:28.790Z</time>
      </trkpt>
      <trkpt lat="47.203" lon="5.97079">
        <ele>399</ele>
        <time>2015-05-10T09:21:32.800Z</time>
      </trkpt>
      <trkpt lat="47.20297" lon="5.97069">
        <ele>393.00989785314</ele>
        <time>2015-05-10T09:21:37.790Z</time>
      </trkpt>
      <trkpt lat="47.20292" lon="5.97058">
        <ele>387.0099968</ele>
        <time>2015-05-10T09:21:43.790Z</time>
      </trkpt>
      <trkpt lat="47.20286" lon="5.97051">
        <ele>384.01979570628</ele>
        <time>2015-05-10T09:21:47.790Z</time>
      </trkpt>
      <trkpt lat="47.20278" lon="5.97044">
        <ele>382.01009774514</ele>
        <time>2015-05-10T09:21:51.790Z</time>
      </trkpt>
      <trkpt lat="47.20272" lon="5.97036">
        <ele>380.0099968</ele>
        <time>2015-05-10T09:21:55.790Z</time>
      </trkpt>
      <trkpt lat="47.20267" lon="5.97023">
        <ele>376.0099968</ele>
        <time>2015-05-10T09:22:00.790Z</time>
      </trkpt>
      <trkpt lat="47.2026" lon="5.97016">
        <ele>374</ele>
        <time>2015-05-10T09:22:05.790Z</time>
      </trkpt>
      <trkpt lat="47.20251" lon="5.9701">
        <ele>372</ele>
        <time>2015-05-10T09:22:10.790Z</time>
      </trkpt>
      <trkpt lat="47.20242" lon="5.97006">
        <ele>369.0099968</ele>
        <time>2015-05-10T09:22:13.790Z</time>
      </trkpt>
      <trkpt lat="47.20234" lon="5.97">
        <ele>367.0099968</ele>
        <time>2015-05-10T09:22:16.790Z</time>
      </trkpt>
      <trkpt lat="47.20226" lon="5.96995">
        <ele>363.0099968</ele>
        <time>2015-05-10T09:22:19.790Z</time>
      </trkpt>
      <trkpt lat="47.20219" lon="5.96987">
        <ele>361.0099968</ele>
        <time>2015-05-10T09:22:22.790Z</time>
      </trkpt>
      <trkpt lat="47.20215" lon="5.96977">
        <ele>359.0099968</ele>
        <time>2015-05-10T09:22:24.790Z</time>
      </trkpt>
      <trkpt lat="47.20214" lon="5.96967">
        <ele>356.0099968</ele>
        <time>2015-05-10T09:22:26.790Z</time>
      </trkpt>
      <trkpt lat="47.20224" lon="5.96958">
        <ele>350.0099968</ele>
        <time>2015-05-10T09:22:32.790Z</time>
      </trkpt>
      <trkpt lat="47.20235" lon="5.96956">
        <ele>348.0099968</ele>
        <time>2015-05-10T09:22:37.790Z</time>
      </trkpt>
      <trkpt lat="47.20247" lon="5.96954">
        <ele>347.0099968</ele>
        <time>2015-05-10T09:22:41.790Z</time>
      </trkpt>
      <trkpt lat="47.20258" lon="5.96952">
        <ele>346</ele>
        <time>2015-05-10T09:22:45.790Z</time>
      </trkpt>
      <trkpt lat="47.2027" lon="5.96948">
        <ele>345</ele>
        <time>2015-05-10T09:22:49.790Z</time>
      </trkpt>
      <trkpt lat="47.20281" lon="5.96943">
        <ele>344</ele>
        <time>2015-05-10T09:22:53.790Z</time>
      </trkpt>
      <trkpt lat="47.20294" lon="5.9694">
        <ele>343</ele>
        <time>2015-05-10T09:22:57.790Z</time>
      </trkpt>
      <trkpt lat="47.20306" lon="5.96942">
        <ele>342</ele>
        <time>2015-05-10T09:23:01.790Z</time>
      </trkpt>
      <trkpt lat="47.20316" lon="5.96945">
        <ele>341</ele>
        <time>2015-05-10T09:23:05.790Z</time>
      </trkpt>
      <trkpt lat="47.20326" lon="5.96945">
        <ele>340</ele>
        <time>2015-05-10T09:23:09.790Z</time>
      </trkpt>
      <trkpt lat="47.20336" lon="5.96941">
        <ele>340</ele>
        <time>2015-05-10T09:23:13.790Z</time>
      </trkpt>
      <trkpt lat="47.20346" lon="5.96937">
        <ele>338.38384360778</ele>
        <time>2015-05-10T09:23:18.410Z</time>
      </trkpt>
      <trkpt lat="47.20345" lon="5.96922">
        <ele>337</ele>
        <time>2015-05-10T09:23:28.690Z</time>
      </trkpt>
      <trkpt lat="47.20339" lon="5.96911">
        <ele>336</ele>
        <time>2015-05-10T09:23:32.690Z</time>
      </trkpt>
      <trkpt lat="47.20329" lon="5.96897">
        <ele>334.1000064</ele>
        <time>2015-05-10T09:23:35.690Z</time>
      </trkpt>
      <trkpt lat="47.2032" lon="5.96883">
        <ele>333</ele>
        <time>2015-05-10T09:23:39.690Z</time>
      </trkpt>
      <trkpt lat="47.20313" lon="5.96872">
        <ele>332</ele>
        <time>2015-05-10T09:23:42.690Z</time>
      </trkpt>
      <trkpt lat="47.20306" lon="5.96859">
        <ele>330.1000064</ele>
        <time>2015-05-10T09:23:46.690Z</time>
      </trkpt>
      <trkpt lat="47.20301" lon="5.96844">
        <ele>327.1000064</ele>
        <time>2015-05-10T09:23:50.690Z</time>
      </trkpt>
      <trkpt lat="47.20295" lon="5.96829">
        <ele>324.1000064</ele>
        <time>2015-05-10T09:23:54.690Z</time>
      </trkpt>
      <trkpt lat="47.20289" lon="5.96815">
        <ele>322.1000064</ele>
        <time>2015-05-10T09:23:58.690Z</time>
      </trkpt>
      <trkpt lat="47.20285" lon="5.96799">
        <ele>320.0899968</ele>
        <time>2015-05-10T09:24:02.700Z</time>
      </trkpt>
      <trkpt lat="47.20281" lon="5.96783">
        <ele>318.1000064</ele>
        <time>2015-05-10T09:24:06.690Z</time>
      </trkpt>
      <trkpt lat="47.20276" lon="5.96764">
        <ele>316.1000064</ele>
        <time>2015-05-10T09:24:10.690Z</time>
      </trkpt>
      <trkpt lat="47.20272" lon="5.9675">
        <ele>314.1000064</ele>
        <time>2015-05-10T09:24:13.690Z</time>
      </trkpt>
      <trkpt lat="47.2027" lon="5.96731">
        <ele>311.1000064</ele>
        <time>2015-05-10T09:24:17.690Z</time>
      </trkpt>
      <trkpt lat="47.20268" lon="5.96716">
        <ele>308.1000064</ele>
        <time>2015-05-10T09:24:21.690Z</time>
      </trkpt>
      <trkpt lat="47.20264" lon="5.96698">
        <ele>302.1000064</ele>
        <time>2015-05-10T09:24:25.690Z</time>
      </trkpt>
      <trkpt lat="47.20262" lon="5.96682">
        <ele>297.1000064</ele>
        <time>2015-05-10T09:24:29.690Z</time>
      </trkpt>
      <trkpt lat="47.20259" lon="5.96667">
        <ele>293.2000128</ele>
        <time>2015-05-10T09:24:32.690Z</time>
      </trkpt>
      <trkpt lat="47.20256" lon="5.96656">
        <ele>289.2000128</ele>
        <time>2015-05-10T09:24:34.690Z</time>
      </trkpt>
      <trkpt lat="47.20255" lon="5.96644">
        <ele>287.1000064</ele>
        <time>2015-05-10T09:24:36.690Z</time>
      </trkpt>
      <trkpt lat="47.20255" lon="5.96627">
        <ele>283.1000064</ele>
        <time>2015-05-10T09:24:39.690Z</time>
      </trkpt>
      <trkpt lat="47.20255" lon="5.96617">
        <ele>281.1000064</ele>
        <time>2015-05-10T09:24:41.690Z</time>
      </trkpt>
      <trkpt lat="47.20254" lon="5.96606">
        <ele>279.1000064</ele>
        <time>2015-05-10T09:24:43.690Z</time>
      </trkpt>
      <trkpt lat="47.20251" lon="5.96596">
        <ele>277.1000064</ele>
        <time>2015-05-10T09:24:45.690Z</time>
      </trkpt>
      <trkpt lat="47.20246" lon="5.96588">
        <ele>275.1000064</ele>
        <time>2015-05-10T09:24:47.690Z</time>
      </trkpt>
      <trkpt lat="47.20239" lon="5.96577">
        <ele>272.1000064</ele>
        <time>2015-05-10T09:24:50.690Z</time>
      </trkpt>
      <trkpt lat="47.20229" lon="5.96567">
        <ele>268.2000128</ele>
        <time>2015-05-10T09:24:53.690Z</time>
      </trkpt>
      <trkpt lat="47.20221" lon="5.96554">
        <ele>267</ele>
        <time>2015-05-10T09:24:56.690Z</time>
      </trkpt>
      <trkpt lat="47.20215" lon="5.96543">
        <ele>266</ele>
        <time>2015-05-10T09:24:58.690Z</time>
      </trkpt>
      <trkpt lat="47.20207" lon="5.9653">
        <ele>266</ele>
        <time>2015-05-10T09:25:01.690Z</time>
      </trkpt>
      <trkpt lat="47.20204" lon="5.96512">
        <ele>265.1000064</ele>
        <time>2015-05-10T09:25:05.690Z</time>
      </trkpt>
      <trkpt lat="47.20208" lon="5.96496">
        <ele>263.1000064</ele>
        <time>2015-05-10T09:25:08.690Z</time>
      </trkpt>
      <trkpt lat="47.20211" lon="5.96481">
        <ele>262</ele>
        <time>2015-05-10T09:25:11.690Z</time>
      </trkpt>
      <trkpt lat="47.20213" lon="5.96467">
        <ele>261</ele>
        <time>2015-05-10T09:25:14.690Z</time>
      </trkpt>
      <trkpt lat="47.20217" lon="5.96452">
        <ele>261</ele>
        <time>2015-05-10T09:25:18.690Z</time>
      </trkpt>
      <trkpt lat="47.20211" lon="5.96439">
        <ele>258.1000064</ele>
        <time>2015-05-10T09:25:24.690Z</time>
      </trkpt>
      <trkpt lat="47.20202" lon="5.96431">
        <ele>258</ele>
        <time>2015-05-10T09:25:27.690Z</time>
      </trkpt>
      <trkpt lat="47.202" lon="5.96415">
        <ele>257</ele>
        <time>2015-05-10T09:25:31.790Z</time>
      </trkpt>
      <trkpt lat="47.20202" lon="5.96397">
        <ele>256</ele>
        <time>2015-05-10T09:25:35.790Z</time>
      </trkpt>
      <trkpt lat="47.20207" lon="5.9638">
        <ele>256</ele>
        <time>2015-05-10T09:25:40.790Z</time>
      </trkpt>
      <trkpt lat="47.20209" lon="5.96364">
        <ele>255</ele>
        <time>2015-05-10T09:25:44.790Z</time>
      </trkpt>
      <trkpt lat="47.20211" lon="5.96347">
        <ele>255</ele>
        <time>2015-05-10T09:25:48.790Z</time>
      </trkpt>
      <trkpt lat="47.20212" lon="5.96328">
        <ele>255</ele>
        <time>2015-05-10T09:25:52.790Z</time>
      </trkpt>
      <trkpt lat="47.20213" lon="5.96311">
        <ele>255</ele>
        <time>2015-05-10T09:25:56.790Z</time>
      </trkpt>
      <trkpt lat="47.20216" lon="5.96295">
        <ele>255</ele>
        <time>2015-05-10T09:26:00.790Z</time>
      </trkpt>
      <trkpt lat="47.20219" lon="5.96277">
        <ele>254.0099968</ele>
        <time>2015-05-10T09:26:04.790Z</time>
      </trkpt>
      <trkpt lat="47.20224" lon="5.96261">
        <ele>254</ele>
        <time>2015-05-10T09:26:08.790Z</time>
      </trkpt>
      <trkpt lat="47.20229" lon="5.96247">
        <ele>254</ele>
        <time>2015-05-10T09:26:11.790Z</time>
      </trkpt>
      <trkpt lat="47.20226" lon="5.96233">
        <ele>252</ele>
        <time>2015-05-10T09:26:18.790Z</time>
      </trkpt>
      <trkpt lat="47.20217" lon="5.96225">
        <ele>249.0099968</ele>
        <time>2015-05-10T09:26:22.790Z</time>
      </trkpt>
      <trkpt lat="47.20206" lon="5.9622">
        <ele>246.0099968</ele>
        <time>2015-05-10T09:26:27.790Z</time>
      </trkpt>
      <trkpt lat="47.20197" lon="5.96216">
        <ele>246</ele>
        <time>2015-05-10T09:26:30.790Z</time>
      </trkpt>
      <trkpt lat="47.20186" lon="5.9621">
        <ele>245</ele>
        <time>2015-05-10T09:26:33.790Z</time>
      </trkpt>
      <trkpt lat="47.20178" lon="5.96206">
        <ele>244</ele>
        <time>2015-05-10T09:26:35.790Z</time>
      </trkpt>
      <trkpt lat="47.20169" lon="5.96196">
        <ele>243.0099968</ele>
        <time>2015-05-10T09:26:38.790Z</time>
      </trkpt>
      <trkpt lat="47.20169" lon="5.96178">
        <ele>242</ele>
        <time>2015-05-10T09:26:41.790Z</time>
      </trkpt>
      <trkpt lat="47.20171" lon="5.96162">
        <ele>241.10891440448</ele>
        <time>2015-05-10T09:26:44.690Z</time>
      </trkpt>
      <trkpt lat="47.20172" lon="5.96148">
        <ele>241</ele>
        <time>2015-05-10T09:26:47.790Z</time>
      </trkpt>
      <trkpt lat="47.20171" lon="5.9613">
        <ele>241</ele>
        <time>2015-05-10T09:26:51.790Z</time>
      </trkpt>
      <trkpt lat="47.20164" lon="5.96124">
        <ele>239</ele>
        <time>2015-05-10T09:26:54.790Z</time>
      </trkpt>
      <trkpt lat="47.20151" lon="5.9612">
        <ele>238</ele>
        <time>2015-05-10T09:26:58.830Z</time>
      </trkpt>
      <trkpt lat="47.20144" lon="5.96119">
        <ele>238</ele>
        <time>2015-05-10T09:27:00.790Z</time>
      </trkpt>
      <trkpt lat="47.20133" lon="5.96118">
        <ele>237</ele>
        <time>2015-05-10T09:27:03.790Z</time>
      </trkpt>
      <trkpt lat="47.20121" lon="5.96117">
        <ele>237</ele>
        <time>2015-05-10T09:27:06.790Z</time>
      </trkpt>
      <trkpt lat="47.20109" lon="5.96116">
        <ele>237</ele>
        <time>2015-05-10T09:27:09.790Z</time>
      </trkpt>
      <trkpt lat="47.20097" lon="5.96115">
        <ele>237</ele>
        <time>2015-05-10T09:27:12.790Z</time>
      </trkpt>
      <trkpt lat="47.20086" lon="5.96113">
        <ele>236.00989785314</ele>
        <time>2015-05-10T09:27:15.790Z</time>
      </trkpt>
      <trkpt lat="47.20075" lon="5.96112">
        <ele>236</ele>
        <time>2015-05-10T09:27:18.790Z</time>
      </trkpt>
      <trkpt lat="47.20065" lon="5.96111">
        <ele>235.00989785314</ele>
        <time>2015-05-10T09:27:21.790Z</time>
      </trkpt>
      <trkpt lat="47.20054" lon="5.96111">
        <ele>235.00989785314</ele>
        <time>2015-05-10T09:27:24.790Z</time>
      </trkpt>
      <trkpt lat="47.20044" lon="5.9611">
        <ele>235</ele>
        <time>2015-05-10T09:27:27.790Z</time>
      </trkpt>
      <trkpt lat="47.20033" lon="5.96114">
        <ele>235</ele>
        <time>2015-05-10T09:27:31.800Z</time>
      </trkpt>
      <trkpt lat="47.2003" lon="5.96133">
        <ele>235</ele>
        <time>2015-05-10T09:27:35.690Z</time>
      </trkpt>
      <trkpt lat="47.20029" lon="5.96148">
        <ele>236</ele>
        <time>2015-05-10T09:27:38.690Z</time>
      </trkpt>
      <trkpt lat="47.20027" lon="5.96163">
        <ele>236</ele>
        <time>2015-05-10T09:27:41.690Z</time>
      </trkpt>
      <trkpt lat="47.20027" lon="5.96179">
        <ele>236</ele>
        <time>2015-05-10T09:27:44.690Z</time>
      </trkpt>
      <trkpt lat="47.20027" lon="5.96193">
        <ele>236</ele>
        <time>2015-05-10T09:27:47.690Z</time>
      </trkpt>
      <trkpt lat="47.20033" lon="5.96209">
        <ele>236</ele>
        <time>2015-05-10T09:27:51.690Z</time>
      </trkpt>
      <trkpt lat="47.2004" lon="5.96219">
        <ele>237</ele>
        <time>2015-05-10T09:27:55.690Z</time>
      </trkpt>
      <trkpt lat="47.20036" lon="5.96233">
        <ele>237</ele>
        <time>2015-05-10T09:28:02.690Z</time>
      </trkpt>
      <trkpt lat="47.20028" lon="5.96233">
        <ele>237</ele>
        <time>2015-05-10T09:28:05.690Z</time>
      </trkpt>
      <trkpt lat="47.20018" lon="5.96232">
        <ele>237</ele>
        <time>2015-05-10T09:28:08.690Z</time>
      </trkpt>
      <trkpt lat="47.20009" lon="5.96231">
        <ele>237</ele>
        <time>2015-05-10T09:28:11.690Z</time>
      </trkpt>
      <trkpt lat="47.19999" lon="5.96231">
        <ele>237.8999936</ele>
        <time>2015-05-10T09:28:15.690Z</time>
      </trkpt>
      <trkpt lat="47.19987" lon="5.96231">
        <ele>238</ele>
        <time>2015-05-10T09:28:19.690Z</time>
      </trkpt>
      <trkpt lat="47.19977" lon="5.96231">
        <ele>238</ele>
        <time>2015-05-10T09:28:22.690Z</time>
      </trkpt>
      <trkpt lat="47.19967" lon="5.96231">
        <ele>238</ele>
        <time>2015-05-10T09:28:25.690Z</time>
      </trkpt>
      <trkpt lat="47.19955" lon="5.9623">
        <ele>238</ele>
        <time>2015-05-10T09:28:29.690Z</time>
      </trkpt>
      <trkpt lat="47.19944" lon="5.96229">
        <ele>237.1000064</ele>
        <time>2015-05-10T09:28:32.690Z</time>
      </trkpt>
      <trkpt lat="47.19935" lon="5.96225">
        <ele>237</ele>
        <time>2015-05-10T09:28:35.690Z</time>
      </trkpt>
      <trkpt lat="47.19925" lon="5.96226">
        <ele>238</ele>
        <time>2015-05-10T09:28:39.690Z</time>
      </trkpt>
      <trkpt lat="47.19916" lon="5.96228">
        <ele>238</ele>
        <time>2015-05-10T09:28:42.690Z</time>
      </trkpt>
      <trkpt lat="47.19907" lon="5.96229">
        <ele>237.1000064</ele>
        <time>2015-05-10T09:28:45.690Z</time>
      </trkpt>
      <trkpt lat="47.199" lon="5.96229">
        <ele>237</ele>
        <time>2015-05-10T09:28:47.690Z</time>
      </trkpt>
      <trkpt lat="47.19893" lon="5.9623">
        <ele>237</ele>
        <time>2015-05-10T09:28:49.690Z</time>
      </trkpt>
      <trkpt lat="47.19885" lon="5.96231">
        <ele>238</ele>
        <time>2015-05-10T09:28:51.690Z</time>
      </trkpt>
      <trkpt lat="47.19882" lon="5.96232">
        <ele>238</ele>
        <time>2015-05-10T09:28:52.690Z</time>
      </trkpt>
      <trkpt lat="47.19878" lon="5.96232">
        <ele>238</ele>
        <time>2015-05-10T09:28:53.690Z</time>
      </trkpt>
      <trkpt lat="47.19871" lon="5.96232">
        <ele>238</ele>
        <time>2015-05-10T09:28:55.690Z</time>
      </trkpt>
      <trkpt lat="47.19863" lon="5.9623">
        <ele>238</ele>
        <time>2015-05-10T09:28:57.690Z</time>
      </trkpt>
      <trkpt lat="47.19855" lon="5.96224">
        <ele>239</ele>
        <time>2015-05-10T09:29:00.690Z</time>
      </trkpt>
      <trkpt lat="47.19847" lon="5.96216">
        <ele>239</ele>
        <time>2015-05-10T09:29:03.690Z</time>
      </trkpt>
      <trkpt lat="47.19839" lon="5.96208">
        <ele>239</ele>
        <time>2015-05-10T09:29:06.690Z</time>
      </trkpt>
      <trkpt lat="47.19831" lon="5.96198">
        <ele>239</ele>
        <time>2015-05-10T09:29:10.690Z</time>
      </trkpt>
      <trkpt lat="47.1982" lon="5.96202">
        <ele>239</ele>
        <time>2015-05-10T09:29:17.690Z</time>
      </trkpt>
      <trkpt lat="47.19815" lon="5.96214">
        <ele>239.8999936</ele>
        <time>2015-05-10T09:29:21.690Z</time>
      </trkpt>
      <trkpt lat="47.19812" lon="5.96228">
        <ele>240.8999936</ele>
        <time>2015-05-10T09:29:25.690Z</time>
      </trkpt>
      <trkpt lat="47.1981" lon="5.96243">
        <ele>241</ele>
        <time>2015-05-10T09:29:29.690Z</time>
      </trkpt>
      <trkpt lat="47.19809" lon="5.9626">
        <ele>241</ele>
        <time>2015-05-10T09:29:34.690Z</time>
      </trkpt>
      <trkpt lat="47.1981" lon="5.96276">
        <ele>242</ele>
        <time>2015-05-10T09:29:40.690Z</time>
      </trkpt>
      <trkpt lat="47.19812" lon="5.9629">
        <ele>243</ele>
        <time>2015-05-10T09:29:45.690Z</time>
      </trkpt>
      <trkpt lat="47.19817" lon="5.96306">
        <ele>244</ele>
        <time>2015-05-10T09:29:50.800Z</time>
      </trkpt>
      <trkpt lat="47.1982" lon="5.96321">
        <ele>246</ele>
        <time>2015-05-10T09:29:55.790Z</time>
      </trkpt>
      <trkpt lat="47.19823" lon="5.96335">
        <ele>247</ele>
        <time>2015-05-10T09:30:00.790Z</time>
      </trkpt>
      <trkpt lat="47.19824" lon="5.96351">
        <ele>248</ele>
        <time>2015-05-10T09:30:05.790Z</time>
      </trkpt>
      <trkpt lat="47.19823" lon="5.96368">
        <ele>249</ele>
        <time>2015-05-10T09:30:10.790Z</time>
      </trkpt>
      <trkpt lat="47.19816" lon="5.96381">
        <ele>249</ele>
        <time>2015-05-10T09:30:16.790Z</time>
      </trkpt>
      <trkpt lat="47.19809" lon="5.96392">
        <ele>249</ele>
        <time>2015-05-10T09:30:23.790Z</time>
      </trkpt>
      <trkpt lat="47.19802" lon="5.96402">
        <ele>250</ele>
        <time>2015-05-10T09:30:29.790Z</time>
      </trkpt>
      <trkpt lat="47.19796" lon="5.9641">
        <ele>249.0099968</ele>
        <time>2015-05-10T09:30:35.790Z</time>
      </trkpt>
      <trkpt lat="47.19789" lon="5.96417">
        <ele>251.9900032</ele>
        <time>2015-05-10T09:30:42.790Z</time>
      </trkpt>
      <trkpt lat="47.1978" lon="5.9642">
        <ele>254</ele>
        <time>2015-05-10T09:30:47.790Z</time>
      </trkpt>
      <trkpt lat="47.19774" lon="5.9642">
        <ele>256.9900032</ele>
        <time>2015-05-10T09:30:51.790Z</time>
      </trkpt>
      <trkpt lat="47.19769" lon="5.96418">
        <ele>258</ele>
        <time>2015-05-10T09:30:55.790Z</time>
      </trkpt>
      <trkpt lat="47.19762" lon="5.96412">
        <ele>259.9900032</ele>
        <time>2015-05-10T09:31:00.790Z</time>
      </trkpt>
      <trkpt lat="47.19756" lon="5.96407">
        <ele>261</ele>
        <time>2015-05-10T09:31:05.790Z</time>
      </trkpt>
      <trkpt lat="47.19749" lon="5.96401">
        <ele>263</ele>
        <time>2015-05-10T09:31:10.790Z</time>
      </trkpt>
      <trkpt lat="47.19743" lon="5.96396">
        <ele>265</ele>
        <time>2015-05-10T09:31:14.790Z</time>
      </trkpt>
      <trkpt lat="47.19736" lon="5.96393">
        <ele>266</ele>
        <time>2015-05-10T09:31:18.790Z</time>
      </trkpt>
      <trkpt lat="47.1973" lon="5.96392">
        <ele>266</ele>
        <time>2015-05-10T09:31:22.790Z</time>
      </trkpt>
      <trkpt lat="47.19724" lon="5.96389">
        <ele>267</ele>
        <time>2015-05-10T09:31:26.790Z</time>
      </trkpt>
      <trkpt lat="47.19717" lon="5.96388">
        <ele>268</ele>
        <time>2015-05-10T09:31:30.790Z</time>
      </trkpt>
      <trkpt lat="47.19711" lon="5.96387">
        <ele>268</ele>
        <time>2015-05-10T09:31:34.790Z</time>
      </trkpt>
      <trkpt lat="47.19705" lon="5.96386">
        <ele>268.9900032</ele>
        <time>2015-05-10T09:31:37.790Z</time>
      </trkpt>
      <trkpt lat="47.19699" lon="5.96384">
        <ele>269</ele>
        <time>2015-05-10T09:31:39.790Z</time>
      </trkpt>
      <trkpt lat="47.19693" lon="5.96383">
        <ele>269</ele>
        <time>2015-05-10T09:31:41.790Z</time>
      </trkpt>
      <trkpt lat="47.19686" lon="5.96381">
        <ele>269</ele>
        <time>2015-05-10T09:31:43.790Z</time>
      </trkpt>
      <trkpt lat="47.19679" lon="5.96379">
        <ele>269.9900032</ele>
        <time>2015-05-10T09:31:45.790Z</time>
      </trkpt>
      <trkpt lat="47.19673" lon="5.96376">
        <ele>270</ele>
        <time>2015-05-10T09:31:47.790Z</time>
      </trkpt>
      <trkpt lat="47.19666" lon="5.96373">
        <ele>270</ele>
        <time>2015-05-10T09:31:49.790Z</time>
      </trkpt>
      <trkpt lat="47.1966" lon="5.96369">
        <ele>270</ele>
        <time>2015-05-10T09:31:51.790Z</time>
      </trkpt>
      <trkpt lat="47.19654" lon="5.96366">
        <ele>270</ele>
        <time>2015-05-10T09:31:53.790Z</time>
      </trkpt>
      <trkpt lat="47.19647" lon="5.96363">
        <ele>270.9900032</ele>
        <time>2015-05-10T09:31:55.790Z</time>
      </trkpt>
      <trkpt lat="47.19639" lon="5.96359">
        <ele>270</ele>
        <time>2015-05-10T09:31:58.790Z</time>
      </trkpt>
      <trkpt lat="47.19628" lon="5.96355">
        <ele>271</ele>
        <time>2015-05-10T09:32:02.790Z</time>
      </trkpt>
      <trkpt lat="47.19621" lon="5.96359">
        <ele>271</ele>
        <time>2015-05-10T09:32:05.790Z</time>
      </trkpt>
      <trkpt lat="47.19614" lon="5.96367">
        <ele>271</ele>
        <time>2015-05-10T09:32:08.790Z</time>
      </trkpt>
      <trkpt lat="47.19607" lon="5.96376">
        <ele>272</ele>
        <time>2015-05-10T09:32:11.790Z</time>
      </trkpt>
      <trkpt lat="47.196" lon="5.96385">
        <ele>272</ele>
        <time>2015-05-10T09:32:14.790Z</time>
      </trkpt>
      <trkpt lat="47.19593" lon="5.96394">
        <ele>272</ele>
        <time>2015-05-10T09:32:17.790Z</time>
      </trkpt>
      <trkpt lat="47.19589" lon="5.96405">
        <ele>273</ele>
        <time>2015-05-10T09:32:20.790Z</time>
      </trkpt>
      <trkpt lat="47.19585" lon="5.96416">
        <ele>273</ele>
        <time>2015-05-10T09:32:23.790Z</time>
      </trkpt>
      <trkpt lat="47.19585" lon="5.9643">
        <ele>273</ele>
        <time>2015-05-10T09:32:27.790Z</time>
      </trkpt>
      <trkpt lat="47.19587" lon="5.96446">
        <ele>273</ele>
        <time>2015-05-10T09:32:31.790Z</time>
      </trkpt>
      <trkpt lat="47.19588" lon="5.96459">
        <ele>274</ele>
        <time>2015-05-10T09:32:34.690Z</time>
      </trkpt>
      <trkpt lat="47.19592" lon="5.96472">
        <ele>274.61615639222</ele>
        <time>2015-05-10T09:32:38.410Z</time>
      </trkpt>
      <trkpt lat="47.19597" lon="5.96485">
        <ele>275</ele>
        <time>2015-05-10T09:32:42.690Z</time>
      </trkpt>
      <trkpt lat="47.19604" lon="5.96498">
        <ele>275</ele>
        <time>2015-05-10T09:32:46.690Z</time>
      </trkpt>
      <trkpt lat="47.19609" lon="5.96513">
        <ele>276</ele>
        <time>2015-05-10T09:32:50.690Z</time>
      </trkpt>
      <trkpt lat="47.19611" lon="5.96524">
        <ele>276</ele>
        <time>2015-05-10T09:32:53.690Z</time>
      </trkpt>
      <trkpt lat="47.19612" lon="5.96542">
        <ele>277</ele>
        <time>2015-05-10T09:32:57.690Z</time>
      </trkpt>
      <trkpt lat="47.1961" lon="5.96558">
        <ele>278</ele>
        <time>2015-05-10T09:33:01.690Z</time>
      </trkpt>
      <trkpt lat="47.19605" lon="5.96574">
        <ele>279</ele>
        <time>2015-05-10T09:33:06.690Z</time>
      </trkpt>
      <trkpt lat="47.196" lon="5.96586">
        <ele>279.8999936</ele>
        <time>2015-05-10T09:33:10.690Z</time>
      </trkpt>
      <trkpt lat="47.19594" lon="5.96596">
        <ele>280</ele>
        <time>2015-05-10T09:33:14.690Z</time>
      </trkpt>
      <trkpt lat="47.19591" lon="5.966">
        <ele>280.8999936</ele>
        <time>2015-05-10T09:33:16.690Z</time>
      </trkpt>
      <trkpt lat="47.19589" lon="5.96608">
        <ele>281</ele>
        <time>2015-05-10T09:33:20.690Z</time>
      </trkpt>
      <trkpt lat="47.19587" lon="5.96617">
        <ele>281.8999936</ele>
        <time>2015-05-10T09:33:24.690Z</time>
      </trkpt>
      <trkpt lat="47.19585" lon="5.96627">
        <ele>283.8999936</ele>
        <time>2015-05-10T09:33:29.690Z</time>
      </trkpt>
      <trkpt lat="47.19579" lon="5.96642">
        <ele>285</ele>
        <time>2015-05-10T09:33:37.690Z</time>
      </trkpt>
      <trkpt lat="47.19576" lon="5.96656">
        <ele>287</ele>
        <time>2015-05-10T09:33:42.690Z</time>
      </trkpt>
      <trkpt lat="47.19576" lon="5.96672">
        <ele>288</ele>
        <time>2015-05-10T09:33:47.690Z</time>
      </trkpt>
      <trkpt lat="47.19574" lon="5.96688">
        <ele>289</ele>
        <time>2015-05-10T09:33:52.690Z</time>
      </trkpt>
      <trkpt lat="47.19574" lon="5.96705">
        <ele>291</ele>
        <time>2015-05-10T09:33:59.690Z</time>
      </trkpt>
      <trkpt lat="47.19578" lon="5.96719">
        <ele>291</ele>
        <time>2015-05-10T09:34:06.690Z</time>
      </trkpt>
      <trkpt lat="47.1958" lon="5.96734">
        <ele>294</ele>
        <time>2015-05-10T09:34:13.790Z</time>
      </trkpt>
      <trkpt lat="47.19582" lon="5.9675">
        <ele>296.9900032</ele>
        <time>2015-05-10T09:34:20.790Z</time>
      </trkpt>
      <trkpt lat="47.19586" lon="5.96764">
        <ele>299</ele>
        <time>2015-05-10T09:34:26.790Z</time>
      </trkpt>
      <trkpt lat="47.19589" lon="5.96778">
        <ele>300</ele>
        <time>2015-05-10T09:34:34.790Z</time>
      </trkpt>
      <trkpt lat="47.19596" lon="5.96786">
        <ele>301</ele>
        <time>2015-05-10T09:34:40.790Z</time>
      </trkpt>
      <trkpt lat="47.19603" lon="5.96795">
        <ele>302</ele>
        <time>2015-05-10T09:34:47.790Z</time>
      </trkpt>
      <trkpt lat="47.1961" lon="5.96803">
        <ele>303.9900032</ele>
        <time>2015-05-10T09:34:53.790Z</time>
      </trkpt>
      <trkpt lat="47.19618" lon="5.96812">
        <ele>306</ele>
        <time>2015-05-10T09:34:59.790Z</time>
      </trkpt>
      <trkpt lat="47.19624" lon="5.96819">
        <ele>308.9900032</ele>
        <time>2015-05-10T09:35:04.790Z</time>
      </trkpt>
      <trkpt lat="47.19629" lon="5.96828">
        <ele>309.9900032</ele>
        <time>2015-05-10T09:35:09.790Z</time>
      </trkpt>
      <trkpt lat="47.19627" lon="5.96841">
        <ele>312</ele>
        <time>2015-05-10T09:35:16.790Z</time>
      </trkpt>
      <trkpt lat="47.19617" lon="5.9684">
        <ele>313</ele>
        <time>2015-05-10T09:35:24.790Z</time>
      </trkpt>
      <trkpt lat="47.19605" lon="5.96836">
        <ele>314</ele>
        <time>2015-05-10T09:35:29.790Z</time>
      </trkpt>
      <trkpt lat="47.19593" lon="5.96834">
        <ele>315</ele>
        <time>2015-05-10T09:35:34.790Z</time>
      </trkpt>
      <trkpt lat="47.19583" lon="5.96838">
        <ele>314</ele>
        <time>2015-05-10T09:35:39.790Z</time>
      </trkpt>
      <trkpt lat="47.19573" lon="5.96841">
        <ele>315</ele>
        <time>2015-05-10T09:35:45.790Z</time>
      </trkpt>
      <trkpt lat="47.19563" lon="5.96848">
        <ele>318.9900032</ele>
        <time>2015-05-10T09:35:54.790Z</time>
      </trkpt>
      <trkpt lat="47.19554" lon="5.96855">
        <ele>321</ele>
        <time>2015-05-10T09:36:04.790Z</time>
      </trkpt>
      <trkpt lat="47.19545" lon="5.96863">
        <ele>323</ele>
        <time>2015-05-10T09:36:11.790Z</time>
      </trkpt>
      <trkpt lat="47.19536" lon="5.96872">
        <ele>325.9900032</ele>
        <time>2015-05-10T09:36:18.790Z</time>
      </trkpt>
      <trkpt lat="47.19527" lon="5.96878">
        <ele>327</ele>
        <time>2015-05-10T09:36:24.790Z</time>
      </trkpt>
      <trkpt lat="47.19518" lon="5.96887">
        <ele>329</ele>
        <time>2015-05-10T09:36:31.690Z</time>
      </trkpt>
      <trkpt lat="47.19512" lon="5.96898">
        <ele>329</ele>
        <time>2015-05-10T09:36:37.690Z</time>
      </trkpt>
      <trkpt lat="47.19507" lon="5.96913">
        <ele>330</ele>
        <time>2015-05-10T09:36:44.690Z</time>
      </trkpt>
      <trkpt lat="47.19502" lon="5.96928">
        <ele>331</ele>
        <time>2015-05-10T09:36:49.690Z</time>
      </trkpt>
      <trkpt lat="47.19496" lon="5.96942">
        <ele>332.8999936</ele>
        <time>2015-05-10T09:36:54.690Z</time>
      </trkpt>
      <trkpt lat="47.19489" lon="5.96956">
        <ele>333</ele>
        <time>2015-05-10T09:36:58.690Z</time>
      </trkpt>
      <trkpt lat="47.19482" lon="5.96967">
        <ele>334</ele>
        <time>2015-05-10T09:37:02.690Z</time>
      </trkpt>
      <trkpt lat="47.19471" lon="5.96972">
        <ele>337.8999936</ele>
        <time>2015-05-10T09:37:08.690Z</time>
      </trkpt>
      <trkpt lat="47.19461" lon="5.96968">
        <ele>340</ele>
        <time>2015-05-10T09:37:14.690Z</time>
      </trkpt>
      <trkpt lat="47.19451" lon="5.96967">
        <ele>342</ele>
        <time>2015-05-10T09:37:20.690Z</time>
      </trkpt>
      <trkpt lat="47.19441" lon="5.9697">
        <ele>344</ele>
        <time>2015-05-10T09:37:29.690Z</time>
      </trkpt>
      <trkpt lat="47.19429" lon="5.96971">
        <ele>348</ele>
        <time>2015-05-10T09:37:38.690Z</time>
      </trkpt>
      <trkpt lat="47.19419" lon="5.96972">
        <ele>351.8999936</ele>
        <time>2015-05-10T09:37:46.690Z</time>
      </trkpt>
      <trkpt lat="47.19408" lon="5.96972">
        <ele>354</ele>
        <time>2015-05-10T09:37:53.690Z</time>
      </trkpt>
      <trkpt lat="47.19397" lon="5.96973">
        <ele>356</ele>
        <time>2015-05-10T09:38:01.690Z</time>
      </trkpt>
      <trkpt lat="47.19386" lon="5.96972">
        <ele>357</ele>
        <time>2015-05-10T09:38:07.690Z</time>
      </trkpt>
      <trkpt lat="47.19374" lon="5.9697">
        <ele>358.8999936</ele>
        <time>2015-05-10T09:38:12.690Z</time>
      </trkpt>
      <trkpt lat="47.19364" lon="5.96967">
        <ele>360</ele>
        <time>2015-05-10T09:38:18.690Z</time>
      </trkpt>
      <trkpt lat="47.19359" lon="5.96952">
        <ele>361</ele>
        <time>2015-05-10T09:38:26.690Z</time>
      </trkpt>
      <trkpt lat="47.19357" lon="5.96936">
        <ele>363</ele>
        <time>2015-05-10T09:38:34.690Z</time>
      </trkpt>
      <trkpt lat="47.19357" lon="5.96921">
        <ele>364.8999936</ele>
        <time>2015-05-10T09:38:43.690Z</time>
      </trkpt>
      <trkpt lat="47.19357" lon="5.96907">
        <ele>366</ele>
        <time>2015-05-10T09:38:50.790Z</time>
      </trkpt>
      <trkpt lat="47.19358" lon="5.96891">
        <ele>368</ele>
        <time>2015-05-10T09:38:58.790Z</time>
      </trkpt>
      <trkpt lat="47.19355" lon="5.96878">
        <ele>371</ele>
        <time>2015-05-10T09:39:05.790Z</time>
      </trkpt>
      <trkpt lat="47.19355" lon="5.96863">
        <ele>372</ele>
        <time>2015-05-10T09:39:11.790Z</time>
      </trkpt>
      <trkpt lat="47.19352" lon="5.9685">
        <ele>374</ele>
        <time>2015-05-10T09:39:18.790Z</time>
      </trkpt>
      <trkpt lat="47.19352" lon="5.96834">
        <ele>377</ele>
        <time>2015-05-10T09:39:28.800Z</time>
      </trkpt>
      <trkpt lat="47.19352" lon="5.9682">
        <ele>379</ele>
        <time>2015-05-10T09:39:37.810Z</time>
      </trkpt>
      <trkpt lat="47.19353" lon="5.96805">
        <ele>381</ele>
        <time>2015-05-10T09:39:46.810Z</time>
      </trkpt>
      <trkpt lat="47.19352" lon="5.96789">
        <ele>383.01009774514</ele>
        <time>2015-05-10T09:39:55.810Z</time>
      </trkpt>
      <trkpt lat="47.19346" lon="5.96776">
        <ele>386.99010214686</ele>
        <time>2015-05-10T09:40:03.790Z</time>
      </trkpt>
      <trkpt lat="47.19334" lon="5.96772">
        <ele>390</ele>
        <time>2015-05-10T09:40:12.790Z</time>
      </trkpt>
      <trkpt lat="47.19322" lon="5.96771">
        <ele>391</ele>
        <time>2015-05-10T09:40:18.790Z</time>
      </trkpt>
      <trkpt lat="47.19313" lon="5.96765">
        <ele>392</ele>
        <time>2015-05-10T09:40:22.800Z</time>
      </trkpt>
      <trkpt lat="47.19301" lon="5.96765">
        <ele>393</ele>
        <time>2015-05-10T09:40:28.800Z</time>
      </trkpt>
      <trkpt lat="47.19291" lon="5.96764">
        <ele>393.99010214686</ele>
        <time>2015-05-10T09:40:33.790Z</time>
      </trkpt>
      <trkpt lat="47.1928" lon="5.96765">
        <ele>394.99010214686</ele>
        <time>2015-05-10T09:40:39.790Z</time>
      </trkpt>
      <trkpt lat="47.19267" lon="5.96762">
        <ele>396.99010214686</ele>
        <time>2015-05-10T09:40:45.790Z</time>
      </trkpt>
      <trkpt lat="47.19256" lon="5.96758">
        <ele>398</ele>
        <time>2015-05-10T09:40:51.790Z</time>
      </trkpt>
      <trkpt lat="47.19251" lon="5.96744">
        <ele>399.9900032</ele>
        <time>2015-05-10T09:41:01.790Z</time>
      </trkpt>
      <trkpt lat="47.19239" lon="5.96746">
        <ele>400</ele>
        <time>2015-05-10T09:41:09.690Z</time>
      </trkpt>
      <trkpt lat="47.19227" lon="5.96749">
        <ele>400</ele>
        <time>2015-05-10T09:41:13.690Z</time>
      </trkpt>
      <trkpt lat="47.19217" lon="5.96756">
        <ele>399</ele>
        <time>2015-05-10T09:41:16.690Z</time>
      </trkpt>
      <trkpt lat="47.19207" lon="5.96764">
        <ele>399</ele>
        <time>2015-05-10T09:41:19.690Z</time>
      </trkpt>
      <trkpt lat="47.19199" lon="5.96773">
        <ele>400</ele>
        <time>2015-05-10T09:41:22.800Z</time>
      </trkpt>
      <trkpt lat="47.1919" lon="5.96784">
        <ele>400</ele>
        <time>2015-05-10T09:41:25.690Z</time>
      </trkpt>
      <trkpt lat="47.19185" lon="5.96796">
        <ele>400</ele>
        <time>2015-05-10T09:41:28.690Z</time>
      </trkpt>
      <trkpt lat="47.19182" lon="5.96814">
        <ele>401</ele>
        <time>2015-05-10T09:41:32.690Z</time>
      </trkpt>
      <trkpt lat="47.19182" lon="5.9683">
        <ele>401</ele>
        <time>2015-05-10T09:41:35.690Z</time>
      </trkpt>
      <trkpt lat="47.19181" lon="5.96841">
        <ele>401</ele>
        <time>2015-05-10T09:41:37.690Z</time>
      </trkpt>
      <trkpt lat="47.19179" lon="5.96859">
        <ele>400</ele>
        <time>2015-05-10T09:41:41.690Z</time>
      </trkpt>
      <trkpt lat="47.19175" lon="5.96876">
        <ele>400</ele>
        <time>2015-05-10T09:41:45.690Z</time>
      </trkpt>
      <trkpt lat="47.19174" lon="5.96893">
        <ele>399</ele>
        <time>2015-05-10T09:41:49.690Z</time>
      </trkpt>
      <trkpt lat="47.19172" lon="5.96908">
        <ele>398.1000064</ele>
        <time>2015-05-10T09:41:53.690Z</time>
      </trkpt>
      <trkpt lat="47.19172" lon="5.96924">
        <ele>398</ele>
        <time>2015-05-10T09:41:57.690Z</time>
      </trkpt>
      <trkpt lat="47.19169" lon="5.96941">
        <ele>397</ele>
        <time>2015-05-10T09:42:01.690Z</time>
      </trkpt>
      <trkpt lat="47.19166" lon="5.96955">
        <ele>396</ele>
        <time>2015-05-10T09:42:05.690Z</time>
      </trkpt>
      <trkpt lat="47.19163" lon="5.96972">
        <ele>395.1000064</ele>
        <time>2015-05-10T09:42:10.690Z</time>
      </trkpt>
      <trkpt lat="47.19162" lon="5.96987">
        <ele>394</ele>
        <time>2015-05-10T09:42:15.690Z</time>
      </trkpt>
      <trkpt lat="47.19166" lon="5.97002">
        <ele>392</ele>
        <time>2015-05-10T09:42:20.690Z</time>
      </trkpt>
      <trkpt lat="47.19172" lon="5.97014">
        <ele>391</ele>
        <time>2015-05-10T09:42:24.690Z</time>
      </trkpt>
      <trkpt lat="47.1918" lon="5.97028">
        <ele>388</ele>
        <time>2015-05-10T09:42:28.690Z</time>
      </trkpt>
      <trkpt lat="47.19189" lon="5.97039">
        <ele>386.1000064</ele>
        <time>2015-05-10T09:42:32.690Z</time>
      </trkpt>
      <trkpt lat="47.19198" lon="5.97048">
        <ele>385.1000064</ele>
        <time>2015-05-10T09:42:36.690Z</time>
      </trkpt>
      <trkpt lat="47.19207" lon="5.97055">
        <ele>384</ele>
        <time>2015-05-10T09:42:40.690Z</time>
      </trkpt>
      <trkpt lat="47.19216" lon="5.97066">
        <ele>382.1000064</ele>
        <time>2015-05-10T09:42:44.690Z</time>
      </trkpt>
      <trkpt lat="47.19224" lon="5.97076">
        <ele>381.0899968</ele>
        <time>2015-05-10T09:42:48.700Z</time>
      </trkpt>
      <trkpt lat="47.19234" lon="5.97083">
        <ele>380</ele>
        <time>2015-05-10T09:42:52.690Z</time>
      </trkpt>
      <trkpt lat="47.19245" lon="5.97088">
        <ele>378</ele>
        <time>2015-05-10T09:42:57.700Z</time>
      </trkpt>
      <trkpt lat="47.19258" lon="5.97085">
        <ele>376</ele>
        <time>2015-05-10T09:43:01.690Z</time>
      </trkpt>
      <trkpt lat="47.19271" lon="5.97085">
        <ele>375.8999936</ele>
        <time>2015-05-10T09:43:05.690Z</time>
      </trkpt>
      <trkpt lat="47.19282" lon="5.97087">
        <ele>374.1000064</ele>
        <time>2015-05-10T09:43:08.690Z</time>
      </trkpt>
      <trkpt lat="47.19296" lon="5.97091">
        <ele>373</ele>
        <time>2015-05-10T09:43:12.700Z</time>
      </trkpt>
      <trkpt lat="47.19305" lon="5.97094">
        <ele>372</ele>
        <time>2015-05-10T09:43:15.790Z</time>
      </trkpt>
      <trkpt lat="47.19316" lon="5.97097">
        <ele>371</ele>
        <time>2015-05-10T09:43:18.790Z</time>
      </trkpt>
      <trkpt lat="47.19326" lon="5.97099">
        <ele>370.0099968</ele>
        <time>2015-05-10T09:43:21.790Z</time>
      </trkpt>
      <trkpt lat="47.19338" lon="5.97102">
        <ele>369.0099968</ele>
        <time>2015-05-10T09:43:25.790Z</time>
      </trkpt>
      <trkpt lat="47.19349" lon="5.97099">
        <ele>368</ele>
        <time>2015-05-10T09:43:30.790Z</time>
      </trkpt>
      <trkpt lat="47.1936" lon="5.97098">
        <ele>368</ele>
        <time>2015-05-10T09:43:34.790Z</time>
      </trkpt>
      <trkpt lat="47.19372" lon="5.97099">
        <ele>367</ele>
        <time>2015-05-10T09:43:39.790Z</time>
      </trkpt>
      <trkpt lat="47.19383" lon="5.97104">
        <ele>367</ele>
        <time>2015-05-10T09:43:44.790Z</time>
      </trkpt>
      <trkpt lat="47.19394" lon="5.97107">
        <ele>367</ele>
        <time>2015-05-10T09:43:48.790Z</time>
      </trkpt>
      <trkpt lat="47.19405" lon="5.97108">
        <ele>366.0099968</ele>
        <time>2015-05-10T09:43:54.790Z</time>
      </trkpt>
      <trkpt lat="47.19415" lon="5.971">
        <ele>366.9900032</ele>
        <time>2015-05-10T09:44:00.790Z</time>
      </trkpt>
      <trkpt lat="47.19426" lon="5.97102">
        <ele>367</ele>
        <time>2015-05-10T09:44:05.790Z</time>
      </trkpt>
      <trkpt lat="47.19437" lon="5.97104">
        <ele>367</ele>
        <time>2015-05-10T09:44:11.790Z</time>
      </trkpt>
      <trkpt lat="47.19447" lon="5.97113">
        <ele>366</ele>
        <time>2015-05-10T09:44:16.790Z</time>
      </trkpt>
      <trkpt lat="47.19457" lon="5.9712">
        <ele>366</ele>
        <time>2015-05-10T09:44:22.790Z</time>
      </trkpt>
      <trkpt lat="47.19467" lon="5.97123">
        <ele>367</ele>
        <time>2015-05-10T09:44:29.790Z</time>
      </trkpt>
      <trkpt lat="47.19476" lon="5.97134">
        <ele>365</ele>
        <time>2015-05-10T09:44:35.790Z</time>
      </trkpt>
      <trkpt lat="47.19483" lon="5.97146">
        <ele>365</ele>
        <time>2015-05-10T09:44:42.790Z</time>
      </trkpt>
      <trkpt lat="47.19491" lon="5.97155">
        <ele>365</ele>
        <time>2015-05-10T09:44:50.790Z</time>
      </trkpt>
      <trkpt lat="47.19501" lon="5.97148">
        <ele>366</ele>
        <time>2015-05-10T09:44:58.790Z</time>
      </trkpt>
      <trkpt lat="47.1951" lon="5.97138">
        <ele>366</ele>
        <time>2015-05-10T09:45:08.790Z</time>
      </trkpt>
      <trkpt lat="47.19519" lon="5.97128">
        <ele>366</ele>
        <time>2015-05-10T09:45:16.790Z</time>
      </trkpt>
      <trkpt lat="47.19527" lon="5.97116">
        <ele>367</ele>
        <time>2015-05-10T09:45:22.790Z</time>
      </trkpt>
      <trkpt lat="47.19535" lon="5.97105">
        <ele>367</ele>
        <time>2015-05-10T09:45:27.790Z</time>
      </trkpt>
      <trkpt lat="47.19544" lon="5.97094">
        <ele>366.9900032</ele>
        <time>2015-05-10T09:45:31.790Z</time>
      </trkpt>
      <trkpt lat="47.19552" lon="5.97081">
        <ele>367</ele>
        <time>2015-05-10T09:45:36.790Z</time>
      </trkpt>
      <trkpt lat="47.19559" lon="5.97069">
        <ele>368</ele>
        <time>2015-05-10T09:45:41.790Z</time>
      </trkpt>
      <trkpt lat="47.19567" lon="5.97056">
        <ele>369</ele>
        <time>2015-05-10T09:45:46.790Z</time>
      </trkpt>
      <trkpt lat="47.19575" lon="5.97046">
        <ele>369</ele>
        <time>2015-05-10T09:45:51.790Z</time>
      </trkpt>
      <trkpt lat="47.19583" lon="5.97035">
        <ele>369</ele>
        <time>2015-05-10T09:45:56.790Z</time>
      </trkpt>
      <trkpt lat="47.19589" lon="5.97023">
        <ele>369</ele>
        <time>2015-05-10T09:46:01.790Z</time>
      </trkpt>
      <trkpt lat="47.19598" lon="5.97012">
        <ele>369</ele>
        <time>2015-05-10T09:46:06.790Z</time>
      </trkpt>
      <trkpt lat="47.19605" lon="5.97005">
        <ele>370</ele>
        <time>2015-05-10T09:46:10.790Z</time>
      </trkpt>
      <trkpt lat="47.19611" lon="5.96996">
        <ele>372.9900032</ele>
        <time>2015-05-10T09:46:15.790Z</time>
      </trkpt>
      <trkpt lat="47.19617" lon="5.96987">
        <ele>374</ele>
        <time>2015-05-10T09:46:22.790Z</time>
      </trkpt>
      <trkpt lat="47.1962" lon="5.96973">
        <ele>375</ele>
        <time>2015-05-10T09:46:27.790Z</time>
      </trkpt>
      <trkpt lat="47.1963" lon="5.96976">
        <ele>376.9900032</ele>
        <time>2015-05-10T09:46:35.790Z</time>
      </trkpt>
      <trkpt lat="47.19637" lon="5.96989">
        <ele>377.9900032</ele>
        <time>2015-05-10T09:46:41.790Z</time>
      </trkpt>
      <trkpt lat="47.19642" lon="5.97002">
        <ele>378</ele>
        <time>2015-05-10T09:46:46.790Z</time>
      </trkpt>
      <trkpt lat="47.1965" lon="5.97013">
        <ele>380</ele>
        <time>2015-05-10T09:46:52.790Z</time>
      </trkpt>
      <trkpt lat="47.19653" lon="5.97024">
        <ele>380</ele>
        <time>2015-05-10T09:46:56.790Z</time>
      </trkpt>
      <trkpt lat="47.19657" lon="5.97037">
        <ele>379.9900032</ele>
        <time>2015-05-10T09:47:01.790Z</time>
      </trkpt>
      <trkpt lat="47.19661" lon="5.97049">
        <ele>380</ele>
        <time>2015-05-10T09:47:07.790Z</time>
      </trkpt>
      <trkpt lat="47.19665" lon="5.97065">
        <ele>381</ele>
        <time>2015-05-10T09:47:13.790Z</time>
      </trkpt>
      <trkpt lat="47.19659" lon="5.9708">
        <ele>381</ele>
        <time>2015-05-10T09:47:20.790Z</time>
      </trkpt>
      <trkpt lat="47.19666" lon="5.97094">
        <ele>381</ele>
        <time>2015-05-10T09:47:30.790Z</time>
      </trkpt>
      <trkpt lat="47.1967" lon="5.97109">
        <ele>382</ele>
        <time>2015-05-10T09:47:38.790Z</time>
      </trkpt>
      <trkpt lat="47.19672" lon="5.97125">
        <ele>383</ele>
        <time>2015-05-10T09:47:45.790Z</time>
      </trkpt>
      <trkpt lat="47.19679" lon="5.97138">
        <ele>383.76744624483</ele>
        <time>2015-05-10T09:47:50.790Z</time>
      </trkpt>
      <trkpt lat="47.19687" lon="5.97148">
        <ele>384</ele>
        <time>2015-05-10T09:47:54.790Z</time>
      </trkpt>
      <trkpt lat="47.19695" lon="5.97161">
        <ele>385</ele>
        <time>2015-05-10T09:47:58.790Z</time>
      </trkpt>
      <trkpt lat="47.19695" lon="5.97178">
        <ele>385</ele>
        <time>2015-05-10T09:48:04.790Z</time>
      </trkpt>
      <trkpt lat="47.19688" lon="5.97189">
        <ele>384</ele>
        <time>2015-05-10T09:48:08.790Z</time>
      </trkpt>
      <trkpt lat="47.19679" lon="5.97203">
        <ele>384</ele>
        <time>2015-05-10T09:48:12.790Z</time>
      </trkpt>
      <trkpt lat="47.19672" lon="5.97214">
        <ele>384</ele>
        <time>2015-05-10T09:48:15.790Z</time>
      </trkpt>
      <trkpt lat="47.19665" lon="5.97227">
        <ele>384</ele>
        <time>2015-05-10T09:48:18.790Z</time>
      </trkpt>
      <trkpt lat="47.19657" lon="5.97241">
        <ele>384</ele>
        <time>2015-05-10T09:48:22.790Z</time>
      </trkpt>
      <trkpt lat="47.19648" lon="5.97251">
        <ele>385</ele>
        <time>2015-05-10T09:48:25.800Z</time>
      </trkpt>
      <trkpt lat="47.1964" lon="5.9726">
        <ele>385</ele>
        <time>2015-05-10T09:48:28.800Z</time>
      </trkpt>
      <trkpt lat="47.1963" lon="5.97275">
        <ele>386</ele>
        <time>2015-05-10T09:48:33.790Z</time>
      </trkpt>
      <trkpt lat="47.19623" lon="5.97286">
        <ele>386</ele>
        <time>2015-05-10T09:48:37.800Z</time>
      </trkpt>
      <trkpt lat="47.19612" lon="5.973">
        <ele>386</ele>
        <time>2015-05-10T09:48:42.790Z</time>
      </trkpt>
      <trkpt lat="47.19605" lon="5.97312">
        <ele>386</ele>
        <time>2015-05-10T09:48:46.790Z</time>
      </trkpt>
      <trkpt lat="47.19595" lon="5.97322">
        <ele>386</ele>
        <time>2015-05-10T09:48:51.790Z</time>
      </trkpt>
      <trkpt lat="47.19586" lon="5.97334">
        <ele>386</ele>
        <time>2015-05-10T09:48:56.790Z</time>
      </trkpt>
      <trkpt lat="47.1958" lon="5.97345">
        <ele>385.0099968</ele>
        <time>2015-05-10T09:49:00.790Z</time>
      </trkpt>
      <trkpt lat="47.19572" lon="5.97356">
        <ele>385</ele>
        <time>2015-05-10T09:49:05.790Z</time>
      </trkpt>
      <trkpt lat="47.19564" lon="5.97367">
        <ele>384</ele>
        <time>2015-05-10T09:49:11.790Z</time>
      </trkpt>
      <trkpt lat="47.19558" lon="5.97379">
        <ele>384</ele>
        <time>2015-05-10T09:49:18.790Z</time>
      </trkpt>
      <trkpt lat="47.19554" lon="5.97393">
        <ele>382</ele>
        <time>2015-05-10T09:49:24.790Z</time>
      </trkpt>
      <trkpt lat="47.19546" lon="5.97404">
        <ele>382</ele>
        <time>2015-05-10T09:49:28.790Z</time>
      </trkpt>
      <trkpt lat="47.19537" lon="5.97416">
        <ele>381</ele>
        <time>2015-05-10T09:49:32.790Z</time>
      </trkpt>
      <trkpt lat="47.19528" lon="5.97427">
        <ele>380</ele>
        <time>2015-05-10T09:49:36.790Z</time>
      </trkpt>
      <trkpt lat="47.19519" lon="5.97435">
        <ele>379.0099968</ele>
        <time>2015-05-10T09:49:40.790Z</time>
      </trkpt>
      <trkpt lat="47.1951" lon="5.97443">
        <ele>379</ele>
        <time>2015-05-10T09:49:45.790Z</time>
      </trkpt>
      <trkpt lat="47.19509" lon="5.97458">
        <ele>379</ele>
        <time>2015-05-10T09:49:52.790Z</time>
      </trkpt>
      <trkpt lat="47.19505" lon="5.97475">
        <ele>379</ele>
        <time>2015-05-10T09:49:58.790Z</time>
      </trkpt>
      <trkpt lat="47.195" lon="5.9749">
        <ele>378.0099968</ele>
        <time>2015-05-10T09:50:02.790Z</time>
      </trkpt>
      <trkpt lat="47.19493" lon="5.97502">
        <ele>378</ele>
        <time>2015-05-10T09:50:05.790Z</time>
      </trkpt>
      <trkpt lat="47.19486" lon="5.97518">
        <ele>378</ele>
        <time>2015-05-10T09:50:09.800Z</time>
      </trkpt>
      <trkpt lat="47.1948" lon="5.97535">
        <ele>377</ele>
        <time>2015-05-10T09:50:14.790Z</time>
      </trkpt>
      <trkpt lat="47.19481" lon="5.97555">
        <ele>377</ele>
        <time>2015-05-10T09:50:20.790Z</time>
      </trkpt>
      <trkpt lat="47.19484" lon="5.97569">
        <ele>376</ele>
        <time>2015-05-10T09:50:24.810Z</time>
      </trkpt>
      <trkpt lat="47.1949" lon="5.97585">
        <ele>374</ele>
        <time>2015-05-10T09:50:29.790Z</time>
      </trkpt>
      <trkpt lat="47.19495" lon="5.97601">
        <ele>372.01979570628</ele>
        <time>2015-05-10T09:50:33.790Z</time>
      </trkpt>
      <trkpt lat="47.19503" lon="5.97616">
        <ele>368.0099968</ele>
        <time>2015-05-10T09:50:37.790Z</time>
      </trkpt>
      <trkpt lat="47.1951" lon="5.97629">
        <ele>369</ele>
        <time>2015-05-10T09:50:41.790Z</time>
      </trkpt>
      <trkpt lat="47.19515" lon="5.97645">
        <ele>370</ele>
        <time>2015-05-10T09:50:45.790Z</time>
      </trkpt>
      <trkpt lat="47.19517" lon="5.9766">
        <ele>371</ele>
        <time>2015-05-10T09:50:49.790Z</time>
      </trkpt>
      <trkpt lat="47.19517" lon="5.97676">
        <ele>372</ele>
        <time>2015-05-10T09:50:54.790Z</time>
      </trkpt>
      <trkpt lat="47.19521" lon="5.97692">
        <ele>372.0099968</ele>
        <time>2015-05-10T09:51:00.790Z</time>
      </trkpt>
      <trkpt lat="47.19525" lon="5.97709">
        <ele>373</ele>
        <time>2015-05-10T09:51:05.790Z</time>
      </trkpt>
      <trkpt lat="47.19528" lon="5.97723">
        <ele>373.9900032</ele>
        <time>2015-05-10T09:51:09.790Z</time>
      </trkpt>
      <trkpt lat="47.1953" lon="5.97737">
        <ele>374</ele>
        <time>2015-05-10T09:51:13.790Z</time>
      </trkpt>
      <trkpt lat="47.19532" lon="5.97755">
        <ele>374.0099968</ele>
        <time>2015-05-10T09:51:18.790Z</time>
      </trkpt>
      <trkpt lat="47.19534" lon="5.97769">
        <ele>375</ele>
        <time>2015-05-10T09:51:22.790Z</time>
      </trkpt>
      <trkpt lat="47.19537" lon="5.97785">
        <ele>376</ele>
        <time>2015-05-10T09:51:27.790Z</time>
      </trkpt>
      <trkpt lat="47.19537" lon="5.97802">
        <ele>376</ele>
        <time>2015-05-10T09:51:32.790Z</time>
      </trkpt>
      <trkpt lat="47.19541" lon="5.97819">
        <ele>377</ele>
        <time>2015-05-10T09:51:38.790Z</time>
      </trkpt>
      <trkpt lat="47.19543" lon="5.97836">
        <ele>377.9900032</ele>
        <time>2015-05-10T09:51:44.790Z</time>
      </trkpt>
      <trkpt lat="47.19549" lon="5.97848">
        <ele>378</ele>
        <time>2015-05-10T09:51:50.790Z</time>
      </trkpt>
      <trkpt lat="47.19557" lon="5.97858">
        <ele>379</ele>
        <time>2015-05-10T09:51:55.790Z</time>
      </trkpt>
      <trkpt lat="47.19563" lon="5.97872">
        <ele>379</ele>
        <time>2015-05-10T09:52:00.790Z</time>
      </trkpt>
      <trkpt lat="47.19567" lon="5.97888">
        <ele>380</ele>
        <time>2015-05-10T09:52:05.790Z</time>
      </trkpt>
      <trkpt lat="47.19568" lon="5.97904">
        <ele>380</ele>
        <time>2015-05-10T09:52:10.790Z</time>
      </trkpt>
      <trkpt lat="47.19571" lon="5.97919">
        <ele>381</ele>
        <time>2015-05-10T09:52:15.690Z</time>
      </trkpt>
      <trkpt lat="47.19573" lon="5.97933">
        <ele>381</ele>
        <time>2015-05-10T09:52:20.690Z</time>
      </trkpt>
      <trkpt lat="47.19572" lon="5.97949">
        <ele>382</ele>
        <time>2015-05-10T09:52:25.690Z</time>
      </trkpt>
      <trkpt lat="47.19569" lon="5.97966">
        <ele>383</ele>
        <time>2015-05-10T09:52:30.690Z</time>
      </trkpt>
      <trkpt lat="47.19566" lon="5.97982">
        <ele>383.8999936</ele>
        <time>2015-05-10T09:52:35.690Z</time>
      </trkpt>
      <trkpt lat="47.19562" lon="5.97996">
        <ele>384</ele>
        <time>2015-05-10T09:52:39.690Z</time>
      </trkpt>
      <trkpt lat="47.19558" lon="5.98012">
        <ele>385</ele>
        <time>2015-05-10T09:52:44.690Z</time>
      </trkpt>
      <trkpt lat="47.19555" lon="5.98027">
        <ele>386</ele>
        <time>2015-05-10T09:52:48.690Z</time>
      </trkpt>
      <trkpt lat="47.19551" lon="5.98043">
        <ele>387</ele>
        <time>2015-05-10T09:52:52.690Z</time>
      </trkpt>
      <trkpt lat="47.19544" lon="5.98057">
        <ele>387</ele>
        <time>2015-05-10T09:52:56.690Z</time>
      </trkpt>
      <trkpt lat="47.19535" lon="5.98069">
        <ele>388</ele>
        <time>2015-05-10T09:53:01.690Z</time>
      </trkpt>
      <trkpt lat="47.19528" lon="5.9808">
        <ele>389</ele>
        <time>2015-05-10T09:53:04.690Z</time>
      </trkpt>
      <trkpt lat="47.1952" lon="5.98093">
        <ele>389</ele>
        <time>2015-05-10T09:53:08.690Z</time>
      </trkpt>
      <trkpt lat="47.19512" lon="5.98108">
        <ele>390</ele>
        <time>2015-05-10T09:53:12.690Z</time>
      </trkpt>
      <trkpt lat="47.19504" lon="5.98122">
        <ele>390</ele>
        <time>2015-05-10T09:53:17.690Z</time>
      </trkpt>
      <trkpt lat="47.19496" lon="5.98137">
        <ele>391</ele>
        <time>2015-05-10T09:53:21.690Z</time>
      </trkpt>
      <trkpt lat="47.19489" lon="5.98148">
        <ele>391</ele>
        <time>2015-05-10T09:53:24.690Z</time>
      </trkpt>
      <trkpt lat="47.19482" lon="5.98162">
        <ele>391</ele>
        <time>2015-05-10T09:53:28.690Z</time>
      </trkpt>
      <trkpt lat="47.19476" lon="5.98174">
        <ele>392</ele>
        <time>2015-05-10T09:53:32.690Z</time>
      </trkpt>
      <trkpt lat="47.19469" lon="5.98186">
        <ele>392</ele>
        <time>2015-05-10T09:53:36.690Z</time>
      </trkpt>
      <trkpt lat="47.19463" lon="5.98199">
        <ele>393.8999936</ele>
        <time>2015-05-10T09:53:41.690Z</time>
      </trkpt>
      <trkpt lat="47.19453" lon="5.98211">
        <ele>395</ele>
        <time>2015-05-10T09:53:46.690Z</time>
      </trkpt>
      <trkpt lat="47.19446" lon="5.98222">
        <ele>395.8999936</ele>
        <time>2015-05-10T09:53:50.690Z</time>
      </trkpt>
      <trkpt lat="47.19439" lon="5.98235">
        <ele>396.8999936</ele>
        <time>2015-05-10T09:53:55.690Z</time>
      </trkpt>
      <trkpt lat="47.19432" lon="5.98246">
        <ele>397</ele>
        <time>2015-05-10T09:53:59.700Z</time>
      </trkpt>
      <trkpt lat="47.19427" lon="5.9826">
        <ele>398</ele>
        <time>2015-05-10T09:54:04.690Z</time>
      </trkpt>
      <trkpt lat="47.19419" lon="5.98272">
        <ele>398.70312</ele>
        <time>2015-05-10T09:54:08.690Z</time>
      </trkpt>
      <trkpt lat="47.19408" lon="5.98281">
        <ele>399</ele>
        <time>2015-05-10T09:54:13.790Z</time>
      </trkpt>
      <trkpt lat="47.19397" lon="5.98289">
        <ele>399</ele>
        <time>2015-05-10T09:54:18.790Z</time>
      </trkpt>
      <trkpt lat="47.19388" lon="5.98294">
        <ele>400</ele>
        <time>2015-05-10T09:54:23.790Z</time>
      </trkpt>
      <trkpt lat="47.19379" lon="5.98299">
        <ele>401</ele>
        <time>2015-05-10T09:54:29.790Z</time>
      </trkpt>
      <trkpt lat="47.19367" lon="5.98304">
        <ele>402</ele>
        <time>2015-05-10T09:54:35.790Z</time>
      </trkpt>
      <trkpt lat="47.19358" lon="5.98313">
        <ele>402</ele>
        <time>2015-05-10T09:54:41.790Z</time>
      </trkpt>
      <trkpt lat="47.19351" lon="5.98325">
        <ele>403</ele>
        <time>2015-05-10T09:54:45.790Z</time>
      </trkpt>
      <trkpt lat="47.19342" lon="5.98336">
        <ele>403</ele>
        <time>2015-05-10T09:54:49.790Z</time>
      </trkpt>
      <trkpt lat="47.19333" lon="5.98344">
        <ele>405</ele>
        <time>2015-05-10T09:54:53.790Z</time>
      </trkpt>
      <trkpt lat="47.19332" lon="5.98359">
        <ele>405.9900032</ele>
        <time>2015-05-10T09:54:58.790Z</time>
      </trkpt>
      <trkpt lat="47.19336" lon="5.98374">
        <ele>405</ele>
        <time>2015-05-10T09:55:02.790Z</time>
      </trkpt>
      <trkpt lat="47.19342" lon="5.98386">
        <ele>406</ele>
        <time>2015-05-10T09:55:05.790Z</time>
      </trkpt>
      <trkpt lat="47.19348" lon="5.98398">
        <ele>406</ele>
        <time>2015-05-10T09:55:08.790Z</time>
      </trkpt>
      <trkpt lat="47.19353" lon="5.98407">
        <ele>407</ele>
        <time>2015-05-10T09:55:11.790Z</time>
      </trkpt>
      <trkpt lat="47.19358" lon="5.98421">
        <ele>407</ele>
        <time>2015-05-10T09:55:15.790Z</time>
      </trkpt>
      <trkpt lat="47.19364" lon="5.98436">
        <ele>407.9900032</ele>
        <time>2015-05-10T09:55:19.790Z</time>
      </trkpt>
      <trkpt lat="47.19371" lon="5.9845">
        <ele>408</ele>
        <time>2015-05-10T09:55:23.790Z</time>
      </trkpt>
      <trkpt lat="47.19377" lon="5.98461">
        <ele>408</ele>
        <time>2015-05-10T09:55:26.790Z</time>
      </trkpt>
      <trkpt lat="47.19384" lon="5.98472">
        <ele>407</ele>
        <time>2015-05-10T09:55:29.790Z</time>
      </trkpt>
      <trkpt lat="47.1939" lon="5.98484">
        <ele>407</ele>
        <time>2015-05-10T09:55:32.790Z</time>
      </trkpt>
      <trkpt lat="47.19396" lon="5.98497">
        <ele>406.0099968</ele>
        <time>2015-05-10T09:55:35.790Z</time>
      </trkpt>
      <trkpt lat="47.19404" lon="5.98509">
        <ele>405.0099968</ele>
        <time>2015-05-10T09:55:38.790Z</time>
      </trkpt>
      <trkpt lat="47.1941" lon="5.98522">
        <ele>405</ele>
        <time>2015-05-10T09:55:41.790Z</time>
      </trkpt>
      <trkpt lat="47.19416" lon="5.98535">
        <ele>404</ele>
        <time>2015-05-10T09:55:44.790Z</time>
      </trkpt>
      <trkpt lat="47.19423" lon="5.98549">
        <ele>403</ele>
        <time>2015-05-10T09:55:47.790Z</time>
      </trkpt>
      <trkpt lat="47.19428" lon="5.98562">
        <ele>402.0099968</ele>
        <time>2015-05-10T09:55:50.790Z</time>
      </trkpt>
      <trkpt lat="47.19433" lon="5.98576">
        <ele>402</ele>
        <time>2015-05-10T09:55:53.790Z</time>
      </trkpt>
      <trkpt lat="47.19439" lon="5.9859">
        <ele>400.0099968</ele>
        <time>2015-05-10T09:55:56.790Z</time>
      </trkpt>
      <trkpt lat="47.19447" lon="5.98603">
        <ele>400.0099968</ele>
        <time>2015-05-10T09:55:59.790Z</time>
      </trkpt>
      <trkpt lat="47.19454" lon="5.98616">
        <ele>400</ele>
        <time>2015-05-10T09:56:02.790Z</time>
      </trkpt>
      <trkpt lat="47.19461" lon="5.98628">
        <ele>399</ele>
        <time>2015-05-10T09:56:05.790Z</time>
      </trkpt>
      <trkpt lat="47.19469" lon="5.98642">
        <ele>398.9900032</ele>
        <time>2015-05-10T09:56:09.800Z</time>
      </trkpt>
      <trkpt lat="47.19476" lon="5.9866">
        <ele>398</ele>
        <time>2015-05-10T09:56:14.790Z</time>
      </trkpt>
      <trkpt lat="47.19479" lon="5.98677">
        <ele>397.99010214686</ele>
        <time>2015-05-10T09:56:20.790Z</time>
      </trkpt>
      <trkpt lat="47.19479" lon="5.98693">
        <ele>398</ele>
        <time>2015-05-10T09:56:29.790Z</time>
      </trkpt>
      <trkpt lat="47.19481" lon="5.98709">
        <ele>398</ele>
        <time>2015-05-10T09:56:38.690Z</time>
      </trkpt>
      <trkpt lat="47.19482" lon="5.98723">
        <ele>398</ele>
        <time>2015-05-10T09:56:45.690Z</time>
      </trkpt>
      <trkpt lat="47.19482" lon="5.98739">
        <ele>399</ele>
        <time>2015-05-10T09:56:52.690Z</time>
      </trkpt>
      <trkpt lat="47.19482" lon="5.98756">
        <ele>400.8999936</ele>
        <time>2015-05-10T09:56:58.690Z</time>
      </trkpt>
      <trkpt lat="47.1948" lon="5.98773">
        <ele>401</ele>
        <time>2015-05-10T09:57:02.690Z</time>
      </trkpt>
      <trkpt lat="47.1948" lon="5.98789">
        <ele>401</ele>
        <time>2015-05-10T09:57:06.690Z</time>
      </trkpt>
      <trkpt lat="47.1948" lon="5.98805">
        <ele>402</ele>
        <time>2015-05-10T09:57:10.690Z</time>
      </trkpt>
      <trkpt lat="47.1948" lon="5.9882">
        <ele>402.8999936</ele>
        <time>2015-05-10T09:57:14.690Z</time>
      </trkpt>
      <trkpt lat="47.1948" lon="5.98837">
        <ele>403.8999936</ele>
        <time>2015-05-10T09:57:20.690Z</time>
      </trkpt>
      <trkpt lat="47.19485" lon="5.98852">
        <ele>405</ele>
        <time>2015-05-10T09:57:25.690Z</time>
      </trkpt>
      <trkpt lat="47.19493" lon="5.98862">
        <ele>405</ele>
        <time>2015-05-10T09:57:29.690Z</time>
      </trkpt>
      <trkpt lat="47.19501" lon="5.98875">
        <ele>405.8999936</ele>
        <time>2015-05-10T09:57:33.690Z</time>
      </trkpt>
      <trkpt lat="47.19508" lon="5.98886">
        <ele>406.8999936</ele>
        <time>2015-05-10T09:57:37.690Z</time>
      </trkpt>
      <trkpt lat="47.19514" lon="5.98898">
        <ele>407</ele>
        <time>2015-05-10T09:57:41.690Z</time>
      </trkpt>
      <trkpt lat="47.19518" lon="5.98914">
        <ele>408</ele>
        <time>2015-05-10T09:57:46.690Z</time>
      </trkpt>
      <trkpt lat="47.19524" lon="5.98928">
        <ele>408</ele>
        <time>2015-05-10T09:57:50.690Z</time>
      </trkpt>
      <trkpt lat="47.19529" lon="5.98941">
        <ele>409</ele>
        <time>2015-05-10T09:57:54.690Z</time>
      </trkpt>
      <trkpt lat="47.19536" lon="5.98957">
        <ele>409.8999936</ele>
        <time>2015-05-10T09:57:58.690Z</time>
      </trkpt>
      <trkpt lat="47.1954" lon="5.98972">
        <ele>410</ele>
        <time>2015-05-10T09:58:02.690Z</time>
      </trkpt>
      <trkpt lat="47.19546" lon="5.98988">
        <ele>411</ele>
        <time>2015-05-10T09:58:06.690Z</time>
      </trkpt>
      <trkpt lat="47.19551" lon="5.99004">
        <ele>411.1000064</ele>
        <time>2015-05-10T09:58:10.690Z</time>
      </trkpt>
      <trkpt lat="47.19557" lon="5.99018">
        <ele>412</ele>
        <time>2015-05-10T09:58:14.690Z</time>
      </trkpt>
      <trkpt lat="47.19563" lon="5.99031">
        <ele>413</ele>
        <time>2015-05-10T09:58:19.690Z</time>
      </trkpt>
      <trkpt lat="47.1957" lon="5.99045">
        <ele>414</ele>
        <time>2015-05-10T09:58:24.690Z</time>
      </trkpt>
      <trkpt lat="47.19576" lon="5.99061">
        <ele>414</ele>
        <time>2015-05-10T09:58:29.690Z</time>
      </trkpt>
      <trkpt lat="47.1958" lon="5.99077">
        <ele>415</ele>
        <time>2015-05-10T09:58:35.690Z</time>
      </trkpt>
      <trkpt lat="47.19586" lon="5.99091">
        <ele>414.8999936</ele>
        <time>2015-05-10T09:58:41.690Z</time>
      </trkpt>
      <trkpt lat="47.19593" lon="5.99104">
        <ele>414.8999936</ele>
        <time>2015-05-10T09:58:46.690Z</time>
      </trkpt>
      <trkpt lat="47.19601" lon="5.99114">
        <ele>416</ele>
        <time>2015-05-10T09:58:51.790Z</time>
      </trkpt>
      <trkpt lat="47.19604" lon="5.99126">
        <ele>417</ele>
        <time>2015-05-10T09:58:59.790Z</time>
      </trkpt>
      <trkpt lat="47.19606" lon="5.99141">
        <ele>418</ele>
        <time>2015-05-10T09:59:07.790Z</time>
      </trkpt>
      <trkpt lat="47.19611" lon="5.99154">
        <ele>418</ele>
        <time>2015-05-10T09:59:17.790Z</time>
      </trkpt>
      <trkpt lat="47.19619" lon="5.9916">
        <ele>417</ele>
        <time>2015-05-10T09:59:23.790Z</time>
      </trkpt>
      <trkpt lat="47.19628" lon="5.99161">
        <ele>419</ele>
        <time>2015-05-10T09:59:29.790Z</time>
      </trkpt>
      <trkpt lat="47.19635" lon="5.99163">
        <ele>420</ele>
        <time>2015-05-10T09:59:35.790Z</time>
      </trkpt>
      <trkpt lat="47.19643" lon="5.99168">
        <ele>421.0099968</ele>
        <time>2015-05-10T09:59:42.790Z</time>
      </trkpt>
      <trkpt lat="47.19648" lon="5.99179">
        <ele>422.0099968</ele>
        <time>2015-05-10T09:59:49.790Z</time>
      </trkpt>
      <trkpt lat="47.19646" lon="5.99189">
        <ele>423</ele>
        <time>2015-05-10T09:59:54.790Z</time>
      </trkpt>
      <trkpt lat="47.19642" lon="5.99198">
        <ele>424.9900032</ele>
        <time>2015-05-10T09:59:58.790Z</time>
      </trkpt>
      <trkpt lat="47.19637" lon="5.99203">
        <ele>426</ele>
        <time>2015-05-10T10:00:03.690Z</time>
      </trkpt>
      <trkpt lat="47.19632" lon="5.99208">
        <ele>426.8999936</ele>
        <time>2015-05-10T10:00:07.690Z</time>
      </trkpt>
      <trkpt lat="47.19627" lon="5.99217">
        <ele>428</ele>
        <time>2015-05-10T10:00:11.690Z</time>
      </trkpt>
      <trkpt lat="47.19623" lon="5.99225">
        <ele>429</ele>
        <time>2015-05-10T10:00:14.690Z</time>
      </trkpt>
      <trkpt lat="47.19618" lon="5.99235">
        <ele>430</ele>
        <time>2015-05-10T10:00:19.690Z</time>
      </trkpt>
      <trkpt lat="47.19613" lon="5.99242">
        <ele>431.8999936</ele>
        <time>2015-05-10T10:00:24.690Z</time>
      </trkpt>
      <trkpt lat="47.19608" lon="5.9925">
        <ele>433</ele>
        <time>2015-05-10T10:00:31.690Z</time>
      </trkpt>
      <trkpt lat="47.19603" lon="5.99255">
        <ele>435</ele>
        <time>2015-05-10T10:00:38.690Z</time>
      </trkpt>
      <trkpt lat="47.19595" lon="5.99263">
        <ele>438</ele>
        <time>2015-05-10T10:00:51.690Z</time>
      </trkpt>
      <trkpt lat="47.19587" lon="5.99267">
        <ele>437</ele>
        <time>2015-05-10T10:01:00.690Z</time>
      </trkpt>
      <trkpt lat="47.19578" lon="5.99268">
        <ele>437</ele>
        <time>2015-05-10T10:01:09.790Z</time>
      </trkpt>
      <trkpt lat="47.1957" lon="5.99266">
        <ele>437</ele>
        <time>2015-05-10T10:01:17.790Z</time>
      </trkpt>
      <trkpt lat="47.19563" lon="5.99259">
        <ele>439</ele>
        <time>2015-05-10T10:01:24.790Z</time>
      </trkpt>
      <trkpt lat="47.19556" lon="5.99248">
        <ele>441</ele>
        <time>2015-05-10T10:01:34.790Z</time>
      </trkpt>
      <trkpt lat="47.1955" lon="5.99239">
        <ele>444</ele>
        <time>2015-05-10T10:01:44.790Z</time>
      </trkpt>
      <trkpt lat="47.19546" lon="5.99226">
        <ele>449</ele>
        <time>2015-05-10T10:01:54.790Z</time>
      </trkpt>
      <trkpt lat="47.19545" lon="5.99213">
        <ele>451</ele>
        <time>2015-05-10T10:02:02.790Z</time>
      </trkpt>
      <trkpt lat="47.1954" lon="5.99205">
        <ele>452</ele>
        <time>2015-05-10T10:02:08.790Z</time>
      </trkpt>
      <trkpt lat="47.19535" lon="5.99195">
        <ele>454</ele>
        <time>2015-05-10T10:02:14.790Z</time>
      </trkpt>
      <trkpt lat="47.19532" lon="5.99186">
        <ele>456</ele>
        <time>2015-05-10T10:02:21.800Z</time>
      </trkpt>
      <trkpt lat="47.19526" lon="5.99175">
        <ele>458.99010214686</ele>
        <time>2015-05-10T10:02:29.790Z</time>
      </trkpt>
      <trkpt lat="47.19523" lon="5.99164">
        <ele>461</ele>
        <time>2015-05-10T10:02:38.790Z</time>
      </trkpt>
      <trkpt lat="47.19519" lon="5.99152">
        <ele>463.99010214686</ele>
        <time>2015-05-10T10:02:47.790Z</time>
      </trkpt>
      <trkpt lat="47.19514" lon="5.99145">
        <ele>465</ele>
        <time>2015-05-10T10:02:52.790Z</time>
      </trkpt>
      <trkpt lat="47.1951" lon="5.99152">
        <ele>469</ele>
        <time>2015-05-10T10:02:59.790Z</time>
      </trkpt>
      <trkpt lat="47.19507" lon="5.99162">
        <ele>471.98020429372</ele>
        <time>2015-05-10T10:03:03.790Z</time>
      </trkpt>
      <trkpt lat="47.19503" lon="5.99171">
        <ele>473.9900032</ele>
        <time>2015-05-10T10:03:07.790Z</time>
      </trkpt>
      <trkpt lat="47.19501" lon="5.99179">
        <ele>474</ele>
        <time>2015-05-10T10:03:11.790Z</time>
      </trkpt>
      <trkpt lat="47.19499" lon="5.99188">
        <ele>475.9900032</ele>
        <time>2015-05-10T10:03:15.790Z</time>
      </trkpt>
      <trkpt lat="47.19497" lon="5.99193">
        <ele>476</ele>
        <time>2015-05-10T10:03:18.690Z</time>
      </trkpt>
      <trkpt lat="47.19495" lon="5.99201">
        <ele>477</ele>
        <time>2015-05-10T10:03:22.690Z</time>
      </trkpt>
      <trkpt lat="47.19492" lon="5.99209">
        <ele>477.8999936</ele>
        <time>2015-05-10T10:03:26.690Z</time>
      </trkpt>
      <trkpt lat="47.19491" lon="5.99216">
        <ele>478</ele>
        <time>2015-05-10T10:03:30.690Z</time>
      </trkpt>
      <trkpt lat="47.19489" lon="5.99223">
        <ele>479</ele>
        <time>2015-05-10T10:03:34.690Z</time>
      </trkpt>
      <trkpt lat="47.19487" lon="5.99233">
        <ele>480</ele>
        <time>2015-05-10T10:03:38.690Z</time>
      </trkpt>
      <trkpt lat="47.19484" lon="5.99242">
        <ele>481</ele>
        <time>2015-05-10T10:03:41.690Z</time>
      </trkpt>
      <trkpt lat="47.19482" lon="5.99252">
        <ele>481.8999936</ele>
        <time>2015-05-10T10:03:44.690Z</time>
      </trkpt>
      <trkpt lat="47.1948" lon="5.99261">
        <ele>483</ele>
        <time>2015-05-10T10:03:47.690Z</time>
      </trkpt>
      <trkpt lat="47.19477" lon="5.99269">
        <ele>484</ele>
        <time>2015-05-10T10:03:50.690Z</time>
      </trkpt>
      <trkpt lat="47.19474" lon="5.99279">
        <ele>485.8999936</ele>
        <time>2015-05-10T10:03:53.690Z</time>
      </trkpt>
      <trkpt lat="47.19471" lon="5.9929">
        <ele>487</ele>
        <time>2015-05-10T10:03:57.690Z</time>
      </trkpt>
      <trkpt lat="47.19467" lon="5.99301">
        <ele>488</ele>
        <time>2015-05-10T10:04:01.690Z</time>
      </trkpt>
      <trkpt lat="47.19466" lon="5.9931">
        <ele>489</ele>
        <time>2015-05-10T10:04:04.690Z</time>
      </trkpt>
      <trkpt lat="47.19465" lon="5.99322">
        <ele>490</ele>
        <time>2015-05-10T10:04:08.690Z</time>
      </trkpt>
      <trkpt lat="47.19463" lon="5.99332">
        <ele>490</ele>
        <time>2015-05-10T10:04:11.690Z</time>
      </trkpt>
      <trkpt lat="47.19462" lon="5.99345">
        <ele>491</ele>
        <time>2015-05-10T10:04:16.690Z</time>
      </trkpt>
      <trkpt lat="47.19465" lon="5.99357">
        <ele>491</ele>
        <time>2015-05-10T10:04:22.690Z</time>
      </trkpt>
      <trkpt lat="47.19471" lon="5.9937">
        <ele>492</ele>
        <time>2015-05-10T10:04:30.690Z</time>
      </trkpt>
      <trkpt lat="47.19477" lon="5.99381">
        <ele>492</ele>
        <time>2015-05-10T10:04:35.690Z</time>
      </trkpt>
      <trkpt lat="47.19486" lon="5.99391">
        <ele>492</ele>
        <time>2015-05-10T10:04:41.690Z</time>
      </trkpt>
      <trkpt lat="47.19494" lon="5.994">
        <ele>494</ele>
        <time>2015-05-10T10:04:46.690Z</time>
      </trkpt>
      <trkpt lat="47.19503" lon="5.9941">
        <ele>495.8999936</ele>
        <time>2015-05-10T10:04:51.690Z</time>
      </trkpt>
      <trkpt lat="47.19514" lon="5.99419">
        <ele>497</ele>
        <time>2015-05-10T10:04:56.690Z</time>
      </trkpt>
      <trkpt lat="47.19524" lon="5.99427">
        <ele>497</ele>
        <time>2015-05-10T10:05:00.690Z</time>
      </trkpt>
      <trkpt lat="47.19533" lon="5.99435">
        <ele>498</ele>
        <time>2015-05-10T10:05:04.690Z</time>
      </trkpt>
      <trkpt lat="47.19543" lon="5.99444">
        <ele>499</ele>
        <time>2015-05-10T10:05:09.690Z</time>
      </trkpt>
      <trkpt lat="47.19552" lon="5.9945">
        <ele>500</ele>
        <time>2015-05-10T10:05:14.690Z</time>
      </trkpt>
      <trkpt lat="47.19562" lon="5.99457">
        <ele>501.8999936</ele>
        <time>2015-05-10T10:05:18.690Z</time>
      </trkpt>
      <trkpt lat="47.19572" lon="5.99467">
        <ele>502.8999936</ele>
        <time>2015-05-10T10:05:22.690Z</time>
      </trkpt>
      <trkpt lat="47.19581" lon="5.99469">
        <ele>504</ele>
        <time>2015-05-10T10:05:26.690Z</time>
      </trkpt>
      <trkpt lat="47.1959" lon="5.99472">
        <ele>504</ele>
        <time>2015-05-10T10:05:29.690Z</time>
      </trkpt>
      <trkpt lat="47.196" lon="5.99479">
        <ele>505</ele>
        <time>2015-05-10T10:05:32.690Z</time>
      </trkpt>
      <trkpt lat="47.19609" lon="5.99489">
        <ele>505</ele>
        <time>2015-05-10T10:05:37.800Z</time>
      </trkpt>
      <trkpt lat="47.19613" lon="5.99505">
        <ele>506</ele>
        <time>2015-05-10T10:05:42.790Z</time>
      </trkpt>
      <trkpt lat="47.19619" lon="5.99518">
        <ele>506</ele>
        <time>2015-05-10T10:05:46.800Z</time>
      </trkpt>
      <trkpt lat="47.19629" lon="5.99533">
        <ele>506.99010214686</ele>
        <time>2015-05-10T10:05:51.790Z</time>
      </trkpt>
      <trkpt lat="47.19636" lon="5.99546">
        <ele>505</ele>
        <time>2015-05-10T10:05:55.800Z</time>
      </trkpt>
      <trkpt lat="47.19644" lon="5.99559">
        <ele>503</ele>
        <time>2015-05-10T10:06:00.790Z</time>
      </trkpt>
      <trkpt lat="47.19651" lon="5.99575">
        <ele>504</ele>
        <time>2015-05-10T10:06:06.790Z</time>
      </trkpt>
      <trkpt lat="47.1966" lon="5.99585">
        <ele>503</ele>
        <time>2015-05-10T10:06:12.790Z</time>
      </trkpt>
      <trkpt lat="47.19668" lon="5.99593">
        <ele>500.98990225486</ele>
        <time>2015-05-10T10:06:19.810Z</time>
      </trkpt>
      <trkpt lat="47.19676" lon="5.99605">
        <ele>500</ele>
        <time>2015-05-10T10:06:24.790Z</time>
      </trkpt>
      <trkpt lat="47.19686" lon="5.99616">
        <ele>499</ele>
        <time>2015-05-10T10:06:30.790Z</time>
      </trkpt>
      <trkpt lat="47.19694" lon="5.99625">
        <ele>499</ele>
        <time>2015-05-10T10:06:34.790Z</time>
      </trkpt>
      <trkpt lat="47.19702" lon="5.99636">
        <ele>498</ele>
        <time>2015-05-10T10:06:38.790Z</time>
      </trkpt>
      <trkpt lat="47.19712" lon="5.99647">
        <ele>498</ele>
        <time>2015-05-10T10:06:43.790Z</time>
      </trkpt>
      <trkpt lat="47.1972" lon="5.99656">
        <ele>498</ele>
        <time>2015-05-10T10:06:47.790Z</time>
      </trkpt>
      <trkpt lat="47.19728" lon="5.99668">
        <ele>497</ele>
        <time>2015-05-10T10:06:51.790Z</time>
      </trkpt>
      <trkpt lat="47.19736" lon="5.9968">
        <ele>497</ele>
        <time>2015-05-10T10:06:56.790Z</time>
      </trkpt>
      <trkpt lat="47.19743" lon="5.99691">
        <ele>493.0099968</ele>
        <time>2015-05-10T10:07:00.790Z</time>
      </trkpt>
      <trkpt lat="47.19752" lon="5.99699">
        <ele>493</ele>
        <time>2015-05-10T10:07:05.790Z</time>
      </trkpt>
      <trkpt lat="47.19759" lon="5.99708">
        <ele>493</ele>
        <time>2015-05-10T10:07:10.790Z</time>
      </trkpt>
      <trkpt lat="47.19769" lon="5.99715">
        <ele>493</ele>
        <time>2015-05-10T10:07:15.790Z</time>
      </trkpt>
      <trkpt lat="47.19778" lon="5.99724">
        <ele>492</ele>
        <time>2015-05-10T10:07:19.790Z</time>
      </trkpt>
      <trkpt lat="47.19785" lon="5.99731">
        <ele>492</ele>
        <time>2015-05-10T10:07:22.790Z</time>
      </trkpt>
      <trkpt lat="47.19793" lon="5.99736">
        <ele>492</ele>
        <time>2015-05-10T10:07:26.790Z</time>
      </trkpt>
      <trkpt lat="47.19802" lon="5.99736">
        <ele>492</ele>
        <time>2015-05-10T10:07:32.790Z</time>
      </trkpt>
      <trkpt lat="47.19809" lon="5.9974">
        <ele>493</ele>
        <time>2015-05-10T10:07:39.790Z</time>
      </trkpt>
      <trkpt lat="47.19815" lon="5.99749">
        <ele>492</ele>
        <time>2015-05-10T10:07:46.790Z</time>
      </trkpt>
      <trkpt lat="47.19821" lon="5.99762">
        <ele>491</ele>
        <time>2015-05-10T10:07:51.410Z</time>
      </trkpt>
      <trkpt lat="47.19823" lon="5.99775">
        <ele>489</ele>
        <time>2015-05-10T10:07:56.690Z</time>
      </trkpt>
      <trkpt lat="47.19824" lon="5.99787">
        <ele>488</ele>
        <time>2015-05-10T10:08:02.690Z</time>
      </trkpt>
      <trkpt lat="47.19831" lon="5.99795">
        <ele>488</ele>
        <time>2015-05-10T10:08:06.690Z</time>
      </trkpt>
      <trkpt lat="47.19839" lon="5.99802">
        <ele>487</ele>
        <time>2015-05-10T10:08:11.690Z</time>
      </trkpt>
      <trkpt lat="47.19844" lon="5.99811">
        <ele>486</ele>
        <time>2015-05-10T10:08:15.690Z</time>
      </trkpt>
      <trkpt lat="47.19847" lon="5.99821">
        <ele>485</ele>
        <time>2015-05-10T10:08:20.690Z</time>
      </trkpt>
      <trkpt lat="47.1985" lon="5.99832">
        <ele>483</ele>
        <time>2015-05-10T10:08:28.690Z</time>
      </trkpt>
      <trkpt lat="47.19856" lon="5.99843">
        <ele>481</ele>
        <time>2015-05-10T10:08:33.690Z</time>
      </trkpt>
      <trkpt lat="47.19859" lon="5.99855">
        <ele>479</ele>
        <time>2015-05-10T10:08:40.690Z</time>
      </trkpt>
      <trkpt lat="47.19862" lon="5.99866">
        <ele>476.1000064</ele>
        <time>2015-05-10T10:08:46.690Z</time>
      </trkpt>
      <trkpt lat="47.19869" lon="5.99876">
        <ele>476</ele>
        <time>2015-05-10T10:08:51.690Z</time>
      </trkpt>
      <trkpt lat="47.19877" lon="5.99884">
        <ele>475</ele>
        <time>2015-05-10T10:08:58.690Z</time>
      </trkpt>
      <trkpt lat="47.19884" lon="5.99898">
        <ele>475</ele>
        <time>2015-05-10T10:09:03.690Z</time>
      </trkpt>
      <trkpt lat="47.19892" lon="5.99907">
        <ele>474</ele>
        <time>2015-05-10T10:09:08.700Z</time>
      </trkpt>
      <trkpt lat="47.19901" lon="5.99915">
        <ele>474</ele>
        <time>2015-05-10T10:09:15.690Z</time>
      </trkpt>
      <trkpt lat="47.1991" lon="5.9992">
        <ele>473</ele>
        <time>2015-05-10T10:09:20.690Z</time>
      </trkpt>
      <trkpt lat="47.19919" lon="5.9993">
        <ele>472</ele>
        <time>2015-05-10T10:09:25.690Z</time>
      </trkpt>
      <trkpt lat="47.19927" lon="5.9994">
        <ele>471</ele>
        <time>2015-05-10T10:09:29.690Z</time>
      </trkpt>
      <trkpt lat="47.19935" lon="5.99954">
        <ele>470</ele>
        <time>2015-05-10T10:09:33.690Z</time>
      </trkpt>
      <trkpt lat="47.19942" lon="5.99966">
        <ele>469</ele>
        <time>2015-05-10T10:09:38.690Z</time>
      </trkpt>
      <trkpt lat="47.19947" lon="5.9998">
        <ele>468</ele>
        <time>2015-05-10T10:09:43.690Z</time>
      </trkpt>
      <trkpt lat="47.19947" lon="5.99994">
        <ele>467</ele>
        <time>2015-05-10T10:09:53.790Z</time>
      </trkpt>
      <trkpt lat="47.19951" lon="6.00002">
        <ele>467</ele>
        <time>2015-05-10T10:10:00.800Z</time>
      </trkpt>
      <trkpt lat="47.19955" lon="6.00011">
        <ele>466</ele>
        <time>2015-05-10T10:10:06.790Z</time>
      </trkpt>
      <trkpt lat="47.1996" lon="6.00019">
        <ele>467</ele>
        <time>2015-05-10T10:10:12.790Z</time>
      </trkpt>
      <trkpt lat="47.19964" lon="6.00031">
        <ele>468</ele>
        <time>2015-05-10T10:10:21.790Z</time>
      </trkpt>
      <trkpt lat="47.19972" lon="6.00038">
        <ele>469</ele>
        <time>2015-05-10T10:10:27.790Z</time>
      </trkpt>
      <trkpt lat="47.19982" lon="6.00044">
        <ele>470.9900032</ele>
        <time>2015-05-10T10:10:33.790Z</time>
      </trkpt>
      <trkpt lat="47.19991" lon="6.00056">
        <ele>471</ele>
        <time>2015-05-10T10:10:39.790Z</time>
      </trkpt>
      <trkpt lat="47.2" lon="6.00066">
        <ele>472</ele>
        <time>2015-05-10T10:10:44.790Z</time>
      </trkpt>
      <trkpt lat="47.20007" lon="6.00079">
        <ele>472</ele>
        <time>2015-05-10T10:10:48.790Z</time>
      </trkpt>
      <trkpt lat="47.20005" lon="6.00093">
        <ele>473</ele>
        <time>2015-05-10T10:10:59.790Z</time>
      </trkpt>
      <trkpt lat="47.20004" lon="6.00105">
        <ele>473</ele>
        <time>2015-05-10T10:11:07.790Z</time>
      </trkpt>
      <trkpt lat="47.20011" lon="6.00114">
        <ele>475</ele>
        <time>2015-05-10T10:11:18.790Z</time>
      </trkpt>
      <trkpt lat="47.20017" lon="6.00125">
        <ele>477</ele>
        <time>2015-05-10T10:11:25.790Z</time>
      </trkpt>
      <trkpt lat="47.20029" lon="6.00126">
        <ele>477</ele>
        <time>2015-05-10T10:11:31.790Z</time>
      </trkpt>
      <trkpt lat="47.20038" lon="6.00133">
        <ele>478</ele>
        <time>2015-05-10T10:11:35.790Z</time>
      </trkpt>
      <trkpt lat="47.20048" lon="6.00143">
        <ele>479</ele>
        <time>2015-05-10T10:11:40.790Z</time>
      </trkpt>
      <trkpt lat="47.20052" lon="6.00157">
        <ele>479</ele>
        <time>2015-05-10T10:11:45.790Z</time>
      </trkpt>
      <trkpt lat="47.20053" lon="6.00173">
        <ele>477</ele>
        <time>2015-05-10T10:11:50.790Z</time>
      </trkpt>
      <trkpt lat="47.20062" lon="6.00166">
        <ele>476</ele>
        <time>2015-05-10T10:12:07.790Z</time>
      </trkpt>
      <trkpt lat="47.20072" lon="6.00166">
        <ele>474</ele>
        <time>2015-05-10T10:12:14.790Z</time>
      </trkpt>
      <trkpt lat="47.20081" lon="6.00175">
        <ele>473.0099968</ele>
        <time>2015-05-10T10:12:19.790Z</time>
      </trkpt>
      <trkpt lat="47.20084" lon="6.00189">
        <ele>473</ele>
        <time>2015-05-10T10:12:24.690Z</time>
      </trkpt>
      <trkpt lat="47.20088" lon="6.00206">
        <ele>472</ele>
        <time>2015-05-10T10:12:30.690Z</time>
      </trkpt>
      <trkpt lat="47.20092" lon="6.00221">
        <ele>470</ele>
        <time>2015-05-10T10:12:35.690Z</time>
      </trkpt>
      <trkpt lat="47.201" lon="6.00232">
        <ele>469</ele>
        <time>2015-05-10T10:12:41.690Z</time>
      </trkpt>
      <trkpt lat="47.20111" lon="6.00239">
        <ele>468</ele>
        <time>2015-05-10T10:12:47.690Z</time>
      </trkpt>
      <trkpt lat="47.20119" lon="6.00248">
        <ele>466</ele>
        <time>2015-05-10T10:12:55.690Z</time>
      </trkpt>
      <trkpt lat="47.20122" lon="6.00264">
        <ele>460.1000064</ele>
        <time>2015-05-10T10:13:00.690Z</time>
      </trkpt>
      <trkpt lat="47.20125" lon="6.00281">
        <ele>456.1000064</ele>
        <time>2015-05-10T10:13:06.690Z</time>
      </trkpt>
      <trkpt lat="47.20124" lon="6.00296">
        <ele>452.1000064</ele>
        <time>2015-05-10T10:13:11.690Z</time>
      </trkpt>
      <trkpt lat="47.20119" lon="6.00311">
        <ele>449.1000064</ele>
        <time>2015-05-10T10:13:17.690Z</time>
      </trkpt>
      <trkpt lat="47.20113" lon="6.00325">
        <ele>447</ele>
        <time>2015-05-10T10:13:21.690Z</time>
      </trkpt>
      <trkpt lat="47.2011" lon="6.00341">
        <ele>442.1000064</ele>
        <time>2015-05-10T10:13:25.690Z</time>
      </trkpt>
      <trkpt lat="47.20106" lon="6.00354">
        <ele>435.21428571429</ele>
        <time>2015-05-10T10:13:29.690Z</time>
      </trkpt>
      <trkpt lat="47.20099" lon="6.00366">
        <ele>431.1000064</ele>
        <time>2015-05-10T10:13:33.690Z</time>
      </trkpt>
      <trkpt lat="47.2009" lon="6.00375">
        <ele>429.1000064</ele>
        <time>2015-05-10T10:13:37.690Z</time>
      </trkpt>
      <trkpt lat="47.20079" lon="6.00383">
        <ele>426.1000064</ele>
        <time>2015-05-10T10:13:41.690Z</time>
      </trkpt>
      <trkpt lat="47.20069" lon="6.0039">
        <ele>424</ele>
        <time>2015-05-10T10:13:45.690Z</time>
      </trkpt>
      <trkpt lat="47.20059" lon="6.00396">
        <ele>423.1000064</ele>
        <time>2015-05-10T10:13:48.690Z</time>
      </trkpt>
      <trkpt lat="47.20047" lon="6.00397">
        <ele>422</ele>
        <time>2015-05-10T10:13:51.690Z</time>
      </trkpt>
      <trkpt lat="47.20036" lon="6.00396">
        <ele>421</ele>
        <time>2015-05-10T10:13:56.690Z</time>
      </trkpt>
      <trkpt lat="47.20024" lon="6.00393">
        <ele>420</ele>
        <time>2015-05-10T10:14:01.690Z</time>
      </trkpt>
      <trkpt lat="47.20015" lon="6.00389">
        <ele>418.1000064</ele>
        <time>2015-05-10T10:14:05.690Z</time>
      </trkpt>
      <trkpt lat="47.20004" lon="6.00382">
        <ele>416</ele>
        <time>2015-05-10T10:14:09.690Z</time>
      </trkpt>
      <trkpt lat="47.19995" lon="6.00376">
        <ele>415</ele>
        <time>2015-05-10T10:14:12.690Z</time>
      </trkpt>
      <trkpt lat="47.19983" lon="6.0037">
        <ele>413.1000064</ele>
        <time>2015-05-10T10:14:15.690Z</time>
      </trkpt>
      <trkpt lat="47.19973" lon="6.00366">
        <ele>412</ele>
        <time>2015-05-10T10:14:18.690Z</time>
      </trkpt>
      <trkpt lat="47.19964" lon="6.00357">
        <ele>410.1000064</ele>
        <time>2015-05-10T10:14:21.690Z</time>
      </trkpt>
      <trkpt lat="47.19956" lon="6.00349">
        <ele>410</ele>
        <time>2015-05-10T10:14:24.690Z</time>
      </trkpt>
      <trkpt lat="47.19947" lon="6.00339">
        <ele>409.1000064</ele>
        <time>2015-05-10T10:14:28.690Z</time>
      </trkpt>
      <trkpt lat="47.19937" lon="6.00328">
        <ele>408</ele>
        <time>2015-05-10T10:14:32.690Z</time>
      </trkpt>
      <trkpt lat="47.19929" lon="6.00318">
        <ele>407</ele>
        <time>2015-05-10T10:14:36.510Z</time>
      </trkpt>
      <trkpt lat="47.19923" lon="6.00303">
        <ele>406</ele>
        <time>2015-05-10T10:14:40.790Z</time>
      </trkpt>
      <trkpt lat="47.19918" lon="6.00286">
        <ele>405</ele>
        <time>2015-05-10T10:14:44.790Z</time>
      </trkpt>
      <trkpt lat="47.19912" lon="6.00271">
        <ele>404</ele>
        <time>2015-05-10T10:14:49.790Z</time>
      </trkpt>
      <trkpt lat="47.19905" lon="6.00258">
        <ele>403.0099968</ele>
        <time>2015-05-10T10:14:54.790Z</time>
      </trkpt>
      <trkpt lat="47.19896" lon="6.00249">
        <ele>400.0099968</ele>
        <time>2015-05-10T10:15:00.790Z</time>
      </trkpt>
      <trkpt lat="47.19886" lon="6.00245">
        <ele>400</ele>
        <time>2015-05-10T10:15:05.790Z</time>
      </trkpt>
      <trkpt lat="47.19875" lon="6.00245">
        <ele>397</ele>
        <time>2015-05-10T10:15:11.800Z</time>
      </trkpt>
      <trkpt lat="47.19863" lon="6.00257">
        <ele>395.00989785314</ele>
        <time>2015-05-10T10:15:16.790Z</time>
      </trkpt>
      <trkpt lat="47.19858" lon="6.00269">
        <ele>395</ele>
        <time>2015-05-10T10:15:19.790Z</time>
      </trkpt>
      <trkpt lat="47.19853" lon="6.00282">
        <ele>393.00989785314</ele>
        <time>2015-05-10T10:15:22.790Z</time>
      </trkpt>
      <trkpt lat="47.19848" lon="6.00295">
        <ele>391</ele>
        <time>2015-05-10T10:15:25.790Z</time>
      </trkpt>
      <trkpt lat="47.19845" lon="6.00313">
        <ele>389.9900032</ele>
        <time>2015-05-10T10:15:29.800Z</time>
      </trkpt>
      <trkpt lat="47.19846" lon="6.0033">
        <ele>386.00989785314</ele>
        <time>2015-05-10T10:15:34.790Z</time>
      </trkpt>
      <trkpt lat="47.19852" lon="6.0035">
        <ele>385</ele>
        <time>2015-05-10T10:15:40.790Z</time>
      </trkpt>
      <trkpt lat="47.19857" lon="6.00366">
        <ele>383.9900032</ele>
        <time>2015-05-10T10:15:44.800Z</time>
      </trkpt>
      <trkpt lat="47.19862" lon="6.00385">
        <ele>383</ele>
        <time>2015-05-10T10:15:49.790Z</time>
      </trkpt>
      <trkpt lat="47.19867" lon="6.00398">
        <ele>383</ele>
        <time>2015-05-10T10:15:53.800Z</time>
      </trkpt>
      <trkpt lat="47.19871" lon="6.00414">
        <ele>384</ele>
        <time>2015-05-10T10:15:58.790Z</time>
      </trkpt>
      <trkpt lat="47.19875" lon="6.0043">
        <ele>383</ele>
        <time>2015-05-10T10:16:02.800Z</time>
      </trkpt>
      <trkpt lat="47.19877" lon="6.00445">
        <ele>382.9900032</ele>
        <time>2015-05-10T10:16:05.800Z</time>
      </trkpt>
      <trkpt lat="47.19876" lon="6.0047">
        <ele>382</ele>
        <time>2015-05-10T10:16:10.790Z</time>
      </trkpt>
      <trkpt lat="47.19875" lon="6.00485">
        <ele>382</ele>
        <time>2015-05-10T10:16:13.790Z</time>
      </trkpt>
      <trkpt lat="47.19873" lon="6.00502">
        <ele>383</ele>
        <time>2015-05-10T10:16:17.800Z</time>
      </trkpt>
      <trkpt lat="47.19872" lon="6.00524">
        <ele>382.00989785314</ele>
        <time>2015-05-10T10:16:22.790Z</time>
      </trkpt>
      <trkpt lat="47.19874" lon="6.00541">
        <ele>382</ele>
        <time>2015-05-10T10:16:26.800Z</time>
      </trkpt>
      <trkpt lat="47.19879" lon="6.00561">
        <ele>382</ele>
        <time>2015-05-10T10:16:31.790Z</time>
      </trkpt>
      <trkpt lat="47.19882" lon="6.00579">
        <ele>381</ele>
        <time>2015-05-10T10:16:35.800Z</time>
      </trkpt>
      <trkpt lat="47.19889" lon="6.00601">
        <ele>380</ele>
        <time>2015-05-10T10:16:40.790Z</time>
      </trkpt>
      <trkpt lat="47.19893" lon="6.00619">
        <ele>380</ele>
        <time>2015-05-10T10:16:44.510Z</time>
      </trkpt>
      <trkpt lat="47.19896" lon="6.00636">
        <ele>379.9900032</ele>
        <time>2015-05-10T10:16:48.800Z</time>
      </trkpt>
      <trkpt lat="47.19902" lon="6.00651">
        <ele>379</ele>
        <time>2015-05-10T10:16:52.790Z</time>
      </trkpt>
      <trkpt lat="47.19911" lon="6.00658">
        <ele>378.0099968</ele>
        <time>2015-05-10T10:16:56.790Z</time>
      </trkpt>
      <trkpt lat="47.19922" lon="6.00662">
        <ele>378</ele>
        <time>2015-05-10T10:17:00.790Z</time>
      </trkpt>
      <trkpt lat="47.19934" lon="6.00669">
        <ele>377</ele>
        <time>2015-05-10T10:17:04.790Z</time>
      </trkpt>
      <trkpt lat="47.19942" lon="6.00677">
        <ele>377</ele>
        <time>2015-05-10T10:17:07.790Z</time>
      </trkpt>
      <trkpt lat="47.19948" lon="6.00686">
        <ele>377</ele>
        <time>2015-05-10T10:17:10.790Z</time>
      </trkpt>
      <trkpt lat="47.19955" lon="6.00695">
        <ele>376</ele>
        <time>2015-05-10T10:17:13.790Z</time>
      </trkpt>
      <trkpt lat="47.1996" lon="6.00705">
        <ele>376</ele>
        <time>2015-05-10T10:17:16.790Z</time>
      </trkpt>
      <trkpt lat="47.19965" lon="6.00714">
        <ele>375</ele>
        <time>2015-05-10T10:17:19.790Z</time>
      </trkpt>
      <trkpt lat="47.19972" lon="6.00723">
        <ele>375</ele>
        <time>2015-05-10T10:17:22.790Z</time>
      </trkpt>
      <trkpt lat="47.1998" lon="6.00734">
        <ele>375</ele>
        <time>2015-05-10T10:17:26.790Z</time>
      </trkpt>
      <trkpt lat="47.19988" lon="6.00746">
        <ele>375</ele>
        <time>2015-05-10T10:17:30.790Z</time>
      </trkpt>
      <trkpt lat="47.19995" lon="6.00755">
        <ele>376</ele>
        <time>2015-05-10T10:17:33.790Z</time>
      </trkpt>
      <trkpt lat="47.20003" lon="6.00765">
        <ele>376</ele>
        <time>2015-05-10T10:17:37.790Z</time>
      </trkpt>
      <trkpt lat="47.20012" lon="6.00776">
        <ele>376</ele>
        <time>2015-05-10T10:17:41.790Z</time>
      </trkpt>
      <trkpt lat="47.2002" lon="6.00787">
        <ele>376</ele>
        <time>2015-05-10T10:17:45.790Z</time>
      </trkpt>
      <trkpt lat="47.20028" lon="6.00798">
        <ele>377</ele>
        <time>2015-05-10T10:17:49.790Z</time>
      </trkpt>
      <trkpt lat="47.20036" lon="6.00811">
        <ele>376.9900032</ele>
        <time>2015-05-10T10:17:53.790Z</time>
      </trkpt>
      <trkpt lat="47.20044" lon="6.00825">
        <ele>376</ele>
        <time>2015-05-10T10:17:57.790Z</time>
      </trkpt>
      <trkpt lat="47.20051" lon="6.00839">
        <ele>376</ele>
        <time>2015-05-10T10:18:01.790Z</time>
      </trkpt>
      <trkpt lat="47.20055" lon="6.00846">
        <ele>376</ele>
        <time>2015-05-10T10:18:03.790Z</time>
      </trkpt>
      <trkpt lat="47.20059" lon="6.00853">
        <ele>375.0099968</ele>
        <time>2015-05-10T10:18:05.790Z</time>
      </trkpt>
      <trkpt lat="47.20063" lon="6.00859">
        <ele>375.98990225486</ele>
        <time>2015-05-10T10:18:07.790Z</time>
      </trkpt>
      <trkpt lat="47.20074" lon="6.00871">
        <ele>375</ele>
        <time>2015-05-10T10:18:11.790Z</time>
      </trkpt>
      <trkpt lat="47.20078" lon="6.00877">
        <ele>375</ele>
        <time>2015-05-10T10:18:13.790Z</time>
      </trkpt>
      <trkpt lat="47.20086" lon="6.00891">
        <ele>374</ele>
        <time>2015-05-10T10:18:17.790Z</time>
      </trkpt>
      <trkpt lat="47.20093" lon="6.00905">
        <ele>374</ele>
        <time>2015-05-10T10:18:21.790Z</time>
      </trkpt>
      <trkpt lat="47.20098" lon="6.00916">
        <ele>374</ele>
        <time>2015-05-10T10:18:24.790Z</time>
      </trkpt>
      <trkpt lat="47.20103" lon="6.00926">
        <ele>373</ele>
        <time>2015-05-10T10:18:27.790Z</time>
      </trkpt>
      <trkpt lat="47.20106" lon="6.00932">
        <ele>373</ele>
        <time>2015-05-10T10:18:29.790Z</time>
      </trkpt>
      <trkpt lat="47.20111" lon="6.00944">
        <ele>373</ele>
        <time>2015-05-10T10:18:33.800Z</time>
      </trkpt>
      <trkpt lat="47.20119" lon="6.0096">
        <ele>374</ele>
        <time>2015-05-10T10:18:38.790Z</time>
      </trkpt>
      <trkpt lat="47.20131" lon="6.00967">
        <ele>374</ele>
        <time>2015-05-10T10:18:44.790Z</time>
      </trkpt>
      <trkpt lat="47.20144" lon="6.00964">
        <ele>374.99010214686</ele>
        <time>2015-05-10T10:18:50.790Z</time>
      </trkpt>
      <trkpt lat="47.20155" lon="6.00961">
        <ele>375</ele>
        <time>2015-05-10T10:18:55.790Z</time>
      </trkpt>
      <trkpt lat="47.20166" lon="6.0096">
        <ele>375</ele>
        <time>2015-05-10T10:18:59.690Z</time>
      </trkpt>
      <trkpt lat="47.20178" lon="6.00959">
        <ele>375</ele>
        <time>2015-05-10T10:19:03.690Z</time>
      </trkpt>
      <trkpt lat="47.20191" lon="6.00956">
        <ele>376</ele>
        <time>2015-05-10T10:19:07.690Z</time>
      </trkpt>
      <trkpt lat="47.20201" lon="6.00952">
        <ele>376</ele>
        <time>2015-05-10T10:19:09.690Z</time>
      </trkpt>
      <trkpt lat="47.20212" lon="6.0095">
        <ele>375.1000064</ele>
        <time>2015-05-10T10:19:12.690Z</time>
      </trkpt>
      <trkpt lat="47.20223" lon="6.00954">
        <ele>374.1000064</ele>
        <time>2015-05-10T10:19:15.690Z</time>
      </trkpt>
      <trkpt lat="47.20234" lon="6.00954">
        <ele>373</ele>
        <time>2015-05-10T10:19:19.690Z</time>
      </trkpt>
      <trkpt lat="47.20245" lon="6.00954">
        <ele>372</ele>
        <time>2015-05-10T10:19:22.690Z</time>
      </trkpt>
      <trkpt lat="47.20256" lon="6.00954">
        <ele>370.9000064</ele>
        <time>2015-05-10T10:19:25.890Z</time>
      </trkpt>
      <trkpt lat="47.20266" lon="6.00953">
        <ele>369.1000064</ele>
        <time>2015-05-10T10:19:28.690Z</time>
      </trkpt>
      <trkpt lat="47.20277" lon="6.00953">
        <ele>368</ele>
        <time>2015-05-10T10:19:31.690Z</time>
      </trkpt>
      <trkpt lat="47.20287" lon="6.0095">
        <ele>366.10204668051</ele>
        <time>2015-05-10T10:19:34.690Z</time>
      </trkpt>
      <trkpt lat="47.20296" lon="6.00947">
        <ele>364.10204668051</ele>
        <time>2015-05-10T10:19:37.690Z</time>
      </trkpt>
      <trkpt lat="47.20304" lon="6.00938">
        <ele>362.10204668051</ele>
        <time>2015-05-10T10:19:40.690Z</time>
      </trkpt>
      <trkpt lat="47.20311" lon="6.00928">
        <ele>360.10204668051</ele>
        <time>2015-05-10T10:19:43.690Z</time>
      </trkpt>
      <trkpt lat="47.20318" lon="6.00918">
        <ele>359.1000064</ele>
        <time>2015-05-10T10:19:46.690Z</time>
      </trkpt>
      <trkpt lat="47.20324" lon="6.00906">
        <ele>358.1000064</ele>
        <time>2015-05-10T10:19:49.690Z</time>
      </trkpt>
      <trkpt lat="47.20332" lon="6.00898">
        <ele>357</ele>
        <time>2015-05-10T10:19:52.690Z</time>
      </trkpt>
      <trkpt lat="47.2034" lon="6.00892">
        <ele>356</ele>
        <time>2015-05-10T10:19:55.690Z</time>
      </trkpt>
      <trkpt lat="47.20348" lon="6.00886">
        <ele>355</ele>
        <time>2015-05-10T10:19:58.690Z</time>
      </trkpt>
      <trkpt lat="47.20348" lon="6.00872">
        <ele>353</ele>
        <time>2015-05-10T10:20:07.690Z</time>
      </trkpt>
      <trkpt lat="47.20336" lon="6.00866">
        <ele>350.1000064</ele>
        <time>2015-05-10T10:20:10.690Z</time>
      </trkpt>
      <trkpt lat="47.20327" lon="6.00859">
        <ele>349.1000064</ele>
        <time>2015-05-10T10:20:13.690Z</time>
      </trkpt>
      <trkpt lat="47.20317" lon="6.0085">
        <ele>349</ele>
        <time>2015-05-10T10:20:18.690Z</time>
      </trkpt>
      <trkpt lat="47.20325" lon="6.00841">
        <ele>347</ele>
        <time>2015-05-10T10:20:27.690Z</time>
      </trkpt>
      <trkpt lat="47.20336" lon="6.00839">
        <ele>348</ele>
        <time>2015-05-10T10:20:33.690Z</time>
      </trkpt>
      <trkpt lat="47.20346" lon="6.00833">
        <ele>348</ele>
        <time>2015-05-10T10:20:39.690Z</time>
      </trkpt>
      <trkpt lat="47.20356" lon="6.00837">
        <ele>346</ele>
        <time>2015-05-10T10:20:47.690Z</time>
      </trkpt>
      <trkpt lat="47.20367" lon="6.00836">
        <ele>344.1000064</ele>
        <time>2015-05-10T10:20:56.690Z</time>
      </trkpt>
      <trkpt lat="47.20376" lon="6.00843">
        <ele>343</ele>
        <time>2015-05-10T10:21:00.690Z</time>
      </trkpt>
      <trkpt lat="47.20385" lon="6.00851">
        <ele>341.10204668051</ele>
        <time>2015-05-10T10:21:04.690Z</time>
      </trkpt>
      <trkpt lat="47.20393" lon="6.0086">
        <ele>340</ele>
        <time>2015-05-10T10:21:09.510Z</time>
      </trkpt>
      <trkpt lat="47.20402" lon="6.00867">
        <ele>337.0099968</ele>
        <time>2015-05-10T10:21:14.790Z</time>
      </trkpt>
      <trkpt lat="47.20412" lon="6.00875">
        <ele>336</ele>
        <time>2015-05-10T10:21:18.790Z</time>
      </trkpt>
      <trkpt lat="47.20424" lon="6.00881">
        <ele>335</ele>
        <time>2015-05-10T10:21:23.790Z</time>
      </trkpt>
      <trkpt lat="47.20433" lon="6.00889">
        <ele>333</ele>
        <time>2015-05-10T10:21:28.790Z</time>
      </trkpt>
      <trkpt lat="47.2043" lon="6.00875">
        <ele>324.0099968</ele>
        <time>2015-05-10T10:21:46.790Z</time>
      </trkpt>
      <trkpt lat="47.20438" lon="6.00865">
        <ele>320</ele>
        <time>2015-05-10T10:21:55.790Z</time>
      </trkpt>
      <trkpt lat="47.20447" lon="6.0086">
        <ele>319</ele>
        <time>2015-05-10T10:22:00.790Z</time>
      </trkpt>
      <trkpt lat="47.20453" lon="6.00852">
        <ele>316.9800064</ele>
        <time>2015-05-10T10:22:04.800Z</time>
      </trkpt>
      <trkpt lat="47.20459" lon="6.00847">
        <ele>309.00989785314</ele>
        <time>2015-05-10T10:22:09.790Z</time>
      </trkpt>
      <trkpt lat="47.20458" lon="6.0084">
        <ele>297.00989785314</ele>
        <time>2015-05-10T10:22:18.790Z</time>
      </trkpt>
      <trkpt lat="47.2045" lon="6.0084">
        <ele>292</ele>
        <time>2015-05-10T10:22:24.790Z</time>
      </trkpt>
      <trkpt lat="47.20438" lon="6.00838">
        <ele>290.00989785314</ele>
        <time>2015-05-10T10:22:30.790Z</time>
      </trkpt>
      <trkpt lat="47.2043" lon="6.00828">
        <ele>290</ele>
        <time>2015-05-10T10:22:40.800Z</time>
      </trkpt>
      <trkpt lat="47.20436" lon="6.00815">
        <ele>290</ele>
        <time>2015-05-10T10:22:46.800Z</time>
      </trkpt>
      <trkpt lat="47.20445" lon="6.00806">
        <ele>289</ele>
        <time>2015-05-10T10:22:57.790Z</time>
      </trkpt>
      <trkpt lat="47.20454" lon="6.008">
        <ele>288.98990225486</ele>
        <time>2015-05-10T10:23:04.810Z</time>
      </trkpt>
      <trkpt lat="47.20466" lon="6.00805">
        <ele>287.99212852377</ele>
        <time>2015-05-10T10:23:10.810Z</time>
      </trkpt>
      <trkpt lat="47.20477" lon="6.00809">
        <ele>287</ele>
        <time>2015-05-10T10:23:13.410Z</time>
      </trkpt>
      <trkpt lat="47.20488" lon="6.0081">
        <ele>286</ele>
        <time>2015-05-10T10:23:17.790Z</time>
      </trkpt>
      <trkpt lat="47.20494" lon="6.00817">
        <ele>278.1000064</ele>
        <time>2015-05-10T10:23:27.690Z</time>
      </trkpt>
      <trkpt lat="47.20494" lon="6.00826">
        <ele>278</ele>
        <time>2015-05-10T10:23:31.690Z</time>
      </trkpt>
      <trkpt lat="47.2049" lon="6.00837">
        <ele>275.1000064</ele>
        <time>2015-05-10T10:23:35.690Z</time>
      </trkpt>
      <trkpt lat="47.20499" lon="6.00847">
        <ele>273</ele>
        <time>2015-05-10T10:23:43.690Z</time>
      </trkpt>
      <trkpt lat="47.20505" lon="6.00854">
        <ele>271.1000064</ele>
        <time>2015-05-10T10:23:46.690Z</time>
      </trkpt>
      <trkpt lat="47.20513" lon="6.00865">
        <ele>270.1000064</ele>
        <time>2015-05-10T10:23:49.690Z</time>
      </trkpt>
      <trkpt lat="47.20519" lon="6.00876">
        <ele>270</ele>
        <time>2015-05-10T10:23:52.690Z</time>
      </trkpt>
      <trkpt lat="47.20525" lon="6.00888">
        <ele>270</ele>
        <time>2015-05-10T10:23:55.690Z</time>
      </trkpt>
      <trkpt lat="47.20529" lon="6.00904">
        <ele>269</ele>
        <time>2015-05-10T10:23:59.690Z</time>
      </trkpt>
      <trkpt lat="47.20527" lon="6.00918">
        <ele>267.1000064</ele>
        <time>2015-05-10T10:24:03.690Z</time>
      </trkpt>
      <trkpt lat="47.20537" lon="6.00928">
        <ele>265</ele>
        <time>2015-05-10T10:24:09.690Z</time>
      </trkpt>
      <trkpt lat="47.20548" lon="6.00933">
        <ele>264.8999936</ele>
        <time>2015-05-10T10:24:14.690Z</time>
      </trkpt>
      <trkpt lat="47.20557" lon="6.0094">
        <ele>266</ele>
        <time>2015-05-10T10:24:21.690Z</time>
      </trkpt>
      <trkpt lat="47.20561" lon="6.00949">
        <ele>265.1000064</ele>
        <time>2015-05-10T10:24:25.690Z</time>
      </trkpt>
      <trkpt lat="47.20558" lon="6.00961">
        <ele>264</ele>
        <time>2015-05-10T10:24:29.690Z</time>
      </trkpt>
      <trkpt lat="47.20553" lon="6.00979">
        <ele>264</ele>
        <time>2015-05-10T10:24:35.690Z</time>
      </trkpt>
      <trkpt lat="47.2055" lon="6.00994">
        <ele>265</ele>
        <time>2015-05-10T10:24:41.690Z</time>
      </trkpt>
      <trkpt lat="47.20548" lon="6.01009">
        <ele>266</ele>
        <time>2015-05-10T10:24:48.690Z</time>
      </trkpt>
      <trkpt lat="47.20549" lon="6.01025">
        <ele>266</ele>
        <time>2015-05-10T10:24:55.690Z</time>
      </trkpt>
      <trkpt lat="47.20553" lon="6.01041">
        <ele>268</ele>
        <time>2015-05-10T10:25:02.690Z</time>
      </trkpt>
      <trkpt lat="47.20554" lon="6.01059">
        <ele>269.8999936</ele>
        <time>2015-05-10T10:25:11.690Z</time>
      </trkpt>
      <trkpt lat="47.20563" lon="6.01052">
        <ele>274</ele>
        <time>2015-05-10T10:25:33.690Z</time>
      </trkpt>
      <trkpt lat="47.20563" lon="6.01067">
        <ele>278.9900032</ele>
        <time>2015-05-10T10:25:50.790Z</time>
      </trkpt>
      <trkpt lat="47.20569" lon="6.01055">
        <ele>287</ele>
        <time>2015-05-10T10:26:06.790Z</time>
      </trkpt>
      <trkpt lat="47.20574" lon="6.01043">
        <ele>289</ele>
        <time>2015-05-10T10:26:12.790Z</time>
      </trkpt>
      <trkpt lat="47.20579" lon="6.01029">
        <ele>291.99010214686</ele>
        <time>2015-05-10T10:26:21.790Z</time>
      </trkpt>
      <trkpt lat="47.20582" lon="6.01015">
        <ele>292</ele>
        <time>2015-05-10T10:26:25.800Z</time>
      </trkpt>
      <trkpt lat="47.20584" lon="6.01002">
        <ele>292.0099968</ele>
        <time>2015-05-10T10:26:28.800Z</time>
      </trkpt>
      <trkpt lat="47.20587" lon="6.00987">
        <ele>292</ele>
        <time>2015-05-10T10:26:31.800Z</time>
      </trkpt>
      <trkpt lat="47.20591" lon="6.00971">
        <ele>292</ele>
        <time>2015-05-10T10:26:34.800Z</time>
      </trkpt>
      <trkpt lat="47.20595" lon="6.00956">
        <ele>292</ele>
        <time>2015-05-10T10:26:37.800Z</time>
      </trkpt>
      <trkpt lat="47.206" lon="6.00942">
        <ele>291.9900032</ele>
        <time>2015-05-10T10:26:40.800Z</time>
      </trkpt>
      <trkpt lat="47.20605" lon="6.00929">
        <ele>291</ele>
        <time>2015-05-10T10:26:43.800Z</time>
      </trkpt>
      <trkpt lat="47.20611" lon="6.00917">
        <ele>290.9900032</ele>
        <time>2015-05-10T10:26:46.800Z</time>
      </trkpt>
      <trkpt lat="47.20617" lon="6.00904">
        <ele>290</ele>
        <time>2015-05-10T10:26:49.800Z</time>
      </trkpt>
      <trkpt lat="47.20625" lon="6.00894">
        <ele>290</ele>
        <time>2015-05-10T10:26:52.800Z</time>
      </trkpt>
      <trkpt lat="47.20631" lon="6.00882">
        <ele>290</ele>
        <time>2015-05-10T10:26:55.800Z</time>
      </trkpt>
      <trkpt lat="47.20637" lon="6.00868">
        <ele>290</ele>
        <time>2015-05-10T10:26:58.830Z</time>
      </trkpt>
      <trkpt lat="47.20642" lon="6.00855">
        <ele>290.0099968</ele>
        <time>2015-05-10T10:27:01.800Z</time>
      </trkpt>
      <trkpt lat="47.20646" lon="6.00841">
        <ele>290.9900032</ele>
        <time>2015-05-10T10:27:04.800Z</time>
      </trkpt>
      <trkpt lat="47.20655" lon="6.00822">
        <ele>289.00989785314</ele>
        <time>2015-05-10T10:27:09.790Z</time>
      </trkpt>
      <trkpt lat="47.20661" lon="6.00807">
        <ele>289</ele>
        <time>2015-05-10T10:27:13.800Z</time>
      </trkpt>
      <trkpt lat="47.20671" lon="6.008">
        <ele>288.00989785314</ele>
        <time>2015-05-10T10:27:18.790Z</time>
      </trkpt>
      <trkpt lat="47.20672" lon="6.00817">
        <ele>286</ele>
        <time>2015-05-10T10:27:27.790Z</time>
      </trkpt>
      <trkpt lat="47.20668" lon="6.00831">
        <ele>284</ele>
        <time>2015-05-10T10:27:34.790Z</time>
      </trkpt>
      <trkpt lat="47.20662" lon="6.00843">
        <ele>284</ele>
        <time>2015-05-10T10:27:42.790Z</time>
      </trkpt>
      <trkpt lat="47.20656" lon="6.00857">
        <ele>284</ele>
        <time>2015-05-10T10:27:50.790Z</time>
      </trkpt>
      <trkpt lat="47.20654" lon="6.00871">
        <ele>284</ele>
        <time>2015-05-10T10:28:01.510Z</time>
      </trkpt>
      <trkpt lat="47.2065" lon="6.00885">
        <ele>284</ele>
        <time>2015-05-10T10:28:08.790Z</time>
      </trkpt>
      <trkpt lat="47.20647" lon="6.009">
        <ele>284</ele>
        <time>2015-05-10T10:28:16.790Z</time>
      </trkpt>
      <trkpt lat="47.20644" lon="6.00913">
        <ele>285</ele>
        <time>2015-05-10T10:28:24.790Z</time>
      </trkpt>
      <trkpt lat="47.20639" lon="6.00922">
        <ele>287</ele>
        <time>2015-05-10T10:28:31.790Z</time>
      </trkpt>
      <trkpt lat="47.20634" lon="6.0093">
        <ele>288</ele>
        <time>2015-05-10T10:28:37.790Z</time>
      </trkpt>
      <trkpt lat="47.20629" lon="6.00938">
        <ele>289</ele>
        <time>2015-05-10T10:28:43.790Z</time>
      </trkpt>
      <trkpt lat="47.20623" lon="6.00944">
        <ele>290</ele>
        <time>2015-05-10T10:28:48.790Z</time>
      </trkpt>
      <trkpt lat="47.20618" lon="6.00953">
        <ele>292</ele>
        <time>2015-05-10T10:28:54.790Z</time>
      </trkpt>
      <trkpt lat="47.20615" lon="6.00962">
        <ele>293</ele>
        <time>2015-05-10T10:29:00.790Z</time>
      </trkpt>
      <trkpt lat="47.20611" lon="6.00973">
        <ele>296.9900032</ele>
        <time>2015-05-10T10:29:07.790Z</time>
      </trkpt>
      <trkpt lat="47.20619" lon="6.00971">
        <ele>302</ele>
        <time>2015-05-10T10:29:21.790Z</time>
      </trkpt>
      <trkpt lat="47.20627" lon="6.00963">
        <ele>305</ele>
        <time>2015-05-10T10:29:30.790Z</time>
      </trkpt>
      <trkpt lat="47.20635" lon="6.00962">
        <ele>308</ele>
        <time>2015-05-10T10:29:39.790Z</time>
      </trkpt>
      <trkpt lat="47.20635" lon="6.00974">
        <ele>309</ele>
        <time>2015-05-10T10:29:52.790Z</time>
      </trkpt>
      <trkpt lat="47.20634" lon="6.00984">
        <ele>309</ele>
        <time>2015-05-10T10:29:59.790Z</time>
      </trkpt>
      <trkpt lat="47.20642" lon="6.00984">
        <ele>313.9900032</ele>
        <time>2015-05-10T10:30:09.790Z</time>
      </trkpt>
      <trkpt lat="47.20651" lon="6.00983">
        <ele>317</ele>
        <time>2015-05-10T10:30:19.790Z</time>
      </trkpt>
      <trkpt lat="47.20661" lon="6.00985">
        <ele>320</ele>
        <time>2015-05-10T10:30:35.890Z</time>
      </trkpt>
      <trkpt lat="47.20671" lon="6.00987">
        <ele>324</ele>
        <time>2015-05-10T10:30:48.890Z</time>
      </trkpt>
      <trkpt lat="47.2068" lon="6.00979">
        <ele>330</ele>
        <time>2015-05-10T10:31:05.890Z</time>
      </trkpt>
      <trkpt lat="47.20688" lon="6.00969">
        <ele>334</ele>
        <time>2015-05-10T10:31:15.890Z</time>
      </trkpt>
      <trkpt lat="47.20695" lon="6.00959">
        <ele>338.0999936</ele>
        <time>2015-05-10T10:31:28.890Z</time>
      </trkpt>
      <trkpt lat="47.20704" lon="6.0095">
        <ele>341.0999936</ele>
        <time>2015-05-10T10:31:39.890Z</time>
      </trkpt>
      <trkpt lat="47.20713" lon="6.00944">
        <ele>345</ele>
        <time>2015-05-10T10:31:48.890Z</time>
      </trkpt>
      <trkpt lat="47.20723" lon="6.00939">
        <ele>348.0999936</ele>
        <time>2015-05-10T10:32:01.890Z</time>
      </trkpt>
      <trkpt lat="47.20731" lon="6.00948">
        <ele>350.1099904</ele>
        <time>2015-05-10T10:32:14.900Z</time>
      </trkpt>
      <trkpt lat="47.20741" lon="6.0095">
        <ele>353</ele>
        <time>2015-05-10T10:32:24.890Z</time>
      </trkpt>
      <trkpt lat="47.20751" lon="6.00951">
        <ele>355</ele>
        <time>2015-05-10T10:32:34.890Z</time>
      </trkpt>
      <trkpt lat="47.20759" lon="6.00961">
        <ele>359</ele>
        <time>2015-05-10T10:32:47.790Z</time>
      </trkpt>
      <trkpt lat="47.20759" lon="6.00965">
        <ele>361</ele>
        <time>2015-05-10T10:32:55.990Z</time>
      </trkpt>
      <trkpt lat="47.20756" lon="6.00967">
        <ele>362</ele>
        <time>2015-05-10T10:33:01.270Z</time>
      </trkpt>
      <trkpt lat="47.20753" lon="6.00966">
        <ele>365.9900032</ele>
        <time>2015-05-10T10:33:03.790Z</time>
      </trkpt>
      <trkpt lat="47.20761" lon="6.00971">
        <ele>371</ele>
        <time>2015-05-10T10:33:13.790Z</time>
      </trkpt>
      <trkpt lat="47.20771" lon="6.00968">
        <ele>373.9900032</ele>
        <time>2015-05-10T10:33:21.790Z</time>
      </trkpt>
      <trkpt lat="47.20779" lon="6.00964">
        <ele>376</ele>
        <time>2015-05-10T10:33:29.790Z</time>
      </trkpt>
      <trkpt lat="47.20786" lon="6.00961">
        <ele>379</ele>
        <time>2015-05-10T10:33:38.790Z</time>
      </trkpt>
      <trkpt lat="47.20793" lon="6.00955">
        <ele>383</ele>
        <time>2015-05-10T10:33:47.790Z</time>
      </trkpt>
      <trkpt lat="47.20798" lon="6.0095">
        <ele>386</ele>
        <time>2015-05-10T10:33:55.790Z</time>
      </trkpt>
      <trkpt lat="47.20801" lon="6.00944">
        <ele>388.9900032</ele>
        <time>2015-05-10T10:34:03.790Z</time>
      </trkpt>
      <trkpt lat="47.20809" lon="6.00942">
        <ele>392.9900032</ele>
        <time>2015-05-10T10:34:16.790Z</time>
      </trkpt>
      <trkpt lat="47.20815" lon="6.00941">
        <ele>395</ele>
        <time>2015-05-10T10:34:26.790Z</time>
      </trkpt>
      <trkpt lat="47.20823" lon="6.00937">
        <ele>398</ele>
        <time>2015-05-10T10:34:36.790Z</time>
      </trkpt>
      <trkpt lat="47.20827" lon="6.00938">
        <ele>400</ele>
        <time>2015-05-10T10:34:43.790Z</time>
      </trkpt>
      <trkpt lat="47.20833" lon="6.00938">
        <ele>403</ele>
        <time>2015-05-10T10:34:50.790Z</time>
      </trkpt>
      <trkpt lat="47.20842" lon="6.00939">
        <ele>405.76923455623</ele>
        <time>2015-05-10T10:35:02.790Z</time>
      </trkpt>
      <trkpt lat="47.20851" lon="6.00942">
        <ele>408.77952811457</ele>
        <time>2015-05-10T10:35:12.790Z</time>
      </trkpt>
      <trkpt lat="47.2086" lon="6.00947">
        <ele>411</ele>
        <time>2015-05-10T10:35:20.790Z</time>
      </trkpt>
      <trkpt lat="47.20866" lon="6.00951">
        <ele>413</ele>
        <time>2015-05-10T10:35:26.790Z</time>
      </trkpt>
      <trkpt lat="47.20872" lon="6.00955">
        <ele>414</ele>
        <time>2015-05-10T10:35:33.790Z</time>
      </trkpt>
      <trkpt lat="47.20879" lon="6.00955">
        <ele>415.9900032</ele>
        <time>2015-05-10T10:35:40.790Z</time>
      </trkpt>
      <trkpt lat="47.20886" lon="6.00957">
        <ele>416</ele>
        <time>2015-05-10T10:35:45.790Z</time>
      </trkpt>
      <trkpt lat="47.20892" lon="6.00958">
        <ele>416</ele>
        <time>2015-05-10T10:35:52.790Z</time>
      </trkpt>
      <trkpt lat="47.20899" lon="6.00961">
        <ele>417</ele>
        <time>2015-05-10T10:35:56.790Z</time>
      </trkpt>
      <trkpt lat="47.20904" lon="6.00959">
        <ele>417</ele>
        <time>2015-05-10T10:35:59.800Z</time>
      </trkpt>
      <trkpt lat="47.20912" lon="6.00958">
        <ele>418</ele>
        <time>2015-05-10T10:36:02.800Z</time>
      </trkpt>
      <trkpt lat="47.20926" lon="6.00968">
        <ele>420</ele>
        <time>2015-05-10T10:36:07.790Z</time>
      </trkpt>
      <trkpt lat="47.20936" lon="6.00979">
        <ele>421.0099968</ele>
        <time>2015-05-10T10:36:11.800Z</time>
      </trkpt>
      <trkpt lat="47.20942" lon="6.00988">
        <ele>422</ele>
        <time>2015-05-10T10:36:14.800Z</time>
      </trkpt>
      <trkpt lat="47.20948" lon="6.00999">
        <ele>422</ele>
        <time>2015-05-10T10:36:17.790Z</time>
      </trkpt>
      <trkpt lat="47.20955" lon="6.0101">
        <ele>423</ele>
        <time>2015-05-10T10:36:20.790Z</time>
      </trkpt>
      <trkpt lat="47.2096" lon="6.0102">
        <ele>423</ele>
        <time>2015-05-10T10:36:23.790Z</time>
      </trkpt>
      <trkpt lat="47.20966" lon="6.0103">
        <ele>423</ele>
        <time>2015-05-10T10:36:26.790Z</time>
      </trkpt>
      <trkpt lat="47.20972" lon="6.0104">
        <ele>423</ele>
        <time>2015-05-10T10:36:29.790Z</time>
      </trkpt>
      <trkpt lat="47.20979" lon="6.01054">
        <ele>422</ele>
        <time>2015-05-10T10:36:33.790Z</time>
      </trkpt>
      <trkpt lat="47.20987" lon="6.01069">
        <ele>422</ele>
        <time>2015-05-10T10:36:37.790Z</time>
      </trkpt>
      <trkpt lat="47.20993" lon="6.0108">
        <ele>422</ele>
        <time>2015-05-10T10:36:40.790Z</time>
      </trkpt>
      <trkpt lat="47.20998" lon="6.01092">
        <ele>422</ele>
        <time>2015-05-10T10:36:43.790Z</time>
      </trkpt>
      <trkpt lat="47.21004" lon="6.01105">
        <ele>421</ele>
        <time>2015-05-10T10:36:46.790Z</time>
      </trkpt>
      <trkpt lat="47.21011" lon="6.01121">
        <ele>421</ele>
        <time>2015-05-10T10:36:50.790Z</time>
      </trkpt>
      <trkpt lat="47.21015" lon="6.01133">
        <ele>421</ele>
        <time>2015-05-10T10:36:53.790Z</time>
      </trkpt>
      <trkpt lat="47.21019" lon="6.01146">
        <ele>420</ele>
        <time>2015-05-10T10:36:56.790Z</time>
      </trkpt>
      <trkpt lat="47.21021" lon="6.0116">
        <ele>420</ele>
        <time>2015-05-10T10:36:59.790Z</time>
      </trkpt>
      <trkpt lat="47.21022" lon="6.01173">
        <ele>419</ele>
        <time>2015-05-10T10:37:02.790Z</time>
      </trkpt>
      <trkpt lat="47.21024" lon="6.01187">
        <ele>419</ele>
        <time>2015-05-10T10:37:05.790Z</time>
      </trkpt>
      <trkpt lat="47.21028" lon="6.01204">
        <ele>418</ele>
        <time>2015-05-10T10:37:09.890Z</time>
      </trkpt>
      <trkpt lat="47.2103" lon="6.0122">
        <ele>418</ele>
        <time>2015-05-10T10:37:13.900Z</time>
      </trkpt>
      <trkpt lat="47.21031" lon="6.01237">
        <ele>419</ele>
        <time>2015-05-10T10:37:18.890Z</time>
      </trkpt>
      <trkpt lat="47.21036" lon="6.01251">
        <ele>419</ele>
        <time>2015-05-10T10:37:23.890Z</time>
      </trkpt>
      <trkpt lat="47.21041" lon="6.01263">
        <ele>420</ele>
        <time>2015-05-10T10:37:27.890Z</time>
      </trkpt>
      <trkpt lat="47.21048" lon="6.01273">
        <ele>421</ele>
        <time>2015-05-10T10:37:31.890Z</time>
      </trkpt>
      <trkpt lat="47.21057" lon="6.01286">
        <ele>422</ele>
        <time>2015-05-10T10:37:36.890Z</time>
      </trkpt>
      <trkpt lat="47.21066" lon="6.01299">
        <ele>422</ele>
        <time>2015-05-10T10:37:41.890Z</time>
      </trkpt>
      <trkpt lat="47.21074" lon="6.0131">
        <ele>422</ele>
        <time>2015-05-10T10:37:45.890Z</time>
      </trkpt>
      <trkpt lat="47.21082" lon="6.0132">
        <ele>422</ele>
        <time>2015-05-10T10:37:49.890Z</time>
      </trkpt>
      <trkpt lat="47.21091" lon="6.01329">
        <ele>423</ele>
        <time>2015-05-10T10:37:53.890Z</time>
      </trkpt>
      <trkpt lat="47.21103" lon="6.01336">
        <ele>424</ele>
        <time>2015-05-10T10:37:57.890Z</time>
      </trkpt>
      <trkpt lat="47.21113" lon="6.01342">
        <ele>425</ele>
        <time>2015-05-10T10:38:00.890Z</time>
      </trkpt>
      <trkpt lat="47.21123" lon="6.01349">
        <ele>426</ele>
        <time>2015-05-10T10:38:04.890Z</time>
      </trkpt>
      <trkpt lat="47.21134" lon="6.01356">
        <ele>426</ele>
        <time>2015-05-10T10:38:08.890Z</time>
      </trkpt>
      <trkpt lat="47.21143" lon="6.01365">
        <ele>426</ele>
        <time>2015-05-10T10:38:11.890Z</time>
      </trkpt>
      <trkpt lat="47.21151" lon="6.01375">
        <ele>426</ele>
        <time>2015-05-10T10:38:15.890Z</time>
      </trkpt>
      <trkpt lat="47.2116" lon="6.01388">
        <ele>427</ele>
        <time>2015-05-10T10:38:20.890Z</time>
      </trkpt>
      <trkpt lat="47.21169" lon="6.01397">
        <ele>428</ele>
        <time>2015-05-10T10:38:23.890Z</time>
      </trkpt>
      <trkpt lat="47.21177" lon="6.01407">
        <ele>428.0999936</ele>
        <time>2015-05-10T10:38:27.890Z</time>
      </trkpt>
      <trkpt lat="47.21187" lon="6.01418">
        <ele>429</ele>
        <time>2015-05-10T10:38:31.890Z</time>
      </trkpt>
      <trkpt lat="47.21195" lon="6.01428">
        <ele>428</ele>
        <time>2015-05-10T10:38:34.890Z</time>
      </trkpt>
      <trkpt lat="47.21203" lon="6.01438">
        <ele>429</ele>
        <time>2015-05-10T10:38:38.890Z</time>
      </trkpt>
      <trkpt lat="47.2121" lon="6.0145">
        <ele>429.0999936</ele>
        <time>2015-05-10T10:38:43.890Z</time>
      </trkpt>
      <trkpt lat="47.21216" lon="6.01463">
        <ele>430.0999936</ele>
        <time>2015-05-10T10:38:47.890Z</time>
      </trkpt>
      <trkpt lat="47.21225" lon="6.01475">
        <ele>431</ele>
        <time>2015-05-10T10:38:52.890Z</time>
      </trkpt>
      <trkpt lat="47.21231" lon="6.01488">
        <ele>431.9000064</ele>
        <time>2015-05-10T10:38:56.890Z</time>
      </trkpt>
      <trkpt lat="47.21238" lon="6.01504">
        <ele>430</ele>
        <time>2015-05-10T10:38:59.890Z</time>
      </trkpt>
      <trkpt lat="47.21247" lon="6.01519">
        <ele>430.0999936</ele>
        <time>2015-05-10T10:39:02.890Z</time>
      </trkpt>
      <trkpt lat="47.21255" lon="6.01528">
        <ele>431</ele>
        <time>2015-05-10T10:39:04.890Z</time>
      </trkpt>
      <trkpt lat="47.21265" lon="6.0154">
        <ele>432</ele>
        <time>2015-05-10T10:39:07.890Z</time>
      </trkpt>
      <trkpt lat="47.21276" lon="6.01552">
        <ele>432</ele>
        <time>2015-05-10T10:39:10.890Z</time>
      </trkpt>
      <trkpt lat="47.21282" lon="6.01564">
        <ele>431.0999936</ele>
        <time>2015-05-10T10:39:13.890Z</time>
      </trkpt>
      <trkpt lat="47.21291" lon="6.01578">
        <ele>432</ele>
        <time>2015-05-10T10:39:17.890Z</time>
      </trkpt>
      <trkpt lat="47.21298" lon="6.01589">
        <ele>433</ele>
        <time>2015-05-10T10:39:20.890Z</time>
      </trkpt>
      <trkpt lat="47.21302" lon="6.01603">
        <ele>433</ele>
        <time>2015-05-10T10:39:24.790Z</time>
      </trkpt>
      <trkpt lat="47.21307" lon="6.01618">
        <ele>432.0099968</ele>
        <time>2015-05-10T10:39:28.790Z</time>
      </trkpt>
      <trkpt lat="47.21311" lon="6.01632">
        <ele>432</ele>
        <time>2015-05-10T10:39:32.810Z</time>
      </trkpt>
      <trkpt lat="47.21316" lon="6.01645">
        <ele>431</ele>
        <time>2015-05-10T10:39:35.810Z</time>
      </trkpt>
      <trkpt lat="47.21321" lon="6.01659">
        <ele>430</ele>
        <time>2015-05-10T10:39:38.800Z</time>
      </trkpt>
      <trkpt lat="47.21329" lon="6.01672">
        <ele>430</ele>
        <time>2015-05-10T10:39:41.800Z</time>
      </trkpt>
      <trkpt lat="47.21334" lon="6.01685">
        <ele>431</ele>
        <time>2015-05-10T10:39:44.800Z</time>
      </trkpt>
      <trkpt lat="47.21334" lon="6.0171">
        <ele>431</ele>
        <time>2015-05-10T10:39:49.790Z</time>
      </trkpt>
      <trkpt lat="47.2133" lon="6.01728">
        <ele>431</ele>
        <time>2015-05-10T10:39:53.800Z</time>
      </trkpt>
      <trkpt lat="47.21329" lon="6.01744">
        <ele>430.9900032</ele>
        <time>2015-05-10T10:39:56.800Z</time>
      </trkpt>
      <trkpt lat="47.21331" lon="6.01758">
        <ele>429.0099968</ele>
        <time>2015-05-10T10:39:59.790Z</time>
      </trkpt>
      <trkpt lat="47.21335" lon="6.01772">
        <ele>428</ele>
        <time>2015-05-10T10:40:02.790Z</time>
      </trkpt>
      <trkpt lat="47.21341" lon="6.01789">
        <ele>428</ele>
        <time>2015-05-10T10:40:06.790Z</time>
      </trkpt>
      <trkpt lat="47.21347" lon="6.01802">
        <ele>427</ele>
        <time>2015-05-10T10:40:10.790Z</time>
      </trkpt>
      <trkpt lat="47.21351" lon="6.01817">
        <ele>428</ele>
        <time>2015-05-10T10:40:14.790Z</time>
      </trkpt>
      <trkpt lat="47.21354" lon="6.01831">
        <ele>428.9900032</ele>
        <time>2015-05-10T10:40:18.790Z</time>
      </trkpt>
      <trkpt lat="47.21355" lon="6.01847">
        <ele>429</ele>
        <time>2015-05-10T10:40:23.790Z</time>
      </trkpt>
      <trkpt lat="47.21356" lon="6.01864">
        <ele>430</ele>
        <time>2015-05-10T10:40:28.790Z</time>
      </trkpt>
      <trkpt lat="47.21358" lon="6.01879">
        <ele>429.01979570628</ele>
        <time>2015-05-10T10:40:32.790Z</time>
      </trkpt>
      <trkpt lat="47.21356" lon="6.01898">
        <ele>428</ele>
        <time>2015-05-10T10:40:37.790Z</time>
      </trkpt>
      <trkpt lat="47.2135" lon="6.01916">
        <ele>429</ele>
        <time>2015-05-10T10:40:43.790Z</time>
      </trkpt>
      <trkpt lat="47.21344" lon="6.01932">
        <ele>430</ele>
        <time>2015-05-10T10:40:48.790Z</time>
      </trkpt>
      <trkpt lat="47.21338" lon="6.0195">
        <ele>431.99010214686</ele>
        <time>2015-05-10T10:40:53.790Z</time>
      </trkpt>
      <trkpt lat="47.21335" lon="6.01964">
        <ele>432</ele>
        <time>2015-05-10T10:40:57.800Z</time>
      </trkpt>
      <trkpt lat="47.21333" lon="6.01981">
        <ele>434</ele>
        <time>2015-05-10T10:41:02.790Z</time>
      </trkpt>
      <trkpt lat="47.21332" lon="6.01997">
        <ele>435.0099968</ele>
        <time>2015-05-10T10:41:06.800Z</time>
      </trkpt>
      <trkpt lat="47.2133" lon="6.02017">
        <ele>437</ele>
        <time>2015-05-10T10:41:11.790Z</time>
      </trkpt>
      <trkpt lat="47.21328" lon="6.02032">
        <ele>438</ele>
        <time>2015-05-10T10:41:15.800Z</time>
      </trkpt>
      <trkpt lat="47.21325" lon="6.02052">
        <ele>439</ele>
        <time>2015-05-10T10:41:20.790Z</time>
      </trkpt>
      <trkpt lat="47.21322" lon="6.02066">
        <ele>440</ele>
        <time>2015-05-10T10:41:24.800Z</time>
      </trkpt>
      <trkpt lat="47.21318" lon="6.02081">
        <ele>439</ele>
        <time>2015-05-10T10:41:29.890Z</time>
      </trkpt>
      <trkpt lat="47.21314" lon="6.02095">
        <ele>440.0999936</ele>
        <time>2015-05-10T10:41:34.890Z</time>
      </trkpt>
      <trkpt lat="47.21313" lon="6.02112">
        <ele>442.0999936</ele>
        <time>2015-05-10T10:41:39.890Z</time>
      </trkpt>
      <trkpt lat="47.21312" lon="6.02128">
        <ele>443.0999936</ele>
        <time>2015-05-10T10:41:44.890Z</time>
      </trkpt>
      <trkpt lat="47.21314" lon="6.02144">
        <ele>445.0999936</ele>
        <time>2015-05-10T10:41:51.890Z</time>
      </trkpt>
      <trkpt lat="47.2132" lon="6.02158">
        <ele>445</ele>
        <time>2015-05-10T10:41:57.890Z</time>
      </trkpt>
      <trkpt lat="47.21322" lon="6.02172">
        <ele>446</ele>
        <time>2015-05-10T10:42:01.890Z</time>
      </trkpt>
      <trkpt lat="47.21324" lon="6.02189">
        <ele>448</ele>
        <time>2015-05-10T10:42:06.890Z</time>
      </trkpt>
      <trkpt lat="47.21323" lon="6.02205">
        <ele>450</ele>
        <time>2015-05-10T10:42:11.890Z</time>
      </trkpt>
      <trkpt lat="47.2132" lon="6.0222">
        <ele>451</ele>
        <time>2015-05-10T10:42:17.890Z</time>
      </trkpt>
      <trkpt lat="47.21313" lon="6.02233">
        <ele>453</ele>
        <time>2015-05-10T10:42:23.890Z</time>
      </trkpt>
      <trkpt lat="47.21304" lon="6.02242">
        <ele>453</ele>
        <time>2015-05-10T10:42:27.890Z</time>
      </trkpt>
      <trkpt lat="47.21293" lon="6.02249">
        <ele>453.0999936</ele>
        <time>2015-05-10T10:42:33.890Z</time>
      </trkpt>
      <trkpt lat="47.21283" lon="6.02257">
        <ele>454</ele>
        <time>2015-05-10T10:42:39.890Z</time>
      </trkpt>
      <trkpt lat="47.21277" lon="6.0227">
        <ele>455</ele>
        <time>2015-05-10T10:42:47.890Z</time>
      </trkpt>
      <trkpt lat="47.21281" lon="6.02282">
        <ele>457</ele>
        <time>2015-05-10T10:42:57.890Z</time>
      </trkpt>
      <trkpt lat="47.21288" lon="6.0229">
        <ele>460</ele>
        <time>2015-05-10T10:43:08.890Z</time>
      </trkpt>
      <trkpt lat="47.21294" lon="6.02295">
        <ele>462.0999936</ele>
        <time>2015-05-10T10:43:16.890Z</time>
      </trkpt>
      <trkpt lat="47.21298" lon="6.02305">
        <ele>467</ele>
        <time>2015-05-10T10:43:27.890Z</time>
      </trkpt>
      <trkpt lat="47.21305" lon="6.02312">
        <ele>468</ele>
        <time>2015-05-10T10:43:37.890Z</time>
      </trkpt>
      <trkpt lat="47.2131" lon="6.02321">
        <ele>469.9000064</ele>
        <time>2015-05-10T10:43:44.890Z</time>
      </trkpt>
      <trkpt lat="47.21316" lon="6.02329">
        <ele>470</ele>
        <time>2015-05-10T10:43:52.790Z</time>
      </trkpt>
      <trkpt lat="47.21321" lon="6.02341">
        <ele>471</ele>
        <time>2015-05-10T10:44:00.790Z</time>
      </trkpt>
      <trkpt lat="47.21327" lon="6.02351">
        <ele>472</ele>
        <time>2015-05-10T10:44:08.790Z</time>
      </trkpt>
      <trkpt lat="47.21332" lon="6.02362">
        <ele>473</ele>
        <time>2015-05-10T10:44:15.790Z</time>
      </trkpt>
      <trkpt lat="47.21338" lon="6.02372">
        <ele>474</ele>
        <time>2015-05-10T10:44:20.790Z</time>
      </trkpt>
      <trkpt lat="47.21345" lon="6.02384">
        <ele>474.9900032</ele>
        <time>2015-05-10T10:44:25.790Z</time>
      </trkpt>
      <trkpt lat="47.21349" lon="6.02399">
        <ele>475</ele>
        <time>2015-05-10T10:44:30.790Z</time>
      </trkpt>
      <trkpt lat="47.21352" lon="6.02414">
        <ele>476</ele>
        <time>2015-05-10T10:44:35.790Z</time>
      </trkpt>
      <trkpt lat="47.21354" lon="6.0243">
        <ele>477</ele>
        <time>2015-05-10T10:44:40.790Z</time>
      </trkpt>
      <trkpt lat="47.21356" lon="6.02444">
        <ele>477.0099968</ele>
        <time>2015-05-10T10:44:44.800Z</time>
      </trkpt>
      <trkpt lat="47.21361" lon="6.02462">
        <ele>478</ele>
        <time>2015-05-10T10:44:49.790Z</time>
      </trkpt>
      <trkpt lat="47.21366" lon="6.02478">
        <ele>478</ele>
        <time>2015-05-10T10:44:53.800Z</time>
      </trkpt>
      <trkpt lat="47.21371" lon="6.02495">
        <ele>479</ele>
        <time>2015-05-10T10:44:58.790Z</time>
      </trkpt>
      <trkpt lat="47.21374" lon="6.0251">
        <ele>479</ele>
        <time>2015-05-10T10:45:02.800Z</time>
      </trkpt>
      <trkpt lat="47.21377" lon="6.02528">
        <ele>479</ele>
        <time>2015-05-10T10:45:07.790Z</time>
      </trkpt>
      <trkpt lat="47.2138" lon="6.02545">
        <ele>479.01009774514</ele>
        <time>2015-05-10T10:45:11.810Z</time>
      </trkpt>
      <trkpt lat="47.21381" lon="6.02563">
        <ele>480</ele>
        <time>2015-05-10T10:45:16.790Z</time>
      </trkpt>
      <trkpt lat="47.2138" lon="6.02579">
        <ele>481</ele>
        <time>2015-05-10T10:45:20.790Z</time>
      </trkpt>
      <trkpt lat="47.21381" lon="6.02599">
        <ele>481</ele>
        <time>2015-05-10T10:45:24.790Z</time>
      </trkpt>
      <trkpt lat="47.21382" lon="6.02616">
        <ele>480</ele>
        <time>2015-05-10T10:45:28.790Z</time>
      </trkpt>
      <trkpt lat="47.21386" lon="6.0263">
        <ele>481</ele>
        <time>2015-05-10T10:45:33.790Z</time>
      </trkpt>
      <trkpt lat="47.21398" lon="6.02631">
        <ele>482</ele>
        <time>2015-05-10T10:45:39.790Z</time>
      </trkpt>
      <trkpt lat="47.21408" lon="6.02639">
        <ele>482</ele>
        <time>2015-05-10T10:45:43.790Z</time>
      </trkpt>
      <trkpt lat="47.21415" lon="6.02651">
        <ele>481</ele>
        <time>2015-05-10T10:45:46.790Z</time>
      </trkpt>
      <trkpt lat="47.21422" lon="6.02666">
        <ele>482</ele>
        <time>2015-05-10T10:45:49.790Z</time>
      </trkpt>
      <trkpt lat="47.2143" lon="6.02679">
        <ele>482.9900032</ele>
        <time>2015-05-10T10:45:53.790Z</time>
      </trkpt>
      <trkpt lat="47.21435" lon="6.02696">
        <ele>482</ele>
        <time>2015-05-10T10:45:58.790Z</time>
      </trkpt>
      <trkpt lat="47.21436" lon="6.02712">
        <ele>483</ele>
        <time>2015-05-10T10:46:03.790Z</time>
      </trkpt>
      <trkpt lat="47.2144" lon="6.02729">
        <ele>483</ele>
        <time>2015-05-10T10:46:09.790Z</time>
      </trkpt>
      <trkpt lat="47.21447" lon="6.02742">
        <ele>483</ele>
        <time>2015-05-10T10:46:15.790Z</time>
      </trkpt>
      <trkpt lat="47.21454" lon="6.02755">
        <ele>483</ele>
        <time>2015-05-10T10:46:19.790Z</time>
      </trkpt>
      <trkpt lat="47.21461" lon="6.02769">
        <ele>482</ele>
        <time>2015-05-10T10:46:23.790Z</time>
      </trkpt>
      <trkpt lat="47.21468" lon="6.02784">
        <ele>481</ele>
        <time>2015-05-10T10:46:28.790Z</time>
      </trkpt>
      <trkpt lat="47.21473" lon="6.02799">
        <ele>481</ele>
        <time>2015-05-10T10:46:33.790Z</time>
      </trkpt>
      <trkpt lat="47.21476" lon="6.02813">
        <ele>482</ele>
        <time>2015-05-10T10:46:38.790Z</time>
      </trkpt>
      <trkpt lat="47.21481" lon="6.02828">
        <ele>480</ele>
        <time>2015-05-10T10:46:43.790Z</time>
      </trkpt>
      <trkpt lat="47.21486" lon="6.02844">
        <ele>480.9900032</ele>
        <time>2015-05-10T10:46:48.790Z</time>
      </trkpt>
      <trkpt lat="47.2149" lon="6.02858">
        <ele>482</ele>
        <time>2015-05-10T10:46:53.790Z</time>
      </trkpt>
      <trkpt lat="47.21495" lon="6.02872">
        <ele>482</ele>
        <time>2015-05-10T10:46:58.790Z</time>
      </trkpt>
      <trkpt lat="47.21503" lon="6.02883">
        <ele>483</ele>
        <time>2015-05-10T10:47:04.790Z</time>
      </trkpt>
      <trkpt lat="47.21508" lon="6.029">
        <ele>484</ele>
        <time>2015-05-10T10:47:09.790Z</time>
      </trkpt>
      <trkpt lat="47.21512" lon="6.02914">
        <ele>483</ele>
        <time>2015-05-10T10:47:13.790Z</time>
      </trkpt>
      <trkpt lat="47.21517" lon="6.02928">
        <ele>484</ele>
        <time>2015-05-10T10:47:16.790Z</time>
      </trkpt>
      <trkpt lat="47.21522" lon="6.02944">
        <ele>484</ele>
        <time>2015-05-10T10:47:20.790Z</time>
      </trkpt>
      <trkpt lat="47.21527" lon="6.02961">
        <ele>484</ele>
        <time>2015-05-10T10:47:24.790Z</time>
      </trkpt>
      <trkpt lat="47.21529" lon="6.02979">
        <ele>484</ele>
        <time>2015-05-10T10:47:28.790Z</time>
      </trkpt>
      <trkpt lat="47.21531" lon="6.02996">
        <ele>483</ele>
        <time>2015-05-10T10:47:32.790Z</time>
      </trkpt>
      <trkpt lat="47.21528" lon="6.03011">
        <ele>482.9900032</ele>
        <time>2015-05-10T10:47:37.790Z</time>
      </trkpt>
      <trkpt lat="47.21523" lon="6.03026">
        <ele>483</ele>
        <time>2015-05-10T10:47:43.790Z</time>
      </trkpt>
      <trkpt lat="47.2152" lon="6.03042">
        <ele>482.0099968</ele>
        <time>2015-05-10T10:47:49.790Z</time>
      </trkpt>
      <trkpt lat="47.21516" lon="6.03057">
        <ele>483</ele>
        <time>2015-05-10T10:47:55.790Z</time>
      </trkpt>
      <trkpt lat="47.21509" lon="6.03068">
        <ele>484</ele>
        <time>2015-05-10T10:48:04.790Z</time>
      </trkpt>
      <trkpt lat="47.21507" lon="6.03088">
        <ele>486</ele>
        <time>2015-05-10T10:48:11.890Z</time>
      </trkpt>
      <trkpt lat="47.21507" lon="6.03105">
        <ele>487</ele>
        <time>2015-05-10T10:48:16.890Z</time>
      </trkpt>
      <trkpt lat="47.21508" lon="6.03121">
        <ele>487</ele>
        <time>2015-05-10T10:48:20.890Z</time>
      </trkpt>
      <trkpt lat="47.21511" lon="6.03137">
        <ele>487</ele>
        <time>2015-05-10T10:48:24.890Z</time>
      </trkpt>
      <trkpt lat="47.21515" lon="6.03152">
        <ele>487</ele>
        <time>2015-05-10T10:48:28.890Z</time>
      </trkpt>
      <trkpt lat="47.2152" lon="6.03167">
        <ele>487.0999936</ele>
        <time>2015-05-10T10:48:32.890Z</time>
      </trkpt>
      <trkpt lat="47.21527" lon="6.03183">
        <ele>487</ele>
        <time>2015-05-10T10:48:36.890Z</time>
      </trkpt>
      <trkpt lat="47.21532" lon="6.03198">
        <ele>489</ele>
        <time>2015-05-10T10:48:40.890Z</time>
      </trkpt>
      <trkpt lat="47.21537" lon="6.03213">
        <ele>489</ele>
        <time>2015-05-10T10:48:43.890Z</time>
      </trkpt>
      <trkpt lat="47.21542" lon="6.03227">
        <ele>489</ele>
        <time>2015-05-10T10:48:46.890Z</time>
      </trkpt>
      <trkpt lat="47.21548" lon="6.03242">
        <ele>488.9000064</ele>
        <time>2015-05-10T10:48:49.890Z</time>
      </trkpt>
      <trkpt lat="47.21552" lon="6.03256">
        <ele>489</ele>
        <time>2015-05-10T10:48:53.890Z</time>
      </trkpt>
      <trkpt lat="47.21554" lon="6.03271">
        <ele>489</ele>
        <time>2015-05-10T10:48:57.890Z</time>
      </trkpt>
      <trkpt lat="47.21554" lon="6.03288">
        <ele>489</ele>
        <time>2015-05-10T10:49:02.890Z</time>
      </trkpt>
      <trkpt lat="47.21546" lon="6.03296">
        <ele>489</ele>
        <time>2015-05-10T10:49:07.890Z</time>
      </trkpt>
      <trkpt lat="47.21536" lon="6.03302">
        <ele>489</ele>
        <time>2015-05-10T10:49:14.890Z</time>
      </trkpt>
      <trkpt lat="47.21529" lon="6.03311">
        <ele>490</ele>
        <time>2015-05-10T10:49:20.890Z</time>
      </trkpt>
      <trkpt lat="47.21523" lon="6.03323">
        <ele>491.0999936</ele>
        <time>2015-05-10T10:49:28.890Z</time>
      </trkpt>
      <trkpt lat="47.21522" lon="6.03337">
        <ele>493</ele>
        <time>2015-05-10T10:49:33.890Z</time>
      </trkpt>
      <trkpt lat="47.21523" lon="6.03354">
        <ele>493.0999936</ele>
        <time>2015-05-10T10:49:39.890Z</time>
      </trkpt>
      <trkpt lat="47.21526" lon="6.0337">
        <ele>494</ele>
        <time>2015-05-10T10:49:44.890Z</time>
      </trkpt>
      <trkpt lat="47.21529" lon="6.03385">
        <ele>494</ele>
        <time>2015-05-10T10:49:48.890Z</time>
      </trkpt>
      <trkpt lat="47.21532" lon="6.03401">
        <ele>494</ele>
        <time>2015-05-10T10:49:52.890Z</time>
      </trkpt>
      <trkpt lat="47.21534" lon="6.03418">
        <ele>494</ele>
        <time>2015-05-10T10:49:56.890Z</time>
      </trkpt>
      <trkpt lat="47.21536" lon="6.03435">
        <ele>495</ele>
        <time>2015-05-10T10:50:00.890Z</time>
      </trkpt>
      <trkpt lat="47.21541" lon="6.0345">
        <ele>495</ele>
        <time>2015-05-10T10:50:04.890Z</time>
      </trkpt>
      <trkpt lat="47.21545" lon="6.03467">
        <ele>496</ele>
        <time>2015-05-10T10:50:09.890Z</time>
      </trkpt>
      <trkpt lat="47.21546" lon="6.03483">
        <ele>496</ele>
        <time>2015-05-10T10:50:13.890Z</time>
      </trkpt>
      <trkpt lat="47.21548" lon="6.03503">
        <ele>496</ele>
        <time>2015-05-10T10:50:17.890Z</time>
      </trkpt>
      <trkpt lat="47.21551" lon="6.03524">
        <ele>494</ele>
        <time>2015-05-10T10:50:21.790Z</time>
      </trkpt>
      <trkpt lat="47.21555" lon="6.03541">
        <ele>494</ele>
        <time>2015-05-10T10:50:25.790Z</time>
      </trkpt>
      <trkpt lat="47.21558" lon="6.0356">
        <ele>495</ele>
        <time>2015-05-10T10:50:29.790Z</time>
      </trkpt>
      <trkpt lat="47.21561" lon="6.03574">
        <ele>494.0099968</ele>
        <time>2015-05-10T10:50:32.790Z</time>
      </trkpt>
      <trkpt lat="47.21565" lon="6.03592">
        <ele>494</ele>
        <time>2015-05-10T10:50:36.790Z</time>
      </trkpt>
      <trkpt lat="47.21569" lon="6.03607">
        <ele>494</ele>
        <time>2015-05-10T10:50:39.790Z</time>
      </trkpt>
      <trkpt lat="47.21573" lon="6.03622">
        <ele>493</ele>
        <time>2015-05-10T10:50:42.790Z</time>
      </trkpt>
      <trkpt lat="47.21578" lon="6.03635">
        <ele>492.0099968</ele>
        <time>2015-05-10T10:50:45.790Z</time>
      </trkpt>
      <trkpt lat="47.21582" lon="6.0365">
        <ele>492</ele>
        <time>2015-05-10T10:50:48.790Z</time>
      </trkpt>
      <trkpt lat="47.21587" lon="6.03667">
        <ele>491.9900032</ele>
        <time>2015-05-10T10:50:52.790Z</time>
      </trkpt>
      <trkpt lat="47.21591" lon="6.03685">
        <ele>491.9900032</ele>
        <time>2015-05-10T10:50:56.790Z</time>
      </trkpt>
      <trkpt lat="47.21592" lon="6.037">
        <ele>492</ele>
        <time>2015-05-10T10:51:00.790Z</time>
      </trkpt>
      <trkpt lat="47.21592" lon="6.03716">
        <ele>492</ele>
        <time>2015-05-10T10:51:04.790Z</time>
      </trkpt>
      <trkpt lat="47.21593" lon="6.03734">
        <ele>492</ele>
        <time>2015-05-10T10:51:09.790Z</time>
      </trkpt>
      <trkpt lat="47.21594" lon="6.0375">
        <ele>492</ele>
        <time>2015-05-10T10:51:13.790Z</time>
      </trkpt>
      <trkpt lat="47.21596" lon="6.03765">
        <ele>490.0099968</ele>
        <time>2015-05-10T10:51:16.790Z</time>
      </trkpt>
      <trkpt lat="47.21598" lon="6.0378">
        <ele>488.0099968</ele>
        <time>2015-05-10T10:51:19.790Z</time>
      </trkpt>
      <trkpt lat="47.21601" lon="6.03796">
        <ele>486.0099968</ele>
        <time>2015-05-10T10:51:23.790Z</time>
      </trkpt>
      <trkpt lat="47.21606" lon="6.03812">
        <ele>485</ele>
        <time>2015-05-10T10:51:27.790Z</time>
      </trkpt>
      <trkpt lat="47.21611" lon="6.03826">
        <ele>483.0099968</ele>
        <time>2015-05-10T10:51:31.790Z</time>
      </trkpt>
      <trkpt lat="47.21618" lon="6.0384">
        <ele>482</ele>
        <time>2015-05-10T10:51:35.790Z</time>
      </trkpt>
      <trkpt lat="47.21625" lon="6.03856">
        <ele>482</ele>
        <time>2015-05-10T10:51:39.790Z</time>
      </trkpt>
      <trkpt lat="47.2163" lon="6.0387">
        <ele>481</ele>
        <time>2015-05-10T10:51:43.790Z</time>
      </trkpt>
      <trkpt lat="47.21634" lon="6.03892">
        <ele>480.00989785314</ele>
        <time>2015-05-10T10:51:48.790Z</time>
      </trkpt>
      <trkpt lat="47.21638" lon="6.03908">
        <ele>479</ele>
        <time>2015-05-10T10:51:52.800Z</time>
      </trkpt>
      <trkpt lat="47.21645" lon="6.03929">
        <ele>477</ele>
        <time>2015-05-10T10:51:57.790Z</time>
      </trkpt>
      <trkpt lat="47.21651" lon="6.03944">
        <ele>476</ele>
        <time>2015-05-10T10:52:01.800Z</time>
      </trkpt>
      <trkpt lat="47.21657" lon="6.0396">
        <ele>475</ele>
        <time>2015-05-10T10:52:06.790Z</time>
      </trkpt>
      <trkpt lat="47.21662" lon="6.03975">
        <ele>474</ele>
        <time>2015-05-10T10:52:09.790Z</time>
      </trkpt>
      <trkpt lat="47.21666" lon="6.03989">
        <ele>474</ele>
        <time>2015-05-10T10:52:13.790Z</time>
      </trkpt>
      <trkpt lat="47.2167" lon="6.04004">
        <ele>473</ele>
        <time>2015-05-10T10:52:17.790Z</time>
      </trkpt>
      <trkpt lat="47.21672" lon="6.04019">
        <ele>473</ele>
        <time>2015-05-10T10:52:21.790Z</time>
      </trkpt>
      <trkpt lat="47.21674" lon="6.04037">
        <ele>472</ele>
        <time>2015-05-10T10:52:26.790Z</time>
      </trkpt>
      <trkpt lat="47.21675" lon="6.04055">
        <ele>471</ele>
        <time>2015-05-10T10:52:31.510Z</time>
      </trkpt>
      <trkpt lat="47.21675" lon="6.04072">
        <ele>470.0099968</ele>
        <time>2015-05-10T10:52:35.790Z</time>
      </trkpt>
      <trkpt lat="47.21678" lon="6.04087">
        <ele>468.0099968</ele>
        <time>2015-05-10T10:52:39.790Z</time>
      </trkpt>
      <trkpt lat="47.2168" lon="6.041">
        <ele>468</ele>
        <time>2015-05-10T10:52:43.790Z</time>
      </trkpt>
      <trkpt lat="47.21682" lon="6.04114">
        <ele>467.0099968</ele>
        <time>2015-05-10T10:52:47.790Z</time>
      </trkpt>
      <trkpt lat="47.21685" lon="6.04125">
        <ele>467</ele>
        <time>2015-05-10T10:52:51.790Z</time>
      </trkpt>
      <trkpt lat="47.2169" lon="6.04137">
        <ele>468</ele>
        <time>2015-05-10T10:52:56.790Z</time>
      </trkpt>
      <trkpt lat="47.21694" lon="6.04152">
        <ele>467</ele>
        <time>2015-05-10T10:53:01.790Z</time>
      </trkpt>
      <trkpt lat="47.21696" lon="6.04168">
        <ele>466</ele>
        <time>2015-05-10T10:53:06.790Z</time>
      </trkpt>
      <trkpt lat="47.21698" lon="6.04183">
        <ele>465</ele>
        <time>2015-05-10T10:53:10.790Z</time>
      </trkpt>
      <trkpt lat="47.21699" lon="6.04199">
        <ele>465</ele>
        <time>2015-05-10T10:53:14.790Z</time>
      </trkpt>
      <trkpt lat="47.21701" lon="6.04214">
        <ele>465</ele>
        <time>2015-05-10T10:53:18.790Z</time>
      </trkpt>
      <trkpt lat="47.21704" lon="6.04232">
        <ele>465.0099968</ele>
        <time>2015-05-10T10:53:22.790Z</time>
      </trkpt>
      <trkpt lat="47.21707" lon="6.04248">
        <ele>465</ele>
        <time>2015-05-10T10:53:26.790Z</time>
      </trkpt>
      <trkpt lat="47.21711" lon="6.04263">
        <ele>465</ele>
        <time>2015-05-10T10:53:30.790Z</time>
      </trkpt>
      <trkpt lat="47.21716" lon="6.04279">
        <ele>465</ele>
        <time>2015-05-10T10:53:34.790Z</time>
      </trkpt>
      <trkpt lat="47.2172" lon="6.04293">
        <ele>466</ele>
        <time>2015-05-10T10:53:38.790Z</time>
      </trkpt>
      <trkpt lat="47.21723" lon="6.04308">
        <ele>467</ele>
        <time>2015-05-10T10:53:42.890Z</time>
      </trkpt>
      <trkpt lat="47.21727" lon="6.04324">
        <ele>468</ele>
        <time>2015-05-10T10:53:47.890Z</time>
      </trkpt>
      <trkpt lat="47.21729" lon="6.04339">
        <ele>469.0999936</ele>
        <time>2015-05-10T10:53:52.890Z</time>
      </trkpt>
      <trkpt lat="47.21732" lon="6.04354">
        <ele>470</ele>
        <time>2015-05-10T10:53:56.890Z</time>
      </trkpt>
      <trkpt lat="47.21736" lon="6.0437">
        <ele>470</ele>
        <time>2015-05-10T10:54:00.890Z</time>
      </trkpt>
      <trkpt lat="47.21741" lon="6.04386">
        <ele>470.0999936</ele>
        <time>2015-05-10T10:54:05.890Z</time>
      </trkpt>
      <trkpt lat="47.21744" lon="6.044">
        <ele>471</ele>
        <time>2015-05-10T10:54:09.890Z</time>
      </trkpt>
      <trkpt lat="47.21749" lon="6.04417">
        <ele>471</ele>
        <time>2015-05-10T10:54:13.890Z</time>
      </trkpt>
      <trkpt lat="47.21756" lon="6.04431">
        <ele>471</ele>
        <time>2015-05-10T10:54:16.890Z</time>
      </trkpt>
      <trkpt lat="47.21763" lon="6.04444">
        <ele>471.0999936</ele>
        <time>2015-05-10T10:54:19.890Z</time>
      </trkpt>
      <trkpt lat="47.21769" lon="6.04457">
        <ele>472</ele>
        <time>2015-05-10T10:54:22.890Z</time>
      </trkpt>
      <trkpt lat="47.21776" lon="6.04468">
        <ele>471.9000064</ele>
        <time>2015-05-10T10:54:25.890Z</time>
      </trkpt>
      <trkpt lat="47.21785" lon="6.04482">
        <ele>471</ele>
        <time>2015-05-10T10:54:29.890Z</time>
      </trkpt>
      <trkpt lat="47.21793" lon="6.04494">
        <ele>471</ele>
        <time>2015-05-10T10:54:32.890Z</time>
      </trkpt>
      <trkpt lat="47.21799" lon="6.04506">
        <ele>471</ele>
        <time>2015-05-10T10:54:35.890Z</time>
      </trkpt>
      <trkpt lat="47.21806" lon="6.04525">
        <ele>471</ele>
        <time>2015-05-10T10:54:39.800Z</time>
      </trkpt>
      <trkpt lat="47.21811" lon="6.04543">
        <ele>471.9900032</ele>
        <time>2015-05-10T10:54:43.790Z</time>
      </trkpt>
      <trkpt lat="47.21811" lon="6.04561">
        <ele>471</ele>
        <time>2015-05-10T10:54:47.790Z</time>
      </trkpt>
      <trkpt lat="47.21807" lon="6.04578">
        <ele>470</ele>
        <time>2015-05-10T10:54:51.790Z</time>
      </trkpt>
      <trkpt lat="47.21807" lon="6.04593">
        <ele>468.0099968</ele>
        <time>2015-05-10T10:54:56.790Z</time>
      </trkpt>
      <trkpt lat="47.2181" lon="6.0461">
        <ele>466</ele>
        <time>2015-05-10T10:55:00.790Z</time>
      </trkpt>
      <trkpt lat="47.21813" lon="6.04625">
        <ele>465</ele>
        <time>2015-05-10T10:55:03.790Z</time>
      </trkpt>
      <trkpt lat="47.21816" lon="6.04638">
        <ele>464</ele>
        <time>2015-05-10T10:55:06.790Z</time>
      </trkpt>
      <trkpt lat="47.21815" lon="6.04651">
        <ele>463</ele>
        <time>2015-05-10T10:55:09.790Z</time>
      </trkpt>
      <trkpt lat="47.21823" lon="6.04662">
        <ele>463.9900032</ele>
        <time>2015-05-10T10:55:15.790Z</time>
      </trkpt>
      <trkpt lat="47.21832" lon="6.04662">
        <ele>464</ele>
        <time>2015-05-10T10:55:18.790Z</time>
      </trkpt>
      <trkpt lat="47.21841" lon="6.04666">
        <ele>464</ele>
        <time>2015-05-10T10:55:21.790Z</time>
      </trkpt>
      <trkpt lat="47.21849" lon="6.04677">
        <ele>463</ele>
        <time>2015-05-10T10:55:24.790Z</time>
      </trkpt>
      <trkpt lat="47.21856" lon="6.04688">
        <ele>463</ele>
        <time>2015-05-10T10:55:27.790Z</time>
      </trkpt>
      <trkpt lat="47.21863" lon="6.04704">
        <ele>463</ele>
        <time>2015-05-10T10:55:31.790Z</time>
      </trkpt>
      <trkpt lat="47.21869" lon="6.04718">
        <ele>462</ele>
        <time>2015-05-10T10:55:35.790Z</time>
      </trkpt>
      <trkpt lat="47.21872" lon="6.04733">
        <ele>462.9900032</ele>
        <time>2015-05-10T10:55:40.790Z</time>
      </trkpt>
      <trkpt lat="47.21875" lon="6.04748">
        <ele>463</ele>
        <time>2015-05-10T10:55:46.790Z</time>
      </trkpt>
      <trkpt lat="47.2188" lon="6.04763">
        <ele>463</ele>
        <time>2015-05-10T10:55:51.790Z</time>
      </trkpt>
      <trkpt lat="47.21884" lon="6.04777">
        <ele>463</ele>
        <time>2015-05-10T10:55:56.790Z</time>
      </trkpt>
      <trkpt lat="47.21888" lon="6.04792">
        <ele>463</ele>
        <time>2015-05-10T10:56:01.790Z</time>
      </trkpt>
      <trkpt lat="47.21892" lon="6.04806">
        <ele>464</ele>
        <time>2015-05-10T10:56:06.790Z</time>
      </trkpt>
      <trkpt lat="47.21896" lon="6.04818">
        <ele>465</ele>
        <time>2015-05-10T10:56:10.790Z</time>
      </trkpt>
      <trkpt lat="47.219" lon="6.04831">
        <ele>465</ele>
        <time>2015-05-10T10:56:14.790Z</time>
      </trkpt>
      <trkpt lat="47.21905" lon="6.04843">
        <ele>466.9900032</ele>
        <time>2015-05-10T10:56:18.790Z</time>
      </trkpt>
      <trkpt lat="47.21912" lon="6.04857">
        <ele>466</ele>
        <time>2015-05-10T10:56:23.790Z</time>
      </trkpt>
      <trkpt lat="47.21917" lon="6.04869">
        <ele>466</ele>
        <time>2015-05-10T10:56:27.790Z</time>
      </trkpt>
      <trkpt lat="47.21923" lon="6.04884">
        <ele>466</ele>
        <time>2015-05-10T10:56:33.790Z</time>
      </trkpt>
      <trkpt lat="47.21927" lon="6.04896">
        <ele>466.9900032</ele>
        <time>2015-05-10T10:56:37.790Z</time>
      </trkpt>
      <trkpt lat="47.21932" lon="6.04911">
        <ele>468</ele>
        <time>2015-05-10T10:56:42.790Z</time>
      </trkpt>
      <trkpt lat="47.21936" lon="6.04926">
        <ele>469</ele>
        <time>2015-05-10T10:56:47.790Z</time>
      </trkpt>
      <trkpt lat="47.21937" lon="6.0494">
        <ele>470</ele>
        <time>2015-05-10T10:56:51.890Z</time>
      </trkpt>
      <trkpt lat="47.21941" lon="6.04953">
        <ele>471</ele>
        <time>2015-05-10T10:56:55.890Z</time>
      </trkpt>
      <trkpt lat="47.21947" lon="6.04965">
        <ele>473</ele>
        <time>2015-05-10T10:56:59.890Z</time>
      </trkpt>
      <trkpt lat="47.2195" lon="6.04979">
        <ele>474.09090556475</ele>
        <time>2015-05-10T10:57:04.890Z</time>
      </trkpt>
      <trkpt lat="47.21952" lon="6.04993">
        <ele>475</ele>
        <time>2015-05-10T10:57:09.890Z</time>
      </trkpt>
      <trkpt lat="47.21954" lon="6.05008">
        <ele>476.0999936</ele>
        <time>2015-05-10T10:57:15.890Z</time>
      </trkpt>
      <trkpt lat="47.21945" lon="6.05012">
        <ele>477</ele>
        <time>2015-05-10T10:57:20.890Z</time>
      </trkpt>
      <trkpt lat="47.21936" lon="6.05008">
        <ele>478</ele>
        <time>2015-05-10T10:57:23.890Z</time>
      </trkpt>
      <trkpt lat="47.21926" lon="6.05012">
        <ele>480</ele>
        <time>2015-05-10T10:57:30.890Z</time>
      </trkpt>
      <trkpt lat="47.21919" lon="6.05023">
        <ele>481</ele>
        <time>2015-05-10T10:57:36.890Z</time>
      </trkpt>
      <trkpt lat="47.21915" lon="6.05037">
        <ele>481</ele>
        <time>2015-05-10T10:57:40.890Z</time>
      </trkpt>
      <trkpt lat="47.21913" lon="6.05049">
        <ele>481.0999936</ele>
        <time>2015-05-10T10:57:44.890Z</time>
      </trkpt>
      <trkpt lat="47.2191" lon="6.05064">
        <ele>482</ele>
        <time>2015-05-10T10:57:49.890Z</time>
      </trkpt>
      <trkpt lat="47.21908" lon="6.05081">
        <ele>482</ele>
        <time>2015-05-10T10:57:54.890Z</time>
      </trkpt>
      <trkpt lat="47.21907" lon="6.05097">
        <ele>482</ele>
        <time>2015-05-10T10:57:58.890Z</time>
      </trkpt>
      <trkpt lat="47.21911" lon="6.05114">
        <ele>482</ele>
        <time>2015-05-10T10:58:03.890Z</time>
      </trkpt>
      <trkpt lat="47.21919" lon="6.05123">
        <ele>482</ele>
        <time>2015-05-10T10:58:09.890Z</time>
      </trkpt>
      <trkpt lat="47.21928" lon="6.05128">
        <ele>483.0999936</ele>
        <time>2015-05-10T10:58:15.890Z</time>
      </trkpt>
      <trkpt lat="47.21932" lon="6.05141">
        <ele>483</ele>
        <time>2015-05-10T10:58:21.890Z</time>
      </trkpt>
      <trkpt lat="47.21938" lon="6.05156">
        <ele>484</ele>
        <time>2015-05-10T10:58:26.890Z</time>
      </trkpt>
      <trkpt lat="47.21945" lon="6.05167">
        <ele>485</ele>
        <time>2015-05-10T10:58:32.890Z</time>
      </trkpt>
      <trkpt lat="47.21946" lon="6.05182">
        <ele>485</ele>
        <time>2015-05-10T10:58:39.890Z</time>
      </trkpt>
      <trkpt lat="47.21946" lon="6.05198">
        <ele>486</ele>
        <time>2015-05-10T10:58:45.890Z</time>
      </trkpt>
      <trkpt lat="47.21944" lon="6.05213">
        <ele>485</ele>
        <time>2015-05-10T10:58:51.890Z</time>
      </trkpt>
      <trkpt lat="47.21948" lon="6.05226">
        <ele>484</ele>
        <time>2015-05-10T10:58:56.890Z</time>
      </trkpt>
      <trkpt lat="47.21952" lon="6.05241">
        <ele>481.9000064</ele>
        <time>2015-05-10T10:59:03.890Z</time>
      </trkpt>
      <trkpt lat="47.21961" lon="6.0525">
        <ele>480.0999936</ele>
        <time>2015-05-10T10:59:11.890Z</time>
      </trkpt>
      <trkpt lat="47.21972" lon="6.05255">
        <ele>480</ele>
        <time>2015-05-10T10:59:17.890Z</time>
      </trkpt>
      <trkpt lat="47.21983" lon="6.05259">
        <ele>480</ele>
        <time>2015-05-10T10:59:21.890Z</time>
      </trkpt>
      <trkpt lat="47.21992" lon="6.05262">
        <ele>479</ele>
        <time>2015-05-10T10:59:25.890Z</time>
      </trkpt>
      <trkpt lat="47.22003" lon="6.05265">
        <ele>479</ele>
        <time>2015-05-10T10:59:30.890Z</time>
      </trkpt>
      <trkpt lat="47.22014" lon="6.05271">
        <ele>479.0999936</ele>
        <time>2015-05-10T10:59:35.890Z</time>
      </trkpt>
      <trkpt lat="47.22024" lon="6.05279">
        <ele>480</ele>
        <time>2015-05-10T10:59:40.890Z</time>
      </trkpt>
      <trkpt lat="47.22034" lon="6.05287">
        <ele>482</ele>
        <time>2015-05-10T10:59:45.890Z</time>
      </trkpt>
      <trkpt lat="47.22043" lon="6.05293">
        <ele>482.0999936</ele>
        <time>2015-05-10T10:59:49.890Z</time>
      </trkpt>
      <trkpt lat="47.22053" lon="6.05297">
        <ele>483.0999936</ele>
        <time>2015-05-10T10:59:56.890Z</time>
      </trkpt>
      <trkpt lat="47.22064" lon="6.053">
        <ele>483</ele>
        <time>2015-05-10T11:00:02.790Z</time>
      </trkpt>
      <trkpt lat="47.22073" lon="6.05311">
        <ele>481</ele>
        <time>2015-05-10T11:00:07.800Z</time>
      </trkpt>
      <trkpt lat="47.22072" lon="6.05324">
        <ele>479</ele>
        <time>2015-05-10T11:00:18.790Z</time>
      </trkpt>
      <trkpt lat="47.22074" lon="6.05339">
        <ele>478.99010214686</ele>
        <time>2015-05-10T11:00:27.790Z</time>
      </trkpt>
      <trkpt lat="47.22077" lon="6.05352">
        <ele>481</ele>
        <time>2015-05-10T11:00:37.800Z</time>
      </trkpt>
      <trkpt lat="47.22082" lon="6.05364">
        <ele>481</ele>
        <time>2015-05-10T11:00:45.790Z</time>
      </trkpt>
      <trkpt lat="47.22088" lon="6.05378">
        <ele>483</ele>
        <time>2015-05-10T11:00:52.800Z</time>
      </trkpt>
      <trkpt lat="47.22092" lon="6.05396">
        <ele>485</ele>
        <time>2015-05-10T11:00:57.790Z</time>
      </trkpt>
      <trkpt lat="47.22103" lon="6.05409">
        <ele>486</ele>
        <time>2015-05-10T11:01:03.790Z</time>
      </trkpt>
      <trkpt lat="47.22113" lon="6.0542">
        <ele>487</ele>
        <time>2015-05-10T11:01:07.800Z</time>
      </trkpt>
      <trkpt lat="47.2212" lon="6.0543">
        <ele>487</ele>
        <time>2015-05-10T11:01:10.800Z</time>
      </trkpt>
      <trkpt lat="47.22129" lon="6.05444">
        <ele>487.76923455623</ele>
        <time>2015-05-10T11:01:15.790Z</time>
      </trkpt>
      <trkpt lat="47.22137" lon="6.05457">
        <ele>488</ele>
        <time>2015-05-10T11:01:20.800Z</time>
      </trkpt>
      <trkpt lat="47.22144" lon="6.05471">
        <ele>489</ele>
        <time>2015-05-10T11:01:25.790Z</time>
      </trkpt>
      <trkpt lat="47.2215" lon="6.05483">
        <ele>489</ele>
        <time>2015-05-10T11:01:29.800Z</time>
      </trkpt>
      <trkpt lat="47.22159" lon="6.05497">
        <ele>490</ele>
        <time>2015-05-10T11:01:34.790Z</time>
      </trkpt>
      <trkpt lat="47.2217" lon="6.0551">
        <ele>491</ele>
        <time>2015-05-10T11:01:40.790Z</time>
      </trkpt>
      <trkpt lat="47.22178" lon="6.05522">
        <ele>491</ele>
        <time>2015-05-10T11:01:44.810Z</time>
      </trkpt>
      <trkpt lat="47.22186" lon="6.05533">
        <ele>490</ele>
        <time>2015-05-10T11:01:49.790Z</time>
      </trkpt>
      <trkpt lat="47.22192" lon="6.0555">
        <ele>489</ele>
        <time>2015-05-10T11:01:55.790Z</time>
      </trkpt>
      <trkpt lat="47.22198" lon="6.05564">
        <ele>489</ele>
        <time>2015-05-10T11:02:01.790Z</time>
      </trkpt>
      <trkpt lat="47.22204" lon="6.05576">
        <ele>490</ele>
        <time>2015-05-10T11:02:07.790Z</time>
      </trkpt>
      <trkpt lat="47.22211" lon="6.05588">
        <ele>489</ele>
        <time>2015-05-10T11:02:16.790Z</time>
      </trkpt>
      <trkpt lat="47.22217" lon="6.05599">
        <ele>489</ele>
        <time>2015-05-10T11:02:25.790Z</time>
      </trkpt>
      <trkpt lat="47.22223" lon="6.05612">
        <ele>490</ele>
        <time>2015-05-10T11:02:34.790Z</time>
      </trkpt>
      <trkpt lat="47.2223" lon="6.05626">
        <ele>490</ele>
        <time>2015-05-10T11:02:43.790Z</time>
      </trkpt>
      <trkpt lat="47.22235" lon="6.05644">
        <ele>491</ele>
        <time>2015-05-10T11:02:52.790Z</time>
      </trkpt>
      <trkpt lat="47.22238" lon="6.05659">
        <ele>490</ele>
        <time>2015-05-10T11:02:58.790Z</time>
      </trkpt>
      <trkpt lat="47.22245" lon="6.05673">
        <ele>491</ele>
        <time>2015-05-10T11:03:04.790Z</time>
      </trkpt>
      <trkpt lat="47.2225" lon="6.05691">
        <ele>490</ele>
        <time>2015-05-10T11:03:10.790Z</time>
      </trkpt>
      <trkpt lat="47.22254" lon="6.05705">
        <ele>489</ele>
        <time>2015-05-10T11:03:14.800Z</time>
      </trkpt>
      <trkpt lat="47.22261" lon="6.05721">
        <ele>489</ele>
        <time>2015-05-10T11:03:19.790Z</time>
      </trkpt>
      <trkpt lat="47.2227" lon="6.05738">
        <ele>489</ele>
        <time>2015-05-10T11:03:25.790Z</time>
      </trkpt>
      <trkpt lat="47.22275" lon="6.05751">
        <ele>488</ele>
        <time>2015-05-10T11:03:29.800Z</time>
      </trkpt>
      <trkpt lat="47.22282" lon="6.05765">
        <ele>488</ele>
        <time>2015-05-10T11:03:35.800Z</time>
      </trkpt>
      <trkpt lat="47.22288" lon="6.05778">
        <ele>488</ele>
        <time>2015-05-10T11:03:40.790Z</time>
      </trkpt>
      <trkpt lat="47.22294" lon="6.0579">
        <ele>488</ele>
        <time>2015-05-10T11:03:44.800Z</time>
      </trkpt>
      <trkpt lat="47.22304" lon="6.05804">
        <ele>487</ele>
        <time>2015-05-10T11:03:49.790Z</time>
      </trkpt>
      <trkpt lat="47.22313" lon="6.05816">
        <ele>487</ele>
        <time>2015-05-10T11:03:53.800Z</time>
      </trkpt>
      <trkpt lat="47.2232" lon="6.05827">
        <ele>487</ele>
        <time>2015-05-10T11:03:59.800Z</time>
      </trkpt>
      <trkpt lat="47.22328" lon="6.05838">
        <ele>487</ele>
        <time>2015-05-10T11:04:05.800Z</time>
      </trkpt>
      <trkpt lat="47.2234" lon="6.05841">
        <ele>485</ele>
        <time>2015-05-10T11:04:19.790Z</time>
      </trkpt>
      <trkpt lat="47.2235" lon="6.05845">
        <ele>484</ele>
        <time>2015-05-10T11:04:31.790Z</time>
      </trkpt>
      <trkpt lat="47.2236" lon="6.05851">
        <ele>479</ele>
        <time>2015-05-10T11:04:43.790Z</time>
      </trkpt>
      <trkpt lat="47.2237" lon="6.05856">
        <ele>476.9900032</ele>
        <time>2015-05-10T11:04:50.800Z</time>
      </trkpt>
      <trkpt lat="47.22382" lon="6.0586">
        <ele>475</ele>
        <time>2015-05-10T11:04:56.800Z</time>
      </trkpt>
      <trkpt lat="47.22393" lon="6.05864">
        <ele>474</ele>
        <time>2015-05-10T11:05:01.790Z</time>
      </trkpt>
      <trkpt lat="47.22403" lon="6.0587">
        <ele>473</ele>
        <time>2015-05-10T11:05:07.790Z</time>
      </trkpt>
      <trkpt lat="47.22411" lon="6.05885">
        <ele>471.9900032</ele>
        <time>2015-05-10T11:05:11.800Z</time>
      </trkpt>
      <trkpt lat="47.22418" lon="6.05897">
        <ele>470</ele>
        <time>2015-05-10T11:05:14.800Z</time>
      </trkpt>
      <trkpt lat="47.22424" lon="6.0591">
        <ele>468.9900032</ele>
        <time>2015-05-10T11:05:17.800Z</time>
      </trkpt>
      <trkpt lat="47.22432" lon="6.05933">
        <ele>466</ele>
        <time>2015-05-10T11:05:22.790Z</time>
      </trkpt>
      <trkpt lat="47.22433" lon="6.0595">
        <ele>465</ele>
        <time>2015-05-10T11:05:25.790Z</time>
      </trkpt>
      <trkpt lat="47.22437" lon="6.05966">
        <ele>463</ele>
        <time>2015-05-10T11:05:29.800Z</time>
      </trkpt>
      <trkpt lat="47.22439" lon="6.05981">
        <ele>463</ele>
        <time>2015-05-10T11:05:34.790Z</time>
      </trkpt>
      <trkpt lat="47.22442" lon="6.05999">
        <ele>462</ele>
        <time>2015-05-10T11:05:40.790Z</time>
      </trkpt>
      <trkpt lat="47.22446" lon="6.06017">
        <ele>459.00989785314</ele>
        <time>2015-05-10T11:05:46.790Z</time>
      </trkpt>
      <trkpt lat="47.22454" lon="6.06036">
        <ele>457</ele>
        <time>2015-05-10T11:05:52.890Z</time>
      </trkpt>
      <trkpt lat="47.2246" lon="6.0605">
        <ele>456</ele>
        <time>2015-05-10T11:05:56.890Z</time>
      </trkpt>
      <trkpt lat="47.22466" lon="6.06064">
        <ele>455</ele>
        <time>2015-05-10T11:06:00.890Z</time>
      </trkpt>
      <trkpt lat="47.22469" lon="6.06078">
        <ele>453.9000064</ele>
        <time>2015-05-10T11:06:04.890Z</time>
      </trkpt>
      <trkpt lat="47.22468" lon="6.06095">
        <ele>450.9000064</ele>
        <time>2015-05-10T11:06:09.890Z</time>
      </trkpt>
      <trkpt lat="47.2247" lon="6.0611">
        <ele>448</ele>
        <time>2015-05-10T11:06:13.890Z</time>
      </trkpt>
      <trkpt lat="47.22473" lon="6.06126">
        <ele>447</ele>
        <time>2015-05-10T11:06:19.890Z</time>
      </trkpt>
      <trkpt lat="47.22479" lon="6.0614">
        <ele>445</ele>
        <time>2015-05-10T11:06:25.890Z</time>
      </trkpt>
      <trkpt lat="47.22485" lon="6.06154">
        <ele>443</ele>
        <time>2015-05-10T11:06:31.890Z</time>
      </trkpt>
      <trkpt lat="47.22492" lon="6.06165">
        <ele>440.9000064</ele>
        <time>2015-05-10T11:06:36.890Z</time>
      </trkpt>
      <trkpt lat="47.225" lon="6.06177">
        <ele>437.9000064</ele>
        <time>2015-05-10T11:06:40.890Z</time>
      </trkpt>
      <trkpt lat="47.22508" lon="6.06187">
        <ele>436</ele>
        <time>2015-05-10T11:06:44.890Z</time>
      </trkpt>
      <trkpt lat="47.22516" lon="6.06196">
        <ele>436</ele>
        <time>2015-05-10T11:06:48.890Z</time>
      </trkpt>
      <trkpt lat="47.22524" lon="6.06205">
        <ele>434</ele>
        <time>2015-05-10T11:06:51.890Z</time>
      </trkpt>
      <trkpt lat="47.22534" lon="6.06217">
        <ele>432</ele>
        <time>2015-05-10T11:06:55.890Z</time>
      </trkpt>
      <trkpt lat="47.22541" lon="6.06229">
        <ele>429</ele>
        <time>2015-05-10T11:06:59.890Z</time>
      </trkpt>
      <trkpt lat="47.22548" lon="6.06241">
        <ele>427</ele>
        <time>2015-05-10T11:07:04.890Z</time>
      </trkpt>
      <trkpt lat="47.22553" lon="6.06253">
        <ele>425</ele>
        <time>2015-05-10T11:07:09.890Z</time>
      </trkpt>
      <trkpt lat="47.2256" lon="6.06267">
        <ele>420.9000064</ele>
        <time>2015-05-10T11:07:15.890Z</time>
      </trkpt>
      <trkpt lat="47.22564" lon="6.06281">
        <ele>417</ele>
        <time>2015-05-10T11:07:23.890Z</time>
      </trkpt>
      <trkpt lat="47.22559" lon="6.06297">
        <ele>413</ele>
        <time>2015-05-10T11:07:29.890Z</time>
      </trkpt>
      <trkpt lat="47.2255" lon="6.06309">
        <ele>410</ele>
        <time>2015-05-10T11:07:34.890Z</time>
      </trkpt>
      <trkpt lat="47.2254" lon="6.06317">
        <ele>408.84376</ele>
        <time>2015-05-10T11:07:38.890Z</time>
      </trkpt>
      <trkpt lat="47.22528" lon="6.06319">
        <ele>403.00989785314</ele>
        <time>2015-05-10T11:07:42.790Z</time>
      </trkpt>
      <trkpt lat="47.22517" lon="6.06318">
        <ele>399.00989785314</ele>
        <time>2015-05-10T11:07:47.790Z</time>
      </trkpt>
      <trkpt lat="47.22507" lon="6.06317">
        <ele>396</ele>
        <time>2015-05-10T11:07:54.790Z</time>
      </trkpt>
      <trkpt lat="47.22498" lon="6.06312">
        <ele>389.9000064</ele>
        <time>2015-05-10T11:08:04.890Z</time>
      </trkpt>
      <trkpt lat="47.2249" lon="6.06323">
        <ele>380.90099612197</ele>
        <time>2015-05-10T11:08:16.890Z</time>
      </trkpt>
      <trkpt lat="47.22491" lon="6.0634">
        <ele>376.9000064</ele>
        <time>2015-05-10T11:08:21.890Z</time>
      </trkpt>
      <trkpt lat="47.22487" lon="6.06354">
        <ele>373.90909443525</ele>
        <time>2015-05-10T11:08:26.890Z</time>
      </trkpt>
      <trkpt lat="47.22489" lon="6.06369">
        <ele>371.90099612197</ele>
        <time>2015-05-10T11:08:34.890Z</time>
      </trkpt>
      <trkpt lat="47.22502" lon="6.06373">
        <ele>370</ele>
        <time>2015-05-10T11:08:39.890Z</time>
      </trkpt>
      <trkpt lat="47.22513" lon="6.06375">
        <ele>369</ele>
        <time>2015-05-10T11:08:43.890Z</time>
      </trkpt>
      <trkpt lat="47.22525" lon="6.06379">
        <ele>368</ele>
        <time>2015-05-10T11:08:47.890Z</time>
      </trkpt>
      <trkpt lat="47.22536" lon="6.06383">
        <ele>367</ele>
        <time>2015-05-10T11:08:52.890Z</time>
      </trkpt>
      <trkpt lat="47.22547" lon="6.06386">
        <ele>366</ele>
        <time>2015-05-10T11:08:57.890Z</time>
      </trkpt>
      <trkpt lat="47.22557" lon="6.06388">
        <ele>365</ele>
        <time>2015-05-10T11:09:02.890Z</time>
      </trkpt>
      <trkpt lat="47.22568" lon="6.06389">
        <ele>365</ele>
        <time>2015-05-10T11:09:08.890Z</time>
      </trkpt>
      <trkpt lat="47.22578" lon="6.06388">
        <ele>365</ele>
        <time>2015-05-10T11:09:13.890Z</time>
      </trkpt>
      <trkpt lat="47.2259" lon="6.06388">
        <ele>364</ele>
        <time>2015-05-10T11:09:18.890Z</time>
      </trkpt>
      <trkpt lat="47.22592" lon="6.06372">
        <ele>363.9000064</ele>
        <time>2015-05-10T11:09:34.890Z</time>
      </trkpt>
      <trkpt lat="47.22589" lon="6.06358">
        <ele>365</ele>
        <time>2015-05-10T11:09:45.890Z</time>
      </trkpt>
      <trkpt lat="47.22598" lon="6.06352">
        <ele>369</ele>
        <time>2015-05-10T11:10:07.890Z</time>
      </trkpt>
      <trkpt lat="47.22609" lon="6.0635">
        <ele>370</ele>
        <time>2015-05-10T11:10:18.890Z</time>
      </trkpt>
      <trkpt lat="47.22619" lon="6.06345">
        <ele>370.9900032</ele>
        <time>2015-05-10T11:10:28.800Z</time>
      </trkpt>
      <trkpt lat="47.22628" lon="6.06338">
        <ele>371</ele>
        <time>2015-05-10T11:10:39.790Z</time>
      </trkpt>
      <trkpt lat="47.22637" lon="6.0633">
        <ele>373.99010214686</ele>
        <time>2015-05-10T11:10:45.790Z</time>
      </trkpt>
      <trkpt lat="47.22642" lon="6.06316">
        <ele>375</ele>
        <time>2015-05-10T11:10:52.800Z</time>
      </trkpt>
      <trkpt lat="47.22645" lon="6.06302">
        <ele>375.04040390981</ele>
        <time>2015-05-10T11:10:58.840Z</time>
      </trkpt>
      <trkpt lat="47.22643" lon="6.06288">
        <ele>377.99010214686</ele>
        <time>2015-05-10T11:11:06.790Z</time>
      </trkpt>
      <trkpt lat="47.22636" lon="6.06271">
        <ele>380</ele>
        <time>2015-05-10T11:11:15.790Z</time>
      </trkpt>
      <trkpt lat="47.22635" lon="6.06255">
        <ele>382.9900032</ele>
        <time>2015-05-10T11:11:21.790Z</time>
      </trkpt>
      <trkpt lat="47.22634" lon="6.06239">
        <ele>384</ele>
        <time>2015-05-10T11:11:27.790Z</time>
      </trkpt>
      <trkpt lat="47.22632" lon="6.06224">
        <ele>386.9900032</ele>
        <time>2015-05-10T11:11:33.790Z</time>
      </trkpt>
      <trkpt lat="47.22631" lon="6.06209">
        <ele>388.9900032</ele>
        <time>2015-05-10T11:11:39.790Z</time>
      </trkpt>
      <trkpt lat="47.22628" lon="6.06193">
        <ele>391</ele>
        <time>2015-05-10T11:11:47.790Z</time>
      </trkpt>
      <trkpt lat="47.22626" lon="6.06178">
        <ele>393</ele>
        <time>2015-05-10T11:11:54.790Z</time>
      </trkpt>
      <trkpt lat="47.22624" lon="6.06163">
        <ele>395</ele>
        <time>2015-05-10T11:12:02.790Z</time>
      </trkpt>
      <trkpt lat="47.22621" lon="6.06148">
        <ele>397</ele>
        <time>2015-05-10T11:12:11.790Z</time>
      </trkpt>
      <trkpt lat="47.22618" lon="6.06133">
        <ele>399.98020429372</ele>
        <time>2015-05-10T11:12:19.790Z</time>
      </trkpt>
      <trkpt lat="47.22623" lon="6.06119">
        <ele>401.9900032</ele>
        <time>2015-05-10T11:12:26.790Z</time>
      </trkpt>
      <trkpt lat="47.22628" lon="6.06106">
        <ele>404</ele>
        <time>2015-05-10T11:12:34.790Z</time>
      </trkpt>
      <trkpt lat="47.22627" lon="6.06091">
        <ele>407</ele>
        <time>2015-05-10T11:12:45.790Z</time>
      </trkpt>
      <trkpt lat="47.22626" lon="6.06075">
        <ele>411</ele>
        <time>2015-05-10T11:12:56.790Z</time>
      </trkpt>
      <trkpt lat="47.22622" lon="6.06069">
        <ele>415</ele>
        <time>2015-05-10T11:13:17.990Z</time>
      </trkpt>
      <trkpt lat="47.22621" lon="6.06071">
        <ele>416</ele>
        <time>2015-05-10T11:13:21.260Z</time>
      </trkpt>
      <trkpt lat="47.22616" lon="6.06071">
        <ele>417</ele>
        <time>2015-05-10T11:13:25.890Z</time>
      </trkpt>
      <trkpt lat="47.22619" lon="6.06057">
        <ele>417.0999936</ele>
        <time>2015-05-10T11:13:37.890Z</time>
      </trkpt>
      <trkpt lat="47.22621" lon="6.06042">
        <ele>421</ele>
        <time>2015-05-10T11:13:47.890Z</time>
      </trkpt>
      <trkpt lat="47.22613" lon="6.06052">
        <ele>428</ele>
        <time>2015-05-10T11:14:28.890Z</time>
      </trkpt>
      <trkpt lat="47.2261" lon="6.06037">
        <ele>430</ele>
        <time>2015-05-10T11:14:46.890Z</time>
      </trkpt>
      <trkpt lat="47.22612" lon="6.06022">
        <ele>432</ele>
        <time>2015-05-10T11:14:54.890Z</time>
      </trkpt>
      <trkpt lat="47.22611" lon="6.06008">
        <ele>436.9900032</ele>
        <time>2015-05-10T11:15:10.790Z</time>
      </trkpt>
      <trkpt lat="47.22602" lon="6.06012">
        <ele>441</ele>
        <time>2015-05-10T11:15:28.790Z</time>
      </trkpt>
      <trkpt lat="47.22592" lon="6.06007">
        <ele>444.99010214686</ele>
        <time>2015-05-10T11:15:39.790Z</time>
      </trkpt>
      <trkpt lat="47.22593" lon="6.05992">
        <ele>446</ele>
        <time>2015-05-10T11:15:46.800Z</time>
      </trkpt>
      <trkpt lat="47.22592" lon="6.05977">
        <ele>449</ele>
        <time>2015-05-10T11:15:57.790Z</time>
      </trkpt>
      <trkpt lat="47.22588" lon="6.05963">
        <ele>452</ele>
        <time>2015-05-10T11:16:07.790Z</time>
      </trkpt>
      <trkpt lat="47.22587" lon="6.05945">
        <ele>454.99010214686</ele>
        <time>2015-05-10T11:16:15.790Z</time>
      </trkpt>
      <trkpt lat="47.22587" lon="6.0593">
        <ele>457</ele>
        <time>2015-05-10T11:16:21.790Z</time>
      </trkpt>
      <trkpt lat="47.22591" lon="6.05916">
        <ele>459</ele>
        <time>2015-05-10T11:16:28.800Z</time>
      </trkpt>
      <trkpt lat="47.22598" lon="6.05901">
        <ele>461</ele>
        <time>2015-05-10T11:16:36.790Z</time>
      </trkpt>
      <trkpt lat="47.22597" lon="6.05884">
        <ele>462</ele>
        <time>2015-05-10T11:16:45.790Z</time>
      </trkpt>
      <trkpt lat="47.22591" lon="6.05869">
        <ele>462</ele>
        <time>2015-05-10T11:16:52.800Z</time>
      </trkpt>
      <trkpt lat="47.22586" lon="6.05853">
        <ele>463</ele>
        <time>2015-05-10T11:17:00.790Z</time>
      </trkpt>
      <trkpt lat="47.22579" lon="6.05843">
        <ele>463</ele>
        <time>2015-05-10T11:17:07.800Z</time>
      </trkpt>
      <trkpt lat="47.2257" lon="6.05831">
        <ele>460.00989785314</ele>
        <time>2015-05-10T11:17:12.790Z</time>
      </trkpt>
      <trkpt lat="47.22564" lon="6.05812">
        <ele>461</ele>
        <time>2015-05-10T11:17:18.790Z</time>
      </trkpt>
      <trkpt lat="47.22558" lon="6.05794">
        <ele>462</ele>
        <time>2015-05-10T11:17:23.800Z</time>
      </trkpt>
      <trkpt lat="47.22553" lon="6.05772">
        <ele>462.99010214686</ele>
        <time>2015-05-10T11:17:28.790Z</time>
      </trkpt>
      <trkpt lat="47.22549" lon="6.05757">
        <ele>463</ele>
        <time>2015-05-10T11:17:32.800Z</time>
      </trkpt>
      <trkpt lat="47.22544" lon="6.05743">
        <ele>463</ele>
        <time>2015-05-10T11:17:37.790Z</time>
      </trkpt>
      <trkpt lat="47.22539" lon="6.05725">
        <ele>464</ele>
        <time>2015-05-10T11:17:43.790Z</time>
      </trkpt>
      <trkpt lat="47.22537" lon="6.05708">
        <ele>464</ele>
        <time>2015-05-10T11:17:46.790Z</time>
      </trkpt>
      <trkpt lat="47.22533" lon="6.05692">
        <ele>465</ele>
        <time>2015-05-10T11:17:49.790Z</time>
      </trkpt>
      <trkpt lat="47.22523" lon="6.05679">
        <ele>464</ele>
        <time>2015-05-10T11:17:52.790Z</time>
      </trkpt>
      <trkpt lat="47.22517" lon="6.05662">
        <ele>463</ele>
        <time>2015-05-10T11:17:56.800Z</time>
      </trkpt>
      <trkpt lat="47.2251" lon="6.05644">
        <ele>463</ele>
        <time>2015-05-10T11:18:01.790Z</time>
      </trkpt>
      <trkpt lat="47.22505" lon="6.05631">
        <ele>463</ele>
        <time>2015-05-10T11:18:05.800Z</time>
      </trkpt>
      <trkpt lat="47.22498" lon="6.05617">
        <ele>463</ele>
        <time>2015-05-10T11:18:10.790Z</time>
      </trkpt>
      <trkpt lat="47.22489" lon="6.05597">
        <ele>463</ele>
        <time>2015-05-10T11:18:16.790Z</time>
      </trkpt>
      <trkpt lat="47.22483" lon="6.05584">
        <ele>463</ele>
        <time>2015-05-10T11:18:19.790Z</time>
      </trkpt>
      <trkpt lat="47.22477" lon="6.05569">
        <ele>463</ele>
        <time>2015-05-10T11:18:23.790Z</time>
      </trkpt>
      <trkpt lat="47.22472" lon="6.05552">
        <ele>463</ele>
        <time>2015-05-10T11:18:27.790Z</time>
      </trkpt>
      <trkpt lat="47.22469" lon="6.05534">
        <ele>463</ele>
        <time>2015-05-10T11:18:31.790Z</time>
      </trkpt>
      <trkpt lat="47.22464" lon="6.05519">
        <ele>463</ele>
        <time>2015-05-10T11:18:37.080Z</time>
      </trkpt>
      <trkpt lat="47.22455" lon="6.05508">
        <ele>462.9000064</ele>
        <time>2015-05-10T11:18:41.890Z</time>
      </trkpt>
      <trkpt lat="47.22446" lon="6.05496">
        <ele>462</ele>
        <time>2015-05-10T11:18:45.890Z</time>
      </trkpt>
      <trkpt lat="47.22438" lon="6.05487">
        <ele>461</ele>
        <time>2015-05-10T11:18:49.890Z</time>
      </trkpt>
      <trkpt lat="47.22429" lon="6.0548">
        <ele>461</ele>
        <time>2015-05-10T11:18:54.890Z</time>
      </trkpt>
      <trkpt lat="47.22423" lon="6.05467">
        <ele>461</ele>
        <time>2015-05-10T11:18:59.890Z</time>
      </trkpt>
      <trkpt lat="47.22416" lon="6.05455">
        <ele>460</ele>
        <time>2015-05-10T11:19:04.890Z</time>
      </trkpt>
      <trkpt lat="47.22409" lon="6.05443">
        <ele>460</ele>
        <time>2015-05-10T11:19:08.890Z</time>
      </trkpt>
      <trkpt lat="47.22402" lon="6.05431">
        <ele>459</ele>
        <time>2015-05-10T11:19:12.890Z</time>
      </trkpt>
      <trkpt lat="47.22397" lon="6.05418">
        <ele>459</ele>
        <time>2015-05-10T11:19:15.890Z</time>
      </trkpt>
      <trkpt lat="47.22392" lon="6.05405">
        <ele>459</ele>
        <time>2015-05-10T11:19:18.890Z</time>
      </trkpt>
      <trkpt lat="47.22385" lon="6.05388">
        <ele>458</ele>
        <time>2015-05-10T11:19:22.890Z</time>
      </trkpt>
      <trkpt lat="47.2238" lon="6.05373">
        <ele>458</ele>
        <time>2015-05-10T11:19:26.790Z</time>
      </trkpt>
      <trkpt lat="47.22374" lon="6.0536">
        <ele>457</ele>
        <time>2015-05-10T11:19:30.790Z</time>
      </trkpt>
      <trkpt lat="47.22367" lon="6.05349">
        <ele>457</ele>
        <time>2015-05-10T11:19:34.790Z</time>
      </trkpt>
      <trkpt lat="47.22359" lon="6.05338">
        <ele>456</ele>
        <time>2015-05-10T11:19:38.790Z</time>
      </trkpt>
      <trkpt lat="47.22346" lon="6.05329">
        <ele>452.0199936</ele>
        <time>2015-05-10T11:19:42.790Z</time>
      </trkpt>
      <trkpt lat="47.22337" lon="6.05322">
        <ele>449.0099968</ele>
        <time>2015-05-10T11:19:45.790Z</time>
      </trkpt>
      <trkpt lat="47.22327" lon="6.05313">
        <ele>449</ele>
        <time>2015-05-10T11:19:49.790Z</time>
      </trkpt>
      <trkpt lat="47.22317" lon="6.05304">
        <ele>448</ele>
        <time>2015-05-10T11:19:52.790Z</time>
      </trkpt>
      <trkpt lat="47.2231" lon="6.05285">
        <ele>448</ele>
        <time>2015-05-10T11:19:57.790Z</time>
      </trkpt>
      <trkpt lat="47.22305" lon="6.05268">
        <ele>447.01009774514</ele>
        <time>2015-05-10T11:20:01.810Z</time>
      </trkpt>
      <trkpt lat="47.22301" lon="6.05253">
        <ele>448</ele>
        <time>2015-05-10T11:20:05.790Z</time>
      </trkpt>
      <trkpt lat="47.22297" lon="6.05236">
        <ele>447</ele>
        <time>2015-05-10T11:20:09.790Z</time>
      </trkpt>
      <trkpt lat="47.22291" lon="6.0522">
        <ele>446.98990225486</ele>
        <time>2015-05-10T11:20:13.810Z</time>
      </trkpt>
      <trkpt lat="47.22285" lon="6.05203">
        <ele>446</ele>
        <time>2015-05-10T11:20:17.790Z</time>
      </trkpt>
      <trkpt lat="47.22282" lon="6.05184">
        <ele>446.99010214686</ele>
        <time>2015-05-10T11:20:21.790Z</time>
      </trkpt>
      <trkpt lat="47.22277" lon="6.05167">
        <ele>446.98990225486</ele>
        <time>2015-05-10T11:20:25.810Z</time>
      </trkpt>
      <trkpt lat="47.22275" lon="6.05153">
        <ele>446</ele>
        <time>2015-05-10T11:20:28.800Z</time>
      </trkpt>
      <trkpt lat="47.22273" lon="6.05138">
        <ele>444.98990225486</ele>
        <time>2015-05-10T11:20:31.810Z</time>
      </trkpt>
      <trkpt lat="47.22271" lon="6.05122">
        <ele>444</ele>
        <time>2015-05-10T11:20:34.800Z</time>
      </trkpt>
      <trkpt lat="47.2227" lon="6.05107">
        <ele>443</ele>
        <time>2015-05-10T11:20:37.800Z</time>
      </trkpt>
      <trkpt lat="47.22267" lon="6.05092">
        <ele>442</ele>
        <time>2015-05-10T11:20:40.800Z</time>
      </trkpt>
      <trkpt lat="47.22261" lon="6.05077">
        <ele>441</ele>
        <time>2015-05-10T11:20:43.800Z</time>
      </trkpt>
      <trkpt lat="47.22257" lon="6.05063">
        <ele>440</ele>
        <time>2015-05-10T11:20:46.800Z</time>
      </trkpt>
      <trkpt lat="47.22253" lon="6.05048">
        <ele>439</ele>
        <time>2015-05-10T11:20:49.800Z</time>
      </trkpt>
      <trkpt lat="47.2225" lon="6.05027">
        <ele>437</ele>
        <time>2015-05-10T11:20:54.790Z</time>
      </trkpt>
      <trkpt lat="47.22247" lon="6.05012">
        <ele>437</ele>
        <time>2015-05-10T11:20:58.830Z</time>
      </trkpt>
      <trkpt lat="47.22241" lon="6.04995">
        <ele>438</ele>
        <time>2015-05-10T11:21:03.790Z</time>
      </trkpt>
      <trkpt lat="47.22235" lon="6.0498">
        <ele>437</ele>
        <time>2015-05-10T11:21:07.800Z</time>
      </trkpt>
      <trkpt lat="47.22228" lon="6.04962">
        <ele>438</ele>
        <time>2015-05-10T11:21:12.790Z</time>
      </trkpt>
      <trkpt lat="47.22224" lon="6.04947">
        <ele>438</ele>
        <time>2015-05-10T11:21:16.800Z</time>
      </trkpt>
      <trkpt lat="47.22218" lon="6.04928">
        <ele>438</ele>
        <time>2015-05-10T11:21:21.790Z</time>
      </trkpt>
      <trkpt lat="47.22214" lon="6.04912">
        <ele>439</ele>
        <time>2015-05-10T11:21:25.800Z</time>
      </trkpt>
      <trkpt lat="47.22209" lon="6.04895">
        <ele>438</ele>
        <time>2015-05-10T11:21:29.790Z</time>
      </trkpt>
      <trkpt lat="47.22203" lon="6.04878">
        <ele>438</ele>
        <time>2015-05-10T11:21:33.790Z</time>
      </trkpt>
      <trkpt lat="47.22199" lon="6.04865">
        <ele>438</ele>
        <time>2015-05-10T11:21:36.790Z</time>
      </trkpt>
      <trkpt lat="47.22195" lon="6.04851">
        <ele>438</ele>
        <time>2015-05-10T11:21:39.790Z</time>
      </trkpt>
      <trkpt lat="47.2219" lon="6.04836">
        <ele>438</ele>
        <time>2015-05-10T11:21:42.790Z</time>
      </trkpt>
      <trkpt lat="47.22183" lon="6.0482">
        <ele>438</ele>
        <time>2015-05-10T11:21:46.790Z</time>
      </trkpt>
      <trkpt lat="47.22176" lon="6.04808">
        <ele>437</ele>
        <time>2015-05-10T11:21:50.790Z</time>
      </trkpt>
      <trkpt lat="47.22166" lon="6.04798">
        <ele>437</ele>
        <time>2015-05-10T11:21:54.790Z</time>
      </trkpt>
      <trkpt lat="47.22156" lon="6.04789">
        <ele>435</ele>
        <time>2015-05-10T11:21:57.790Z</time>
      </trkpt>
      <trkpt lat="47.22148" lon="6.0478">
        <ele>434</ele>
        <time>2015-05-10T11:22:00.790Z</time>
      </trkpt>
      <trkpt lat="47.22139" lon="6.04771">
        <ele>433</ele>
        <time>2015-05-10T11:22:03.790Z</time>
      </trkpt>
      <trkpt lat="47.2213" lon="6.04761">
        <ele>431.0099968</ele>
        <time>2015-05-10T11:22:06.790Z</time>
      </trkpt>
      <trkpt lat="47.22119" lon="6.04749">
        <ele>428</ele>
        <time>2015-05-10T11:22:09.790Z</time>
      </trkpt>
      <trkpt lat="47.2211" lon="6.04734">
        <ele>426</ele>
        <time>2015-05-10T11:22:12.790Z</time>
      </trkpt>
      <trkpt lat="47.22101" lon="6.04718">
        <ele>425</ele>
        <time>2015-05-10T11:22:15.790Z</time>
      </trkpt>
      <trkpt lat="47.22093" lon="6.04705">
        <ele>424</ele>
        <time>2015-05-10T11:22:18.790Z</time>
      </trkpt>
      <trkpt lat="47.22088" lon="6.04689">
        <ele>423.0099968</ele>
        <time>2015-05-10T11:22:21.790Z</time>
      </trkpt>
      <trkpt lat="47.22086" lon="6.04673">
        <ele>421.0099968</ele>
        <time>2015-05-10T11:22:24.790Z</time>
      </trkpt>
      <trkpt lat="47.2208" lon="6.04658">
        <ele>420</ele>
        <time>2015-05-10T11:22:27.790Z</time>
      </trkpt>
      <trkpt lat="47.22076" lon="6.04648">
        <ele>419</ele>
        <time>2015-05-10T11:22:29.790Z</time>
      </trkpt>
      <trkpt lat="47.2207" lon="6.04634">
        <ele>418</ele>
        <time>2015-05-10T11:22:32.790Z</time>
      </trkpt>
      <trkpt lat="47.22064" lon="6.04621">
        <ele>416</ele>
        <time>2015-05-10T11:22:35.790Z</time>
      </trkpt>
      <trkpt lat="47.22058" lon="6.04608">
        <ele>415.8</ele>
        <time>2015-05-10T11:22:38.990Z</time>
      </trkpt>
      <trkpt lat="47.22052" lon="6.04595">
        <ele>414</ele>
        <time>2015-05-10T11:22:41.790Z</time>
      </trkpt>
      <trkpt lat="47.22048" lon="6.04581">
        <ele>413</ele>
        <time>2015-05-10T11:22:44.790Z</time>
      </trkpt>
      <trkpt lat="47.22042" lon="6.04568">
        <ele>412</ele>
        <time>2015-05-10T11:22:47.790Z</time>
      </trkpt>
      <trkpt lat="47.22037" lon="6.04555">
        <ele>411</ele>
        <time>2015-05-10T11:22:50.790Z</time>
      </trkpt>
      <trkpt lat="47.22031" lon="6.04541">
        <ele>410.01979570628</ele>
        <time>2015-05-10T11:22:53.790Z</time>
      </trkpt>
      <trkpt lat="47.22026" lon="6.04528">
        <ele>409</ele>
        <time>2015-05-10T11:22:56.790Z</time>
      </trkpt>
      <trkpt lat="47.22021" lon="6.04517">
        <ele>408.01979570628</ele>
        <time>2015-05-10T11:22:59.790Z</time>
      </trkpt>
      <trkpt lat="47.22017" lon="6.04505">
        <ele>408</ele>
        <time>2015-05-10T11:23:02.790Z</time>
      </trkpt>
      <trkpt lat="47.22012" lon="6.04484">
        <ele>406.00989785314</ele>
        <time>2015-05-10T11:23:07.790Z</time>
      </trkpt>
      <trkpt lat="47.22006" lon="6.04469">
        <ele>406</ele>
        <time>2015-05-10T11:23:11.800Z</time>
      </trkpt>
      <trkpt lat="47.21998" lon="6.04448">
        <ele>406</ele>
        <time>2015-05-10T11:23:16.790Z</time>
      </trkpt>
      <trkpt lat="47.21992" lon="6.04435">
        <ele>406</ele>
        <time>2015-05-10T11:23:19.890Z</time>
      </trkpt>
      <trkpt lat="47.21986" lon="6.0442">
        <ele>406</ele>
        <time>2015-05-10T11:23:23.890Z</time>
      </trkpt>
      <trkpt lat="47.21981" lon="6.04404">
        <ele>406</ele>
        <time>2015-05-10T11:23:28.890Z</time>
      </trkpt>
      <trkpt lat="47.21976" lon="6.04389">
        <ele>406</ele>
        <time>2015-05-10T11:23:33.890Z</time>
      </trkpt>
      <trkpt lat="47.21972" lon="6.04374">
        <ele>405</ele>
        <time>2015-05-10T11:23:38.890Z</time>
      </trkpt>
      <trkpt lat="47.21969" lon="6.04353">
        <ele>405</ele>
        <time>2015-05-10T11:23:44.790Z</time>
      </trkpt>
      <trkpt lat="47.21967" lon="6.04336">
        <ele>405</ele>
        <time>2015-05-10T11:23:49.790Z</time>
      </trkpt>
      <trkpt lat="47.21965" lon="6.04322">
        <ele>405</ele>
        <time>2015-05-10T11:23:54.790Z</time>
      </trkpt>
      <trkpt lat="47.2196" lon="6.04307">
        <ele>406</ele>
        <time>2015-05-10T11:24:00.790Z</time>
      </trkpt>
      <trkpt lat="47.21954" lon="6.04291">
        <ele>407</ele>
        <time>2015-05-10T11:24:06.790Z</time>
      </trkpt>
      <trkpt lat="47.21949" lon="6.04275">
        <ele>407</ele>
        <time>2015-05-10T11:24:11.790Z</time>
      </trkpt>
      <trkpt lat="47.21941" lon="6.04264">
        <ele>406.8</ele>
        <time>2015-05-10T11:24:15.990Z</time>
      </trkpt>
      <trkpt lat="47.21933" lon="6.04254">
        <ele>406</ele>
        <time>2015-05-10T11:24:19.990Z</time>
      </trkpt>
      <trkpt lat="47.21923" lon="6.04238">
        <ele>407</ele>
        <time>2015-05-10T11:24:25.790Z</time>
      </trkpt>
      <trkpt lat="47.21917" lon="6.04226">
        <ele>408</ele>
        <time>2015-05-10T11:24:29.790Z</time>
      </trkpt>
      <trkpt lat="47.21909" lon="6.04209">
        <ele>408</ele>
        <time>2015-05-10T11:24:34.790Z</time>
      </trkpt>
      <trkpt lat="47.21903" lon="6.04193">
        <ele>409</ele>
        <time>2015-05-10T11:24:38.790Z</time>
      </trkpt>
      <trkpt lat="47.21898" lon="6.04178">
        <ele>409</ele>
        <time>2015-05-10T11:24:41.790Z</time>
      </trkpt>
      <trkpt lat="47.21893" lon="6.04165">
        <ele>410</ele>
        <time>2015-05-10T11:24:44.790Z</time>
      </trkpt>
      <trkpt lat="47.21889" lon="6.04153">
        <ele>410</ele>
        <time>2015-05-10T11:24:47.790Z</time>
      </trkpt>
      <trkpt lat="47.21884" lon="6.04135">
        <ele>410</ele>
        <time>2015-05-10T11:24:51.790Z</time>
      </trkpt>
      <trkpt lat="47.2188" lon="6.04121">
        <ele>410</ele>
        <time>2015-05-10T11:24:54.790Z</time>
      </trkpt>
      <trkpt lat="47.21877" lon="6.04107">
        <ele>410</ele>
        <time>2015-05-10T11:24:57.790Z</time>
      </trkpt>
      <trkpt lat="47.21873" lon="6.0409">
        <ele>410</ele>
        <time>2015-05-10T11:25:01.790Z</time>
      </trkpt>
      <trkpt lat="47.21866" lon="6.04075">
        <ele>410</ele>
        <time>2015-05-10T11:25:05.790Z</time>
      </trkpt>
      <trkpt lat="47.21859" lon="6.04063">
        <ele>410</ele>
        <time>2015-05-10T11:25:09.790Z</time>
      </trkpt>
      <trkpt lat="47.21846" lon="6.04057">
        <ele>410</ele>
        <time>2015-05-10T11:25:15.790Z</time>
      </trkpt>
      <trkpt lat="47.21836" lon="6.04058">
        <ele>409</ele>
        <time>2015-05-10T11:25:22.790Z</time>
      </trkpt>
      <trkpt lat="47.21824" lon="6.04058">
        <ele>410</ele>
        <time>2015-05-10T11:25:27.790Z</time>
      </trkpt>
      <trkpt lat="47.21812" lon="6.0406">
        <ele>410</ele>
        <time>2015-05-10T11:25:32.790Z</time>
      </trkpt>
      <trkpt lat="47.21802" lon="6.0406">
        <ele>410</ele>
        <time>2015-05-10T11:25:36.790Z</time>
      </trkpt>
      <trkpt lat="47.21792" lon="6.04062">
        <ele>410</ele>
        <time>2015-05-10T11:25:41.790Z</time>
      </trkpt>
      <trkpt lat="47.21782" lon="6.04064">
        <ele>411</ele>
        <time>2015-05-10T11:25:46.790Z</time>
      </trkpt>
      <trkpt lat="47.21772" lon="6.04061">
        <ele>414</ele>
        <time>2015-05-10T11:26:04.890Z</time>
      </trkpt>
      <trkpt lat="47.21763" lon="6.0405">
        <ele>414</ele>
        <time>2015-05-10T11:26:11.890Z</time>
      </trkpt>
      <trkpt lat="47.21759" lon="6.04035">
        <ele>414.0999936</ele>
        <time>2015-05-10T11:26:16.890Z</time>
      </trkpt>
      <trkpt lat="47.21759" lon="6.0402">
        <ele>415</ele>
        <time>2015-05-10T11:26:21.890Z</time>
      </trkpt>
      <trkpt lat="47.2176" lon="6.04003">
        <ele>415.0999936</ele>
        <time>2015-05-10T11:26:27.890Z</time>
      </trkpt>
      <trkpt lat="47.21755" lon="6.03987">
        <ele>416</ele>
        <time>2015-05-10T11:26:32.890Z</time>
      </trkpt>
      <trkpt lat="47.2175" lon="6.03972">
        <ele>415</ele>
        <time>2015-05-10T11:26:36.890Z</time>
      </trkpt>
      <trkpt lat="47.21749" lon="6.03957">
        <ele>415</ele>
        <time>2015-05-10T11:26:41.890Z</time>
      </trkpt>
      <trkpt lat="47.21746" lon="6.03943">
        <ele>416</ele>
        <time>2015-05-10T11:26:45.890Z</time>
      </trkpt>
      <trkpt lat="47.21743" lon="6.03927">
        <ele>416</ele>
        <time>2015-05-10T11:26:49.890Z</time>
      </trkpt>
      <trkpt lat="47.2174" lon="6.03911">
        <ele>416.0999936</ele>
        <time>2015-05-10T11:26:53.890Z</time>
      </trkpt>
      <trkpt lat="47.21737" lon="6.03897">
        <ele>417</ele>
        <time>2015-05-10T11:26:56.890Z</time>
      </trkpt>
      <trkpt lat="47.21733" lon="6.03883">
        <ele>416</ele>
        <time>2015-05-10T11:26:59.890Z</time>
      </trkpt>
      <trkpt lat="47.21729" lon="6.03869">
        <ele>416</ele>
        <time>2015-05-10T11:27:02.890Z</time>
      </trkpt>
      <trkpt lat="47.21725" lon="6.03855">
        <ele>416</ele>
        <time>2015-05-10T11:27:06.890Z</time>
      </trkpt>
      <trkpt lat="47.21722" lon="6.03838">
        <ele>417</ele>
        <time>2015-05-10T11:27:12.890Z</time>
      </trkpt>
      <trkpt lat="47.21719" lon="6.03823">
        <ele>417</ele>
        <time>2015-05-10T11:27:16.890Z</time>
      </trkpt>
      <trkpt lat="47.21716" lon="6.03809">
        <ele>417</ele>
        <time>2015-05-10T11:27:20.890Z</time>
      </trkpt>
      <trkpt lat="47.21717" lon="6.03794">
        <ele>417</ele>
        <time>2015-05-10T11:27:24.890Z</time>
      </trkpt>
      <trkpt lat="47.21722" lon="6.03779">
        <ele>416.9000064</ele>
        <time>2015-05-10T11:27:29.890Z</time>
      </trkpt>
      <trkpt lat="47.21729" lon="6.03767">
        <ele>416</ele>
        <time>2015-05-10T11:27:33.890Z</time>
      </trkpt>
      <trkpt lat="47.2174" lon="6.03756">
        <ele>416</ele>
        <time>2015-05-10T11:27:37.900Z</time>
      </trkpt>
      <trkpt lat="47.21749" lon="6.03746">
        <ele>415</ele>
        <time>2015-05-10T11:27:40.900Z</time>
      </trkpt>
      <trkpt lat="47.21759" lon="6.03733">
        <ele>415</ele>
        <time>2015-05-10T11:27:44.890Z</time>
      </trkpt>
      <trkpt lat="47.21764" lon="6.0372">
        <ele>416</ele>
        <time>2015-05-10T11:27:47.890Z</time>
      </trkpt>
      <trkpt lat="47.21772" lon="6.0371">
        <ele>417.0999936</ele>
        <time>2015-05-10T11:27:50.890Z</time>
      </trkpt>
      <trkpt lat="47.21781" lon="6.03698">
        <ele>418</ele>
        <time>2015-05-10T11:27:54.890Z</time>
      </trkpt>
      <trkpt lat="47.21787" lon="6.03685">
        <ele>417.9000064</ele>
        <time>2015-05-10T11:27:58.890Z</time>
      </trkpt>
      <trkpt lat="47.21795" lon="6.03675">
        <ele>416</ele>
        <time>2015-05-10T11:28:01.890Z</time>
      </trkpt>
      <trkpt lat="47.21802" lon="6.03665">
        <ele>416</ele>
        <time>2015-05-10T11:28:04.890Z</time>
      </trkpt>
      <trkpt lat="47.21811" lon="6.03655">
        <ele>414</ele>
        <time>2015-05-10T11:28:07.800Z</time>
      </trkpt>
      <trkpt lat="47.21826" lon="6.03648">
        <ele>413</ele>
        <time>2015-05-10T11:28:11.790Z</time>
      </trkpt>
      <trkpt lat="47.21836" lon="6.03644">
        <ele>412</ele>
        <time>2015-05-10T11:28:14.790Z</time>
      </trkpt>
      <trkpt lat="47.21848" lon="6.03643">
        <ele>412</ele>
        <time>2015-05-10T11:28:18.800Z</time>
      </trkpt>
      <trkpt lat="47.21862" lon="6.03647">
        <ele>412</ele>
        <time>2015-05-10T11:28:23.790Z</time>
      </trkpt>
      <trkpt lat="47.21874" lon="6.03651">
        <ele>411</ele>
        <time>2015-05-10T11:28:29.790Z</time>
      </trkpt>
      <trkpt lat="47.21888" lon="6.03647">
        <ele>410</ele>
        <time>2015-05-10T11:28:35.790Z</time>
      </trkpt>
      <trkpt lat="47.21899" lon="6.03643">
        <ele>409</ele>
        <time>2015-05-10T11:28:38.790Z</time>
      </trkpt>
      <trkpt lat="47.21912" lon="6.03638">
        <ele>408</ele>
        <time>2015-05-10T11:28:42.800Z</time>
      </trkpt>
      <trkpt lat="47.21922" lon="6.03636">
        <ele>407.99038769231</ele>
        <time>2015-05-10T11:28:45.800Z</time>
      </trkpt>
      <trkpt lat="47.21935" lon="6.03639">
        <ele>407</ele>
        <time>2015-05-10T11:28:50.790Z</time>
      </trkpt>
      <trkpt lat="47.21947" lon="6.03645">
        <ele>406</ele>
        <time>2015-05-10T11:28:56.790Z</time>
      </trkpt>
      <trkpt lat="47.21958" lon="6.03651">
        <ele>404</ele>
        <time>2015-05-10T11:29:00.790Z</time>
      </trkpt>
      <trkpt lat="47.21969" lon="6.03656">
        <ele>402.0099968</ele>
        <time>2015-05-10T11:29:04.790Z</time>
      </trkpt>
      <trkpt lat="47.21981" lon="6.03656">
        <ele>401</ele>
        <time>2015-05-10T11:29:08.790Z</time>
      </trkpt>
      <trkpt lat="47.2199" lon="6.0365">
        <ele>400.22047188543</ele>
        <time>2015-05-10T11:29:11.790Z</time>
      </trkpt>
      <trkpt lat="47.21999" lon="6.03639">
        <ele>400</ele>
        <time>2015-05-10T11:29:15.790Z</time>
      </trkpt>
      <trkpt lat="47.22013" lon="6.03628">
        <ele>400</ele>
        <time>2015-05-10T11:29:20.790Z</time>
      </trkpt>
      <trkpt lat="47.22023" lon="6.03622">
        <ele>399</ele>
        <time>2015-05-10T11:29:23.990Z</time>
      </trkpt>
      <trkpt lat="47.22034" lon="6.03615">
        <ele>398</ele>
        <time>2015-05-10T11:29:26.990Z</time>
      </trkpt>
      <trkpt lat="47.22045" lon="6.03609">
        <ele>397</ele>
        <time>2015-05-10T11:29:29.790Z</time>
      </trkpt>
      <trkpt lat="47.22055" lon="6.03602">
        <ele>395.0099968</ele>
        <time>2015-05-10T11:29:32.790Z</time>
      </trkpt>
      <trkpt lat="47.22064" lon="6.03595">
        <ele>394</ele>
        <time>2015-05-10T11:29:35.790Z</time>
      </trkpt>
      <trkpt lat="47.22072" lon="6.03586">
        <ele>392</ele>
        <time>2015-05-10T11:29:38.790Z</time>
      </trkpt>
      <trkpt lat="47.22082" lon="6.03573">
        <ele>390</ele>
        <time>2015-05-10T11:29:42.790Z</time>
      </trkpt>
      <trkpt lat="47.2209" lon="6.03563">
        <ele>389.0099968</ele>
        <time>2015-05-10T11:29:45.790Z</time>
      </trkpt>
      <trkpt lat="47.22097" lon="6.03553">
        <ele>388.0099968</ele>
        <time>2015-05-10T11:29:48.790Z</time>
      </trkpt>
      <trkpt lat="47.22104" lon="6.03542">
        <ele>388</ele>
        <time>2015-05-10T11:29:51.790Z</time>
      </trkpt>
      <trkpt lat="47.22111" lon="6.03531">
        <ele>387</ele>
        <time>2015-05-10T11:29:54.790Z</time>
      </trkpt>
      <trkpt lat="47.22119" lon="6.0352">
        <ele>386</ele>
        <time>2015-05-10T11:29:57.790Z</time>
      </trkpt>
      <trkpt lat="47.22127" lon="6.0351">
        <ele>385</ele>
        <time>2015-05-10T11:30:00.790Z</time>
      </trkpt>
      <trkpt lat="47.22135" lon="6.03499">
        <ele>384</ele>
        <time>2015-05-10T11:30:03.790Z</time>
      </trkpt>
      <trkpt lat="47.22142" lon="6.03487">
        <ele>384</ele>
        <time>2015-05-10T11:30:06.790Z</time>
      </trkpt>
      <trkpt lat="47.22151" lon="6.03472">
        <ele>383.99010214686</ele>
        <time>2015-05-10T11:30:10.790Z</time>
      </trkpt>
      <trkpt lat="47.22159" lon="6.03459">
        <ele>384</ele>
        <time>2015-05-10T11:30:13.790Z</time>
      </trkpt>
      <trkpt lat="47.22168" lon="6.0345">
        <ele>383</ele>
        <time>2015-05-10T11:30:16.890Z</time>
      </trkpt>
      <trkpt lat="47.2218" lon="6.03443">
        <ele>383</ele>
        <time>2015-05-10T11:30:20.890Z</time>
      </trkpt>
      <trkpt lat="47.22193" lon="6.03441">
        <ele>383.9000064</ele>
        <time>2015-05-10T11:30:24.890Z</time>
      </trkpt>
      <trkpt lat="47.22206" lon="6.03442">
        <ele>384</ele>
        <time>2015-05-10T11:30:28.890Z</time>
      </trkpt>
      <trkpt lat="47.22216" lon="6.03446">
        <ele>383.9000064</ele>
        <time>2015-05-10T11:30:31.890Z</time>
      </trkpt>
      <trkpt lat="47.22226" lon="6.03451">
        <ele>383</ele>
        <time>2015-05-10T11:30:34.890Z</time>
      </trkpt>
      <trkpt lat="47.22237" lon="6.0346">
        <ele>383</ele>
        <time>2015-05-10T11:30:38.890Z</time>
      </trkpt>
      <trkpt lat="47.22247" lon="6.0347">
        <ele>382</ele>
        <time>2015-05-10T11:30:42.890Z</time>
      </trkpt>
      <trkpt lat="47.22256" lon="6.03483">
        <ele>381</ele>
        <time>2015-05-10T11:30:46.890Z</time>
      </trkpt>
      <trkpt lat="47.22262" lon="6.03496">
        <ele>380</ele>
        <time>2015-05-10T11:30:49.890Z</time>
      </trkpt>
      <trkpt lat="47.22268" lon="6.03509">
        <ele>379</ele>
        <time>2015-05-10T11:30:52.890Z</time>
      </trkpt>
      <trkpt lat="47.22275" lon="6.0352">
        <ele>379</ele>
        <time>2015-05-10T11:30:55.890Z</time>
      </trkpt>
      <trkpt lat="47.22284" lon="6.03531">
        <ele>379</ele>
        <time>2015-05-10T11:30:59.890Z</time>
      </trkpt>
      <trkpt lat="47.22295" lon="6.03538">
        <ele>378</ele>
        <time>2015-05-10T11:31:04.890Z</time>
      </trkpt>
      <trkpt lat="47.22308" lon="6.03537">
        <ele>377</ele>
        <time>2015-05-10T11:31:09.890Z</time>
      </trkpt>
      <trkpt lat="47.22317" lon="6.03529">
        <ele>377</ele>
        <time>2015-05-10T11:31:13.890Z</time>
      </trkpt>
      <trkpt lat="47.22327" lon="6.03518">
        <ele>377</ele>
        <time>2015-05-10T11:31:18.890Z</time>
      </trkpt>
      <trkpt lat="47.22336" lon="6.0351">
        <ele>377</ele>
        <time>2015-05-10T11:31:22.890Z</time>
      </trkpt>
      <trkpt lat="47.22346" lon="6.03502">
        <ele>378</ele>
        <time>2015-05-10T11:31:27.890Z</time>
      </trkpt>
      <trkpt lat="47.22357" lon="6.03501">
        <ele>378</ele>
        <time>2015-05-10T11:31:33.900Z</time>
      </trkpt>
      <trkpt lat="47.22366" lon="6.03508">
        <ele>378</ele>
        <time>2015-05-10T11:31:39.900Z</time>
      </trkpt>
      <trkpt lat="47.22375" lon="6.0352">
        <ele>377</ele>
        <time>2015-05-10T11:31:45.900Z</time>
      </trkpt>
      <trkpt lat="47.22384" lon="6.03532">
        <ele>376</ele>
        <time>2015-05-10T11:31:49.890Z</time>
      </trkpt>
      <trkpt lat="47.2239" lon="6.03544">
        <ele>375</ele>
        <time>2015-05-10T11:31:52.890Z</time>
      </trkpt>
      <trkpt lat="47.22398" lon="6.03559">
        <ele>374</ele>
        <time>2015-05-10T11:31:56.890Z</time>
      </trkpt>
      <trkpt lat="47.22402" lon="6.03575">
        <ele>371.8900096</ele>
        <time>2015-05-10T11:32:00.900Z</time>
      </trkpt>
      <trkpt lat="47.22407" lon="6.03587">
        <ele>369.9000064</ele>
        <time>2015-05-10T11:32:04.890Z</time>
      </trkpt>
      <trkpt lat="47.22416" lon="6.03598">
        <ele>368</ele>
        <time>2015-05-10T11:32:09.890Z</time>
      </trkpt>
      <trkpt lat="47.22427" lon="6.03604">
        <ele>367.9000064</ele>
        <time>2015-05-10T11:32:14.890Z</time>
      </trkpt>
      <trkpt lat="47.22437" lon="6.03608">
        <ele>367</ele>
        <time>2015-05-10T11:32:17.890Z</time>
      </trkpt>
      <trkpt lat="47.22449" lon="6.03612">
        <ele>365.9000064</ele>
        <time>2015-05-10T11:32:20.890Z</time>
      </trkpt>
      <trkpt lat="47.22462" lon="6.0362">
        <ele>364.9000064</ele>
        <time>2015-05-10T11:32:23.890Z</time>
      </trkpt>
      <trkpt lat="47.22473" lon="6.03619">
        <ele>363</ele>
        <time>2015-05-10T11:32:26.890Z</time>
      </trkpt>
      <trkpt lat="47.22484" lon="6.03616">
        <ele>362.00989785314</ele>
        <time>2015-05-10T11:32:29.790Z</time>
      </trkpt>
      <trkpt lat="47.22493" lon="6.03612">
        <ele>361.01979570628</ele>
        <time>2015-05-10T11:32:32.790Z</time>
      </trkpt>
      <trkpt lat="47.225" lon="6.03602">
        <ele>357.00989785314</ele>
        <time>2015-05-10T11:32:37.790Z</time>
      </trkpt>
      <trkpt lat="47.22506" lon="6.03588">
        <ele>352</ele>
        <time>2015-05-10T11:32:43.790Z</time>
      </trkpt>
      <trkpt lat="47.22514" lon="6.03584">
        <ele>351.8</ele>
        <time>2015-05-10T11:32:48.990Z</time>
      </trkpt>
      <trkpt lat="47.22522" lon="6.03595">
        <ele>350</ele>
        <time>2015-05-10T11:32:53.800Z</time>
      </trkpt>
      <trkpt lat="47.22534" lon="6.03597">
        <ele>351</ele>
        <time>2015-05-10T11:33:01.790Z</time>
      </trkpt>
      <trkpt lat="47.22544" lon="6.03599">
        <ele>351.00989785314</ele>
        <time>2015-05-10T11:33:07.790Z</time>
      </trkpt>
      <trkpt lat="47.22553" lon="6.03605">
        <ele>351</ele>
        <time>2015-05-10T11:33:11.790Z</time>
      </trkpt>
      <trkpt lat="47.22559" lon="6.03612">
        <ele>351</ele>
        <time>2015-05-10T11:33:14.790Z</time>
      </trkpt>
      <trkpt lat="47.22566" lon="6.03619">
        <ele>351</ele>
        <time>2015-05-10T11:33:18.790Z</time>
      </trkpt>
      <trkpt lat="47.22571" lon="6.03627">
        <ele>353</ele>
        <time>2015-05-10T11:33:26.790Z</time>
      </trkpt>
      <trkpt lat="47.22575" lon="6.03635">
        <ele>353</ele>
        <time>2015-05-10T11:33:31.790Z</time>
      </trkpt>
      <trkpt lat="47.2258" lon="6.03642">
        <ele>353.2</ele>
        <time>2015-05-10T11:33:36.990Z</time>
      </trkpt>
      <trkpt lat="47.22586" lon="6.03649">
        <ele>355</ele>
        <time>2015-05-10T11:33:41.800Z</time>
      </trkpt>
      <trkpt lat="47.22591" lon="6.03662">
        <ele>356</ele>
        <time>2015-05-10T11:33:49.790Z</time>
      </trkpt>
      <trkpt lat="47.22596" lon="6.03672">
        <ele>356</ele>
        <time>2015-05-10T11:33:58.790Z</time>
      </trkpt>
      <trkpt lat="47.22601" lon="6.03681">
        <ele>356</ele>
        <time>2015-05-10T11:34:02.800Z</time>
      </trkpt>
      <trkpt lat="47.22609" lon="6.03695">
        <ele>357</ele>
        <time>2015-05-10T11:34:07.790Z</time>
      </trkpt>
      <trkpt lat="47.22615" lon="6.03704">
        <ele>357</ele>
        <time>2015-05-10T11:34:10.790Z</time>
      </trkpt>
      <trkpt lat="47.22621" lon="6.03713">
        <ele>358</ele>
        <time>2015-05-10T11:34:13.790Z</time>
      </trkpt>
      <trkpt lat="47.22625" lon="6.03721">
        <ele>358</ele>
        <time>2015-05-10T11:34:16.790Z</time>
      </trkpt>
      <trkpt lat="47.22633" lon="6.03733">
        <ele>359</ele>
        <time>2015-05-10T11:34:21.790Z</time>
      </trkpt>
      <trkpt lat="47.22639" lon="6.03741">
        <ele>360</ele>
        <time>2015-05-10T11:34:25.790Z</time>
      </trkpt>
      <trkpt lat="47.22646" lon="6.03749">
        <ele>360.2</ele>
        <time>2015-05-10T11:34:29.990Z</time>
      </trkpt>
      <trkpt lat="47.22657" lon="6.03749">
        <ele>360.01979570628</ele>
        <time>2015-05-10T11:34:38.790Z</time>
      </trkpt>
      <trkpt lat="47.22666" lon="6.03742">
        <ele>360</ele>
        <time>2015-05-10T11:34:44.790Z</time>
      </trkpt>
      <trkpt lat="47.22673" lon="6.0373">
        <ele>360</ele>
        <time>2015-05-10T11:34:50.890Z</time>
      </trkpt>
      <trkpt lat="47.22676" lon="6.03713">
        <ele>359</ele>
        <time>2015-05-10T11:34:55.890Z</time>
      </trkpt>
      <trkpt lat="47.22676" lon="6.03698">
        <ele>359</ele>
        <time>2015-05-10T11:34:59.890Z</time>
      </trkpt>
      <trkpt lat="47.22673" lon="6.0368">
        <ele>358</ele>
        <time>2015-05-10T11:35:04.890Z</time>
      </trkpt>
      <trkpt lat="47.22669" lon="6.03666">
        <ele>358</ele>
        <time>2015-05-10T11:35:08.800Z</time>
      </trkpt>
      <trkpt lat="47.22662" lon="6.03648">
        <ele>358</ele>
        <time>2015-05-10T11:35:13.800Z</time>
      </trkpt>
      <trkpt lat="47.22655" lon="6.03628">
        <ele>356.00989785314</ele>
        <time>2015-05-10T11:35:18.790Z</time>
      </trkpt>
      <trkpt lat="47.22646" lon="6.03621">
        <ele>356</ele>
        <time>2015-05-10T11:35:22.800Z</time>
      </trkpt>
      <trkpt lat="47.22636" lon="6.03612">
        <ele>355.00989785314</ele>
        <time>2015-05-10T11:35:27.790Z</time>
      </trkpt>
      <trkpt lat="47.22627" lon="6.036">
        <ele>354</ele>
        <time>2015-05-10T11:35:34.790Z</time>
      </trkpt>
      <trkpt lat="47.22633" lon="6.03587">
        <ele>347.0099968</ele>
        <time>2015-05-10T11:35:44.790Z</time>
      </trkpt>
      <trkpt lat="47.22644" lon="6.03588">
        <ele>345</ele>
        <time>2015-05-10T11:35:49.790Z</time>
      </trkpt>
      <trkpt lat="47.22653" lon="6.03597">
        <ele>342.0099968</ele>
        <time>2015-05-10T11:35:52.790Z</time>
      </trkpt>
      <trkpt lat="47.22662" lon="6.03607">
        <ele>340.0099968</ele>
        <time>2015-05-10T11:35:54.790Z</time>
      </trkpt>
      <trkpt lat="47.22671" lon="6.03615">
        <ele>338.0099968</ele>
        <time>2015-05-10T11:35:56.790Z</time>
      </trkpt>
      <trkpt lat="47.2268" lon="6.03622">
        <ele>337.0099968</ele>
        <time>2015-05-10T11:35:58.790Z</time>
      </trkpt>
      <trkpt lat="47.22692" lon="6.03631">
        <ele>337</ele>
        <time>2015-05-10T11:36:02.790Z</time>
      </trkpt>
      <trkpt lat="47.22702" lon="6.03623">
        <ele>336.83333333333</ele>
        <time>2015-05-10T11:36:06.990Z</time>
      </trkpt>
      <trkpt lat="47.22702" lon="6.03605">
        <ele>334</ele>
        <time>2015-05-10T11:36:12.790Z</time>
      </trkpt>
      <trkpt lat="47.22697" lon="6.03589">
        <ele>334</ele>
        <time>2015-05-10T11:36:18.790Z</time>
      </trkpt>
      <trkpt lat="47.22691" lon="6.03578">
        <ele>333</ele>
        <time>2015-05-10T11:36:23.990Z</time>
      </trkpt>
      <trkpt lat="47.22687" lon="6.03562">
        <ele>333</ele>
        <time>2015-05-10T11:36:28.790Z</time>
      </trkpt>
      <trkpt lat="47.22682" lon="6.03545">
        <ele>330.0099968</ele>
        <time>2015-05-10T11:36:32.790Z</time>
      </trkpt>
      <trkpt lat="47.2268" lon="6.03528">
        <ele>330</ele>
        <time>2015-05-10T11:36:36.790Z</time>
      </trkpt>
      <trkpt lat="47.22679" lon="6.03513">
        <ele>330</ele>
        <time>2015-05-10T11:36:40.790Z</time>
      </trkpt>
      <trkpt lat="47.22676" lon="6.03497">
        <ele>330</ele>
        <time>2015-05-10T11:36:44.790Z</time>
      </trkpt>
      <trkpt lat="47.22675" lon="6.03479">
        <ele>330</ele>
        <time>2015-05-10T11:36:49.790Z</time>
      </trkpt>
      <trkpt lat="47.22673" lon="6.03462">
        <ele>331</ele>
        <time>2015-05-10T11:36:54.790Z</time>
      </trkpt>
      <trkpt lat="47.22674" lon="6.03445">
        <ele>331</ele>
        <time>2015-05-10T11:36:59.790Z</time>
      </trkpt>
      <trkpt lat="47.22675" lon="6.03432">
        <ele>332</ele>
        <time>2015-05-10T11:37:04.790Z</time>
      </trkpt>
      <trkpt lat="47.22681" lon="6.03436">
        <ele>332</ele>
        <time>2015-05-10T11:37:10.790Z</time>
      </trkpt>
      <trkpt lat="47.22685" lon="6.03443">
        <ele>332</ele>
        <time>2015-05-10T11:37:14.990Z</time>
      </trkpt>
      <trkpt lat="47.2269" lon="6.03451">
        <ele>332</ele>
        <time>2015-05-10T11:37:19.790Z</time>
      </trkpt>
      <trkpt lat="47.22694" lon="6.03461">
        <ele>332</ele>
        <time>2015-05-10T11:37:25.790Z</time>
      </trkpt>
      <trkpt lat="47.227" lon="6.03472">
        <ele>334</ele>
        <time>2015-05-10T11:37:30.790Z</time>
      </trkpt>
      <trkpt lat="47.22706" lon="6.03484">
        <ele>334</ele>
        <time>2015-05-10T11:37:34.790Z</time>
      </trkpt>
      <trkpt lat="47.22711" lon="6.03496">
        <ele>335</ele>
        <time>2015-05-10T11:37:38.790Z</time>
      </trkpt>
      <trkpt lat="47.22717" lon="6.0351">
        <ele>336</ele>
        <time>2015-05-10T11:37:43.790Z</time>
      </trkpt>
      <trkpt lat="47.22723" lon="6.03523">
        <ele>336.2</ele>
        <time>2015-05-10T11:37:47.990Z</time>
      </trkpt>
      <trkpt lat="47.22729" lon="6.03535">
        <ele>338.2</ele>
        <time>2015-05-10T11:37:51.990Z</time>
      </trkpt>
      <trkpt lat="47.22736" lon="6.03547">
        <ele>340</ele>
        <time>2015-05-10T11:37:56.990Z</time>
      </trkpt>
      <trkpt lat="47.22745" lon="6.03558">
        <ele>342</ele>
        <time>2015-05-10T11:38:01.990Z</time>
      </trkpt>
      <trkpt lat="47.22754" lon="6.03565">
        <ele>344.2</ele>
        <time>2015-05-10T11:38:06.990Z</time>
      </trkpt>
      <trkpt lat="47.22765" lon="6.03565">
        <ele>347.2</ele>
        <time>2015-05-10T11:38:12.990Z</time>
      </trkpt>
      <trkpt lat="47.22777" lon="6.03568">
        <ele>349</ele>
        <time>2015-05-10T11:38:18.990Z</time>
      </trkpt>
      <trkpt lat="47.22779" lon="6.03553">
        <ele>349</ele>
        <time>2015-05-10T11:38:26.990Z</time>
      </trkpt>
      <trkpt lat="47.22774" lon="6.03537">
        <ele>350</ele>
        <time>2015-05-10T11:38:30.990Z</time>
      </trkpt>
      <trkpt lat="47.22776" lon="6.03522">
        <ele>354</ele>
        <time>2015-05-10T11:38:34.990Z</time>
      </trkpt>
      <trkpt lat="47.22783" lon="6.03511">
        <ele>356</ele>
        <time>2015-05-10T11:38:40.790Z</time>
      </trkpt>
      <trkpt lat="47.22794" lon="6.03515">
        <ele>356</ele>
        <time>2015-05-10T11:38:50.790Z</time>
      </trkpt>
      <trkpt lat="47.22803" lon="6.0352">
        <ele>357</ele>
        <time>2015-05-10T11:38:55.990Z</time>
      </trkpt>
      <trkpt lat="47.22815" lon="6.03519">
        <ele>360.19802042937</ele>
        <time>2015-05-10T11:39:00.990Z</time>
      </trkpt>
      <trkpt lat="47.22826" lon="6.03515">
        <ele>363.39604085874</ele>
        <time>2015-05-10T11:39:03.990Z</time>
      </trkpt>
      <trkpt lat="47.22834" lon="6.03505">
        <ele>366</ele>
        <time>2015-05-10T11:39:07.800Z</time>
      </trkpt>
      <trkpt lat="47.22844" lon="6.03495">
        <ele>366</ele>
        <time>2015-05-10T11:39:12.990Z</time>
      </trkpt>
      <trkpt lat="47.22861" lon="6.03483">
        <ele>366.35897435897</ele>
        <time>2015-05-10T11:39:23.790Z</time>
      </trkpt>
      <trkpt lat="47.22871" lon="6.03495">
        <ele>366</ele>
        <time>2015-05-10T11:39:28.790Z</time>
      </trkpt>
      <trkpt lat="47.22878" lon="6.03506">
        <ele>365.9900032</ele>
        <time>2015-05-10T11:39:32.790Z</time>
      </trkpt>
      <trkpt lat="47.22888" lon="6.03517">
        <ele>367</ele>
        <time>2015-05-10T11:39:36.790Z</time>
      </trkpt>
      <trkpt lat="47.22899" lon="6.03508">
        <ele>371.2</ele>
        <time>2015-05-10T11:39:42.990Z</time>
      </trkpt>
      <trkpt lat="47.22909" lon="6.03498">
        <ele>374.2</ele>
        <time>2015-05-10T11:39:46.990Z</time>
      </trkpt>
      <trkpt lat="47.22921" lon="6.03482">
        <ele>375.99010214686</ele>
        <time>2015-05-10T11:39:51.790Z</time>
      </trkpt>
      <trkpt lat="47.22932" lon="6.03471">
        <ele>375</ele>
        <time>2015-05-10T11:39:55.790Z</time>
      </trkpt>
      <trkpt lat="47.2294" lon="6.03462">
        <ele>375</ele>
        <time>2015-05-10T11:39:58.990Z</time>
      </trkpt>
      <trkpt lat="47.22949" lon="6.03455">
        <ele>374</ele>
        <time>2015-05-10T11:40:01.790Z</time>
      </trkpt>
      <trkpt lat="47.22961" lon="6.03448">
        <ele>375</ele>
        <time>2015-05-10T11:40:05.790Z</time>
      </trkpt>
      <trkpt lat="47.22972" lon="6.03443">
        <ele>375</ele>
        <time>2015-05-10T11:40:09.790Z</time>
      </trkpt>
      <trkpt lat="47.22994" lon="6.03427">
        <ele>373.71794871795</ele>
        <time>2015-05-10T11:40:17.790Z</time>
      </trkpt>
      <trkpt lat="47.23007" lon="6.03414">
        <ele>371.98990225486</ele>
        <time>2015-05-10T11:40:21.810Z</time>
      </trkpt>
      <trkpt lat="47.23016" lon="6.03405">
        <ele>370</ele>
        <time>2015-05-10T11:40:24.990Z</time>
      </trkpt>
      <trkpt lat="47.23024" lon="6.0339">
        <ele>369</ele>
        <time>2015-05-10T11:40:28.990Z</time>
      </trkpt>
      <trkpt lat="47.23029" lon="6.03372">
        <ele>368</ele>
        <time>2015-05-10T11:40:32.990Z</time>
      </trkpt>
      <trkpt lat="47.23032" lon="6.03359">
        <ele>368</ele>
        <time>2015-05-10T11:40:35.990Z</time>
      </trkpt>
      <trkpt lat="47.23035" lon="6.03342">
        <ele>368.2</ele>
        <time>2015-05-10T11:40:38.990Z</time>
      </trkpt>
      <trkpt lat="47.23038" lon="6.03326">
        <ele>368.8</ele>
        <time>2015-05-10T11:40:41.990Z</time>
      </trkpt>
      <trkpt lat="47.23042" lon="6.03308">
        <ele>367</ele>
        <time>2015-05-10T11:40:44.990Z</time>
      </trkpt>
      <trkpt lat="47.2305" lon="6.0329">
        <ele>367</ele>
        <time>2015-05-10T11:40:47.990Z</time>
      </trkpt>
      <trkpt lat="47.23059" lon="6.03274">
        <ele>365.8</ele>
        <time>2015-05-10T11:40:50.990Z</time>
      </trkpt>
      <trkpt lat="47.23066" lon="6.03262">
        <ele>364.8</ele>
        <time>2015-05-10T11:40:52.990Z</time>
      </trkpt>
      <trkpt lat="47.23073" lon="6.03248">
        <ele>362.8</ele>
        <time>2015-05-10T11:40:54.990Z</time>
      </trkpt>
      <trkpt lat="47.23081" lon="6.03235">
        <ele>361.8</ele>
        <time>2015-05-10T11:40:56.990Z</time>
      </trkpt>
      <trkpt lat="47.23089" lon="6.03225">
        <ele>359.6875</ele>
        <time>2015-05-10T11:40:58.990Z</time>
      </trkpt>
      <trkpt lat="47.23099" lon="6.03216">
        <ele>355.97223111111</ele>
        <time>2015-05-10T11:41:01.090Z</time>
      </trkpt>
      <trkpt lat="47.2311" lon="6.03208">
        <ele>353.90909443525</ele>
        <time>2015-05-10T11:41:02.890Z</time>
      </trkpt>
      <trkpt lat="47.23121" lon="6.032">
        <ele>352.98990225486</ele>
        <time>2015-05-10T11:41:05.080Z</time>
      </trkpt>
      <trkpt lat="47.2313" lon="6.03194">
        <ele>351.9000064</ele>
        <time>2015-05-10T11:41:06.890Z</time>
      </trkpt>
      <trkpt lat="47.23139" lon="6.03187">
        <ele>351</ele>
        <time>2015-05-10T11:41:08.890Z</time>
      </trkpt>
      <trkpt lat="47.23151" lon="6.03179">
        <ele>350</ele>
        <time>2015-05-10T11:41:11.890Z</time>
      </trkpt>
      <trkpt lat="47.2318" lon="6.03171">
        <ele>350</ele>
        <time>2015-05-10T11:41:17.890Z</time>
      </trkpt>
      <trkpt lat="47.23191" lon="6.03168">
        <ele>349</ele>
        <time>2015-05-10T11:41:20.890Z</time>
      </trkpt>
      <trkpt lat="47.23202" lon="6.03171">
        <ele>347.9000064</ele>
        <time>2015-05-10T11:41:23.890Z</time>
      </trkpt>
      <trkpt lat="47.23209" lon="6.03184">
        <ele>345.9000064</ele>
        <time>2015-05-10T11:41:26.890Z</time>
      </trkpt>
      <trkpt lat="47.2321" lon="6.03199">
        <ele>344</ele>
        <time>2015-05-10T11:41:29.890Z</time>
      </trkpt>
      <trkpt lat="47.23215" lon="6.03214">
        <ele>343</ele>
        <time>2015-05-10T11:41:32.890Z</time>
      </trkpt>
      <trkpt lat="47.23225" lon="6.0322">
        <ele>340</ele>
        <time>2015-05-10T11:41:37.890Z</time>
      </trkpt>
      <trkpt lat="47.23236" lon="6.03219">
        <ele>338.9000064</ele>
        <time>2015-05-10T11:41:41.890Z</time>
      </trkpt>
      <trkpt lat="47.23245" lon="6.03222">
        <ele>337</ele>
        <time>2015-05-10T11:41:46.890Z</time>
      </trkpt>
      <trkpt lat="47.23256" lon="6.03225">
        <ele>336.9000064</ele>
        <time>2015-05-10T11:41:51.890Z</time>
      </trkpt>
      <trkpt lat="47.23267" lon="6.03231">
        <ele>334.90909443525</ele>
        <time>2015-05-10T11:41:56.890Z</time>
      </trkpt>
      <trkpt lat="47.23279" lon="6.03233">
        <ele>333</ele>
        <time>2015-05-10T11:42:02.890Z</time>
      </trkpt>
      <trkpt lat="47.2329" lon="6.03234">
        <ele>330.9000064</ele>
        <time>2015-05-10T11:42:07.890Z</time>
      </trkpt>
      <trkpt lat="47.23302" lon="6.03239">
        <ele>327.9000064</ele>
        <time>2015-05-10T11:42:11.890Z</time>
      </trkpt>
      <trkpt lat="47.23311" lon="6.03247">
        <ele>327</ele>
        <time>2015-05-10T11:42:13.890Z</time>
      </trkpt>
      <trkpt lat="47.23322" lon="6.0326">
        <ele>326</ele>
        <time>2015-05-10T11:42:16.890Z</time>
      </trkpt>
      <trkpt lat="47.2333" lon="6.0327">
        <ele>325</ele>
        <time>2015-05-10T11:42:18.890Z</time>
      </trkpt>
      <trkpt lat="47.23337" lon="6.03282">
        <ele>322.9000064</ele>
        <time>2015-05-10T11:42:22.890Z</time>
      </trkpt>
      <trkpt lat="47.23347" lon="6.03277">
        <ele>317</ele>
        <time>2015-05-10T11:42:29.890Z</time>
      </trkpt>
      <trkpt lat="47.23357" lon="6.03276">
        <ele>313</ele>
        <time>2015-05-10T11:42:35.890Z</time>
      </trkpt>
      <trkpt lat="47.23366" lon="6.03285">
        <ele>311</ele>
        <time>2015-05-10T11:42:42.890Z</time>
      </trkpt>
      <trkpt lat="47.23376" lon="6.03291">
        <ele>308.9000064</ele>
        <time>2015-05-10T11:42:52.890Z</time>
      </trkpt>
      <trkpt lat="47.23385" lon="6.03297">
        <ele>305</ele>
        <time>2015-05-10T11:43:02.890Z</time>
      </trkpt>
      <trkpt lat="47.23395" lon="6.033">
        <ele>302.9000064</ele>
        <time>2015-05-10T11:43:09.890Z</time>
      </trkpt>
      <trkpt lat="47.23406" lon="6.03298">
        <ele>297.9000064</ele>
        <time>2015-05-10T11:43:18.890Z</time>
      </trkpt>
      <trkpt lat="47.23413" lon="6.03309">
        <ele>290.9000064</ele>
        <time>2015-05-10T11:43:28.890Z</time>
      </trkpt>
      <trkpt lat="47.23415" lon="6.03325">
        <ele>285.0099968</ele>
        <time>2015-05-10T11:43:34.790Z</time>
      </trkpt>
      <trkpt lat="47.23422" lon="6.03337">
        <ele>282.84</ele>
        <time>2015-05-10T11:43:45.990Z</time>
      </trkpt>
      <trkpt lat="47.23414" lon="6.03348">
        <ele>282</ele>
        <time>2015-05-10T11:43:51.990Z</time>
      </trkpt>
      <trkpt lat="47.23407" lon="6.03359">
        <ele>283</ele>
        <time>2015-05-10T11:43:54.790Z</time>
      </trkpt>
      <trkpt lat="47.23396" lon="6.03368">
        <ele>282.84</ele>
        <time>2015-05-10T11:43:58.990Z</time>
      </trkpt>
      <trkpt lat="47.23386" lon="6.03375">
        <ele>280.84</ele>
        <time>2015-05-10T11:44:01.990Z</time>
      </trkpt>
      <trkpt lat="47.23376" lon="6.03381">
        <ele>279.84</ele>
        <time>2015-05-10T11:44:04.990Z</time>
      </trkpt>
      <trkpt lat="47.23367" lon="6.03388">
        <ele>278.84</ele>
        <time>2015-05-10T11:44:07.990Z</time>
      </trkpt>
      <trkpt lat="47.23357" lon="6.03395">
        <ele>278</ele>
        <time>2015-05-10T11:44:10.990Z</time>
      </trkpt>
      <trkpt lat="47.23347" lon="6.03405">
        <ele>276.84</ele>
        <time>2015-05-10T11:44:14.990Z</time>
      </trkpt>
      <trkpt lat="47.23336" lon="6.03415">
        <ele>275.84</ele>
        <time>2015-05-10T11:44:18.990Z</time>
      </trkpt>
      <trkpt lat="47.23326" lon="6.03425">
        <ele>274</ele>
        <time>2015-05-10T11:44:22.990Z</time>
      </trkpt>
      <trkpt lat="47.23321" lon="6.03439">
        <ele>272.84</ele>
        <time>2015-05-10T11:44:26.990Z</time>
      </trkpt>
      <trkpt lat="47.23329" lon="6.03457">
        <ele>271</ele>
        <time>2015-05-10T11:44:30.990Z</time>
      </trkpt>
      <trkpt lat="47.23336" lon="6.03472">
        <ele>269</ele>
        <time>2015-05-10T11:44:33.990Z</time>
      </trkpt>
      <trkpt lat="47.23354" lon="6.03514">
        <ele>268.76564</ele>
        <time>2015-05-10T11:44:43.890Z</time>
      </trkpt>
      <trkpt lat="47.23359" lon="6.03527">
        <ele>262.9000064</ele>
        <time>2015-05-10T11:44:48.890Z</time>
      </trkpt>
      <trkpt lat="47.23371" lon="6.03525">
        <ele>261</ele>
        <time>2015-05-10T11:44:53.890Z</time>
      </trkpt>
      <trkpt lat="47.23382" lon="6.03517">
        <ele>259.9000064</ele>
        <time>2015-05-10T11:44:57.890Z</time>
      </trkpt>
      <trkpt lat="47.23393" lon="6.03508">
        <ele>255</ele>
        <time>2015-05-10T11:45:01.890Z</time>
      </trkpt>
      <trkpt lat="47.23403" lon="6.03501">
        <ele>253.9000064</ele>
        <time>2015-05-10T11:45:05.890Z</time>
      </trkpt>
      <trkpt lat="47.23414" lon="6.03494">
        <ele>253</ele>
        <time>2015-05-10T11:45:09.890Z</time>
      </trkpt>
      <trkpt lat="47.23425" lon="6.03487">
        <ele>253.0999936</ele>
        <time>2015-05-10T11:45:13.890Z</time>
      </trkpt>
      <trkpt lat="47.23437" lon="6.0348">
        <ele>255</ele>
        <time>2015-05-10T11:45:17.890Z</time>
      </trkpt>
      <trkpt lat="47.2345" lon="6.03484">
        <ele>255</ele>
        <time>2015-05-10T11:45:20.890Z</time>
      </trkpt>
      <trkpt lat="47.23452" lon="6.03499">
        <ele>255</ele>
        <time>2015-05-10T11:45:24.890Z</time>
      </trkpt>
      <trkpt lat="47.23447" lon="6.03514">
        <ele>255.1100032</ele>
        <time>2015-05-10T11:45:27.900Z</time>
      </trkpt>
      <trkpt lat="47.23441" lon="6.03528">
        <ele>256</ele>
        <time>2015-05-10T11:45:30.900Z</time>
      </trkpt>
      <trkpt lat="47.23435" lon="6.0354">
        <ele>256</ele>
        <time>2015-05-10T11:45:33.900Z</time>
      </trkpt>
      <trkpt lat="47.23429" lon="6.03552">
        <ele>256.0999936</ele>
        <time>2015-05-10T11:45:36.890Z</time>
      </trkpt>
      <trkpt lat="47.23423" lon="6.03568">
        <ele>256.9000064</ele>
        <time>2015-05-10T11:45:40.890Z</time>
      </trkpt>
      <trkpt lat="47.23416" lon="6.0358">
        <ele>256</ele>
        <time>2015-05-10T11:45:43.890Z</time>
      </trkpt>
      <trkpt lat="47.23409" lon="6.03597">
        <ele>256</ele>
        <time>2015-05-10T11:45:47.990Z</time>
      </trkpt>
      <trkpt lat="47.23404" lon="6.03609">
        <ele>257</ele>
        <time>2015-05-10T11:45:50.990Z</time>
      </trkpt>
      <trkpt lat="47.23398" lon="6.03622">
        <ele>257</ele>
        <time>2015-05-10T11:45:53.990Z</time>
      </trkpt>
      <trkpt lat="47.23391" lon="6.03636">
        <ele>257.2</ele>
        <time>2015-05-10T11:45:56.990Z</time>
      </trkpt>
      <trkpt lat="47.23384" lon="6.03648">
        <ele>257</ele>
        <time>2015-05-10T11:45:59.990Z</time>
      </trkpt>
      <trkpt lat="47.23378" lon="6.03663">
        <ele>257</ele>
        <time>2015-05-10T11:46:03.990Z</time>
      </trkpt>
      <trkpt lat="47.23368" lon="6.03672">
        <ele>257</ele>
        <time>2015-05-10T11:46:07.990Z</time>
      </trkpt>
      <trkpt lat="47.23357" lon="6.03672">
        <ele>257.2</ele>
        <time>2015-05-10T11:46:10.990Z</time>
      </trkpt>
      <trkpt lat="47.23344" lon="6.03673">
        <ele>258</ele>
        <time>2015-05-10T11:46:14.990Z</time>
      </trkpt>
      <trkpt lat="47.23334" lon="6.03676">
        <ele>258</ele>
        <time>2015-05-10T11:46:17.990Z</time>
      </trkpt>
      <trkpt lat="47.23323" lon="6.0368">
        <ele>258</ele>
        <time>2015-05-10T11:46:20.990Z</time>
      </trkpt>
      <trkpt lat="47.23311" lon="6.03685">
        <ele>258</ele>
        <time>2015-05-10T11:46:24.990Z</time>
      </trkpt>
      <trkpt lat="47.23301" lon="6.03691">
        <ele>258.2</ele>
        <time>2015-05-10T11:46:27.990Z</time>
      </trkpt>
      <trkpt lat="47.23289" lon="6.03698">
        <ele>258.10448188904</ele>
        <time>2015-05-10T11:46:32.190Z</time>
      </trkpt>
      <trkpt lat="47.23278" lon="6.03703">
        <ele>259</ele>
        <time>2015-05-10T11:46:34.990Z</time>
      </trkpt>
      <trkpt lat="47.23267" lon="6.03708">
        <ele>259</ele>
        <time>2015-05-10T11:46:37.990Z</time>
      </trkpt>
      <trkpt lat="47.23256" lon="6.03716">
        <ele>260.2</ele>
        <time>2015-05-10T11:46:40.990Z</time>
      </trkpt>
      <trkpt lat="47.23247" lon="6.03726">
        <ele>263.2</ele>
        <time>2015-05-10T11:46:43.990Z</time>
      </trkpt>
      <trkpt lat="47.23238" lon="6.03731">
        <ele>264</ele>
        <time>2015-05-10T11:46:46.990Z</time>
      </trkpt>
      <trkpt lat="47.23226" lon="6.03735">
        <ele>264</ele>
        <time>2015-05-10T11:46:50.990Z</time>
      </trkpt>
      <trkpt lat="47.23214" lon="6.0374">
        <ele>264</ele>
        <time>2015-05-10T11:46:54.990Z</time>
      </trkpt>
      <trkpt lat="47.23202" lon="6.03744">
        <ele>264</ele>
        <time>2015-05-10T11:46:58.990Z</time>
      </trkpt>
      <trkpt lat="47.23191" lon="6.03747">
        <ele>264</ele>
        <time>2015-05-10T11:47:01.990Z</time>
      </trkpt>
      <trkpt lat="47.23181" lon="6.03753">
        <ele>263</ele>
        <time>2015-05-10T11:47:04.990Z</time>
      </trkpt>
      <trkpt lat="47.2317" lon="6.03761">
        <ele>263</ele>
        <time>2015-05-10T11:47:07.990Z</time>
      </trkpt>
      <trkpt lat="47.23158" lon="6.03765">
        <ele>263</ele>
        <time>2015-05-10T11:47:10.990Z</time>
      </trkpt>
      <trkpt lat="47.23145" lon="6.0377">
        <ele>262.8</ele>
        <time>2015-05-10T11:47:13.990Z</time>
      </trkpt>
      <trkpt lat="47.23132" lon="6.03776">
        <ele>262</ele>
        <time>2015-05-10T11:47:16.990Z</time>
      </trkpt>
      <trkpt lat="47.23118" lon="6.03785">
        <ele>262</ele>
        <time>2015-05-10T11:47:19.990Z</time>
      </trkpt>
      <trkpt lat="47.23105" lon="6.03794">
        <ele>262</ele>
        <time>2015-05-10T11:47:22.990Z</time>
      </trkpt>
      <trkpt lat="47.23093" lon="6.03801">
        <ele>261.8</ele>
        <time>2015-05-10T11:47:25.990Z</time>
      </trkpt>
      <trkpt lat="47.23082" lon="6.03808">
        <ele>261</ele>
        <time>2015-05-10T11:47:28.990Z</time>
      </trkpt>
      <trkpt lat="47.23073" lon="6.03818">
        <ele>261</ele>
        <time>2015-05-10T11:47:31.990Z</time>
      </trkpt>
      <trkpt lat="47.23064" lon="6.03829">
        <ele>261</ele>
        <time>2015-05-10T11:47:34.810Z</time>
      </trkpt>
      <trkpt lat="47.23056" lon="6.03841">
        <ele>261</ele>
        <time>2015-05-10T11:47:37.800Z</time>
      </trkpt>
      <trkpt lat="47.23049" lon="6.03852">
        <ele>261</ele>
        <time>2015-05-10T11:47:40.990Z</time>
      </trkpt>
      <trkpt lat="47.23042" lon="6.03865">
        <ele>262</ele>
        <time>2015-05-10T11:47:43.990Z</time>
      </trkpt>
      <trkpt lat="47.23035" lon="6.03877">
        <ele>261</ele>
        <time>2015-05-10T11:47:46.990Z</time>
      </trkpt>
      <trkpt lat="47.23028" lon="6.03889">
        <ele>261</ele>
        <time>2015-05-10T11:47:49.990Z</time>
      </trkpt>
      <trkpt lat="47.23029" lon="6.03908">
        <ele>261</ele>
        <time>2015-05-10T11:47:53.890Z</time>
      </trkpt>
      <trkpt lat="47.23038" lon="6.03921">
        <ele>259.9000064</ele>
        <time>2015-05-10T11:47:56.890Z</time>
      </trkpt>
      <trkpt lat="47.23045" lon="6.03936">
        <ele>258.0999936</ele>
        <time>2015-05-10T11:48:00.890Z</time>
      </trkpt>
      <trkpt lat="47.23043" lon="6.0395">
        <ele>257</ele>
        <time>2015-05-10T11:48:10.890Z</time>
      </trkpt>
      <trkpt lat="47.23042" lon="6.0395">
        <ele>257</ele>
        <time>2015-05-10T11:48:15.990Z</time>
      </trkpt>
      <trkpt lat="47.23032" lon="6.0395">
        <ele>253</ele>
        <time>2015-05-10T11:48:45.270Z</time>
      </trkpt>
      <trkpt lat="47.23024" lon="6.03957">
        <ele>250</ele>
        <time>2015-05-10T11:48:54.990Z</time>
      </trkpt>
      <trkpt lat="47.23023" lon="6.03958">
        <ele>250</ele>
        <time>2015-05-10T11:48:59.260Z</time>
      </trkpt>
    </trkseg>
  </trk>
</gpx>